<?xml version="1.0" encoding="UTF-8" standalone="no" ?>
<gpx xmlns="http://www.topografix.com/GPX/1/1" xmlns:xsi="http://www.w3.org/2001/XMLSchema-instance" xsi:schemaLocation="http://www.topografix.com/GPX/1/1 http://www.topografix.com/GPX/1/1/gpx.xsd" version="1.1" creator="VisuGPX - https://www.visugpx.com">
  <metadata>
    <name>Pornichet 21/03/2021</name>
    <desc><![CDATA[Sortie vtt du dimanche 21 mars 2021]]></desc>
  </metadata>
  <trk>
    <name><![CDATA[Pornichet Cyclisme]]></name>
    <trkseg>
      <trkpt lat="47.26358" lon="-2.31559">
        <ele>7.9</ele>
        <time>2021-03-21T08:19:29.000Z</time>
      </trkpt>
      <trkpt lat="47.26363" lon="-2.31586">
        <ele>8.1</ele>
        <time>2021-03-21T08:19:33.000Z</time>
      </trkpt>
      <trkpt lat="47.26363" lon="-2.31592">
        <ele>-0.40000000596046</ele>
        <time>2021-03-21T08:19:34.000Z</time>
      </trkpt>
      <trkpt lat="47.26365" lon="-2.31604">
        <ele>-0.40000000596046</ele>
        <time>2021-03-21T08:19:36.000Z</time>
      </trkpt>
      <trkpt lat="47.26367" lon="-2.31638">
        <ele>-0.40000000596046</ele>
        <time>2021-03-21T08:19:42.000Z</time>
      </trkpt>
      <trkpt lat="47.26371" lon="-2.3167">
        <ele>-0.40000000596046</ele>
        <time>2021-03-21T08:19:48.000Z</time>
      </trkpt>
      <trkpt lat="47.26361" lon="-2.31679">
        <ele>-0.40000000596046</ele>
        <time>2021-03-21T08:19:51.000Z</time>
      </trkpt>
      <trkpt lat="47.26358" lon="-2.3168">
        <ele>-0.40000000596046</ele>
        <time>2021-03-21T08:19:52.000Z</time>
      </trkpt>
      <trkpt lat="47.26337" lon="-2.31692">
        <ele>-0.40000000596046</ele>
        <time>2021-03-21T08:19:57.000Z</time>
      </trkpt>
      <trkpt lat="47.26333" lon="-2.31695">
        <ele>-0.40000000596046</ele>
        <time>2021-03-21T08:19:58.000Z</time>
      </trkpt>
      <trkpt lat="47.26324" lon="-2.317">
        <ele>-0.80000001192093</ele>
        <time>2021-03-21T08:20:00.000Z</time>
      </trkpt>
      <trkpt lat="47.26319" lon="-2.31703">
        <ele>-1.2000000476837</ele>
        <time>2021-03-21T08:20:01.000Z</time>
      </trkpt>
      <trkpt lat="47.26314" lon="-2.31706">
        <ele>-1.6000000238419</ele>
        <time>2021-03-21T08:20:02.000Z</time>
      </trkpt>
      <trkpt lat="47.26309" lon="-2.31708">
        <ele>-2</ele>
        <time>2021-03-21T08:20:03.000Z</time>
      </trkpt>
      <trkpt lat="47.26303" lon="-2.31711">
        <ele>-2.4000000953674</ele>
        <time>2021-03-21T08:20:04.000Z</time>
      </trkpt>
      <trkpt lat="47.26299" lon="-2.31713">
        <ele>-2.4000000953674</ele>
        <time>2021-03-21T08:20:05.000Z</time>
      </trkpt>
      <trkpt lat="47.26285" lon="-2.3172">
        <ele>-2.4000000953674</ele>
        <time>2021-03-21T08:20:08.000Z</time>
      </trkpt>
      <trkpt lat="47.26277" lon="-2.31724">
        <ele>-2.4000000953674</ele>
        <time>2021-03-21T08:20:10.000Z</time>
      </trkpt>
      <trkpt lat="47.26273" lon="-2.31727">
        <ele>-2.7999999523163</ele>
        <time>2021-03-21T08:20:11.000Z</time>
      </trkpt>
      <trkpt lat="47.2627" lon="-2.31732">
        <ele>-3.4000000953674</ele>
        <time>2021-03-21T08:20:12.000Z</time>
      </trkpt>
      <trkpt lat="47.26268" lon="-2.31739">
        <ele>-3.7999999523163</ele>
        <time>2021-03-21T08:20:13.000Z</time>
      </trkpt>
      <trkpt lat="47.26268" lon="-2.31745">
        <ele>-4.1999998092651</ele>
        <time>2021-03-21T08:20:14.000Z</time>
      </trkpt>
      <trkpt lat="47.26269" lon="-2.3175">
        <ele>-4.5999999046326</ele>
        <time>2021-03-21T08:20:15.000Z</time>
      </trkpt>
      <trkpt lat="47.26272" lon="-2.31786">
        <ele>-4.5999999046326</ele>
        <time>2021-03-21T08:20:21.000Z</time>
      </trkpt>
      <trkpt lat="47.26272" lon="-2.31806">
        <ele>-4.5999999046326</ele>
        <time>2021-03-21T08:20:25.000Z</time>
      </trkpt>
      <trkpt lat="47.26271" lon="-2.31835">
        <ele>-4.5999999046326</ele>
        <time>2021-03-21T08:20:31.000Z</time>
      </trkpt>
      <trkpt lat="47.26271" lon="-2.31846">
        <ele>-4.5999999046326</ele>
        <time>2021-03-21T08:20:33.000Z</time>
      </trkpt>
      <trkpt lat="47.26271" lon="-2.31863">
        <ele>-4.5999999046326</ele>
        <time>2021-03-21T08:20:36.000Z</time>
      </trkpt>
      <trkpt lat="47.26272" lon="-2.31887">
        <ele>-4.5999999046326</ele>
        <time>2021-03-21T08:20:41.000Z</time>
      </trkpt>
      <trkpt lat="47.26266" lon="-2.31896">
        <ele>-4.5999999046326</ele>
        <time>2021-03-21T08:20:44.000Z</time>
      </trkpt>
      <trkpt lat="47.26264" lon="-2.31899">
        <ele>-4.5999999046326</ele>
        <time>2021-03-21T08:20:45.000Z</time>
      </trkpt>
      <trkpt lat="47.26261" lon="-2.31901">
        <ele>-5</ele>
        <time>2021-03-21T08:20:46.000Z</time>
      </trkpt>
      <trkpt lat="47.26259" lon="-2.31903">
        <ele>-5.4000000953674</ele>
        <time>2021-03-21T08:20:47.000Z</time>
      </trkpt>
      <trkpt lat="47.26257" lon="-2.31907">
        <ele>-5.8000001907349</ele>
        <time>2021-03-21T08:20:48.000Z</time>
      </trkpt>
      <trkpt lat="47.26255" lon="-2.31911">
        <ele>-6.1999998092651</ele>
        <time>2021-03-21T08:20:49.000Z</time>
      </trkpt>
      <trkpt lat="47.26253" lon="-2.31915">
        <ele>-6.5999999046326</ele>
        <time>2021-03-21T08:20:50.000Z</time>
      </trkpt>
      <trkpt lat="47.2624" lon="-2.31939">
        <ele>-6.5999999046326</ele>
        <time>2021-03-21T08:20:56.000Z</time>
      </trkpt>
      <trkpt lat="47.26229" lon="-2.31965">
        <ele>-6.5999999046326</ele>
        <time>2021-03-21T08:21:02.000Z</time>
      </trkpt>
      <trkpt lat="47.26222" lon="-2.31972">
        <ele>-6.5999999046326</ele>
        <time>2021-03-21T08:21:06.000Z</time>
      </trkpt>
      <trkpt lat="47.26219" lon="-2.31972">
        <ele>-6.5999999046326</ele>
        <time>2021-03-21T08:21:07.000Z</time>
      </trkpt>
      <trkpt lat="47.26206" lon="-2.3198">
        <ele>-6.5999999046326</ele>
        <time>2021-03-21T08:21:11.000Z</time>
      </trkpt>
      <trkpt lat="47.26192" lon="-2.31995">
        <ele>-6.5999999046326</ele>
        <time>2021-03-21T08:21:16.000Z</time>
      </trkpt>
      <trkpt lat="47.26184" lon="-2.31999">
        <ele>-6.5999999046326</ele>
        <time>2021-03-21T08:21:19.000Z</time>
      </trkpt>
      <trkpt lat="47.26183" lon="-2.32003">
        <ele>-6.5999999046326</ele>
        <time>2021-03-21T08:21:20.000Z</time>
      </trkpt>
      <trkpt lat="47.26178" lon="-2.3202">
        <ele>-6.5999999046326</ele>
        <time>2021-03-21T08:21:25.000Z</time>
      </trkpt>
      <trkpt lat="47.26169" lon="-2.3202">
        <ele>-6.5999999046326</ele>
        <time>2021-03-21T08:21:29.000Z</time>
      </trkpt>
      <trkpt lat="47.2615" lon="-2.32025">
        <ele>-6.5999999046326</ele>
        <time>2021-03-21T08:21:35.000Z</time>
      </trkpt>
      <trkpt lat="47.26138" lon="-2.32041">
        <ele>-6.5999999046326</ele>
        <time>2021-03-21T08:21:39.000Z</time>
      </trkpt>
      <trkpt lat="47.26132" lon="-2.32059">
        <ele>-6.5999999046326</ele>
        <time>2021-03-21T08:21:42.000Z</time>
      </trkpt>
      <trkpt lat="47.26124" lon="-2.32082">
        <ele>-6.5999999046326</ele>
        <time>2021-03-21T08:21:46.000Z</time>
      </trkpt>
      <trkpt lat="47.26112" lon="-2.32124">
        <ele>-6.5999999046326</ele>
        <time>2021-03-21T08:21:53.000Z</time>
      </trkpt>
      <trkpt lat="47.26102" lon="-2.32153">
        <ele>-6.5999999046326</ele>
        <time>2021-03-21T08:21:58.000Z</time>
      </trkpt>
      <trkpt lat="47.26099" lon="-2.32165">
        <ele>-6.5999999046326</ele>
        <time>2021-03-21T08:22:00.000Z</time>
      </trkpt>
      <trkpt lat="47.26086" lon="-2.32191">
        <ele>-6.5999999046326</ele>
        <time>2021-03-21T08:22:05.000Z</time>
      </trkpt>
      <trkpt lat="47.26082" lon="-2.32202">
        <ele>-6.5999999046326</ele>
        <time>2021-03-21T08:22:07.000Z</time>
      </trkpt>
      <trkpt lat="47.26073" lon="-2.32217">
        <ele>-6.5999999046326</ele>
        <time>2021-03-21T08:22:10.000Z</time>
      </trkpt>
      <trkpt lat="47.26057" lon="-2.3224">
        <ele>-6.5999999046326</ele>
        <time>2021-03-21T08:22:15.000Z</time>
      </trkpt>
      <trkpt lat="47.26047" lon="-2.32251">
        <ele>-6.5999999046326</ele>
        <time>2021-03-21T08:22:18.000Z</time>
      </trkpt>
      <trkpt lat="47.26023" lon="-2.32279">
        <ele>-6.5999999046326</ele>
        <time>2021-03-21T08:22:25.000Z</time>
      </trkpt>
      <trkpt lat="47.25995" lon="-2.32315">
        <ele>-6.5999999046326</ele>
        <time>2021-03-21T08:22:33.000Z</time>
      </trkpt>
      <trkpt lat="47.25985" lon="-2.32329">
        <ele>-6.5999999046326</ele>
        <time>2021-03-21T08:22:36.000Z</time>
      </trkpt>
      <trkpt lat="47.25975" lon="-2.32343">
        <ele>-6.5999999046326</ele>
        <time>2021-03-21T08:22:39.000Z</time>
      </trkpt>
      <trkpt lat="47.25946" lon="-2.32382">
        <ele>-6.5999999046326</ele>
        <time>2021-03-21T08:22:47.000Z</time>
      </trkpt>
      <trkpt lat="47.25925" lon="-2.3241">
        <ele>-6.5999999046326</ele>
        <time>2021-03-21T08:22:54.000Z</time>
      </trkpt>
      <trkpt lat="47.259" lon="-2.32443">
        <ele>-6.5999999046326</ele>
        <time>2021-03-21T08:23:03.000Z</time>
      </trkpt>
      <trkpt lat="47.25879" lon="-2.32473">
        <ele>-6.5999999046326</ele>
        <time>2021-03-21T08:23:11.000Z</time>
      </trkpt>
      <trkpt lat="47.25876" lon="-2.32476">
        <ele>-6.5999999046326</ele>
        <time>2021-03-21T08:23:12.000Z</time>
      </trkpt>
      <trkpt lat="47.25863" lon="-2.32486">
        <ele>-6.5999999046326</ele>
        <time>2021-03-21T08:23:16.000Z</time>
      </trkpt>
      <trkpt lat="47.25842" lon="-2.32488">
        <ele>-6.5999999046326</ele>
        <time>2021-03-21T08:23:21.000Z</time>
      </trkpt>
      <trkpt lat="47.25817" lon="-2.32482">
        <ele>-6.5999999046326</ele>
        <time>2021-03-21T08:23:27.000Z</time>
      </trkpt>
      <trkpt lat="47.25785" lon="-2.32468">
        <ele>-6.5999999046326</ele>
        <time>2021-03-21T08:23:35.000Z</time>
      </trkpt>
      <trkpt lat="47.25767" lon="-2.32467">
        <ele>-6.5999999046326</ele>
        <time>2021-03-21T08:23:40.000Z</time>
      </trkpt>
      <trkpt lat="47.25761" lon="-2.32461">
        <ele>-6.5999999046326</ele>
        <time>2021-03-21T08:23:42.000Z</time>
      </trkpt>
      <trkpt lat="47.25756" lon="-2.32452">
        <ele>-6.5999999046326</ele>
        <time>2021-03-21T08:23:44.000Z</time>
      </trkpt>
      <trkpt lat="47.25748" lon="-2.3244">
        <ele>-6.5999999046326</ele>
        <time>2021-03-21T08:23:47.000Z</time>
      </trkpt>
      <trkpt lat="47.25744" lon="-2.32438">
        <ele>-6.5999999046326</ele>
        <time>2021-03-21T08:23:48.000Z</time>
      </trkpt>
      <trkpt lat="47.25729" lon="-2.32438">
        <ele>-6.5999999046326</ele>
        <time>2021-03-21T08:23:51.000Z</time>
      </trkpt>
      <trkpt lat="47.2572" lon="-2.32437">
        <ele>-6.5999999046326</ele>
        <time>2021-03-21T08:23:53.000Z</time>
      </trkpt>
      <trkpt lat="47.25683" lon="-2.32436">
        <ele>-6.5999999046326</ele>
        <time>2021-03-21T08:24:01.000Z</time>
      </trkpt>
      <trkpt lat="47.25649" lon="-2.32435">
        <ele>-6.5999999046326</ele>
        <time>2021-03-21T08:24:09.000Z</time>
      </trkpt>
      <trkpt lat="47.25642" lon="-2.32449">
        <ele>-6.5999999046326</ele>
        <time>2021-03-21T08:24:12.000Z</time>
      </trkpt>
      <trkpt lat="47.25645" lon="-2.32473">
        <ele>-6.5999999046326</ele>
        <time>2021-03-21T08:24:16.000Z</time>
      </trkpt>
      <trkpt lat="47.25651" lon="-2.32494">
        <ele>-6.5999999046326</ele>
        <time>2021-03-21T08:24:20.000Z</time>
      </trkpt>
      <trkpt lat="47.2566" lon="-2.32519">
        <ele>-6.5999999046326</ele>
        <time>2021-03-21T08:24:25.000Z</time>
      </trkpt>
      <trkpt lat="47.25666" lon="-2.32534">
        <ele>-6.1999998092651</ele>
        <time>2021-03-21T08:24:28.000Z</time>
      </trkpt>
      <trkpt lat="47.25667" lon="-2.32539">
        <ele>-5.8000001907349</ele>
        <time>2021-03-21T08:24:29.000Z</time>
      </trkpt>
      <trkpt lat="47.25669" lon="-2.32544">
        <ele>-5.4000000953674</ele>
        <time>2021-03-21T08:24:30.000Z</time>
      </trkpt>
      <trkpt lat="47.2567" lon="-2.32549">
        <ele>-5</ele>
        <time>2021-03-21T08:24:31.000Z</time>
      </trkpt>
      <trkpt lat="47.25672" lon="-2.32554">
        <ele>-4.5999999046326</ele>
        <time>2021-03-21T08:24:32.000Z</time>
      </trkpt>
      <trkpt lat="47.25677" lon="-2.32568">
        <ele>-4.5999999046326</ele>
        <time>2021-03-21T08:24:35.000Z</time>
      </trkpt>
      <trkpt lat="47.2569" lon="-2.32605">
        <ele>-4.1999998092651</ele>
        <time>2021-03-21T08:24:43.000Z</time>
      </trkpt>
      <trkpt lat="47.25691" lon="-2.3261">
        <ele>-3.7999999523163</ele>
        <time>2021-03-21T08:24:44.000Z</time>
      </trkpt>
      <trkpt lat="47.25692" lon="-2.32614">
        <ele>-3.4000000953674</ele>
        <time>2021-03-21T08:24:45.000Z</time>
      </trkpt>
      <trkpt lat="47.25693" lon="-2.32617">
        <ele>-3</ele>
        <time>2021-03-21T08:24:46.000Z</time>
      </trkpt>
      <trkpt lat="47.25693" lon="-2.32621">
        <ele>-2.5999999046326</ele>
        <time>2021-03-21T08:24:47.000Z</time>
      </trkpt>
      <trkpt lat="47.25694" lon="-2.3263">
        <ele>-2.5999999046326</ele>
        <time>2021-03-21T08:24:50.000Z</time>
      </trkpt>
      <trkpt lat="47.25693" lon="-2.32633">
        <ele>-2.5999999046326</ele>
        <time>2021-03-21T08:24:51.000Z</time>
      </trkpt>
      <trkpt lat="47.25688" lon="-2.32636">
        <ele>-2.5999999046326</ele>
        <time>2021-03-21T08:24:53.000Z</time>
      </trkpt>
      <trkpt lat="47.25664" lon="-2.32646">
        <ele>-2.5999999046326</ele>
        <time>2021-03-21T08:25:00.000Z</time>
      </trkpt>
      <trkpt lat="47.25641" lon="-2.32657">
        <ele>-2.5999999046326</ele>
        <time>2021-03-21T08:25:07.000Z</time>
      </trkpt>
      <trkpt lat="47.25624" lon="-2.32666">
        <ele>-2.5999999046326</ele>
        <time>2021-03-21T08:25:12.000Z</time>
      </trkpt>
      <trkpt lat="47.2562" lon="-2.32667">
        <ele>-1.7999999523163</ele>
        <time>2021-03-21T08:25:13.000Z</time>
      </trkpt>
      <trkpt lat="47.25616" lon="-2.32667">
        <ele>-1.3999999761581</ele>
        <time>2021-03-21T08:25:14.000Z</time>
      </trkpt>
      <trkpt lat="47.25613" lon="-2.32668">
        <ele>-1</ele>
        <time>2021-03-21T08:25:15.000Z</time>
      </trkpt>
      <trkpt lat="47.2561" lon="-2.3267">
        <ele>-0.60000002384186</ele>
        <time>2021-03-21T08:25:16.000Z</time>
      </trkpt>
      <trkpt lat="47.25606" lon="-2.32672">
        <ele>-0.60000002384186</ele>
        <time>2021-03-21T08:25:17.000Z</time>
      </trkpt>
      <trkpt lat="47.25582" lon="-2.32683">
        <ele>-0.60000002384186</ele>
        <time>2021-03-21T08:25:24.000Z</time>
      </trkpt>
      <trkpt lat="47.25551" lon="-2.32694">
        <ele>-0.60000002384186</ele>
        <time>2021-03-21T08:25:32.000Z</time>
      </trkpt>
      <trkpt lat="47.25535" lon="-2.32701">
        <ele>-0.60000002384186</ele>
        <time>2021-03-21T08:25:36.000Z</time>
      </trkpt>
      <trkpt lat="47.25527" lon="-2.32706">
        <ele>-0.60000002384186</ele>
        <time>2021-03-21T08:25:38.000Z</time>
      </trkpt>
      <trkpt lat="47.25523" lon="-2.32707">
        <ele>-0.60000002384186</ele>
        <time>2021-03-21T08:25:39.000Z</time>
      </trkpt>
      <trkpt lat="47.255" lon="-2.32712">
        <ele>-0.60000002384186</ele>
        <time>2021-03-21T08:25:44.000Z</time>
      </trkpt>
      <trkpt lat="47.25491" lon="-2.32712">
        <ele>-0.60000002384186</ele>
        <time>2021-03-21T08:25:46.000Z</time>
      </trkpt>
      <trkpt lat="47.25474" lon="-2.32715">
        <ele>-0.60000002384186</ele>
        <time>2021-03-21T08:25:50.000Z</time>
      </trkpt>
      <trkpt lat="47.25466" lon="-2.32719">
        <ele>-0.60000002384186</ele>
        <time>2021-03-21T08:25:52.000Z</time>
      </trkpt>
      <trkpt lat="47.25456" lon="-2.32729">
        <ele>-0.60000002384186</ele>
        <time>2021-03-21T08:25:55.000Z</time>
      </trkpt>
      <trkpt lat="47.2545" lon="-2.32737">
        <ele>-0.60000002384186</ele>
        <time>2021-03-21T08:25:57.000Z</time>
      </trkpt>
      <trkpt lat="47.25447" lon="-2.3274">
        <ele>-0.60000002384186</ele>
        <time>2021-03-21T08:25:58.000Z</time>
      </trkpt>
      <trkpt lat="47.25432" lon="-2.32761">
        <ele>-0.60000002384186</ele>
        <time>2021-03-21T08:26:03.000Z</time>
      </trkpt>
      <trkpt lat="47.25425" lon="-2.32775">
        <ele>-0.60000002384186</ele>
        <time>2021-03-21T08:26:06.000Z</time>
      </trkpt>
      <trkpt lat="47.25419" lon="-2.3279">
        <ele>-0.60000002384186</ele>
        <time>2021-03-21T08:26:09.000Z</time>
      </trkpt>
      <trkpt lat="47.254" lon="-2.32821">
        <ele>-0.60000002384186</ele>
        <time>2021-03-21T08:26:15.000Z</time>
      </trkpt>
      <trkpt lat="47.25373" lon="-2.32855">
        <ele>-0.60000002384186</ele>
        <time>2021-03-21T08:26:22.000Z</time>
      </trkpt>
      <trkpt lat="47.25347" lon="-2.32882">
        <ele>-0.60000002384186</ele>
        <time>2021-03-21T08:26:29.000Z</time>
      </trkpt>
      <trkpt lat="47.25316" lon="-2.32911">
        <ele>-0.60000002384186</ele>
        <time>2021-03-21T08:26:37.000Z</time>
      </trkpt>
      <trkpt lat="47.25309" lon="-2.32919">
        <ele>-0.60000002384186</ele>
        <time>2021-03-21T08:26:39.000Z</time>
      </trkpt>
      <trkpt lat="47.25298" lon="-2.3293">
        <ele>-0.60000002384186</ele>
        <time>2021-03-21T08:26:42.000Z</time>
      </trkpt>
      <trkpt lat="47.25297" lon="-2.32936">
        <ele>-1</ele>
        <time>2021-03-21T08:26:43.000Z</time>
      </trkpt>
      <trkpt lat="47.25296" lon="-2.32943">
        <ele>-1.3999999761581</ele>
        <time>2021-03-21T08:26:44.000Z</time>
      </trkpt>
      <trkpt lat="47.25296" lon="-2.32949">
        <ele>-1.7999999523163</ele>
        <time>2021-03-21T08:26:45.000Z</time>
      </trkpt>
      <trkpt lat="47.25297" lon="-2.32955">
        <ele>-2.2000000476837</ele>
        <time>2021-03-21T08:26:46.000Z</time>
      </trkpt>
      <trkpt lat="47.25298" lon="-2.32961">
        <ele>-2.5999999046326</ele>
        <time>2021-03-21T08:26:47.000Z</time>
      </trkpt>
      <trkpt lat="47.25302" lon="-2.32972">
        <ele>-2.5999999046326</ele>
        <time>2021-03-21T08:26:49.000Z</time>
      </trkpt>
      <trkpt lat="47.25304" lon="-2.32978">
        <ele>-2.5999999046326</ele>
        <time>2021-03-21T08:26:50.000Z</time>
      </trkpt>
      <trkpt lat="47.2532" lon="-2.33024">
        <ele>-2.5999999046326</ele>
        <time>2021-03-21T08:26:58.000Z</time>
      </trkpt>
      <trkpt lat="47.25338" lon="-2.33062">
        <ele>-2.5999999046326</ele>
        <time>2021-03-21T08:27:05.000Z</time>
      </trkpt>
      <trkpt lat="47.25361" lon="-2.33107">
        <ele>-2.5999999046326</ele>
        <time>2021-03-21T08:27:14.000Z</time>
      </trkpt>
      <trkpt lat="47.25366" lon="-2.33118">
        <ele>-2.5999999046326</ele>
        <time>2021-03-21T08:27:18.000Z</time>
      </trkpt>
      <trkpt lat="47.25365" lon="-2.33119">
        <ele>-2.5999999046326</ele>
        <time>2021-03-21T08:27:19.000Z</time>
      </trkpt>
      <trkpt lat="47.25364" lon="-2.33119">
        <ele>-3</ele>
        <time>2021-03-21T08:27:21.000Z</time>
      </trkpt>
      <trkpt lat="47.25365" lon="-2.3312">
        <ele>-3.4000000953674</ele>
        <time>2021-03-21T08:27:22.000Z</time>
      </trkpt>
      <trkpt lat="47.25365" lon="-2.3312">
        <ele>-3.7999999523163</ele>
        <time>2021-03-21T08:27:23.000Z</time>
      </trkpt>
      <trkpt lat="47.25374" lon="-2.3312">
        <ele>-6.5999999046326</ele>
        <time>2021-03-21T08:35:18.000Z</time>
      </trkpt>
      <trkpt lat="47.25378" lon="-2.33124">
        <ele>-6.5999999046326</ele>
        <time>2021-03-21T08:35:21.000Z</time>
      </trkpt>
      <trkpt lat="47.25383" lon="-2.33133">
        <ele>-6.5999999046326</ele>
        <time>2021-03-21T08:35:25.000Z</time>
      </trkpt>
      <trkpt lat="47.25384" lon="-2.33136">
        <ele>-6.5999999046326</ele>
        <time>2021-03-21T08:35:26.000Z</time>
      </trkpt>
      <trkpt lat="47.2539" lon="-2.33137">
        <ele>-6.5999999046326</ele>
        <time>2021-03-21T08:35:28.000Z</time>
      </trkpt>
      <trkpt lat="47.25396" lon="-2.33136">
        <ele>-6.5999999046326</ele>
        <time>2021-03-21T08:35:30.000Z</time>
      </trkpt>
      <trkpt lat="47.25402" lon="-2.33131">
        <ele>-6.5999999046326</ele>
        <time>2021-03-21T08:35:32.000Z</time>
      </trkpt>
      <trkpt lat="47.25411" lon="-2.33126">
        <ele>-6.5999999046326</ele>
        <time>2021-03-21T08:35:35.000Z</time>
      </trkpt>
      <trkpt lat="47.25438" lon="-2.33115">
        <ele>-6.5999999046326</ele>
        <time>2021-03-21T08:35:42.000Z</time>
      </trkpt>
      <trkpt lat="47.25471" lon="-2.331">
        <ele>-6.5999999046326</ele>
        <time>2021-03-21T08:35:50.000Z</time>
      </trkpt>
      <trkpt lat="47.25489" lon="-2.33086">
        <ele>-6.5999999046326</ele>
        <time>2021-03-21T08:35:55.000Z</time>
      </trkpt>
      <trkpt lat="47.25509" lon="-2.33061">
        <ele>-6.5999999046326</ele>
        <time>2021-03-21T08:36:01.000Z</time>
      </trkpt>
      <trkpt lat="47.25529" lon="-2.33045">
        <ele>-6.5999999046326</ele>
        <time>2021-03-21T08:36:06.000Z</time>
      </trkpt>
      <trkpt lat="47.25533" lon="-2.33043">
        <ele>-6.5999999046326</ele>
        <time>2021-03-21T08:36:07.000Z</time>
      </trkpt>
      <trkpt lat="47.25543" lon="-2.33041">
        <ele>-6.5999999046326</ele>
        <time>2021-03-21T08:36:09.000Z</time>
      </trkpt>
      <trkpt lat="47.25561" lon="-2.33038">
        <ele>-6.5999999046326</ele>
        <time>2021-03-21T08:36:13.000Z</time>
      </trkpt>
      <trkpt lat="47.25598" lon="-2.3303">
        <ele>-6.1999998092651</ele>
        <time>2021-03-21T08:36:22.000Z</time>
      </trkpt>
      <trkpt lat="47.25602" lon="-2.33029">
        <ele>-5.8000001907349</ele>
        <time>2021-03-21T08:36:23.000Z</time>
      </trkpt>
      <trkpt lat="47.25606" lon="-2.33027">
        <ele>-5.4000000953674</ele>
        <time>2021-03-21T08:36:24.000Z</time>
      </trkpt>
      <trkpt lat="47.2561" lon="-2.33026">
        <ele>-5</ele>
        <time>2021-03-21T08:36:25.000Z</time>
      </trkpt>
      <trkpt lat="47.25613" lon="-2.33023">
        <ele>-4.5999999046326</ele>
        <time>2021-03-21T08:36:26.000Z</time>
      </trkpt>
      <trkpt lat="47.25618" lon="-2.33013">
        <ele>-4.5999999046326</ele>
        <time>2021-03-21T08:36:28.000Z</time>
      </trkpt>
      <trkpt lat="47.25617" lon="-2.32995">
        <ele>-4.5999999046326</ele>
        <time>2021-03-21T08:36:31.000Z</time>
      </trkpt>
      <trkpt lat="47.2561" lon="-2.3296">
        <ele>-4.5999999046326</ele>
        <time>2021-03-21T08:36:37.000Z</time>
      </trkpt>
      <trkpt lat="47.25609" lon="-2.32954">
        <ele>-4.5999999046326</ele>
        <time>2021-03-21T08:36:38.000Z</time>
      </trkpt>
      <trkpt lat="47.25603" lon="-2.32916">
        <ele>-3.7999999523163</ele>
        <time>2021-03-21T08:36:44.000Z</time>
      </trkpt>
      <trkpt lat="47.25602" lon="-2.3291">
        <ele>-3.4000000953674</ele>
        <time>2021-03-21T08:36:45.000Z</time>
      </trkpt>
      <trkpt lat="47.256" lon="-2.32903">
        <ele>-3</ele>
        <time>2021-03-21T08:36:46.000Z</time>
      </trkpt>
      <trkpt lat="47.256" lon="-2.32896">
        <ele>-2.4000000953674</ele>
        <time>2021-03-21T08:36:47.000Z</time>
      </trkpt>
      <trkpt lat="47.25593" lon="-2.32844">
        <ele>-2.4000000953674</ele>
        <time>2021-03-21T08:36:55.000Z</time>
      </trkpt>
      <trkpt lat="47.25592" lon="-2.32831">
        <ele>-2.4000000953674</ele>
        <time>2021-03-21T08:36:57.000Z</time>
      </trkpt>
      <trkpt lat="47.25595" lon="-2.3281">
        <ele>-2.4000000953674</ele>
        <time>2021-03-21T08:37:00.000Z</time>
      </trkpt>
      <trkpt lat="47.25596" lon="-2.32804">
        <ele>-2.4000000953674</ele>
        <time>2021-03-21T08:37:01.000Z</time>
      </trkpt>
      <trkpt lat="47.25598" lon="-2.3279">
        <ele>-2.4000000953674</ele>
        <time>2021-03-21T08:37:03.000Z</time>
      </trkpt>
      <trkpt lat="47.25601" lon="-2.32763">
        <ele>-2.4000000953674</ele>
        <time>2021-03-21T08:37:07.000Z</time>
      </trkpt>
      <trkpt lat="47.25604" lon="-2.32711">
        <ele>-2.4000000953674</ele>
        <time>2021-03-21T08:37:15.000Z</time>
      </trkpt>
      <trkpt lat="47.25606" lon="-2.32674">
        <ele>-2.4000000953674</ele>
        <time>2021-03-21T08:37:21.000Z</time>
      </trkpt>
      <trkpt lat="47.25608" lon="-2.32669">
        <ele>-2.4000000953674</ele>
        <time>2021-03-21T08:37:22.000Z</time>
      </trkpt>
      <trkpt lat="47.25618" lon="-2.32659">
        <ele>-2.4000000953674</ele>
        <time>2021-03-21T08:37:25.000Z</time>
      </trkpt>
      <trkpt lat="47.25631" lon="-2.32653">
        <ele>-2.4000000953674</ele>
        <time>2021-03-21T08:37:28.000Z</time>
      </trkpt>
      <trkpt lat="47.25651" lon="-2.32647">
        <ele>-2.4000000953674</ele>
        <time>2021-03-21T08:37:32.000Z</time>
      </trkpt>
      <trkpt lat="47.25686" lon="-2.32632">
        <ele>-2.4000000953674</ele>
        <time>2021-03-21T08:37:39.000Z</time>
      </trkpt>
      <trkpt lat="47.257" lon="-2.32626">
        <ele>-2.7999999523163</ele>
        <time>2021-03-21T08:37:42.000Z</time>
      </trkpt>
      <trkpt lat="47.25705" lon="-2.32623">
        <ele>-3.4000000953674</ele>
        <time>2021-03-21T08:37:43.000Z</time>
      </trkpt>
      <trkpt lat="47.25709" lon="-2.3262">
        <ele>-3.7999999523163</ele>
        <time>2021-03-21T08:37:44.000Z</time>
      </trkpt>
      <trkpt lat="47.25712" lon="-2.32615">
        <ele>-4.1999998092651</ele>
        <time>2021-03-21T08:37:45.000Z</time>
      </trkpt>
      <trkpt lat="47.25713" lon="-2.32608">
        <ele>-4.5999999046326</ele>
        <time>2021-03-21T08:37:46.000Z</time>
      </trkpt>
      <trkpt lat="47.2571" lon="-2.32594">
        <ele>-4.5999999046326</ele>
        <time>2021-03-21T08:37:48.000Z</time>
      </trkpt>
      <trkpt lat="47.25708" lon="-2.32587">
        <ele>-4.5999999046326</ele>
        <time>2021-03-21T08:37:49.000Z</time>
      </trkpt>
      <trkpt lat="47.25692" lon="-2.32533">
        <ele>-4.5999999046326</ele>
        <time>2021-03-21T08:37:56.000Z</time>
      </trkpt>
      <trkpt lat="47.2569" lon="-2.32525">
        <ele>-5</ele>
        <time>2021-03-21T08:37:57.000Z</time>
      </trkpt>
      <trkpt lat="47.25687" lon="-2.32516">
        <ele>-5.8000001907349</ele>
        <time>2021-03-21T08:37:58.000Z</time>
      </trkpt>
      <trkpt lat="47.25684" lon="-2.32507">
        <ele>-6.1999998092651</ele>
        <time>2021-03-21T08:37:59.000Z</time>
      </trkpt>
      <trkpt lat="47.25681" lon="-2.32499">
        <ele>-6.5999999046326</ele>
        <time>2021-03-21T08:38:00.000Z</time>
      </trkpt>
      <trkpt lat="47.25669" lon="-2.32463">
        <ele>-6.5999999046326</ele>
        <time>2021-03-21T08:38:04.000Z</time>
      </trkpt>
      <trkpt lat="47.25665" lon="-2.32446">
        <ele>-7</ele>
        <time>2021-03-21T08:38:06.000Z</time>
      </trkpt>
      <trkpt lat="47.25664" lon="-2.32439">
        <ele>-7.5999999046326</ele>
        <time>2021-03-21T08:38:07.000Z</time>
      </trkpt>
      <trkpt lat="47.25663" lon="-2.32431">
        <ele>-8</ele>
        <time>2021-03-21T08:38:08.000Z</time>
      </trkpt>
      <trkpt lat="47.25661" lon="-2.32423">
        <ele>-8.3999996185303</ele>
        <time>2021-03-21T08:38:09.000Z</time>
      </trkpt>
      <trkpt lat="47.25658" lon="-2.32417">
        <ele>-8.8000001907349</ele>
        <time>2021-03-21T08:38:10.000Z</time>
      </trkpt>
      <trkpt lat="47.25658" lon="-2.3241">
        <ele>-8.8000001907349</ele>
        <time>2021-03-21T08:38:11.000Z</time>
      </trkpt>
      <trkpt lat="47.2566" lon="-2.32405">
        <ele>-8.8000001907349</ele>
        <time>2021-03-21T08:38:12.000Z</time>
      </trkpt>
      <trkpt lat="47.25667" lon="-2.32404">
        <ele>-8.8000001907349</ele>
        <time>2021-03-21T08:38:14.000Z</time>
      </trkpt>
      <trkpt lat="47.25677" lon="-2.32418">
        <ele>-8.8000001907349</ele>
        <time>2021-03-21T08:38:17.000Z</time>
      </trkpt>
      <trkpt lat="47.25693" lon="-2.32423">
        <ele>-8.8000001907349</ele>
        <time>2021-03-21T08:38:20.000Z</time>
      </trkpt>
      <trkpt lat="47.25705" lon="-2.32423">
        <ele>-8.8000001907349</ele>
        <time>2021-03-21T08:38:22.000Z</time>
      </trkpt>
      <trkpt lat="47.25728" lon="-2.32424">
        <ele>-8.8000001907349</ele>
        <time>2021-03-21T08:38:26.000Z</time>
      </trkpt>
      <trkpt lat="47.25738" lon="-2.32424">
        <ele>-9.1999998092651</ele>
        <time>2021-03-21T08:38:28.000Z</time>
      </trkpt>
      <trkpt lat="47.25743" lon="-2.32424">
        <ele>-9.6000003814697</ele>
        <time>2021-03-21T08:38:29.000Z</time>
      </trkpt>
      <trkpt lat="47.25748" lon="-2.32424">
        <ele>-10</ele>
        <time>2021-03-21T08:38:30.000Z</time>
      </trkpt>
      <trkpt lat="47.25753" lon="-2.32424">
        <ele>-10.39999961853</ele>
        <time>2021-03-21T08:38:31.000Z</time>
      </trkpt>
      <trkpt lat="47.25756" lon="-2.32424">
        <ele>-10.800000190735</ele>
        <time>2021-03-21T08:38:32.000Z</time>
      </trkpt>
      <trkpt lat="47.25758" lon="-2.32423">
        <ele>-10.800000190735</ele>
        <time>2021-03-21T08:38:33.000Z</time>
      </trkpt>
      <trkpt lat="47.25773" lon="-2.32413">
        <ele>-10.800000190735</ele>
        <time>2021-03-21T08:38:38.000Z</time>
      </trkpt>
      <trkpt lat="47.2578" lon="-2.32413">
        <ele>-10.800000190735</ele>
        <time>2021-03-21T08:38:40.000Z</time>
      </trkpt>
      <trkpt lat="47.25784" lon="-2.32417">
        <ele>-10.800000190735</ele>
        <time>2021-03-21T08:38:41.000Z</time>
      </trkpt>
      <trkpt lat="47.25799" lon="-2.32442">
        <ele>-10.800000190735</ele>
        <time>2021-03-21T08:38:45.000Z</time>
      </trkpt>
      <trkpt lat="47.25803" lon="-2.32449">
        <ele>-10.800000190735</ele>
        <time>2021-03-21T08:38:46.000Z</time>
      </trkpt>
      <trkpt lat="47.25821" lon="-2.32463">
        <ele>-10.800000190735</ele>
        <time>2021-03-21T08:38:49.000Z</time>
      </trkpt>
      <trkpt lat="47.25854" lon="-2.32477">
        <ele>-10.800000190735</ele>
        <time>2021-03-21T08:38:54.000Z</time>
      </trkpt>
      <trkpt lat="47.2586" lon="-2.32478">
        <ele>-10.800000190735</ele>
        <time>2021-03-21T08:38:55.000Z</time>
      </trkpt>
      <trkpt lat="47.25878" lon="-2.32475">
        <ele>-10.800000190735</ele>
        <time>2021-03-21T08:38:58.000Z</time>
      </trkpt>
      <trkpt lat="47.25891" lon="-2.3247">
        <ele>-10.800000190735</ele>
        <time>2021-03-21T08:39:00.000Z</time>
      </trkpt>
      <trkpt lat="47.25897" lon="-2.32467">
        <ele>-10.800000190735</ele>
        <time>2021-03-21T08:39:01.000Z</time>
      </trkpt>
      <trkpt lat="47.25913" lon="-2.32449">
        <ele>-10.800000190735</ele>
        <time>2021-03-21T08:39:04.000Z</time>
      </trkpt>
      <trkpt lat="47.25917" lon="-2.32442">
        <ele>-10.800000190735</ele>
        <time>2021-03-21T08:39:05.000Z</time>
      </trkpt>
      <trkpt lat="47.25945" lon="-2.32402">
        <ele>-10.800000190735</ele>
        <time>2021-03-21T08:39:11.000Z</time>
      </trkpt>
      <trkpt lat="47.25976" lon="-2.32363">
        <ele>-10.800000190735</ele>
        <time>2021-03-21T08:39:18.000Z</time>
      </trkpt>
      <trkpt lat="47.26002" lon="-2.32329">
        <ele>-10.800000190735</ele>
        <time>2021-03-21T08:39:24.000Z</time>
      </trkpt>
      <trkpt lat="47.26035" lon="-2.32288">
        <ele>-10.800000190735</ele>
        <time>2021-03-21T08:39:32.000Z</time>
      </trkpt>
      <trkpt lat="47.2606" lon="-2.32259">
        <ele>-10.800000190735</ele>
        <time>2021-03-21T08:39:38.000Z</time>
      </trkpt>
      <trkpt lat="47.26082" lon="-2.32233">
        <ele>-10.800000190735</ele>
        <time>2021-03-21T08:39:44.000Z</time>
      </trkpt>
      <trkpt lat="47.26093" lon="-2.32217">
        <ele>-10.800000190735</ele>
        <time>2021-03-21T08:39:47.000Z</time>
      </trkpt>
      <trkpt lat="47.26103" lon="-2.32198">
        <ele>-10.800000190735</ele>
        <time>2021-03-21T08:39:50.000Z</time>
      </trkpt>
      <trkpt lat="47.26119" lon="-2.32159">
        <ele>-10.800000190735</ele>
        <time>2021-03-21T08:39:56.000Z</time>
      </trkpt>
      <trkpt lat="47.2613" lon="-2.3213">
        <ele>-10.800000190735</ele>
        <time>2021-03-21T08:40:00.000Z</time>
      </trkpt>
      <trkpt lat="47.26137" lon="-2.32107">
        <ele>-10.800000190735</ele>
        <time>2021-03-21T08:40:03.000Z</time>
      </trkpt>
      <trkpt lat="47.26152" lon="-2.3206">
        <ele>-10.800000190735</ele>
        <time>2021-03-21T08:40:10.000Z</time>
      </trkpt>
      <trkpt lat="47.26153" lon="-2.32054">
        <ele>-10.800000190735</ele>
        <time>2021-03-21T08:40:11.000Z</time>
      </trkpt>
      <trkpt lat="47.2616" lon="-2.32037">
        <ele>-10.800000190735</ele>
        <time>2021-03-21T08:40:14.000Z</time>
      </trkpt>
      <trkpt lat="47.26163" lon="-2.32031">
        <ele>-10.800000190735</ele>
        <time>2021-03-21T08:40:15.000Z</time>
      </trkpt>
      <trkpt lat="47.2617" lon="-2.32022">
        <ele>-10.800000190735</ele>
        <time>2021-03-21T08:40:19.000Z</time>
      </trkpt>
      <trkpt lat="47.26175" lon="-2.32021">
        <ele>-10.800000190735</ele>
        <time>2021-03-21T08:40:24.000Z</time>
      </trkpt>
      <trkpt lat="47.26183" lon="-2.32022">
        <ele>-10.800000190735</ele>
        <time>2021-03-21T08:40:31.000Z</time>
      </trkpt>
      <trkpt lat="47.26193" lon="-2.32026">
        <ele>-10.800000190735</ele>
        <time>2021-03-21T08:40:37.000Z</time>
      </trkpt>
      <trkpt lat="47.26197" lon="-2.32012">
        <ele>-10.800000190735</ele>
        <time>2021-03-21T08:40:41.000Z</time>
      </trkpt>
      <trkpt lat="47.26203" lon="-2.32003">
        <ele>-10.800000190735</ele>
        <time>2021-03-21T08:40:45.000Z</time>
      </trkpt>
      <trkpt lat="47.26215" lon="-2.31989">
        <ele>-10.800000190735</ele>
        <time>2021-03-21T08:40:49.000Z</time>
      </trkpt>
      <trkpt lat="47.26218" lon="-2.31986">
        <ele>-10.800000190735</ele>
        <time>2021-03-21T08:40:50.000Z</time>
      </trkpt>
      <trkpt lat="47.26228" lon="-2.31979">
        <ele>-10.800000190735</ele>
        <time>2021-03-21T08:40:53.000Z</time>
      </trkpt>
      <trkpt lat="47.26231" lon="-2.3198">
        <ele>-10.800000190735</ele>
        <time>2021-03-21T08:40:54.000Z</time>
      </trkpt>
      <trkpt lat="47.26242" lon="-2.31973">
        <ele>-10.800000190735</ele>
        <time>2021-03-21T08:40:57.000Z</time>
      </trkpt>
      <trkpt lat="47.26247" lon="-2.31958">
        <ele>-10.800000190735</ele>
        <time>2021-03-21T08:41:00.000Z</time>
      </trkpt>
      <trkpt lat="47.26249" lon="-2.31953">
        <ele>-10.800000190735</ele>
        <time>2021-03-21T08:41:01.000Z</time>
      </trkpt>
      <trkpt lat="47.2626" lon="-2.31936">
        <ele>-10.800000190735</ele>
        <time>2021-03-21T08:41:05.000Z</time>
      </trkpt>
      <trkpt lat="47.26277" lon="-2.31909">
        <ele>-10.800000190735</ele>
        <time>2021-03-21T08:41:11.000Z</time>
      </trkpt>
      <trkpt lat="47.26294" lon="-2.31896">
        <ele>-10.800000190735</ele>
        <time>2021-03-21T08:41:16.000Z</time>
      </trkpt>
      <trkpt lat="47.26296" lon="-2.31898">
        <ele>-10.800000190735</ele>
        <time>2021-03-21T08:41:17.000Z</time>
      </trkpt>
      <trkpt lat="47.26299" lon="-2.31911">
        <ele>-10.800000190735</ele>
        <time>2021-03-21T08:41:20.000Z</time>
      </trkpt>
      <trkpt lat="47.26306" lon="-2.31933">
        <ele>-10.800000190735</ele>
        <time>2021-03-21T08:41:27.000Z</time>
      </trkpt>
      <trkpt lat="47.26315" lon="-2.31934">
        <ele>-10.800000190735</ele>
        <time>2021-03-21T08:41:32.000Z</time>
      </trkpt>
      <trkpt lat="47.26327" lon="-2.31931">
        <ele>-10.800000190735</ele>
        <time>2021-03-21T08:41:38.000Z</time>
      </trkpt>
      <trkpt lat="47.26341" lon="-2.31932">
        <ele>-10.800000190735</ele>
        <time>2021-03-21T08:41:45.000Z</time>
      </trkpt>
      <trkpt lat="47.26348" lon="-2.31943">
        <ele>-10.800000190735</ele>
        <time>2021-03-21T08:41:50.000Z</time>
      </trkpt>
      <trkpt lat="47.26353" lon="-2.31958">
        <ele>-10.800000190735</ele>
        <time>2021-03-21T08:41:56.000Z</time>
      </trkpt>
      <trkpt lat="47.26359" lon="-2.31972">
        <ele>-10.800000190735</ele>
        <time>2021-03-21T08:42:01.000Z</time>
      </trkpt>
      <trkpt lat="47.26366" lon="-2.31984">
        <ele>-10.800000190735</ele>
        <time>2021-03-21T08:42:05.000Z</time>
      </trkpt>
      <trkpt lat="47.26368" lon="-2.31986">
        <ele>-10</ele>
        <time>2021-03-21T08:42:06.000Z</time>
      </trkpt>
      <trkpt lat="47.26371" lon="-2.31987">
        <ele>-9.6000003814697</ele>
        <time>2021-03-21T08:42:07.000Z</time>
      </trkpt>
      <trkpt lat="47.26373" lon="-2.31988">
        <ele>-9.1999998092651</ele>
        <time>2021-03-21T08:42:08.000Z</time>
      </trkpt>
      <trkpt lat="47.26375" lon="-2.31989">
        <ele>-8.8000001907349</ele>
        <time>2021-03-21T08:42:09.000Z</time>
      </trkpt>
      <trkpt lat="47.26387" lon="-2.31992">
        <ele>-8.8000001907349</ele>
        <time>2021-03-21T08:42:14.000Z</time>
      </trkpt>
      <trkpt lat="47.26399" lon="-2.31994">
        <ele>-8.3999996185303</ele>
        <time>2021-03-21T08:42:19.000Z</time>
      </trkpt>
      <trkpt lat="47.26401" lon="-2.31995">
        <ele>-8</ele>
        <time>2021-03-21T08:42:20.000Z</time>
      </trkpt>
      <trkpt lat="47.26402" lon="-2.31995">
        <ele>-7.5999999046326</ele>
        <time>2021-03-21T08:42:21.000Z</time>
      </trkpt>
      <trkpt lat="47.26404" lon="-2.31996">
        <ele>-7.1999998092651</ele>
        <time>2021-03-21T08:42:22.000Z</time>
      </trkpt>
      <trkpt lat="47.26406" lon="-2.31997">
        <ele>-6.5999999046326</ele>
        <time>2021-03-21T08:42:23.000Z</time>
      </trkpt>
      <trkpt lat="47.26415" lon="-2.31998">
        <ele>-6.5999999046326</ele>
        <time>2021-03-21T08:42:26.000Z</time>
      </trkpt>
      <trkpt lat="47.26418" lon="-2.32">
        <ele>-6.5999999046326</ele>
        <time>2021-03-21T08:42:27.000Z</time>
      </trkpt>
      <trkpt lat="47.26425" lon="-2.31999">
        <ele>-6.5999999046326</ele>
        <time>2021-03-21T08:42:30.000Z</time>
      </trkpt>
      <trkpt lat="47.26427" lon="-2.31999">
        <ele>-6.5999999046326</ele>
        <time>2021-03-21T08:42:31.000Z</time>
      </trkpt>
      <trkpt lat="47.2643" lon="-2.32">
        <ele>-6.1999998092651</ele>
        <time>2021-03-21T08:42:32.000Z</time>
      </trkpt>
      <trkpt lat="47.26432" lon="-2.32">
        <ele>-5.8000001907349</ele>
        <time>2021-03-21T08:42:33.000Z</time>
      </trkpt>
      <trkpt lat="47.26434" lon="-2.32001">
        <ele>-5.4000000953674</ele>
        <time>2021-03-21T08:42:34.000Z</time>
      </trkpt>
      <trkpt lat="47.26436" lon="-2.32001">
        <ele>-5</ele>
        <time>2021-03-21T08:42:35.000Z</time>
      </trkpt>
      <trkpt lat="47.26437" lon="-2.32002">
        <ele>-4.5999999046326</ele>
        <time>2021-03-21T08:42:36.000Z</time>
      </trkpt>
      <trkpt lat="47.26452" lon="-2.32002">
        <ele>-4.5999999046326</ele>
        <time>2021-03-21T08:42:42.000Z</time>
      </trkpt>
      <trkpt lat="47.26464" lon="-2.32">
        <ele>-4.1999998092651</ele>
        <time>2021-03-21T08:42:48.000Z</time>
      </trkpt>
      <trkpt lat="47.26466" lon="-2.32">
        <ele>-3.7999999523163</ele>
        <time>2021-03-21T08:42:49.000Z</time>
      </trkpt>
      <trkpt lat="47.26468" lon="-2.32">
        <ele>-3.2000000476837</ele>
        <time>2021-03-21T08:42:50.000Z</time>
      </trkpt>
      <trkpt lat="47.2647" lon="-2.32001">
        <ele>-2.7999999523163</ele>
        <time>2021-03-21T08:42:51.000Z</time>
      </trkpt>
      <trkpt lat="47.26473" lon="-2.32001">
        <ele>-2.4000000953674</ele>
        <time>2021-03-21T08:42:52.000Z</time>
      </trkpt>
      <trkpt lat="47.26477" lon="-2.32002">
        <ele>-2.4000000953674</ele>
        <time>2021-03-21T08:42:54.000Z</time>
      </trkpt>
      <trkpt lat="47.26487" lon="-2.32">
        <ele>-2.4000000953674</ele>
        <time>2021-03-21T08:43:00.000Z</time>
      </trkpt>
      <trkpt lat="47.26498" lon="-2.31999">
        <ele>-2.4000000953674</ele>
        <time>2021-03-21T08:43:06.000Z</time>
      </trkpt>
      <trkpt lat="47.26501" lon="-2.31999">
        <ele>-2</ele>
        <time>2021-03-21T08:43:08.000Z</time>
      </trkpt>
      <trkpt lat="47.26503" lon="-2.31999">
        <ele>-1.6000000238419</ele>
        <time>2021-03-21T08:43:09.000Z</time>
      </trkpt>
      <trkpt lat="47.26505" lon="-2.31999">
        <ele>-1.2000000476837</ele>
        <time>2021-03-21T08:43:10.000Z</time>
      </trkpt>
      <trkpt lat="47.26506" lon="-2.31999">
        <ele>-0.80000001192093</ele>
        <time>2021-03-21T08:43:11.000Z</time>
      </trkpt>
      <trkpt lat="47.26507" lon="-2.31998">
        <ele>-0.40000000596046</ele>
        <time>2021-03-21T08:43:12.000Z</time>
      </trkpt>
      <trkpt lat="47.26517" lon="-2.31998">
        <ele>0.20000000298023</ele>
        <time>2021-03-21T08:43:18.000Z</time>
      </trkpt>
      <trkpt lat="47.26519" lon="-2.31998">
        <ele>0.60000002384186</ele>
        <time>2021-03-21T08:43:19.000Z</time>
      </trkpt>
      <trkpt lat="47.26522" lon="-2.31999">
        <ele>1</ele>
        <time>2021-03-21T08:43:20.000Z</time>
      </trkpt>
      <trkpt lat="47.26523" lon="-2.31999">
        <ele>1.7999999523163</ele>
        <time>2021-03-21T08:43:21.000Z</time>
      </trkpt>
      <trkpt lat="47.26527" lon="-2.32002">
        <ele>1.7999999523163</ele>
        <time>2021-03-21T08:43:23.000Z</time>
      </trkpt>
      <trkpt lat="47.26539" lon="-2.32013">
        <ele>1.7999999523163</ele>
        <time>2021-03-21T08:43:29.000Z</time>
      </trkpt>
      <trkpt lat="47.26545" lon="-2.32029">
        <ele>1.7999999523163</ele>
        <time>2021-03-21T08:43:34.000Z</time>
      </trkpt>
      <trkpt lat="47.26545" lon="-2.32031">
        <ele>2.2000000476837</ele>
        <time>2021-03-21T08:43:35.000Z</time>
      </trkpt>
      <trkpt lat="47.26546" lon="-2.32034">
        <ele>2.5999999046326</ele>
        <time>2021-03-21T08:43:36.000Z</time>
      </trkpt>
      <trkpt lat="47.26547" lon="-2.32036">
        <ele>3.2000000476837</ele>
        <time>2021-03-21T08:43:37.000Z</time>
      </trkpt>
      <trkpt lat="47.26549" lon="-2.32037">
        <ele>3.5999999046326</ele>
        <time>2021-03-21T08:43:38.000Z</time>
      </trkpt>
      <trkpt lat="47.26551" lon="-2.32037">
        <ele>4</ele>
        <time>2021-03-21T08:43:39.000Z</time>
      </trkpt>
      <trkpt lat="47.26561" lon="-2.32033">
        <ele>4</ele>
        <time>2021-03-21T08:43:42.000Z</time>
      </trkpt>
      <trkpt lat="47.26568" lon="-2.32031">
        <ele>4</ele>
        <time>2021-03-21T08:43:44.000Z</time>
      </trkpt>
      <trkpt lat="47.26576" lon="-2.32029">
        <ele>4.4000000953674</ele>
        <time>2021-03-21T08:43:46.000Z</time>
      </trkpt>
      <trkpt lat="47.26579" lon="-2.32028">
        <ele>4.8000001907349</ele>
        <time>2021-03-21T08:43:47.000Z</time>
      </trkpt>
      <trkpt lat="47.26583" lon="-2.32027">
        <ele>5.1999998092651</ele>
        <time>2021-03-21T08:43:48.000Z</time>
      </trkpt>
      <trkpt lat="47.26586" lon="-2.32026">
        <ele>5.5999999046326</ele>
        <time>2021-03-21T08:43:49.000Z</time>
      </trkpt>
      <trkpt lat="47.2659" lon="-2.32024">
        <ele>6</ele>
        <time>2021-03-21T08:43:50.000Z</time>
      </trkpt>
      <trkpt lat="47.26597" lon="-2.32021">
        <ele>6</ele>
        <time>2021-03-21T08:43:52.000Z</time>
      </trkpt>
      <trkpt lat="47.26624" lon="-2.32014">
        <ele>6</ele>
        <time>2021-03-21T08:44:00.000Z</time>
      </trkpt>
      <trkpt lat="47.26627" lon="-2.32013">
        <ele>6.4000000953674</ele>
        <time>2021-03-21T08:44:01.000Z</time>
      </trkpt>
      <trkpt lat="47.2663" lon="-2.32012">
        <ele>6.8000001907349</ele>
        <time>2021-03-21T08:44:02.000Z</time>
      </trkpt>
      <trkpt lat="47.26633" lon="-2.32011">
        <ele>7.1999998092651</ele>
        <time>2021-03-21T08:44:03.000Z</time>
      </trkpt>
      <trkpt lat="47.26636" lon="-2.3201">
        <ele>7.5999999046326</ele>
        <time>2021-03-21T08:44:04.000Z</time>
      </trkpt>
      <trkpt lat="47.26639" lon="-2.32009">
        <ele>8</ele>
        <time>2021-03-21T08:44:05.000Z</time>
      </trkpt>
      <trkpt lat="47.26644" lon="-2.32007">
        <ele>8</ele>
        <time>2021-03-21T08:44:07.000Z</time>
      </trkpt>
      <trkpt lat="47.26647" lon="-2.32007">
        <ele>8</ele>
        <time>2021-03-21T08:44:08.000Z</time>
      </trkpt>
      <trkpt lat="47.26651" lon="-2.32014">
        <ele>8</ele>
        <time>2021-03-21T08:44:10.000Z</time>
      </trkpt>
      <trkpt lat="47.26656" lon="-2.32028">
        <ele>8</ele>
        <time>2021-03-21T08:44:13.000Z</time>
      </trkpt>
      <trkpt lat="47.26658" lon="-2.3204">
        <ele>8</ele>
        <time>2021-03-21T08:44:15.000Z</time>
      </trkpt>
      <trkpt lat="47.26668" lon="-2.32086">
        <ele>8</ele>
        <time>2021-03-21T08:44:23.000Z</time>
      </trkpt>
      <trkpt lat="47.26679" lon="-2.32124">
        <ele>8</ele>
        <time>2021-03-21T08:44:31.000Z</time>
      </trkpt>
      <trkpt lat="47.26681" lon="-2.32125">
        <ele>8</ele>
        <time>2021-03-21T08:44:32.000Z</time>
      </trkpt>
      <trkpt lat="47.26685" lon="-2.32113">
        <ele>8</ele>
        <time>2021-03-21T08:44:35.000Z</time>
      </trkpt>
      <trkpt lat="47.26686" lon="-2.32102">
        <ele>8</ele>
        <time>2021-03-21T08:44:37.000Z</time>
      </trkpt>
      <trkpt lat="47.26686" lon="-2.32084">
        <ele>8</ele>
        <time>2021-03-21T08:44:40.000Z</time>
      </trkpt>
      <trkpt lat="47.26686" lon="-2.32077">
        <ele>8</ele>
        <time>2021-03-21T08:44:43.000Z</time>
      </trkpt>
      <trkpt lat="47.26686" lon="-2.32056">
        <ele>8</ele>
        <time>2021-03-21T08:44:49.000Z</time>
      </trkpt>
      <trkpt lat="47.26688" lon="-2.32038">
        <ele>8</ele>
        <time>2021-03-21T08:44:55.000Z</time>
      </trkpt>
      <trkpt lat="47.26695" lon="-2.3202">
        <ele>8</ele>
        <time>2021-03-21T08:45:00.000Z</time>
      </trkpt>
      <trkpt lat="47.26707" lon="-2.32002">
        <ele>8</ele>
        <time>2021-03-21T08:45:05.000Z</time>
      </trkpt>
      <trkpt lat="47.26712" lon="-2.31999">
        <ele>8</ele>
        <time>2021-03-21T08:45:06.000Z</time>
      </trkpt>
      <trkpt lat="47.26735" lon="-2.31984">
        <ele>8</ele>
        <time>2021-03-21T08:45:11.000Z</time>
      </trkpt>
      <trkpt lat="47.26743" lon="-2.31978">
        <ele>7.5999999046326</ele>
        <time>2021-03-21T08:45:13.000Z</time>
      </trkpt>
      <trkpt lat="47.26747" lon="-2.31975">
        <ele>7.1999998092651</ele>
        <time>2021-03-21T08:45:14.000Z</time>
      </trkpt>
      <trkpt lat="47.2675" lon="-2.31969">
        <ele>6.8000001907349</ele>
        <time>2021-03-21T08:45:15.000Z</time>
      </trkpt>
      <trkpt lat="47.26753" lon="-2.31965">
        <ele>6.4000000953674</ele>
        <time>2021-03-21T08:45:16.000Z</time>
      </trkpt>
      <trkpt lat="47.26756" lon="-2.3196">
        <ele>6</ele>
        <time>2021-03-21T08:45:17.000Z</time>
      </trkpt>
      <trkpt lat="47.26761" lon="-2.31948">
        <ele>6</ele>
        <time>2021-03-21T08:45:19.000Z</time>
      </trkpt>
      <trkpt lat="47.26762" lon="-2.3193">
        <ele>6</ele>
        <time>2021-03-21T08:45:22.000Z</time>
      </trkpt>
      <trkpt lat="47.26756" lon="-2.31913">
        <ele>6</ele>
        <time>2021-03-21T08:45:25.000Z</time>
      </trkpt>
      <trkpt lat="47.26753" lon="-2.31907">
        <ele>6</ele>
        <time>2021-03-21T08:45:26.000Z</time>
      </trkpt>
      <trkpt lat="47.26738" lon="-2.31874">
        <ele>6</ele>
        <time>2021-03-21T08:45:33.000Z</time>
      </trkpt>
      <trkpt lat="47.26736" lon="-2.31868">
        <ele>6</ele>
        <time>2021-03-21T08:45:36.000Z</time>
      </trkpt>
      <trkpt lat="47.26736" lon="-2.31865">
        <ele>6</ele>
        <time>2021-03-21T08:45:37.000Z</time>
      </trkpt>
      <trkpt lat="47.2674" lon="-2.31857">
        <ele>6.4000000953674</ele>
        <time>2021-03-21T08:45:40.000Z</time>
      </trkpt>
      <trkpt lat="47.26742" lon="-2.31853">
        <ele>6.8000001907349</ele>
        <time>2021-03-21T08:45:41.000Z</time>
      </trkpt>
      <trkpt lat="47.26745" lon="-2.3185">
        <ele>7.4000000953674</ele>
        <time>2021-03-21T08:45:42.000Z</time>
      </trkpt>
      <trkpt lat="47.26749" lon="-2.31847">
        <ele>7.8000001907349</ele>
        <time>2021-03-21T08:45:43.000Z</time>
      </trkpt>
      <trkpt lat="47.26753" lon="-2.31844">
        <ele>8.1999998092651</ele>
        <time>2021-03-21T08:45:44.000Z</time>
      </trkpt>
      <trkpt lat="47.26765" lon="-2.31835">
        <ele>8.1999998092651</ele>
        <time>2021-03-21T08:45:47.000Z</time>
      </trkpt>
      <trkpt lat="47.26797" lon="-2.31814">
        <ele>8.1999998092651</ele>
        <time>2021-03-21T08:45:54.000Z</time>
      </trkpt>
      <trkpt lat="47.26802" lon="-2.31811">
        <ele>8.1999998092651</ele>
        <time>2021-03-21T08:45:55.000Z</time>
      </trkpt>
      <trkpt lat="47.26811" lon="-2.31806">
        <ele>8.1999998092651</ele>
        <time>2021-03-21T08:45:58.000Z</time>
      </trkpt>
      <trkpt lat="47.26819" lon="-2.31804">
        <ele>8.1999998092651</ele>
        <time>2021-03-21T08:46:03.000Z</time>
      </trkpt>
      <trkpt lat="47.26821" lon="-2.31806">
        <ele>8.1999998092651</ele>
        <time>2021-03-21T08:46:05.000Z</time>
      </trkpt>
      <trkpt lat="47.26821" lon="-2.31813">
        <ele>8.1999998092651</ele>
        <time>2021-03-21T08:46:07.000Z</time>
      </trkpt>
      <trkpt lat="47.26822" lon="-2.31828">
        <ele>8.1999998092651</ele>
        <time>2021-03-21T08:46:11.000Z</time>
      </trkpt>
      <trkpt lat="47.26826" lon="-2.31837">
        <ele>8.1999998092651</ele>
        <time>2021-03-21T08:46:13.000Z</time>
      </trkpt>
      <trkpt lat="47.2683" lon="-2.31849">
        <ele>8.1999998092651</ele>
        <time>2021-03-21T08:46:15.000Z</time>
      </trkpt>
      <trkpt lat="47.26832" lon="-2.31856">
        <ele>7.8000001907349</ele>
        <time>2021-03-21T08:46:16.000Z</time>
      </trkpt>
      <trkpt lat="47.26835" lon="-2.31862">
        <ele>7.4000000953674</ele>
        <time>2021-03-21T08:46:17.000Z</time>
      </trkpt>
      <trkpt lat="47.26838" lon="-2.31869">
        <ele>7</ele>
        <time>2021-03-21T08:46:18.000Z</time>
      </trkpt>
      <trkpt lat="47.26841" lon="-2.31877">
        <ele>6.5999999046326</ele>
        <time>2021-03-21T08:46:19.000Z</time>
      </trkpt>
      <trkpt lat="47.26845" lon="-2.31884">
        <ele>6.1999998092651</ele>
        <time>2021-03-21T08:46:20.000Z</time>
      </trkpt>
      <trkpt lat="47.26861" lon="-2.31894">
        <ele>6.1999998092651</ele>
        <time>2021-03-21T08:46:23.000Z</time>
      </trkpt>
      <trkpt lat="47.26866" lon="-2.31895">
        <ele>5.5999999046326</ele>
        <time>2021-03-21T08:46:24.000Z</time>
      </trkpt>
      <trkpt lat="47.26872" lon="-2.31897">
        <ele>5.1999998092651</ele>
        <time>2021-03-21T08:46:25.000Z</time>
      </trkpt>
      <trkpt lat="47.26877" lon="-2.31899">
        <ele>4.8000001907349</ele>
        <time>2021-03-21T08:46:26.000Z</time>
      </trkpt>
      <trkpt lat="47.26883" lon="-2.31902">
        <ele>4.4000000953674</ele>
        <time>2021-03-21T08:46:27.000Z</time>
      </trkpt>
      <trkpt lat="47.26887" lon="-2.31906">
        <ele>4</ele>
        <time>2021-03-21T08:46:28.000Z</time>
      </trkpt>
      <trkpt lat="47.26891" lon="-2.31912">
        <ele>4</ele>
        <time>2021-03-21T08:46:29.000Z</time>
      </trkpt>
      <trkpt lat="47.26904" lon="-2.31933">
        <ele>3.4000000953674</ele>
        <time>2021-03-21T08:46:32.000Z</time>
      </trkpt>
      <trkpt lat="47.26909" lon="-2.3194">
        <ele>3</ele>
        <time>2021-03-21T08:46:33.000Z</time>
      </trkpt>
      <trkpt lat="47.26914" lon="-2.31947">
        <ele>2.5999999046326</ele>
        <time>2021-03-21T08:46:34.000Z</time>
      </trkpt>
      <trkpt lat="47.26919" lon="-2.31952">
        <ele>2.2000000476837</ele>
        <time>2021-03-21T08:46:35.000Z</time>
      </trkpt>
      <trkpt lat="47.26924" lon="-2.31958">
        <ele>1.6000000238419</ele>
        <time>2021-03-21T08:46:36.000Z</time>
      </trkpt>
      <trkpt lat="47.26934" lon="-2.31972">
        <ele>1.2000000476837</ele>
        <time>2021-03-21T08:46:38.000Z</time>
      </trkpt>
      <trkpt lat="47.26938" lon="-2.31979">
        <ele>0.40000000596046</ele>
        <time>2021-03-21T08:46:39.000Z</time>
      </trkpt>
      <trkpt lat="47.26943" lon="-2.31987">
        <ele>11.5</ele>
        <time>2021-03-21T08:46:40.000Z</time>
      </trkpt>
      <trkpt lat="47.26948" lon="-2.31994">
        <ele>-0.60000002384186</ele>
        <time>2021-03-21T08:46:41.000Z</time>
      </trkpt>
      <trkpt lat="47.26952" lon="-2.31999">
        <ele>-0.60000002384186</ele>
        <time>2021-03-21T08:46:42.000Z</time>
      </trkpt>
      <trkpt lat="47.26957" lon="-2.32002">
        <ele>-1</ele>
        <time>2021-03-21T08:46:43.000Z</time>
      </trkpt>
      <trkpt lat="47.26962" lon="-2.32002">
        <ele>-1.3999999761581</ele>
        <time>2021-03-21T08:46:44.000Z</time>
      </trkpt>
      <trkpt lat="47.26967" lon="-2.32">
        <ele>-1.7999999523163</ele>
        <time>2021-03-21T08:46:45.000Z</time>
      </trkpt>
      <trkpt lat="47.26972" lon="-2.31999">
        <ele>-2.4000000953674</ele>
        <time>2021-03-21T08:46:46.000Z</time>
      </trkpt>
      <trkpt lat="47.26977" lon="-2.31998">
        <ele>-2.7999999523163</ele>
        <time>2021-03-21T08:46:47.000Z</time>
      </trkpt>
      <trkpt lat="47.26992" lon="-2.31991">
        <ele>-2.7999999523163</ele>
        <time>2021-03-21T08:46:50.000Z</time>
      </trkpt>
      <trkpt lat="47.27004" lon="-2.31991">
        <ele>-2.7999999523163</ele>
        <time>2021-03-21T08:46:53.000Z</time>
      </trkpt>
      <trkpt lat="47.27007" lon="-2.31996">
        <ele>-2.7999999523163</ele>
        <time>2021-03-21T08:46:54.000Z</time>
      </trkpt>
      <trkpt lat="47.27014" lon="-2.32019">
        <ele>-2.7999999523163</ele>
        <time>2021-03-21T08:46:57.000Z</time>
      </trkpt>
      <trkpt lat="47.27019" lon="-2.32037">
        <ele>-3.2000000476837</ele>
        <time>2021-03-21T08:46:59.000Z</time>
      </trkpt>
      <trkpt lat="47.27021" lon="-2.32046">
        <ele>-3.5999999046326</ele>
        <time>2021-03-21T08:47:00.000Z</time>
      </trkpt>
      <trkpt lat="47.27023" lon="-2.32055">
        <ele>-4</ele>
        <time>2021-03-21T08:47:01.000Z</time>
      </trkpt>
      <trkpt lat="47.27024" lon="-2.32065">
        <ele>-4.4000000953674</ele>
        <time>2021-03-21T08:47:02.000Z</time>
      </trkpt>
      <trkpt lat="47.27023" lon="-2.32076">
        <ele>-4.8000001907349</ele>
        <time>2021-03-21T08:47:03.000Z</time>
      </trkpt>
      <trkpt lat="47.2702" lon="-2.32096">
        <ele>-4.8000001907349</ele>
        <time>2021-03-21T08:47:05.000Z</time>
      </trkpt>
      <trkpt lat="47.27015" lon="-2.32113">
        <ele>-5.4000000953674</ele>
        <time>2021-03-21T08:47:07.000Z</time>
      </trkpt>
      <trkpt lat="47.27011" lon="-2.3212">
        <ele>-5.8000001907349</ele>
        <time>2021-03-21T08:47:08.000Z</time>
      </trkpt>
      <trkpt lat="47.27006" lon="-2.32124">
        <ele>-6.1999998092651</ele>
        <time>2021-03-21T08:47:09.000Z</time>
      </trkpt>
      <trkpt lat="47.27" lon="-2.32128">
        <ele>-6.5999999046326</ele>
        <time>2021-03-21T08:47:10.000Z</time>
      </trkpt>
      <trkpt lat="47.26995" lon="-2.32133">
        <ele>-7</ele>
        <time>2021-03-21T08:47:11.000Z</time>
      </trkpt>
      <trkpt lat="47.26992" lon="-2.32147">
        <ele>-7</ele>
        <time>2021-03-21T08:47:13.000Z</time>
      </trkpt>
      <trkpt lat="47.27003" lon="-2.32166">
        <ele>-7</ele>
        <time>2021-03-21T08:47:16.000Z</time>
      </trkpt>
      <trkpt lat="47.27015" lon="-2.32184">
        <ele>-7</ele>
        <time>2021-03-21T08:47:19.000Z</time>
      </trkpt>
      <trkpt lat="47.27019" lon="-2.32191">
        <ele>-7</ele>
        <time>2021-03-21T08:47:20.000Z</time>
      </trkpt>
      <trkpt lat="47.27021" lon="-2.32198">
        <ele>-7</ele>
        <time>2021-03-21T08:47:21.000Z</time>
      </trkpt>
      <trkpt lat="47.2703" lon="-2.32239">
        <ele>-7</ele>
        <time>2021-03-21T08:47:26.000Z</time>
      </trkpt>
      <trkpt lat="47.2703" lon="-2.32257">
        <ele>-7</ele>
        <time>2021-03-21T08:47:28.000Z</time>
      </trkpt>
      <trkpt lat="47.27029" lon="-2.32276">
        <ele>-7</ele>
        <time>2021-03-21T08:47:30.000Z</time>
      </trkpt>
      <trkpt lat="47.27027" lon="-2.32329">
        <ele>-7</ele>
        <time>2021-03-21T08:47:35.000Z</time>
      </trkpt>
      <trkpt lat="47.27028" lon="-2.32358">
        <ele>-7</ele>
        <time>2021-03-21T08:47:38.000Z</time>
      </trkpt>
      <trkpt lat="47.27031" lon="-2.32376">
        <ele>-7</ele>
        <time>2021-03-21T08:47:40.000Z</time>
      </trkpt>
      <trkpt lat="47.27036" lon="-2.32445">
        <ele>-7</ele>
        <time>2021-03-21T08:47:47.000Z</time>
      </trkpt>
      <trkpt lat="47.27036" lon="-2.32464">
        <ele>-7</ele>
        <time>2021-03-21T08:47:49.000Z</time>
      </trkpt>
      <trkpt lat="47.27034" lon="-2.3249">
        <ele>-7</ele>
        <time>2021-03-21T08:47:52.000Z</time>
      </trkpt>
      <trkpt lat="47.27018" lon="-2.32502">
        <ele>-7</ele>
        <time>2021-03-21T08:47:55.000Z</time>
      </trkpt>
      <trkpt lat="47.27003" lon="-2.32503">
        <ele>-7</ele>
        <time>2021-03-21T08:47:58.000Z</time>
      </trkpt>
      <trkpt lat="47.26999" lon="-2.32497">
        <ele>-7</ele>
        <time>2021-03-21T08:47:59.000Z</time>
      </trkpt>
      <trkpt lat="47.26991" lon="-2.32478">
        <ele>-7</ele>
        <time>2021-03-21T08:48:02.000Z</time>
      </trkpt>
      <trkpt lat="47.26988" lon="-2.32471">
        <ele>-7</ele>
        <time>2021-03-21T08:48:03.000Z</time>
      </trkpt>
      <trkpt lat="47.26975" lon="-2.32448">
        <ele>-7</ele>
        <time>2021-03-21T08:48:07.000Z</time>
      </trkpt>
      <trkpt lat="47.26964" lon="-2.32433">
        <ele>-7</ele>
        <time>2021-03-21T08:48:10.000Z</time>
      </trkpt>
      <trkpt lat="47.26953" lon="-2.32417">
        <ele>-7</ele>
        <time>2021-03-21T08:48:13.000Z</time>
      </trkpt>
      <trkpt lat="47.26946" lon="-2.32398">
        <ele>-7</ele>
        <time>2021-03-21T08:48:16.000Z</time>
      </trkpt>
      <trkpt lat="47.26944" lon="-2.32392">
        <ele>-7</ele>
        <time>2021-03-21T08:48:17.000Z</time>
      </trkpt>
      <trkpt lat="47.26932" lon="-2.32352">
        <ele>-7</ele>
        <time>2021-03-21T08:48:24.000Z</time>
      </trkpt>
      <trkpt lat="47.26924" lon="-2.32342">
        <ele>-7</ele>
        <time>2021-03-21T08:48:27.000Z</time>
      </trkpt>
      <trkpt lat="47.26917" lon="-2.32335">
        <ele>-7</ele>
        <time>2021-03-21T08:48:29.000Z</time>
      </trkpt>
      <trkpt lat="47.26905" lon="-2.32337">
        <ele>-6.5999999046326</ele>
        <time>2021-03-21T08:48:32.000Z</time>
      </trkpt>
      <trkpt lat="47.269" lon="-2.32339">
        <ele>-6.1999998092651</ele>
        <time>2021-03-21T08:48:33.000Z</time>
      </trkpt>
      <trkpt lat="47.26897" lon="-2.3234">
        <ele>-5.8000001907349</ele>
        <time>2021-03-21T08:48:34.000Z</time>
      </trkpt>
      <trkpt lat="47.26893" lon="-2.32342">
        <ele>-5.4000000953674</ele>
        <time>2021-03-21T08:48:35.000Z</time>
      </trkpt>
      <trkpt lat="47.26888" lon="-2.32343">
        <ele>-4.8000001907349</ele>
        <time>2021-03-21T08:48:36.000Z</time>
      </trkpt>
      <trkpt lat="47.26877" lon="-2.32346">
        <ele>-4.8000001907349</ele>
        <time>2021-03-21T08:48:39.000Z</time>
      </trkpt>
      <trkpt lat="47.26873" lon="-2.32347">
        <ele>-4.4000000953674</ele>
        <time>2021-03-21T08:48:40.000Z</time>
      </trkpt>
      <trkpt lat="47.2687" lon="-2.32348">
        <ele>-4</ele>
        <time>2021-03-21T08:48:41.000Z</time>
      </trkpt>
      <trkpt lat="47.26867" lon="-2.3235">
        <ele>-3.2000000476837</ele>
        <time>2021-03-21T08:48:42.000Z</time>
      </trkpt>
      <trkpt lat="47.26863" lon="-2.32351">
        <ele>-2.7999999523163</ele>
        <time>2021-03-21T08:48:43.000Z</time>
      </trkpt>
      <trkpt lat="47.26856" lon="-2.32352">
        <ele>-2.7999999523163</ele>
        <time>2021-03-21T08:48:45.000Z</time>
      </trkpt>
      <trkpt lat="47.26839" lon="-2.32355">
        <ele>-2.4000000953674</ele>
        <time>2021-03-21T08:48:50.000Z</time>
      </trkpt>
      <trkpt lat="47.26836" lon="-2.32355">
        <ele>-1.7999999523163</ele>
        <time>2021-03-21T08:48:51.000Z</time>
      </trkpt>
      <trkpt lat="47.26832" lon="-2.32355">
        <ele>-1.3999999761581</ele>
        <time>2021-03-21T08:48:52.000Z</time>
      </trkpt>
      <trkpt lat="47.26829" lon="-2.32355">
        <ele>-1</ele>
        <time>2021-03-21T08:48:53.000Z</time>
      </trkpt>
      <trkpt lat="47.26825" lon="-2.32355">
        <ele>-0.60000002384186</ele>
        <time>2021-03-21T08:48:54.000Z</time>
      </trkpt>
      <trkpt lat="47.26815" lon="-2.32358">
        <ele>15.7</ele>
        <time>2021-03-21T08:48:57.000Z</time>
      </trkpt>
      <trkpt lat="47.26812" lon="-2.32359">
        <ele>0.40000000596046</ele>
        <time>2021-03-21T08:48:58.000Z</time>
      </trkpt>
      <trkpt lat="47.26809" lon="-2.3236">
        <ele>0.80000001192093</ele>
        <time>2021-03-21T08:48:59.000Z</time>
      </trkpt>
      <trkpt lat="47.26806" lon="-2.32362">
        <ele>1.2000000476837</ele>
        <time>2021-03-21T08:49:00.000Z</time>
      </trkpt>
      <trkpt lat="47.26802" lon="-2.32363">
        <ele>1.7999999523163</ele>
        <time>2021-03-21T08:49:01.000Z</time>
      </trkpt>
      <trkpt lat="47.26794" lon="-2.32366">
        <ele>2.2000000476837</ele>
        <time>2021-03-21T08:49:04.000Z</time>
      </trkpt>
      <trkpt lat="47.26791" lon="-2.32367">
        <ele>2.5999999046326</ele>
        <time>2021-03-21T08:49:05.000Z</time>
      </trkpt>
      <trkpt lat="47.26788" lon="-2.32369">
        <ele>3</ele>
        <time>2021-03-21T08:49:06.000Z</time>
      </trkpt>
      <trkpt lat="47.26786" lon="-2.3237">
        <ele>3.7999999523163</ele>
        <time>2021-03-21T08:49:07.000Z</time>
      </trkpt>
      <trkpt lat="47.26783" lon="-2.32373">
        <ele>3.7999999523163</ele>
        <time>2021-03-21T08:49:08.000Z</time>
      </trkpt>
      <trkpt lat="47.26781" lon="-2.32381">
        <ele>3.7999999523163</ele>
        <time>2021-03-21T08:49:10.000Z</time>
      </trkpt>
      <trkpt lat="47.26782" lon="-2.32391">
        <ele>3.7999999523163</ele>
        <time>2021-03-21T08:49:12.000Z</time>
      </trkpt>
      <trkpt lat="47.26785" lon="-2.32409">
        <ele>3.7999999523163</ele>
        <time>2021-03-21T08:49:15.000Z</time>
      </trkpt>
      <trkpt lat="47.26793" lon="-2.32457">
        <ele>3.7999999523163</ele>
        <time>2021-03-21T08:49:22.000Z</time>
      </trkpt>
      <trkpt lat="47.268" lon="-2.32516">
        <ele>3.7999999523163</ele>
        <time>2021-03-21T08:49:29.000Z</time>
      </trkpt>
      <trkpt lat="47.26803" lon="-2.32572">
        <ele>3.7999999523163</ele>
        <time>2021-03-21T08:49:35.000Z</time>
      </trkpt>
      <trkpt lat="47.26805" lon="-2.32591">
        <ele>3.7999999523163</ele>
        <time>2021-03-21T08:49:37.000Z</time>
      </trkpt>
      <trkpt lat="47.2681" lon="-2.32624">
        <ele>3.7999999523163</ele>
        <time>2021-03-21T08:49:41.000Z</time>
      </trkpt>
      <trkpt lat="47.26812" lon="-2.32656">
        <ele>3.7999999523163</ele>
        <time>2021-03-21T08:49:45.000Z</time>
      </trkpt>
      <trkpt lat="47.26808" lon="-2.32669">
        <ele>3.7999999523163</ele>
        <time>2021-03-21T08:49:47.000Z</time>
      </trkpt>
      <trkpt lat="47.26804" lon="-2.3269">
        <ele>3.7999999523163</ele>
        <time>2021-03-21T08:49:50.000Z</time>
      </trkpt>
      <trkpt lat="47.26811" lon="-2.32712">
        <ele>3.7999999523163</ele>
        <time>2021-03-21T08:49:53.000Z</time>
      </trkpt>
      <trkpt lat="47.26814" lon="-2.32719">
        <ele>3.7999999523163</ele>
        <time>2021-03-21T08:49:54.000Z</time>
      </trkpt>
      <trkpt lat="47.26834" lon="-2.32762">
        <ele>3.7999999523163</ele>
        <time>2021-03-21T08:50:00.000Z</time>
      </trkpt>
      <trkpt lat="47.26837" lon="-2.32771">
        <ele>3.4000000953674</ele>
        <time>2021-03-21T08:50:01.000Z</time>
      </trkpt>
      <trkpt lat="47.2684" lon="-2.32779">
        <ele>3</ele>
        <time>2021-03-21T08:50:02.000Z</time>
      </trkpt>
      <trkpt lat="47.26842" lon="-2.32788">
        <ele>2.5999999046326</ele>
        <time>2021-03-21T08:50:03.000Z</time>
      </trkpt>
      <trkpt lat="47.26845" lon="-2.32798">
        <ele>2.2000000476837</ele>
        <time>2021-03-21T08:50:04.000Z</time>
      </trkpt>
      <trkpt lat="47.26848" lon="-2.32808">
        <ele>1.7999999523163</ele>
        <time>2021-03-21T08:50:05.000Z</time>
      </trkpt>
      <trkpt lat="47.2685" lon="-2.32816">
        <ele>1.2000000476837</ele>
        <time>2021-03-21T08:50:06.000Z</time>
      </trkpt>
      <trkpt lat="47.26853" lon="-2.32825">
        <ele>0.60000002384186</ele>
        <time>2021-03-21T08:50:07.000Z</time>
      </trkpt>
      <trkpt lat="47.26856" lon="-2.32833">
        <ele>8.2</ele>
        <time>2021-03-21T08:50:08.000Z</time>
      </trkpt>
      <trkpt lat="47.2686" lon="-2.32842">
        <ele>-0.80000001192093</ele>
        <time>2021-03-21T08:50:09.000Z</time>
      </trkpt>
      <trkpt lat="47.26864" lon="-2.32851">
        <ele>-1.6000000238419</ele>
        <time>2021-03-21T08:50:10.000Z</time>
      </trkpt>
      <trkpt lat="47.26866" lon="-2.32859">
        <ele>-2.2000000476837</ele>
        <time>2021-03-21T08:50:11.000Z</time>
      </trkpt>
      <trkpt lat="47.26867" lon="-2.32867">
        <ele>-3</ele>
        <time>2021-03-21T08:50:12.000Z</time>
      </trkpt>
      <trkpt lat="47.26866" lon="-2.32873">
        <ele>-3.7999999523163</ele>
        <time>2021-03-21T08:50:13.000Z</time>
      </trkpt>
      <trkpt lat="47.26863" lon="-2.32878">
        <ele>-4.5999999046326</ele>
        <time>2021-03-21T08:50:14.000Z</time>
      </trkpt>
      <trkpt lat="47.26857" lon="-2.32881">
        <ele>-5.4000000953674</ele>
        <time>2021-03-21T08:50:15.000Z</time>
      </trkpt>
      <trkpt lat="47.26852" lon="-2.32882">
        <ele>-6.1999998092651</ele>
        <time>2021-03-21T08:50:16.000Z</time>
      </trkpt>
      <trkpt lat="47.26846" lon="-2.32884">
        <ele>-7</ele>
        <time>2021-03-21T08:50:17.000Z</time>
      </trkpt>
      <trkpt lat="47.26841" lon="-2.32885">
        <ele>-7.8000001907349</ele>
        <time>2021-03-21T08:50:18.000Z</time>
      </trkpt>
      <trkpt lat="47.26835" lon="-2.32888">
        <ele>-7.8000001907349</ele>
        <time>2021-03-21T08:50:19.000Z</time>
      </trkpt>
      <trkpt lat="47.26824" lon="-2.32897">
        <ele>-7.8000001907349</ele>
        <time>2021-03-21T08:50:21.000Z</time>
      </trkpt>
      <trkpt lat="47.26809" lon="-2.32913">
        <ele>-7.8000001907349</ele>
        <time>2021-03-21T08:50:24.000Z</time>
      </trkpt>
      <trkpt lat="47.26798" lon="-2.3292">
        <ele>-7.8000001907349</ele>
        <time>2021-03-21T08:50:26.000Z</time>
      </trkpt>
      <trkpt lat="47.26787" lon="-2.32928">
        <ele>-7.8000001907349</ele>
        <time>2021-03-21T08:50:28.000Z</time>
      </trkpt>
      <trkpt lat="47.26776" lon="-2.32941">
        <ele>-7.8000001907349</ele>
        <time>2021-03-21T08:50:30.000Z</time>
      </trkpt>
      <trkpt lat="47.26767" lon="-2.32951">
        <ele>-7.8000001907349</ele>
        <time>2021-03-21T08:50:32.000Z</time>
      </trkpt>
      <trkpt lat="47.26753" lon="-2.32966">
        <ele>-7.8000001907349</ele>
        <time>2021-03-21T08:50:35.000Z</time>
      </trkpt>
      <trkpt lat="47.26744" lon="-2.32978">
        <ele>-7.8000001907349</ele>
        <time>2021-03-21T08:50:37.000Z</time>
      </trkpt>
      <trkpt lat="47.26738" lon="-2.32992">
        <ele>-7.8000001907349</ele>
        <time>2021-03-21T08:50:39.000Z</time>
      </trkpt>
      <trkpt lat="47.26735" lon="-2.33027">
        <ele>-7.8000001907349</ele>
        <time>2021-03-21T08:50:43.000Z</time>
      </trkpt>
      <trkpt lat="47.26729" lon="-2.33052">
        <ele>-7.8000001907349</ele>
        <time>2021-03-21T08:50:46.000Z</time>
      </trkpt>
      <trkpt lat="47.26714" lon="-2.3308">
        <ele>-7.8000001907349</ele>
        <time>2021-03-21T08:50:50.000Z</time>
      </trkpt>
      <trkpt lat="47.26705" lon="-2.33091">
        <ele>-8.1999998092651</ele>
        <time>2021-03-21T08:50:52.000Z</time>
      </trkpt>
      <trkpt lat="47.267" lon="-2.33096">
        <ele>-8.6000003814697</ele>
        <time>2021-03-21T08:50:53.000Z</time>
      </trkpt>
      <trkpt lat="47.26695" lon="-2.33101">
        <ele>-9</ele>
        <time>2021-03-21T08:50:54.000Z</time>
      </trkpt>
      <trkpt lat="47.26691" lon="-2.33106">
        <ele>-9.3999996185303</ele>
        <time>2021-03-21T08:50:55.000Z</time>
      </trkpt>
      <trkpt lat="47.26686" lon="-2.33111">
        <ele>-9.8000001907349</ele>
        <time>2021-03-21T08:50:56.000Z</time>
      </trkpt>
      <trkpt lat="47.26682" lon="-2.33116">
        <ele>-9.8000001907349</ele>
        <time>2021-03-21T08:50:57.000Z</time>
      </trkpt>
      <trkpt lat="47.26662" lon="-2.3313">
        <ele>-9.8000001907349</ele>
        <time>2021-03-21T08:51:01.000Z</time>
      </trkpt>
      <trkpt lat="47.26644" lon="-2.33147">
        <ele>-9.8000001907349</ele>
        <time>2021-03-21T08:51:05.000Z</time>
      </trkpt>
      <trkpt lat="47.26633" lon="-2.33152">
        <ele>-9.8000001907349</ele>
        <time>2021-03-21T08:51:07.000Z</time>
      </trkpt>
      <trkpt lat="47.26614" lon="-2.33151">
        <ele>-9.8000001907349</ele>
        <time>2021-03-21T08:51:11.000Z</time>
      </trkpt>
      <trkpt lat="47.26607" lon="-2.33162">
        <ele>-9.8000001907349</ele>
        <time>2021-03-21T08:51:13.000Z</time>
      </trkpt>
      <trkpt lat="47.26604" lon="-2.33168">
        <ele>-9.8000001907349</ele>
        <time>2021-03-21T08:51:14.000Z</time>
      </trkpt>
      <trkpt lat="47.26602" lon="-2.33174">
        <ele>-9.8000001907349</ele>
        <time>2021-03-21T08:51:15.000Z</time>
      </trkpt>
      <trkpt lat="47.26596" lon="-2.3319">
        <ele>-9.8000001907349</ele>
        <time>2021-03-21T08:51:18.000Z</time>
      </trkpt>
      <trkpt lat="47.26585" lon="-2.33206">
        <ele>-9.8000001907349</ele>
        <time>2021-03-21T08:51:22.000Z</time>
      </trkpt>
      <trkpt lat="47.26581" lon="-2.33209">
        <ele>-9.8000001907349</ele>
        <time>2021-03-21T08:51:23.000Z</time>
      </trkpt>
      <trkpt lat="47.26567" lon="-2.33219">
        <ele>-9.8000001907349</ele>
        <time>2021-03-21T08:51:26.000Z</time>
      </trkpt>
      <trkpt lat="47.26562" lon="-2.33221">
        <ele>-9.8000001907349</ele>
        <time>2021-03-21T08:51:27.000Z</time>
      </trkpt>
      <trkpt lat="47.26533" lon="-2.33241">
        <ele>-9.8000001907349</ele>
        <time>2021-03-21T08:51:33.000Z</time>
      </trkpt>
      <trkpt lat="47.26511" lon="-2.33256">
        <ele>-9.8000001907349</ele>
        <time>2021-03-21T08:51:39.000Z</time>
      </trkpt>
      <trkpt lat="47.26502" lon="-2.33267">
        <ele>-9.8000001907349</ele>
        <time>2021-03-21T08:51:43.000Z</time>
      </trkpt>
      <trkpt lat="47.26507" lon="-2.33282">
        <ele>-9.8000001907349</ele>
        <time>2021-03-21T08:51:47.000Z</time>
      </trkpt>
      <trkpt lat="47.2652" lon="-2.33286">
        <ele>-9.8000001907349</ele>
        <time>2021-03-21T08:51:51.000Z</time>
      </trkpt>
      <trkpt lat="47.26527" lon="-2.33284">
        <ele>-9.8000001907349</ele>
        <time>2021-03-21T08:51:53.000Z</time>
      </trkpt>
      <trkpt lat="47.2653" lon="-2.33285">
        <ele>-9.8000001907349</ele>
        <time>2021-03-21T08:51:54.000Z</time>
      </trkpt>
      <trkpt lat="47.26532" lon="-2.33289">
        <ele>-9.8000001907349</ele>
        <time>2021-03-21T08:51:55.000Z</time>
      </trkpt>
      <trkpt lat="47.26539" lon="-2.333">
        <ele>-9.8000001907349</ele>
        <time>2021-03-21T08:51:58.000Z</time>
      </trkpt>
      <trkpt lat="47.26542" lon="-2.333">
        <ele>-9.8000001907349</ele>
        <time>2021-03-21T08:51:59.000Z</time>
      </trkpt>
      <trkpt lat="47.2655" lon="-2.33289">
        <ele>-9.8000001907349</ele>
        <time>2021-03-21T08:52:02.000Z</time>
      </trkpt>
      <trkpt lat="47.26561" lon="-2.33277">
        <ele>-9.8000001907349</ele>
        <time>2021-03-21T08:52:05.000Z</time>
      </trkpt>
      <trkpt lat="47.26574" lon="-2.33264">
        <ele>-9.8000001907349</ele>
        <time>2021-03-21T08:52:08.000Z</time>
      </trkpt>
      <trkpt lat="47.26599" lon="-2.33239">
        <ele>-9.8000001907349</ele>
        <time>2021-03-21T08:52:15.000Z</time>
      </trkpt>
      <trkpt lat="47.26628" lon="-2.3321">
        <ele>-9.8000001907349</ele>
        <time>2021-03-21T08:52:23.000Z</time>
      </trkpt>
      <trkpt lat="47.26648" lon="-2.33189">
        <ele>-9.8000001907349</ele>
        <time>2021-03-21T08:52:30.000Z</time>
      </trkpt>
      <trkpt lat="47.26666" lon="-2.3317">
        <ele>-9.8000001907349</ele>
        <time>2021-03-21T08:52:38.000Z</time>
      </trkpt>
      <trkpt lat="47.26673" lon="-2.33162">
        <ele>-9.8000001907349</ele>
        <time>2021-03-21T08:52:43.000Z</time>
      </trkpt>
      <trkpt lat="47.26675" lon="-2.33162">
        <ele>-9.8000001907349</ele>
        <time>2021-03-21T08:52:44.000Z</time>
      </trkpt>
      <trkpt lat="47.26681" lon="-2.33166">
        <ele>-9.8000001907349</ele>
        <time>2021-03-21T08:52:47.000Z</time>
      </trkpt>
      <trkpt lat="47.26683" lon="-2.33168">
        <ele>-9.8000001907349</ele>
        <time>2021-03-21T08:52:48.000Z</time>
      </trkpt>
      <trkpt lat="47.26689" lon="-2.33175">
        <ele>-9.8000001907349</ele>
        <time>2021-03-21T08:52:53.000Z</time>
      </trkpt>
      <trkpt lat="47.26691" lon="-2.33177">
        <ele>-9.8000001907349</ele>
        <time>2021-03-21T08:52:54.000Z</time>
      </trkpt>
      <trkpt lat="47.26693" lon="-2.33187">
        <ele>-9.8000001907349</ele>
        <time>2021-03-21T08:52:57.000Z</time>
      </trkpt>
      <trkpt lat="47.26696" lon="-2.33195">
        <ele>-9.8000001907349</ele>
        <time>2021-03-21T08:52:59.000Z</time>
      </trkpt>
      <trkpt lat="47.26699" lon="-2.33207">
        <ele>-9.8000001907349</ele>
        <time>2021-03-21T08:53:02.000Z</time>
      </trkpt>
      <trkpt lat="47.26701" lon="-2.33225">
        <ele>-9.8000001907349</ele>
        <time>2021-03-21T08:53:07.000Z</time>
      </trkpt>
      <trkpt lat="47.26709" lon="-2.33254">
        <ele>-9.8000001907349</ele>
        <time>2021-03-21T08:53:13.000Z</time>
      </trkpt>
      <trkpt lat="47.26711" lon="-2.33282">
        <ele>-9.8000001907349</ele>
        <time>2021-03-21T08:53:18.000Z</time>
      </trkpt>
      <trkpt lat="47.26718" lon="-2.33313">
        <ele>-9.8000001907349</ele>
        <time>2021-03-21T08:53:24.000Z</time>
      </trkpt>
      <trkpt lat="47.26731" lon="-2.33326">
        <ele>-9.8000001907349</ele>
        <time>2021-03-21T08:53:29.000Z</time>
      </trkpt>
      <trkpt lat="47.26748" lon="-2.33338">
        <ele>-9.8000001907349</ele>
        <time>2021-03-21T08:53:35.000Z</time>
      </trkpt>
      <trkpt lat="47.26755" lon="-2.33364">
        <ele>-9.8000001907349</ele>
        <time>2021-03-21T08:53:39.000Z</time>
      </trkpt>
      <trkpt lat="47.26757" lon="-2.3338">
        <ele>-9.8000001907349</ele>
        <time>2021-03-21T08:53:41.000Z</time>
      </trkpt>
      <trkpt lat="47.26759" lon="-2.33412">
        <ele>-9.8000001907349</ele>
        <time>2021-03-21T08:53:45.000Z</time>
      </trkpt>
      <trkpt lat="47.26761" lon="-2.33427">
        <ele>-9.8000001907349</ele>
        <time>2021-03-21T08:53:47.000Z</time>
      </trkpt>
      <trkpt lat="47.26768" lon="-2.33472">
        <ele>-9.8000001907349</ele>
        <time>2021-03-21T08:53:53.000Z</time>
      </trkpt>
      <trkpt lat="47.26775" lon="-2.3352">
        <ele>-9.8000001907349</ele>
        <time>2021-03-21T08:54:00.000Z</time>
      </trkpt>
      <trkpt lat="47.2678" lon="-2.3356">
        <ele>-9.8000001907349</ele>
        <time>2021-03-21T08:54:06.000Z</time>
      </trkpt>
      <trkpt lat="47.26782" lon="-2.33566">
        <ele>-9.8000001907349</ele>
        <time>2021-03-21T08:54:07.000Z</time>
      </trkpt>
      <trkpt lat="47.26795" lon="-2.33568">
        <ele>-9.8000001907349</ele>
        <time>2021-03-21T08:54:10.000Z</time>
      </trkpt>
      <trkpt lat="47.26808" lon="-2.33562">
        <ele>-9.8000001907349</ele>
        <time>2021-03-21T08:54:13.000Z</time>
      </trkpt>
      <trkpt lat="47.2682" lon="-2.33555">
        <ele>-9.8000001907349</ele>
        <time>2021-03-21T08:54:16.000Z</time>
      </trkpt>
      <trkpt lat="47.2683" lon="-2.33551">
        <ele>-9.8000001907349</ele>
        <time>2021-03-21T08:54:18.000Z</time>
      </trkpt>
      <trkpt lat="47.26838" lon="-2.33548">
        <ele>-9.8000001907349</ele>
        <time>2021-03-21T08:54:20.000Z</time>
      </trkpt>
      <trkpt lat="47.26858" lon="-2.33536">
        <ele>-9.8000001907349</ele>
        <time>2021-03-21T08:54:24.000Z</time>
      </trkpt>
      <trkpt lat="47.26863" lon="-2.33535">
        <ele>-9.8000001907349</ele>
        <time>2021-03-21T08:54:25.000Z</time>
      </trkpt>
      <trkpt lat="47.26879" lon="-2.33532">
        <ele>-9.8000001907349</ele>
        <time>2021-03-21T08:54:28.000Z</time>
      </trkpt>
      <trkpt lat="47.26887" lon="-2.33525">
        <ele>-9.8000001907349</ele>
        <time>2021-03-21T08:54:30.000Z</time>
      </trkpt>
      <trkpt lat="47.26887" lon="-2.33514">
        <ele>-9.3999996185303</ele>
        <time>2021-03-21T08:54:32.000Z</time>
      </trkpt>
      <trkpt lat="47.26886" lon="-2.33508">
        <ele>-8.8000001907349</ele>
        <time>2021-03-21T08:54:33.000Z</time>
      </trkpt>
      <trkpt lat="47.26885" lon="-2.33503">
        <ele>-8.3999996185303</ele>
        <time>2021-03-21T08:54:34.000Z</time>
      </trkpt>
      <trkpt lat="47.26884" lon="-2.33498">
        <ele>-8</ele>
        <time>2021-03-21T08:54:35.000Z</time>
      </trkpt>
      <trkpt lat="47.26884" lon="-2.33492">
        <ele>-7.5999999046326</ele>
        <time>2021-03-21T08:54:36.000Z</time>
      </trkpt>
      <trkpt lat="47.26881" lon="-2.33477">
        <ele>-7.1999998092651</ele>
        <time>2021-03-21T08:54:39.000Z</time>
      </trkpt>
      <trkpt lat="47.2688" lon="-2.33472">
        <ele>-6.8000001907349</ele>
        <time>2021-03-21T08:54:40.000Z</time>
      </trkpt>
      <trkpt lat="47.2688" lon="-2.33468">
        <ele>-6.4000000953674</ele>
        <time>2021-03-21T08:54:41.000Z</time>
      </trkpt>
      <trkpt lat="47.26879" lon="-2.33464">
        <ele>-6</ele>
        <time>2021-03-21T08:54:42.000Z</time>
      </trkpt>
      <trkpt lat="47.26877" lon="-2.3346">
        <ele>-5.4000000953674</ele>
        <time>2021-03-21T08:54:43.000Z</time>
      </trkpt>
      <trkpt lat="47.26876" lon="-2.33456">
        <ele>-5</ele>
        <time>2021-03-21T08:54:44.000Z</time>
      </trkpt>
      <trkpt lat="47.26875" lon="-2.33452">
        <ele>-4.5999999046326</ele>
        <time>2021-03-21T08:54:45.000Z</time>
      </trkpt>
      <trkpt lat="47.26875" lon="-2.33448">
        <ele>-4.1999998092651</ele>
        <time>2021-03-21T08:54:46.000Z</time>
      </trkpt>
      <trkpt lat="47.26875" lon="-2.33444">
        <ele>-3.7999999523163</ele>
        <time>2021-03-21T08:54:47.000Z</time>
      </trkpt>
      <trkpt lat="47.26875" lon="-2.33441">
        <ele>-3.4000000953674</ele>
        <time>2021-03-21T08:54:48.000Z</time>
      </trkpt>
      <trkpt lat="47.26876" lon="-2.33438">
        <ele>-3.4000000953674</ele>
        <time>2021-03-21T08:54:49.000Z</time>
      </trkpt>
      <trkpt lat="47.26879" lon="-2.3343">
        <ele>-3</ele>
        <time>2021-03-21T08:54:51.000Z</time>
      </trkpt>
      <trkpt lat="47.2688" lon="-2.33427">
        <ele>-2</ele>
        <time>2021-03-21T08:54:52.000Z</time>
      </trkpt>
      <trkpt lat="47.26882" lon="-2.33424">
        <ele>-1.6000000238419</ele>
        <time>2021-03-21T08:54:53.000Z</time>
      </trkpt>
      <trkpt lat="47.26883" lon="-2.33421">
        <ele>-1.2000000476837</ele>
        <time>2021-03-21T08:54:54.000Z</time>
      </trkpt>
      <trkpt lat="47.26888" lon="-2.33416">
        <ele>-0.80000001192093</ele>
        <time>2021-03-21T08:54:56.000Z</time>
      </trkpt>
      <trkpt lat="47.26892" lon="-2.33414">
        <ele>-0.40000000596046</ele>
        <time>2021-03-21T08:54:57.000Z</time>
      </trkpt>
      <trkpt lat="47.26895" lon="-2.33412">
        <ele>16.4</ele>
        <time>2021-03-21T08:54:58.000Z</time>
      </trkpt>
      <trkpt lat="47.26899" lon="-2.3341">
        <ele>0.40000000596046</ele>
        <time>2021-03-21T08:54:59.000Z</time>
      </trkpt>
      <trkpt lat="47.26903" lon="-2.33408">
        <ele>0.80000001192093</ele>
        <time>2021-03-21T08:55:00.000Z</time>
      </trkpt>
      <trkpt lat="47.26916" lon="-2.33401">
        <ele>1.3999999761581</ele>
        <time>2021-03-21T08:55:03.000Z</time>
      </trkpt>
      <trkpt lat="47.26919" lon="-2.33399">
        <ele>1.7999999523163</ele>
        <time>2021-03-21T08:55:04.000Z</time>
      </trkpt>
      <trkpt lat="47.26923" lon="-2.33398">
        <ele>2.2000000476837</ele>
        <time>2021-03-21T08:55:05.000Z</time>
      </trkpt>
      <trkpt lat="47.26927" lon="-2.33396">
        <ele>2.5999999046326</ele>
        <time>2021-03-21T08:55:06.000Z</time>
      </trkpt>
      <trkpt lat="47.26931" lon="-2.33394">
        <ele>3</ele>
        <time>2021-03-21T08:55:07.000Z</time>
      </trkpt>
      <trkpt lat="47.26944" lon="-2.33389">
        <ele>3</ele>
        <time>2021-03-21T08:55:10.000Z</time>
      </trkpt>
      <trkpt lat="47.26952" lon="-2.33386">
        <ele>3.4000000953674</ele>
        <time>2021-03-21T08:55:12.000Z</time>
      </trkpt>
      <trkpt lat="47.26956" lon="-2.33384">
        <ele>3.7999999523163</ele>
        <time>2021-03-21T08:55:13.000Z</time>
      </trkpt>
      <trkpt lat="47.2696" lon="-2.33382">
        <ele>4.1999998092651</ele>
        <time>2021-03-21T08:55:14.000Z</time>
      </trkpt>
      <trkpt lat="47.26964" lon="-2.3338">
        <ele>4.5999999046326</ele>
        <time>2021-03-21T08:55:15.000Z</time>
      </trkpt>
      <trkpt lat="47.26967" lon="-2.33377">
        <ele>5</ele>
        <time>2021-03-21T08:55:16.000Z</time>
      </trkpt>
      <trkpt lat="47.2697" lon="-2.33372">
        <ele>5</ele>
        <time>2021-03-21T08:55:17.000Z</time>
      </trkpt>
      <trkpt lat="47.26965" lon="-2.33355">
        <ele>5</ele>
        <time>2021-03-21T08:55:20.000Z</time>
      </trkpt>
      <trkpt lat="47.26963" lon="-2.33349">
        <ele>5</ele>
        <time>2021-03-21T08:55:21.000Z</time>
      </trkpt>
      <trkpt lat="47.26953" lon="-2.33317">
        <ele>5</ele>
        <time>2021-03-21T08:55:26.000Z</time>
      </trkpt>
      <trkpt lat="47.26939" lon="-2.33277">
        <ele>5</ele>
        <time>2021-03-21T08:55:32.000Z</time>
      </trkpt>
      <trkpt lat="47.26928" lon="-2.33235">
        <ele>5</ele>
        <time>2021-03-21T08:55:38.000Z</time>
      </trkpt>
      <trkpt lat="47.2693" lon="-2.33229">
        <ele>5</ele>
        <time>2021-03-21T08:55:39.000Z</time>
      </trkpt>
      <trkpt lat="47.26941" lon="-2.33219">
        <ele>5</ele>
        <time>2021-03-21T08:55:42.000Z</time>
      </trkpt>
      <trkpt lat="47.26949" lon="-2.33215">
        <ele>5</ele>
        <time>2021-03-21T08:55:44.000Z</time>
      </trkpt>
      <trkpt lat="47.26954" lon="-2.33212">
        <ele>5</ele>
        <time>2021-03-21T08:55:45.000Z</time>
      </trkpt>
      <trkpt lat="47.26962" lon="-2.33206">
        <ele>5</ele>
        <time>2021-03-21T08:55:47.000Z</time>
      </trkpt>
      <trkpt lat="47.2697" lon="-2.33199">
        <ele>5</ele>
        <time>2021-03-21T08:55:49.000Z</time>
      </trkpt>
      <trkpt lat="47.2698" lon="-2.33186">
        <ele>5</ele>
        <time>2021-03-21T08:55:52.000Z</time>
      </trkpt>
      <trkpt lat="47.26988" lon="-2.33177">
        <ele>5</ele>
        <time>2021-03-21T08:55:54.000Z</time>
      </trkpt>
      <trkpt lat="47.27" lon="-2.33167">
        <ele>5</ele>
        <time>2021-03-21T08:55:57.000Z</time>
      </trkpt>
      <trkpt lat="47.27008" lon="-2.3316">
        <ele>5.4000000953674</ele>
        <time>2021-03-21T08:55:59.000Z</time>
      </trkpt>
      <trkpt lat="47.27012" lon="-2.33157">
        <ele>5.8000001907349</ele>
        <time>2021-03-21T08:56:00.000Z</time>
      </trkpt>
      <trkpt lat="47.27016" lon="-2.33153">
        <ele>6.4000000953674</ele>
        <time>2021-03-21T08:56:01.000Z</time>
      </trkpt>
      <trkpt lat="47.2702" lon="-2.33149">
        <ele>6.8000001907349</ele>
        <time>2021-03-21T08:56:02.000Z</time>
      </trkpt>
      <trkpt lat="47.27024" lon="-2.33145">
        <ele>7.1999998092651</ele>
        <time>2021-03-21T08:56:03.000Z</time>
      </trkpt>
      <trkpt lat="47.27028" lon="-2.33141">
        <ele>7.1999998092651</ele>
        <time>2021-03-21T08:56:04.000Z</time>
      </trkpt>
      <trkpt lat="47.27047" lon="-2.33122">
        <ele>7.1999998092651</ele>
        <time>2021-03-21T08:56:09.000Z</time>
      </trkpt>
      <trkpt lat="47.27055" lon="-2.33114">
        <ele>7.1999998092651</ele>
        <time>2021-03-21T08:56:11.000Z</time>
      </trkpt>
      <trkpt lat="47.27074" lon="-2.33092">
        <ele>7.1999998092651</ele>
        <time>2021-03-21T08:56:16.000Z</time>
      </trkpt>
      <trkpt lat="47.271" lon="-2.33066">
        <ele>7.1999998092651</ele>
        <time>2021-03-21T08:56:23.000Z</time>
      </trkpt>
      <trkpt lat="47.27108" lon="-2.33059">
        <ele>7.1999998092651</ele>
        <time>2021-03-21T08:56:25.000Z</time>
      </trkpt>
      <trkpt lat="47.2713" lon="-2.33043">
        <ele>7.1999998092651</ele>
        <time>2021-03-21T08:56:30.000Z</time>
      </trkpt>
      <trkpt lat="47.27156" lon="-2.33023">
        <ele>7.1999998092651</ele>
        <time>2021-03-21T08:56:36.000Z</time>
      </trkpt>
      <trkpt lat="47.27187" lon="-2.33001">
        <ele>7.1999998092651</ele>
        <time>2021-03-21T08:56:43.000Z</time>
      </trkpt>
      <trkpt lat="47.27209" lon="-2.32986">
        <ele>7.1999998092651</ele>
        <time>2021-03-21T08:56:48.000Z</time>
      </trkpt>
      <trkpt lat="47.27217" lon="-2.32985">
        <ele>6.8000001907349</ele>
        <time>2021-03-21T08:56:50.000Z</time>
      </trkpt>
      <trkpt lat="47.27221" lon="-2.32987">
        <ele>6.4000000953674</ele>
        <time>2021-03-21T08:56:51.000Z</time>
      </trkpt>
      <trkpt lat="47.27225" lon="-2.32991">
        <ele>6</ele>
        <time>2021-03-21T08:56:52.000Z</time>
      </trkpt>
      <trkpt lat="47.27228" lon="-2.32996">
        <ele>5.5999999046326</ele>
        <time>2021-03-21T08:56:53.000Z</time>
      </trkpt>
      <trkpt lat="47.27231" lon="-2.33001">
        <ele>5.1999998092651</ele>
        <time>2021-03-21T08:56:54.000Z</time>
      </trkpt>
      <trkpt lat="47.27234" lon="-2.33006">
        <ele>5.1999998092651</ele>
        <time>2021-03-21T08:56:55.000Z</time>
      </trkpt>
      <trkpt lat="47.27251" lon="-2.33035">
        <ele>5.1999998092651</ele>
        <time>2021-03-21T08:57:01.000Z</time>
      </trkpt>
      <trkpt lat="47.27262" lon="-2.33052">
        <ele>5.5999999046326</ele>
        <time>2021-03-21T08:57:05.000Z</time>
      </trkpt>
      <trkpt lat="47.27265" lon="-2.33056">
        <ele>6</ele>
        <time>2021-03-21T08:57:06.000Z</time>
      </trkpt>
      <trkpt lat="47.27267" lon="-2.3306">
        <ele>6.4000000953674</ele>
        <time>2021-03-21T08:57:07.000Z</time>
      </trkpt>
      <trkpt lat="47.27269" lon="-2.33064">
        <ele>6.8000001907349</ele>
        <time>2021-03-21T08:57:08.000Z</time>
      </trkpt>
      <trkpt lat="47.27271" lon="-2.33067">
        <ele>7.1999998092651</ele>
        <time>2021-03-21T08:57:09.000Z</time>
      </trkpt>
      <trkpt lat="47.27287" lon="-2.33086">
        <ele>7.1999998092651</ele>
        <time>2021-03-21T08:57:15.000Z</time>
      </trkpt>
      <trkpt lat="47.2729" lon="-2.3309">
        <ele>7.1999998092651</ele>
        <time>2021-03-21T08:57:16.000Z</time>
      </trkpt>
      <trkpt lat="47.27303" lon="-2.33111">
        <ele>7.1999998092651</ele>
        <time>2021-03-21T08:57:21.000Z</time>
      </trkpt>
      <trkpt lat="47.27308" lon="-2.33115">
        <ele>7.1999998092651</ele>
        <time>2021-03-21T08:57:23.000Z</time>
      </trkpt>
      <trkpt lat="47.27313" lon="-2.33114">
        <ele>7.1999998092651</ele>
        <time>2021-03-21T08:57:25.000Z</time>
      </trkpt>
      <trkpt lat="47.27322" lon="-2.33096">
        <ele>7.1999998092651</ele>
        <time>2021-03-21T08:57:30.000Z</time>
      </trkpt>
      <trkpt lat="47.27334" lon="-2.33065">
        <ele>7.1999998092651</ele>
        <time>2021-03-21T08:57:36.000Z</time>
      </trkpt>
      <trkpt lat="47.27337" lon="-2.33053">
        <ele>7.1999998092651</ele>
        <time>2021-03-21T08:57:38.000Z</time>
      </trkpt>
      <trkpt lat="47.27352" lon="-2.33008">
        <ele>7.1999998092651</ele>
        <time>2021-03-21T08:57:45.000Z</time>
      </trkpt>
      <trkpt lat="47.27358" lon="-2.32989">
        <ele>7.1999998092651</ele>
        <time>2021-03-21T08:57:48.000Z</time>
      </trkpt>
      <trkpt lat="47.27364" lon="-2.32978">
        <ele>7.1999998092651</ele>
        <time>2021-03-21T08:57:50.000Z</time>
      </trkpt>
      <trkpt lat="47.27386" lon="-2.32937">
        <ele>7.1999998092651</ele>
        <time>2021-03-21T08:57:57.000Z</time>
      </trkpt>
      <trkpt lat="47.27393" lon="-2.32927">
        <ele>7.1999998092651</ele>
        <time>2021-03-21T08:57:59.000Z</time>
      </trkpt>
      <trkpt lat="47.27396" lon="-2.32916">
        <ele>7.1999998092651</ele>
        <time>2021-03-21T08:58:01.000Z</time>
      </trkpt>
      <trkpt lat="47.274" lon="-2.32905">
        <ele>6.8000001907349</ele>
        <time>2021-03-21T08:58:03.000Z</time>
      </trkpt>
      <trkpt lat="47.27402" lon="-2.32899">
        <ele>6.4000000953674</ele>
        <time>2021-03-21T08:58:04.000Z</time>
      </trkpt>
      <trkpt lat="47.27405" lon="-2.32894">
        <ele>6</ele>
        <time>2021-03-21T08:58:05.000Z</time>
      </trkpt>
      <trkpt lat="47.27408" lon="-2.32889">
        <ele>5.5999999046326</ele>
        <time>2021-03-21T08:58:06.000Z</time>
      </trkpt>
      <trkpt lat="47.27411" lon="-2.32884">
        <ele>5.1999998092651</ele>
        <time>2021-03-21T08:58:07.000Z</time>
      </trkpt>
      <trkpt lat="47.27417" lon="-2.32866">
        <ele>5.1999998092651</ele>
        <time>2021-03-21T08:58:10.000Z</time>
      </trkpt>
      <trkpt lat="47.27429" lon="-2.32831">
        <ele>5.1999998092651</ele>
        <time>2021-03-21T08:58:15.000Z</time>
      </trkpt>
      <trkpt lat="47.27431" lon="-2.32823">
        <ele>5.1999998092651</ele>
        <time>2021-03-21T08:58:16.000Z</time>
      </trkpt>
      <trkpt lat="47.27433" lon="-2.32815">
        <ele>4.8000001907349</ele>
        <time>2021-03-21T08:58:17.000Z</time>
      </trkpt>
      <trkpt lat="47.27434" lon="-2.32806">
        <ele>4.4000000953674</ele>
        <time>2021-03-21T08:58:18.000Z</time>
      </trkpt>
      <trkpt lat="47.27435" lon="-2.32798">
        <ele>4</ele>
        <time>2021-03-21T08:58:19.000Z</time>
      </trkpt>
      <trkpt lat="47.27436" lon="-2.32789">
        <ele>3.5999999046326</ele>
        <time>2021-03-21T08:58:20.000Z</time>
      </trkpt>
      <trkpt lat="47.27437" lon="-2.32781">
        <ele>3</ele>
        <time>2021-03-21T08:58:21.000Z</time>
      </trkpt>
      <trkpt lat="47.27439" lon="-2.32773">
        <ele>3</ele>
        <time>2021-03-21T08:58:22.000Z</time>
      </trkpt>
      <trkpt lat="47.27441" lon="-2.32765">
        <ele>3</ele>
        <time>2021-03-21T08:58:23.000Z</time>
      </trkpt>
      <trkpt lat="47.2745" lon="-2.32733">
        <ele>2.5999999046326</ele>
        <time>2021-03-21T08:58:27.000Z</time>
      </trkpt>
      <trkpt lat="47.27453" lon="-2.32724">
        <ele>2.2000000476837</ele>
        <time>2021-03-21T08:58:28.000Z</time>
      </trkpt>
      <trkpt lat="47.27455" lon="-2.32715">
        <ele>1.7999999523163</ele>
        <time>2021-03-21T08:58:29.000Z</time>
      </trkpt>
      <trkpt lat="47.27459" lon="-2.32706">
        <ele>1.3999999761581</ele>
        <time>2021-03-21T08:58:30.000Z</time>
      </trkpt>
      <trkpt lat="47.27464" lon="-2.32696">
        <ele>0.80000001192093</ele>
        <time>2021-03-21T08:58:31.000Z</time>
      </trkpt>
      <trkpt lat="47.27469" lon="-2.32689">
        <ele>-0.20000000298023</ele>
        <time>2021-03-21T08:58:32.000Z</time>
      </trkpt>
      <trkpt lat="47.27474" lon="-2.32684">
        <ele>-0.80000001192093</ele>
        <time>2021-03-21T08:58:33.000Z</time>
      </trkpt>
      <trkpt lat="47.2748" lon="-2.3268">
        <ele>-1.2000000476837</ele>
        <time>2021-03-21T08:58:34.000Z</time>
      </trkpt>
      <trkpt lat="47.27487" lon="-2.32675">
        <ele>-1.2000000476837</ele>
        <time>2021-03-21T08:58:35.000Z</time>
      </trkpt>
      <trkpt lat="47.27494" lon="-2.32669">
        <ele>-1.7999999523163</ele>
        <time>2021-03-21T08:58:36.000Z</time>
      </trkpt>
      <trkpt lat="47.27499" lon="-2.32661">
        <ele>-2.2000000476837</ele>
        <time>2021-03-21T08:58:37.000Z</time>
      </trkpt>
      <trkpt lat="47.27503" lon="-2.32653">
        <ele>-2.5999999046326</ele>
        <time>2021-03-21T08:58:38.000Z</time>
      </trkpt>
      <trkpt lat="47.27507" lon="-2.32645">
        <ele>-3</ele>
        <time>2021-03-21T08:58:39.000Z</time>
      </trkpt>
      <trkpt lat="47.27511" lon="-2.32637">
        <ele>-3.5999999046326</ele>
        <time>2021-03-21T08:58:40.000Z</time>
      </trkpt>
      <trkpt lat="47.27516" lon="-2.3263">
        <ele>-3.5999999046326</ele>
        <time>2021-03-21T08:58:41.000Z</time>
      </trkpt>
      <trkpt lat="47.27527" lon="-2.32621">
        <ele>-3.5999999046326</ele>
        <time>2021-03-21T08:58:43.000Z</time>
      </trkpt>
      <trkpt lat="47.27538" lon="-2.32614">
        <ele>-3.5999999046326</ele>
        <time>2021-03-21T08:58:45.000Z</time>
      </trkpt>
      <trkpt lat="47.27547" lon="-2.32602">
        <ele>-3.5999999046326</ele>
        <time>2021-03-21T08:58:47.000Z</time>
      </trkpt>
      <trkpt lat="47.27552" lon="-2.32581">
        <ele>-3.5999999046326</ele>
        <time>2021-03-21T08:58:50.000Z</time>
      </trkpt>
      <trkpt lat="47.27549" lon="-2.32568">
        <ele>-4</ele>
        <time>2021-03-21T08:58:52.000Z</time>
      </trkpt>
      <trkpt lat="47.27547" lon="-2.32564">
        <ele>-4.4000000953674</ele>
        <time>2021-03-21T08:58:53.000Z</time>
      </trkpt>
      <trkpt lat="47.27544" lon="-2.3256">
        <ele>-4.8000001907349</ele>
        <time>2021-03-21T08:58:54.000Z</time>
      </trkpt>
      <trkpt lat="47.27541" lon="-2.32555">
        <ele>-5.1999998092651</ele>
        <time>2021-03-21T08:58:55.000Z</time>
      </trkpt>
      <trkpt lat="47.27539" lon="-2.3255">
        <ele>-5.5999999046326</ele>
        <time>2021-03-21T08:58:56.000Z</time>
      </trkpt>
      <trkpt lat="47.27537" lon="-2.32538">
        <ele>-5</ele>
        <time>2021-03-21T08:58:58.000Z</time>
      </trkpt>
      <trkpt lat="47.27537" lon="-2.32532">
        <ele>-4.5999999046326</ele>
        <time>2021-03-21T08:58:59.000Z</time>
      </trkpt>
      <trkpt lat="47.27538" lon="-2.32527">
        <ele>-4.1999998092651</ele>
        <time>2021-03-21T08:59:00.000Z</time>
      </trkpt>
      <trkpt lat="47.27539" lon="-2.32521">
        <ele>-3.5999999046326</ele>
        <time>2021-03-21T08:59:01.000Z</time>
      </trkpt>
      <trkpt lat="47.27541" lon="-2.32515">
        <ele>-3.2000000476837</ele>
        <time>2021-03-21T08:59:02.000Z</time>
      </trkpt>
      <trkpt lat="47.27542" lon="-2.3251">
        <ele>-2.7999999523163</ele>
        <time>2021-03-21T08:59:03.000Z</time>
      </trkpt>
      <trkpt lat="47.27544" lon="-2.32505">
        <ele>-2.4000000953674</ele>
        <time>2021-03-21T08:59:04.000Z</time>
      </trkpt>
      <trkpt lat="47.27545" lon="-2.32499">
        <ele>-1.7999999523163</ele>
        <time>2021-03-21T08:59:05.000Z</time>
      </trkpt>
      <trkpt lat="47.27547" lon="-2.32494">
        <ele>-1.3999999761581</ele>
        <time>2021-03-21T08:59:06.000Z</time>
      </trkpt>
      <trkpt lat="47.27549" lon="-2.32488">
        <ele>-1</ele>
        <time>2021-03-21T08:59:07.000Z</time>
      </trkpt>
      <trkpt lat="47.27551" lon="-2.32483">
        <ele>-0.40000000596046</ele>
        <time>2021-03-21T08:59:08.000Z</time>
      </trkpt>
      <trkpt lat="47.27553" lon="-2.32477">
        <ele>17.6</ele>
        <time>2021-03-21T08:59:09.000Z</time>
      </trkpt>
      <trkpt lat="47.27555" lon="-2.32472">
        <ele>0.60000002384186</ele>
        <time>2021-03-21T08:59:10.000Z</time>
      </trkpt>
      <trkpt lat="47.27556" lon="-2.32467">
        <ele>1.2000000476837</ele>
        <time>2021-03-21T08:59:11.000Z</time>
      </trkpt>
      <trkpt lat="47.27559" lon="-2.32455">
        <ele>1.6000000238419</ele>
        <time>2021-03-21T08:59:13.000Z</time>
      </trkpt>
      <trkpt lat="47.2756" lon="-2.32448">
        <ele>2</ele>
        <time>2021-03-21T08:59:14.000Z</time>
      </trkpt>
      <trkpt lat="47.27562" lon="-2.32442">
        <ele>2.4000000953674</ele>
        <time>2021-03-21T08:59:15.000Z</time>
      </trkpt>
      <trkpt lat="47.27564" lon="-2.32436">
        <ele>3</ele>
        <time>2021-03-21T08:59:16.000Z</time>
      </trkpt>
      <trkpt lat="47.27566" lon="-2.3243">
        <ele>3.4000000953674</ele>
        <time>2021-03-21T08:59:17.000Z</time>
      </trkpt>
      <trkpt lat="47.27567" lon="-2.32418">
        <ele>3.4000000953674</ele>
        <time>2021-03-21T08:59:19.000Z</time>
      </trkpt>
      <trkpt lat="47.27569" lon="-2.32394">
        <ele>3.4000000953674</ele>
        <time>2021-03-21T08:59:23.000Z</time>
      </trkpt>
      <trkpt lat="47.27573" lon="-2.32382">
        <ele>3.4000000953674</ele>
        <time>2021-03-21T08:59:25.000Z</time>
      </trkpt>
      <trkpt lat="47.27581" lon="-2.32365">
        <ele>3.4000000953674</ele>
        <time>2021-03-21T08:59:28.000Z</time>
      </trkpt>
      <trkpt lat="47.27586" lon="-2.32354">
        <ele>3.4000000953674</ele>
        <time>2021-03-21T08:59:30.000Z</time>
      </trkpt>
      <trkpt lat="47.27597" lon="-2.32328">
        <ele>3.4000000953674</ele>
        <time>2021-03-21T08:59:35.000Z</time>
      </trkpt>
      <trkpt lat="47.27608" lon="-2.32298">
        <ele>3.4000000953674</ele>
        <time>2021-03-21T08:59:41.000Z</time>
      </trkpt>
      <trkpt lat="47.27603" lon="-2.32283">
        <ele>3.4000000953674</ele>
        <time>2021-03-21T08:59:44.000Z</time>
      </trkpt>
      <trkpt lat="47.27591" lon="-2.32272">
        <ele>3.4000000953674</ele>
        <time>2021-03-21T08:59:47.000Z</time>
      </trkpt>
      <trkpt lat="47.27581" lon="-2.32263">
        <ele>3.4000000953674</ele>
        <time>2021-03-21T08:59:49.000Z</time>
      </trkpt>
      <trkpt lat="47.27541" lon="-2.32228">
        <ele>3.4000000953674</ele>
        <time>2021-03-21T08:59:56.000Z</time>
      </trkpt>
      <trkpt lat="47.27522" lon="-2.32209">
        <ele>3.4000000953674</ele>
        <time>2021-03-21T08:59:59.000Z</time>
      </trkpt>
      <trkpt lat="47.2751" lon="-2.32193">
        <ele>3.4000000953674</ele>
        <time>2021-03-21T09:00:01.000Z</time>
      </trkpt>
      <trkpt lat="47.27504" lon="-2.32185">
        <ele>3</ele>
        <time>2021-03-21T09:00:02.000Z</time>
      </trkpt>
      <trkpt lat="47.27498" lon="-2.32177">
        <ele>2.4000000953674</ele>
        <time>2021-03-21T09:00:03.000Z</time>
      </trkpt>
      <trkpt lat="47.27492" lon="-2.32168">
        <ele>2</ele>
        <time>2021-03-21T09:00:04.000Z</time>
      </trkpt>
      <trkpt lat="47.27485" lon="-2.3216">
        <ele>1.6000000238419</ele>
        <time>2021-03-21T09:00:05.000Z</time>
      </trkpt>
      <trkpt lat="47.27479" lon="-2.32152">
        <ele>1</ele>
        <time>2021-03-21T09:00:06.000Z</time>
      </trkpt>
      <trkpt lat="47.27473" lon="-2.32144">
        <ele>0.60000002384186</ele>
        <time>2021-03-21T09:00:07.000Z</time>
      </trkpt>
      <trkpt lat="47.27467" lon="-2.32136">
        <ele>0.20000000298023</ele>
        <time>2021-03-21T09:00:08.000Z</time>
      </trkpt>
      <trkpt lat="47.27461" lon="-2.32129">
        <ele>-0.40000000596046</ele>
        <time>2021-03-21T09:00:09.000Z</time>
      </trkpt>
      <trkpt lat="47.27455" lon="-2.32121">
        <ele>-1.2000000476837</ele>
        <time>2021-03-21T09:00:10.000Z</time>
      </trkpt>
      <trkpt lat="47.27434" lon="-2.32093">
        <ele>-1.2000000476837</ele>
        <time>2021-03-21T09:00:14.000Z</time>
      </trkpt>
      <trkpt lat="47.274" lon="-2.32054">
        <ele>-1.6000000238419</ele>
        <time>2021-03-21T09:00:20.000Z</time>
      </trkpt>
      <trkpt lat="47.27394" lon="-2.32047">
        <ele>-2</ele>
        <time>2021-03-21T09:00:21.000Z</time>
      </trkpt>
      <trkpt lat="47.27387" lon="-2.3204">
        <ele>-2.4000000953674</ele>
        <time>2021-03-21T09:00:22.000Z</time>
      </trkpt>
      <trkpt lat="47.27381" lon="-2.32033">
        <ele>-3</ele>
        <time>2021-03-21T09:00:23.000Z</time>
      </trkpt>
      <trkpt lat="47.27374" lon="-2.32026">
        <ele>-3.4000000953674</ele>
        <time>2021-03-21T09:00:24.000Z</time>
      </trkpt>
      <trkpt lat="47.27353" lon="-2.32004">
        <ele>-3.7999999523163</ele>
        <time>2021-03-21T09:00:27.000Z</time>
      </trkpt>
      <trkpt lat="47.27347" lon="-2.31997">
        <ele>-4.1999998092651</ele>
        <time>2021-03-21T09:00:28.000Z</time>
      </trkpt>
      <trkpt lat="47.27339" lon="-2.31989">
        <ele>-4.8000001907349</ele>
        <time>2021-03-21T09:00:29.000Z</time>
      </trkpt>
      <trkpt lat="47.27333" lon="-2.31982">
        <ele>-5.1999998092651</ele>
        <time>2021-03-21T09:00:30.000Z</time>
      </trkpt>
      <trkpt lat="47.27326" lon="-2.31975">
        <ele>-5.5999999046326</ele>
        <time>2021-03-21T09:00:31.000Z</time>
      </trkpt>
      <trkpt lat="47.27314" lon="-2.31963">
        <ele>-5.5999999046326</ele>
        <time>2021-03-21T09:00:33.000Z</time>
      </trkpt>
      <trkpt lat="47.27285" lon="-2.31942">
        <ele>-5.5999999046326</ele>
        <time>2021-03-21T09:00:38.000Z</time>
      </trkpt>
      <trkpt lat="47.27251" lon="-2.31931">
        <ele>-5.5999999046326</ele>
        <time>2021-03-21T09:00:44.000Z</time>
      </trkpt>
      <trkpt lat="47.27226" lon="-2.3192">
        <ele>-5.5999999046326</ele>
        <time>2021-03-21T09:00:49.000Z</time>
      </trkpt>
      <trkpt lat="47.27223" lon="-2.3192">
        <ele>-5.5999999046326</ele>
        <time>2021-03-21T09:00:50.000Z</time>
      </trkpt>
      <trkpt lat="47.27215" lon="-2.31933">
        <ele>-5.5999999046326</ele>
        <time>2021-03-21T09:00:53.000Z</time>
      </trkpt>
      <trkpt lat="47.27212" lon="-2.31938">
        <ele>-5.5999999046326</ele>
        <time>2021-03-21T09:00:54.000Z</time>
      </trkpt>
      <trkpt lat="47.27203" lon="-2.31953">
        <ele>-5.5999999046326</ele>
        <time>2021-03-21T09:00:57.000Z</time>
      </trkpt>
      <trkpt lat="47.27194" lon="-2.31962">
        <ele>-6</ele>
        <time>2021-03-21T09:00:59.000Z</time>
      </trkpt>
      <trkpt lat="47.27189" lon="-2.31966">
        <ele>-6.4000000953674</ele>
        <time>2021-03-21T09:01:00.000Z</time>
      </trkpt>
      <trkpt lat="47.27186" lon="-2.31971">
        <ele>-6.8000001907349</ele>
        <time>2021-03-21T09:01:01.000Z</time>
      </trkpt>
      <trkpt lat="47.27182" lon="-2.31976">
        <ele>-7.1999998092651</ele>
        <time>2021-03-21T09:01:02.000Z</time>
      </trkpt>
      <trkpt lat="47.2718" lon="-2.31979">
        <ele>-7.5999999046326</ele>
        <time>2021-03-21T09:01:03.000Z</time>
      </trkpt>
      <trkpt lat="47.27173" lon="-2.3199">
        <ele>-7.5999999046326</ele>
        <time>2021-03-21T09:01:08.000Z</time>
      </trkpt>
      <trkpt lat="47.27167" lon="-2.31995">
        <ele>-7.5999999046326</ele>
        <time>2021-03-21T09:01:12.000Z</time>
      </trkpt>
      <trkpt lat="47.27162" lon="-2.31991">
        <ele>-7.5999999046326</ele>
        <time>2021-03-21T09:01:14.000Z</time>
      </trkpt>
      <trkpt lat="47.27155" lon="-2.31987">
        <ele>-7.5999999046326</ele>
        <time>2021-03-21T09:01:17.000Z</time>
      </trkpt>
      <trkpt lat="47.27152" lon="-2.31984">
        <ele>-7.5999999046326</ele>
        <time>2021-03-21T09:01:18.000Z</time>
      </trkpt>
      <trkpt lat="47.27133" lon="-2.3197">
        <ele>-7.5999999046326</ele>
        <time>2021-03-21T09:01:24.000Z</time>
      </trkpt>
      <trkpt lat="47.2711" lon="-2.3196">
        <ele>-7.5999999046326</ele>
        <time>2021-03-21T09:01:32.000Z</time>
      </trkpt>
      <trkpt lat="47.27097" lon="-2.31959">
        <ele>-7.5999999046326</ele>
        <time>2021-03-21T09:01:37.000Z</time>
      </trkpt>
      <trkpt lat="47.27085" lon="-2.31959">
        <ele>-7.5999999046326</ele>
        <time>2021-03-21T09:01:45.000Z</time>
      </trkpt>
      <trkpt lat="47.27079" lon="-2.31947">
        <ele>-7.5999999046326</ele>
        <time>2021-03-21T09:02:18.000Z</time>
      </trkpt>
      <trkpt lat="47.27078" lon="-2.31939">
        <ele>-7.5999999046326</ele>
        <time>2021-03-21T09:02:21.000Z</time>
      </trkpt>
      <trkpt lat="47.27077" lon="-2.31934">
        <ele>-7.5999999046326</ele>
        <time>2021-03-21T09:02:23.000Z</time>
      </trkpt>
      <trkpt lat="47.27076" lon="-2.3193">
        <ele>-7.1999998092651</ele>
        <time>2021-03-21T09:02:24.000Z</time>
      </trkpt>
      <trkpt lat="47.27076" lon="-2.31926">
        <ele>-6.8000001907349</ele>
        <time>2021-03-21T09:02:25.000Z</time>
      </trkpt>
      <trkpt lat="47.27076" lon="-2.31921">
        <ele>-6.4000000953674</ele>
        <time>2021-03-21T09:02:26.000Z</time>
      </trkpt>
      <trkpt lat="47.27075" lon="-2.31917">
        <ele>-6</ele>
        <time>2021-03-21T09:02:27.000Z</time>
      </trkpt>
      <trkpt lat="47.27075" lon="-2.31912">
        <ele>-5.5999999046326</ele>
        <time>2021-03-21T09:02:28.000Z</time>
      </trkpt>
      <trkpt lat="47.27074" lon="-2.31899">
        <ele>-5.5999999046326</ele>
        <time>2021-03-21T09:02:31.000Z</time>
      </trkpt>
      <trkpt lat="47.27076" lon="-2.31875">
        <ele>-5.5999999046326</ele>
        <time>2021-03-21T09:02:37.000Z</time>
      </trkpt>
      <trkpt lat="47.27078" lon="-2.31863">
        <ele>-5.5999999046326</ele>
        <time>2021-03-21T09:02:41.000Z</time>
      </trkpt>
      <trkpt lat="47.27077" lon="-2.31861">
        <ele>-5.5999999046326</ele>
        <time>2021-03-21T09:02:42.000Z</time>
      </trkpt>
      <trkpt lat="47.27067" lon="-2.31855">
        <ele>-5.5999999046326</ele>
        <time>2021-03-21T09:02:46.000Z</time>
      </trkpt>
      <trkpt lat="47.27065" lon="-2.31853">
        <ele>-5.5999999046326</ele>
        <time>2021-03-21T09:02:47.000Z</time>
      </trkpt>
      <trkpt lat="47.27061" lon="-2.31847">
        <ele>-5.5999999046326</ele>
        <time>2021-03-21T09:02:49.000Z</time>
      </trkpt>
      <trkpt lat="47.2706" lon="-2.31838">
        <ele>-5.1999998092651</ele>
        <time>2021-03-21T09:02:51.000Z</time>
      </trkpt>
      <trkpt lat="47.27059" lon="-2.31833">
        <ele>-4.8000001907349</ele>
        <time>2021-03-21T09:02:52.000Z</time>
      </trkpt>
      <trkpt lat="47.27059" lon="-2.31829">
        <ele>-4.4000000953674</ele>
        <time>2021-03-21T09:02:53.000Z</time>
      </trkpt>
      <trkpt lat="47.27059" lon="-2.31825">
        <ele>-4</ele>
        <time>2021-03-21T09:02:54.000Z</time>
      </trkpt>
      <trkpt lat="47.27058" lon="-2.31821">
        <ele>-3.5999999046326</ele>
        <time>2021-03-21T09:02:55.000Z</time>
      </trkpt>
      <trkpt lat="47.27058" lon="-2.31818">
        <ele>-3.5999999046326</ele>
        <time>2021-03-21T09:02:56.000Z</time>
      </trkpt>
      <trkpt lat="47.27055" lon="-2.31785">
        <ele>-3.5999999046326</ele>
        <time>2021-03-21T09:03:03.000Z</time>
      </trkpt>
      <trkpt lat="47.27054" lon="-2.31777">
        <ele>-3.2000000476837</ele>
        <time>2021-03-21T09:03:05.000Z</time>
      </trkpt>
      <trkpt lat="47.27053" lon="-2.31773">
        <ele>-2.7999999523163</ele>
        <time>2021-03-21T09:03:06.000Z</time>
      </trkpt>
      <trkpt lat="47.27053" lon="-2.31769">
        <ele>-2.4000000953674</ele>
        <time>2021-03-21T09:03:07.000Z</time>
      </trkpt>
      <trkpt lat="47.27052" lon="-2.31765">
        <ele>-2</ele>
        <time>2021-03-21T09:03:08.000Z</time>
      </trkpt>
      <trkpt lat="47.27051" lon="-2.31761">
        <ele>-1.6000000238419</ele>
        <time>2021-03-21T09:03:09.000Z</time>
      </trkpt>
      <trkpt lat="47.27051" lon="-2.31746">
        <ele>-1.6000000238419</ele>
        <time>2021-03-21T09:03:13.000Z</time>
      </trkpt>
      <trkpt lat="47.27049" lon="-2.31734">
        <ele>-1.6000000238419</ele>
        <time>2021-03-21T09:03:16.000Z</time>
      </trkpt>
      <trkpt lat="47.27047" lon="-2.31733">
        <ele>-1.6000000238419</ele>
        <time>2021-03-21T09:03:17.000Z</time>
      </trkpt>
      <trkpt lat="47.27032" lon="-2.3172">
        <ele>-1.6000000238419</ele>
        <time>2021-03-21T09:03:23.000Z</time>
      </trkpt>
      <trkpt lat="47.27026" lon="-2.31708">
        <ele>-1.6000000238419</ele>
        <time>2021-03-21T09:03:27.000Z</time>
      </trkpt>
      <trkpt lat="47.27026" lon="-2.31704">
        <ele>-1.6000000238419</ele>
        <time>2021-03-21T09:03:28.000Z</time>
      </trkpt>
      <trkpt lat="47.27028" lon="-2.31699">
        <ele>-1.2000000476837</ele>
        <time>2021-03-21T09:03:29.000Z</time>
      </trkpt>
      <trkpt lat="47.27028" lon="-2.31693">
        <ele>-0.80000001192093</ele>
        <time>2021-03-21T09:03:30.000Z</time>
      </trkpt>
      <trkpt lat="47.2703" lon="-2.31687">
        <ele>-0.40000000596046</ele>
        <time>2021-03-21T09:03:31.000Z</time>
      </trkpt>
      <trkpt lat="47.27031" lon="-2.31681">
        <ele>16.2</ele>
        <time>2021-03-21T09:03:32.000Z</time>
      </trkpt>
      <trkpt lat="47.27032" lon="-2.31676">
        <ele>0.40000000596046</ele>
        <time>2021-03-21T09:03:33.000Z</time>
      </trkpt>
      <trkpt lat="47.27031" lon="-2.31645">
        <ele>0.80000001192093</ele>
        <time>2021-03-21T09:03:39.000Z</time>
      </trkpt>
      <trkpt lat="47.2703" lon="-2.31641">
        <ele>1.2000000476837</ele>
        <time>2021-03-21T09:03:40.000Z</time>
      </trkpt>
      <trkpt lat="47.2703" lon="-2.31637">
        <ele>1.6000000238419</ele>
        <time>2021-03-21T09:03:41.000Z</time>
      </trkpt>
      <trkpt lat="47.2703" lon="-2.31633">
        <ele>2.2000000476837</ele>
        <time>2021-03-21T09:03:42.000Z</time>
      </trkpt>
      <trkpt lat="47.2703" lon="-2.3163">
        <ele>2.5999999046326</ele>
        <time>2021-03-21T09:03:43.000Z</time>
      </trkpt>
      <trkpt lat="47.2703" lon="-2.31626">
        <ele>2.5999999046326</ele>
        <time>2021-03-21T09:03:44.000Z</time>
      </trkpt>
      <trkpt lat="47.27026" lon="-2.31607">
        <ele>2.5999999046326</ele>
        <time>2021-03-21T09:03:49.000Z</time>
      </trkpt>
      <trkpt lat="47.27024" lon="-2.316">
        <ele>3</ele>
        <time>2021-03-21T09:03:51.000Z</time>
      </trkpt>
      <trkpt lat="47.27023" lon="-2.31595">
        <ele>3.7999999523163</ele>
        <time>2021-03-21T09:03:52.000Z</time>
      </trkpt>
      <trkpt lat="47.27022" lon="-2.31592">
        <ele>4.1999998092651</ele>
        <time>2021-03-21T09:03:53.000Z</time>
      </trkpt>
      <trkpt lat="47.27021" lon="-2.31589">
        <ele>4.5999999046326</ele>
        <time>2021-03-21T09:03:54.000Z</time>
      </trkpt>
      <trkpt lat="47.2702" lon="-2.31585">
        <ele>4.5999999046326</ele>
        <time>2021-03-21T09:03:55.000Z</time>
      </trkpt>
      <trkpt lat="47.27012" lon="-2.31564">
        <ele>5</ele>
        <time>2021-03-21T09:04:00.000Z</time>
      </trkpt>
      <trkpt lat="47.27011" lon="-2.31559">
        <ele>5.4000000953674</ele>
        <time>2021-03-21T09:04:01.000Z</time>
      </trkpt>
      <trkpt lat="47.27009" lon="-2.31554">
        <ele>5.8000001907349</ele>
        <time>2021-03-21T09:04:02.000Z</time>
      </trkpt>
      <trkpt lat="47.27007" lon="-2.31549">
        <ele>6.1999998092651</ele>
        <time>2021-03-21T09:04:03.000Z</time>
      </trkpt>
      <trkpt lat="47.27006" lon="-2.31545">
        <ele>6.5999999046326</ele>
        <time>2021-03-21T09:04:04.000Z</time>
      </trkpt>
      <trkpt lat="47.27002" lon="-2.31531">
        <ele>6.5999999046326</ele>
        <time>2021-03-21T09:04:07.000Z</time>
      </trkpt>
      <trkpt lat="47.26998" lon="-2.31514">
        <ele>7</ele>
        <time>2021-03-21T09:04:10.000Z</time>
      </trkpt>
      <trkpt lat="47.26997" lon="-2.3151">
        <ele>7.4000000953674</ele>
        <time>2021-03-21T09:04:11.000Z</time>
      </trkpt>
      <trkpt lat="47.26995" lon="-2.31505">
        <ele>7.8000001907349</ele>
        <time>2021-03-21T09:04:12.000Z</time>
      </trkpt>
      <trkpt lat="47.26994" lon="-2.31501">
        <ele>8.1999998092651</ele>
        <time>2021-03-21T09:04:13.000Z</time>
      </trkpt>
      <trkpt lat="47.26993" lon="-2.31497">
        <ele>8.6000003814697</ele>
        <time>2021-03-21T09:04:14.000Z</time>
      </trkpt>
      <trkpt lat="47.26988" lon="-2.31472">
        <ele>8.6000003814697</ele>
        <time>2021-03-21T09:04:19.000Z</time>
      </trkpt>
      <trkpt lat="47.26987" lon="-2.31466">
        <ele>9</ele>
        <time>2021-03-21T09:04:20.000Z</time>
      </trkpt>
      <trkpt lat="47.26987" lon="-2.31459">
        <ele>9.6000003814697</ele>
        <time>2021-03-21T09:04:21.000Z</time>
      </trkpt>
      <trkpt lat="47.26986" lon="-2.31454">
        <ele>10</ele>
        <time>2021-03-21T09:04:22.000Z</time>
      </trkpt>
      <trkpt lat="47.26986" lon="-2.31448">
        <ele>10.39999961853</ele>
        <time>2021-03-21T09:04:23.000Z</time>
      </trkpt>
      <trkpt lat="47.26986" lon="-2.31442">
        <ele>10.800000190735</ele>
        <time>2021-03-21T09:04:24.000Z</time>
      </trkpt>
      <trkpt lat="47.26985" lon="-2.31429">
        <ele>10.800000190735</ele>
        <time>2021-03-21T09:04:26.000Z</time>
      </trkpt>
      <trkpt lat="47.26983" lon="-2.31389">
        <ele>10.800000190735</ele>
        <time>2021-03-21T09:04:33.000Z</time>
      </trkpt>
      <trkpt lat="47.26982" lon="-2.31379">
        <ele>11.199999809265</ele>
        <time>2021-03-21T09:04:35.000Z</time>
      </trkpt>
      <trkpt lat="47.26982" lon="-2.31374">
        <ele>11.60000038147</ele>
        <time>2021-03-21T09:04:36.000Z</time>
      </trkpt>
      <trkpt lat="47.26982" lon="-2.3137">
        <ele>12</ele>
        <time>2021-03-21T09:04:37.000Z</time>
      </trkpt>
      <trkpt lat="47.26982" lon="-2.31365">
        <ele>12.39999961853</ele>
        <time>2021-03-21T09:04:38.000Z</time>
      </trkpt>
      <trkpt lat="47.26982" lon="-2.3136">
        <ele>13</ele>
        <time>2021-03-21T09:04:39.000Z</time>
      </trkpt>
      <trkpt lat="47.26978" lon="-2.31328">
        <ele>13</ele>
        <time>2021-03-21T09:04:45.000Z</time>
      </trkpt>
      <trkpt lat="47.26974" lon="-2.31303">
        <ele>13.39999961853</ele>
        <time>2021-03-21T09:04:49.000Z</time>
      </trkpt>
      <trkpt lat="47.26974" lon="-2.31296">
        <ele>13.800000190735</ele>
        <time>2021-03-21T09:04:50.000Z</time>
      </trkpt>
      <trkpt lat="47.26974" lon="-2.3129">
        <ele>14.199999809265</ele>
        <time>2021-03-21T09:04:51.000Z</time>
      </trkpt>
      <trkpt lat="47.26974" lon="-2.31283">
        <ele>14.60000038147</ele>
        <time>2021-03-21T09:04:52.000Z</time>
      </trkpt>
      <trkpt lat="47.26974" lon="-2.31276">
        <ele>15</ele>
        <time>2021-03-21T09:04:53.000Z</time>
      </trkpt>
      <trkpt lat="47.26974" lon="-2.31246">
        <ele>15</ele>
        <time>2021-03-21T09:04:57.000Z</time>
      </trkpt>
      <trkpt lat="47.26976" lon="-2.31223">
        <ele>15</ele>
        <time>2021-03-21T09:05:00.000Z</time>
      </trkpt>
      <trkpt lat="47.26979" lon="-2.31196">
        <ele>15</ele>
        <time>2021-03-21T09:05:03.000Z</time>
      </trkpt>
      <trkpt lat="47.26987" lon="-2.31136">
        <ele>14.39999961853</ele>
        <time>2021-03-21T09:05:09.000Z</time>
      </trkpt>
      <trkpt lat="47.26988" lon="-2.31125">
        <ele>14</ele>
        <time>2021-03-21T09:05:10.000Z</time>
      </trkpt>
      <trkpt lat="47.26988" lon="-2.31115">
        <ele>13.60000038147</ele>
        <time>2021-03-21T09:05:11.000Z</time>
      </trkpt>
      <trkpt lat="47.26988" lon="-2.31105">
        <ele>13.199999809265</ele>
        <time>2021-03-21T09:05:12.000Z</time>
      </trkpt>
      <trkpt lat="47.26987" lon="-2.31095">
        <ele>12.800000190735</ele>
        <time>2021-03-21T09:05:13.000Z</time>
      </trkpt>
      <trkpt lat="47.26986" lon="-2.3108">
        <ele>12.800000190735</ele>
        <time>2021-03-21T09:05:15.000Z</time>
      </trkpt>
      <trkpt lat="47.26988" lon="-2.31075">
        <ele>12.199999809265</ele>
        <time>2021-03-21T09:05:16.000Z</time>
      </trkpt>
      <trkpt lat="47.26991" lon="-2.3107">
        <ele>11.800000190735</ele>
        <time>2021-03-21T09:05:17.000Z</time>
      </trkpt>
      <trkpt lat="47.26995" lon="-2.31066">
        <ele>11.39999961853</ele>
        <time>2021-03-21T09:05:18.000Z</time>
      </trkpt>
      <trkpt lat="47.26999" lon="-2.31061">
        <ele>11</ele>
        <time>2021-03-21T09:05:19.000Z</time>
      </trkpt>
      <trkpt lat="47.27005" lon="-2.31057">
        <ele>10.60000038147</ele>
        <time>2021-03-21T09:05:20.000Z</time>
      </trkpt>
      <trkpt lat="47.2701" lon="-2.31053">
        <ele>10.60000038147</ele>
        <time>2021-03-21T09:05:21.000Z</time>
      </trkpt>
      <trkpt lat="47.2702" lon="-2.31045">
        <ele>10.60000038147</ele>
        <time>2021-03-21T09:05:23.000Z</time>
      </trkpt>
      <trkpt lat="47.27029" lon="-2.31037">
        <ele>10.199999809265</ele>
        <time>2021-03-21T09:05:25.000Z</time>
      </trkpt>
      <trkpt lat="47.27034" lon="-2.31033">
        <ele>9.8000001907349</ele>
        <time>2021-03-21T09:05:26.000Z</time>
      </trkpt>
      <trkpt lat="47.27039" lon="-2.31029">
        <ele>9.1999998092651</ele>
        <time>2021-03-21T09:05:27.000Z</time>
      </trkpt>
      <trkpt lat="47.27044" lon="-2.31024">
        <ele>8.8000001907349</ele>
        <time>2021-03-21T09:05:28.000Z</time>
      </trkpt>
      <trkpt lat="47.27048" lon="-2.31019">
        <ele>8.3999996185303</ele>
        <time>2021-03-21T09:05:29.000Z</time>
      </trkpt>
      <trkpt lat="47.27052" lon="-2.31014">
        <ele>8.3999996185303</ele>
        <time>2021-03-21T09:05:30.000Z</time>
      </trkpt>
      <trkpt lat="47.2706" lon="-2.31">
        <ele>8.3999996185303</ele>
        <time>2021-03-21T09:05:33.000Z</time>
      </trkpt>
      <trkpt lat="47.27061" lon="-2.30995">
        <ele>8</ele>
        <time>2021-03-21T09:05:34.000Z</time>
      </trkpt>
      <trkpt lat="47.2706" lon="-2.30991">
        <ele>7.5999999046326</ele>
        <time>2021-03-21T09:05:35.000Z</time>
      </trkpt>
      <trkpt lat="47.2706" lon="-2.30986">
        <ele>7.1999998092651</ele>
        <time>2021-03-21T09:05:36.000Z</time>
      </trkpt>
      <trkpt lat="47.27059" lon="-2.30982">
        <ele>6.8000001907349</ele>
        <time>2021-03-21T09:05:37.000Z</time>
      </trkpt>
      <trkpt lat="47.27058" lon="-2.30977">
        <ele>6.4000000953674</ele>
        <time>2021-03-21T09:05:38.000Z</time>
      </trkpt>
      <trkpt lat="47.27053" lon="-2.30951">
        <ele>6.4000000953674</ele>
        <time>2021-03-21T09:05:44.000Z</time>
      </trkpt>
      <trkpt lat="47.27044" lon="-2.3093">
        <ele>6.4000000953674</ele>
        <time>2021-03-21T09:05:49.000Z</time>
      </trkpt>
      <trkpt lat="47.27039" lon="-2.3091">
        <ele>6.4000000953674</ele>
        <time>2021-03-21T09:05:53.000Z</time>
      </trkpt>
      <trkpt lat="47.27033" lon="-2.30888">
        <ele>6.4000000953674</ele>
        <time>2021-03-21T09:05:57.000Z</time>
      </trkpt>
      <trkpt lat="47.27022" lon="-2.30859">
        <ele>6.4000000953674</ele>
        <time>2021-03-21T09:06:02.000Z</time>
      </trkpt>
      <trkpt lat="47.27011" lon="-2.30838">
        <ele>6.4000000953674</ele>
        <time>2021-03-21T09:06:06.000Z</time>
      </trkpt>
      <trkpt lat="47.27004" lon="-2.30826">
        <ele>6.8000001907349</ele>
        <time>2021-03-21T09:06:08.000Z</time>
      </trkpt>
      <trkpt lat="47.27001" lon="-2.30821">
        <ele>7.1999998092651</ele>
        <time>2021-03-21T09:06:09.000Z</time>
      </trkpt>
      <trkpt lat="47.26997" lon="-2.30816">
        <ele>7.5999999046326</ele>
        <time>2021-03-21T09:06:10.000Z</time>
      </trkpt>
      <trkpt lat="47.26994" lon="-2.30811">
        <ele>8</ele>
        <time>2021-03-21T09:06:11.000Z</time>
      </trkpt>
      <trkpt lat="47.26991" lon="-2.30807">
        <ele>8.3999996185303</ele>
        <time>2021-03-21T09:06:12.000Z</time>
      </trkpt>
      <trkpt lat="47.26982" lon="-2.30793">
        <ele>8.3999996185303</ele>
        <time>2021-03-21T09:06:15.000Z</time>
      </trkpt>
      <trkpt lat="47.26963" lon="-2.30766">
        <ele>9.1999998092651</ele>
        <time>2021-03-21T09:06:21.000Z</time>
      </trkpt>
      <trkpt lat="47.2696" lon="-2.30762">
        <ele>9.8000001907349</ele>
        <time>2021-03-21T09:06:22.000Z</time>
      </trkpt>
      <trkpt lat="47.26957" lon="-2.30758">
        <ele>10.199999809265</ele>
        <time>2021-03-21T09:06:23.000Z</time>
      </trkpt>
      <trkpt lat="47.26953" lon="-2.30753">
        <ele>10.60000038147</ele>
        <time>2021-03-21T09:06:24.000Z</time>
      </trkpt>
      <trkpt lat="47.26932" lon="-2.30721">
        <ele>10.60000038147</ele>
        <time>2021-03-21T09:06:31.000Z</time>
      </trkpt>
      <trkpt lat="47.26927" lon="-2.3071">
        <ele>11</ele>
        <time>2021-03-21T09:06:33.000Z</time>
      </trkpt>
      <trkpt lat="47.26924" lon="-2.30706">
        <ele>11.39999961853</ele>
        <time>2021-03-21T09:06:34.000Z</time>
      </trkpt>
      <trkpt lat="47.26921" lon="-2.30701">
        <ele>11.800000190735</ele>
        <time>2021-03-21T09:06:35.000Z</time>
      </trkpt>
      <trkpt lat="47.26918" lon="-2.30697">
        <ele>12.199999809265</ele>
        <time>2021-03-21T09:06:36.000Z</time>
      </trkpt>
      <trkpt lat="47.26915" lon="-2.30693">
        <ele>12.60000038147</ele>
        <time>2021-03-21T09:06:37.000Z</time>
      </trkpt>
      <trkpt lat="47.26902" lon="-2.30674">
        <ele>12.60000038147</ele>
        <time>2021-03-21T09:06:43.000Z</time>
      </trkpt>
      <trkpt lat="47.269" lon="-2.3067">
        <ele>12.60000038147</ele>
        <time>2021-03-21T09:06:45.000Z</time>
      </trkpt>
      <trkpt lat="47.26899" lon="-2.30666">
        <ele>12.60000038147</ele>
        <time>2021-03-21T09:06:47.000Z</time>
      </trkpt>
      <trkpt lat="47.26897" lon="-2.30663">
        <ele>12.60000038147</ele>
        <time>2021-03-21T09:06:50.000Z</time>
      </trkpt>
      <trkpt lat="47.26894" lon="-2.30664">
        <ele>12.60000038147</ele>
        <time>2021-03-21T09:06:52.000Z</time>
      </trkpt>
      <trkpt lat="47.26887" lon="-2.30674">
        <ele>12.60000038147</ele>
        <time>2021-03-21T09:06:56.000Z</time>
      </trkpt>
      <trkpt lat="47.26885" lon="-2.30679">
        <ele>12.60000038147</ele>
        <time>2021-03-21T09:06:58.000Z</time>
      </trkpt>
      <trkpt lat="47.26884" lon="-2.3068">
        <ele>12.60000038147</ele>
        <time>2021-03-21T09:07:00.000Z</time>
      </trkpt>
      <trkpt lat="47.26882" lon="-2.30681">
        <ele>12.60000038147</ele>
        <time>2021-03-21T09:07:08.000Z</time>
      </trkpt>
      <trkpt lat="47.26881" lon="-2.30683">
        <ele>12.60000038147</ele>
        <time>2021-03-21T09:07:09.000Z</time>
      </trkpt>
      <trkpt lat="47.26876" lon="-2.3069">
        <ele>12.60000038147</ele>
        <time>2021-03-21T09:07:12.000Z</time>
      </trkpt>
      <trkpt lat="47.26871" lon="-2.30699">
        <ele>12.60000038147</ele>
        <time>2021-03-21T09:07:15.000Z</time>
      </trkpt>
      <trkpt lat="47.26859" lon="-2.30723">
        <ele>12.60000038147</ele>
        <time>2021-03-21T09:07:22.000Z</time>
      </trkpt>
      <trkpt lat="47.26845" lon="-2.30756">
        <ele>12.60000038147</ele>
        <time>2021-03-21T09:07:30.000Z</time>
      </trkpt>
      <trkpt lat="47.26835" lon="-2.30779">
        <ele>12.60000038147</ele>
        <time>2021-03-21T09:07:36.000Z</time>
      </trkpt>
      <trkpt lat="47.26826" lon="-2.30792">
        <ele>12.60000038147</ele>
        <time>2021-03-21T09:07:41.000Z</time>
      </trkpt>
      <trkpt lat="47.26814" lon="-2.30801">
        <ele>12.60000038147</ele>
        <time>2021-03-21T09:07:48.000Z</time>
      </trkpt>
      <trkpt lat="47.26803" lon="-2.30811">
        <ele>12.60000038147</ele>
        <time>2021-03-21T09:07:54.000Z</time>
      </trkpt>
      <trkpt lat="47.26788" lon="-2.30828">
        <ele>12.60000038147</ele>
        <time>2021-03-21T09:08:02.000Z</time>
      </trkpt>
      <trkpt lat="47.26778" lon="-2.30839">
        <ele>12.60000038147</ele>
        <time>2021-03-21T09:08:09.000Z</time>
      </trkpt>
      <trkpt lat="47.26767" lon="-2.30847">
        <ele>12.60000038147</ele>
        <time>2021-03-21T09:08:15.000Z</time>
      </trkpt>
      <trkpt lat="47.26757" lon="-2.30858">
        <ele>12.60000038147</ele>
        <time>2021-03-21T09:08:22.000Z</time>
      </trkpt>
      <trkpt lat="47.26756" lon="-2.3086">
        <ele>12.60000038147</ele>
        <time>2021-03-21T09:08:23.000Z</time>
      </trkpt>
      <trkpt lat="47.26748" lon="-2.30868">
        <ele>12.60000038147</ele>
        <time>2021-03-21T09:08:27.000Z</time>
      </trkpt>
      <trkpt lat="47.26745" lon="-2.30869">
        <ele>12.60000038147</ele>
        <time>2021-03-21T09:08:28.000Z</time>
      </trkpt>
      <trkpt lat="47.26734" lon="-2.30866">
        <ele>12.60000038147</ele>
        <time>2021-03-21T09:08:31.000Z</time>
      </trkpt>
      <trkpt lat="47.26718" lon="-2.30843">
        <ele>12.60000038147</ele>
        <time>2021-03-21T09:08:36.000Z</time>
      </trkpt>
      <trkpt lat="47.26716" lon="-2.30836">
        <ele>12.60000038147</ele>
        <time>2021-03-21T09:08:37.000Z</time>
      </trkpt>
      <trkpt lat="47.26703" lon="-2.30802">
        <ele>12.60000038147</ele>
        <time>2021-03-21T09:08:42.000Z</time>
      </trkpt>
      <trkpt lat="47.26695" lon="-2.30782">
        <ele>12.60000038147</ele>
        <time>2021-03-21T09:08:45.000Z</time>
      </trkpt>
      <trkpt lat="47.2669" lon="-2.30771">
        <ele>12.60000038147</ele>
        <time>2021-03-21T09:08:47.000Z</time>
      </trkpt>
      <trkpt lat="47.26679" lon="-2.30744">
        <ele>12.199999809265</ele>
        <time>2021-03-21T09:08:51.000Z</time>
      </trkpt>
      <trkpt lat="47.26676" lon="-2.30737">
        <ele>11.800000190735</ele>
        <time>2021-03-21T09:08:52.000Z</time>
      </trkpt>
      <trkpt lat="47.26672" lon="-2.3073">
        <ele>11.39999961853</ele>
        <time>2021-03-21T09:08:53.000Z</time>
      </trkpt>
      <trkpt lat="47.26669" lon="-2.30722">
        <ele>11</ele>
        <time>2021-03-21T09:08:54.000Z</time>
      </trkpt>
      <trkpt lat="47.26666" lon="-2.30715">
        <ele>10.60000038147</ele>
        <time>2021-03-21T09:08:55.000Z</time>
      </trkpt>
      <trkpt lat="47.26661" lon="-2.30701">
        <ele>10.60000038147</ele>
        <time>2021-03-21T09:08:57.000Z</time>
      </trkpt>
      <trkpt lat="47.26658" lon="-2.30692">
        <ele>10.199999809265</ele>
        <time>2021-03-21T09:08:59.000Z</time>
      </trkpt>
      <trkpt lat="47.26658" lon="-2.30691">
        <ele>9.8000001907349</ele>
        <time>2021-03-21T09:09:00.000Z</time>
      </trkpt>
      <trkpt lat="47.26658" lon="-2.30691">
        <ele>9.3999996185303</ele>
        <time>2021-03-21T09:09:01.000Z</time>
      </trkpt>
      <trkpt lat="47.26653" lon="-2.30691">
        <ele>8.6000003814697</ele>
        <time>2021-03-21T09:09:24.000Z</time>
      </trkpt>
      <trkpt lat="47.26648" lon="-2.3071">
        <ele>8.6000003814697</ele>
        <time>2021-03-21T09:09:30.000Z</time>
      </trkpt>
      <trkpt lat="47.26638" lon="-2.30726">
        <ele>8.6000003814697</ele>
        <time>2021-03-21T09:09:34.000Z</time>
      </trkpt>
      <trkpt lat="47.26631" lon="-2.30732">
        <ele>8.6000003814697</ele>
        <time>2021-03-21T09:09:36.000Z</time>
      </trkpt>
      <trkpt lat="47.26625" lon="-2.30741">
        <ele>8.6000003814697</ele>
        <time>2021-03-21T09:09:38.000Z</time>
      </trkpt>
      <trkpt lat="47.26624" lon="-2.30745">
        <ele>8.6000003814697</ele>
        <time>2021-03-21T09:09:39.000Z</time>
      </trkpt>
      <trkpt lat="47.26624" lon="-2.30754">
        <ele>8.6000003814697</ele>
        <time>2021-03-21T09:09:41.000Z</time>
      </trkpt>
      <trkpt lat="47.26613" lon="-2.30766">
        <ele>8.6000003814697</ele>
        <time>2021-03-21T09:09:45.000Z</time>
      </trkpt>
      <trkpt lat="47.26601" lon="-2.3078">
        <ele>8.1999998092651</ele>
        <time>2021-03-21T09:09:48.000Z</time>
      </trkpt>
      <trkpt lat="47.26596" lon="-2.30784">
        <ele>7.8000001907349</ele>
        <time>2021-03-21T09:09:49.000Z</time>
      </trkpt>
      <trkpt lat="47.26593" lon="-2.30789">
        <ele>7.4000000953674</ele>
        <time>2021-03-21T09:09:50.000Z</time>
      </trkpt>
      <trkpt lat="47.2659" lon="-2.30793">
        <ele>6.8000001907349</ele>
        <time>2021-03-21T09:09:51.000Z</time>
      </trkpt>
      <trkpt lat="47.26586" lon="-2.30797">
        <ele>6.4000000953674</ele>
        <time>2021-03-21T09:09:52.000Z</time>
      </trkpt>
      <trkpt lat="47.26581" lon="-2.30805">
        <ele>6.4000000953674</ele>
        <time>2021-03-21T09:09:54.000Z</time>
      </trkpt>
      <trkpt lat="47.26576" lon="-2.30813">
        <ele>6</ele>
        <time>2021-03-21T09:09:57.000Z</time>
      </trkpt>
      <trkpt lat="47.26574" lon="-2.30816">
        <ele>5.5999999046326</ele>
        <time>2021-03-21T09:09:58.000Z</time>
      </trkpt>
      <trkpt lat="47.26573" lon="-2.30818">
        <ele>5.1999998092651</ele>
        <time>2021-03-21T09:09:59.000Z</time>
      </trkpt>
      <trkpt lat="47.26572" lon="-2.30819">
        <ele>4.8000001907349</ele>
        <time>2021-03-21T09:10:00.000Z</time>
      </trkpt>
      <trkpt lat="47.26572" lon="-2.30821">
        <ele>4.4000000953674</ele>
        <time>2021-03-21T09:10:01.000Z</time>
      </trkpt>
      <trkpt lat="47.26565" lon="-2.3083">
        <ele>4.4000000953674</ele>
        <time>2021-03-21T09:10:07.000Z</time>
      </trkpt>
      <trkpt lat="47.26563" lon="-2.30834">
        <ele>4.4000000953674</ele>
        <time>2021-03-21T09:10:09.000Z</time>
      </trkpt>
      <trkpt lat="47.26558" lon="-2.30836">
        <ele>4.4000000953674</ele>
        <time>2021-03-21T09:10:12.000Z</time>
      </trkpt>
      <trkpt lat="47.26547" lon="-2.30849">
        <ele>4.4000000953674</ele>
        <time>2021-03-21T09:10:16.000Z</time>
      </trkpt>
      <trkpt lat="47.26544" lon="-2.30852">
        <ele>4.4000000953674</ele>
        <time>2021-03-21T09:10:17.000Z</time>
      </trkpt>
      <trkpt lat="47.26531" lon="-2.30871">
        <ele>4.4000000953674</ele>
        <time>2021-03-21T09:10:22.000Z</time>
      </trkpt>
      <trkpt lat="47.26525" lon="-2.30876">
        <ele>4</ele>
        <time>2021-03-21T09:10:24.000Z</time>
      </trkpt>
      <trkpt lat="47.26522" lon="-2.30878">
        <ele>3.5999999046326</ele>
        <time>2021-03-21T09:10:25.000Z</time>
      </trkpt>
      <trkpt lat="47.2652" lon="-2.3088">
        <ele>3.2000000476837</ele>
        <time>2021-03-21T09:10:26.000Z</time>
      </trkpt>
      <trkpt lat="47.26517" lon="-2.30882">
        <ele>2.7999999523163</ele>
        <time>2021-03-21T09:10:27.000Z</time>
      </trkpt>
      <trkpt lat="47.26513" lon="-2.30885">
        <ele>2.4000000953674</ele>
        <time>2021-03-21T09:10:28.000Z</time>
      </trkpt>
      <trkpt lat="47.26506" lon="-2.30887">
        <ele>2.4000000953674</ele>
        <time>2021-03-21T09:10:31.000Z</time>
      </trkpt>
      <trkpt lat="47.26504" lon="-2.30885">
        <ele>2.4000000953674</ele>
        <time>2021-03-21T09:10:32.000Z</time>
      </trkpt>
      <trkpt lat="47.26497" lon="-2.30879">
        <ele>2.4000000953674</ele>
        <time>2021-03-21T09:10:38.000Z</time>
      </trkpt>
      <trkpt lat="47.26493" lon="-2.30871">
        <ele>2.4000000953674</ele>
        <time>2021-03-21T09:10:44.000Z</time>
      </trkpt>
      <trkpt lat="47.2649" lon="-2.30865">
        <ele>2.7999999523163</ele>
        <time>2021-03-21T09:10:47.000Z</time>
      </trkpt>
      <trkpt lat="47.26488" lon="-2.30863">
        <ele>3.2000000476837</ele>
        <time>2021-03-21T09:10:48.000Z</time>
      </trkpt>
      <trkpt lat="47.26487" lon="-2.30861">
        <ele>3.5999999046326</ele>
        <time>2021-03-21T09:10:49.000Z</time>
      </trkpt>
      <trkpt lat="47.26486" lon="-2.30859">
        <ele>4</ele>
        <time>2021-03-21T09:10:50.000Z</time>
      </trkpt>
      <trkpt lat="47.26485" lon="-2.30857">
        <ele>4.4000000953674</ele>
        <time>2021-03-21T09:10:51.000Z</time>
      </trkpt>
      <trkpt lat="47.2648" lon="-2.30845">
        <ele>4.4000000953674</ele>
        <time>2021-03-21T09:10:55.000Z</time>
      </trkpt>
      <trkpt lat="47.26478" lon="-2.30839">
        <ele>4.8000001907349</ele>
        <time>2021-03-21T09:10:57.000Z</time>
      </trkpt>
      <trkpt lat="47.26477" lon="-2.30836">
        <ele>5.1999998092651</ele>
        <time>2021-03-21T09:10:58.000Z</time>
      </trkpt>
      <trkpt lat="47.26476" lon="-2.30833">
        <ele>5.5999999046326</ele>
        <time>2021-03-21T09:10:59.000Z</time>
      </trkpt>
      <trkpt lat="47.26475" lon="-2.30829">
        <ele>6</ele>
        <time>2021-03-21T09:11:00.000Z</time>
      </trkpt>
      <trkpt lat="47.26475" lon="-2.30825">
        <ele>6.5999999046326</ele>
        <time>2021-03-21T09:11:01.000Z</time>
      </trkpt>
      <trkpt lat="47.26468" lon="-2.30802">
        <ele>6.5999999046326</ele>
        <time>2021-03-21T09:11:06.000Z</time>
      </trkpt>
      <trkpt lat="47.26461" lon="-2.30785">
        <ele>7</ele>
        <time>2021-03-21T09:11:10.000Z</time>
      </trkpt>
      <trkpt lat="47.26459" lon="-2.30781">
        <ele>7.4000000953674</ele>
        <time>2021-03-21T09:11:11.000Z</time>
      </trkpt>
      <trkpt lat="47.26458" lon="-2.30777">
        <ele>7.8000001907349</ele>
        <time>2021-03-21T09:11:12.000Z</time>
      </trkpt>
      <trkpt lat="47.26457" lon="-2.30773">
        <ele>8.1999998092651</ele>
        <time>2021-03-21T09:11:13.000Z</time>
      </trkpt>
      <trkpt lat="47.26456" lon="-2.30769">
        <ele>8.6000003814697</ele>
        <time>2021-03-21T09:11:14.000Z</time>
      </trkpt>
      <trkpt lat="47.26449" lon="-2.3075">
        <ele>8.6000003814697</ele>
        <time>2021-03-21T09:11:19.000Z</time>
      </trkpt>
      <trkpt lat="47.26438" lon="-2.30721">
        <ele>8.6000003814697</ele>
        <time>2021-03-21T09:11:26.000Z</time>
      </trkpt>
      <trkpt lat="47.26429" lon="-2.30702">
        <ele>9</ele>
        <time>2021-03-21T09:11:31.000Z</time>
      </trkpt>
      <trkpt lat="47.26428" lon="-2.30699">
        <ele>9.3999996185303</ele>
        <time>2021-03-21T09:11:32.000Z</time>
      </trkpt>
      <trkpt lat="47.26427" lon="-2.30696">
        <ele>9.8000001907349</ele>
        <time>2021-03-21T09:11:33.000Z</time>
      </trkpt>
      <trkpt lat="47.26425" lon="-2.30693">
        <ele>10.199999809265</ele>
        <time>2021-03-21T09:11:34.000Z</time>
      </trkpt>
      <trkpt lat="47.26423" lon="-2.3069">
        <ele>10.60000038147</ele>
        <time>2021-03-21T09:11:35.000Z</time>
      </trkpt>
      <trkpt lat="47.26421" lon="-2.30687">
        <ele>10.60000038147</ele>
        <time>2021-03-21T09:11:36.000Z</time>
      </trkpt>
      <trkpt lat="47.26403" lon="-2.30675">
        <ele>10.60000038147</ele>
        <time>2021-03-21T09:11:41.000Z</time>
      </trkpt>
      <trkpt lat="47.26382" lon="-2.30657">
        <ele>10.60000038147</ele>
        <time>2021-03-21T09:11:47.000Z</time>
      </trkpt>
      <trkpt lat="47.26365" lon="-2.30632">
        <ele>10.60000038147</ele>
        <time>2021-03-21T09:11:54.000Z</time>
      </trkpt>
      <trkpt lat="47.26347" lon="-2.30597">
        <ele>10.60000038147</ele>
        <time>2021-03-21T09:12:01.000Z</time>
      </trkpt>
      <trkpt lat="47.26345" lon="-2.30575">
        <ele>10.60000038147</ele>
        <time>2021-03-21T09:12:05.000Z</time>
      </trkpt>
      <trkpt lat="47.26342" lon="-2.30552">
        <ele>10.60000038147</ele>
        <time>2021-03-21T09:12:09.000Z</time>
      </trkpt>
      <trkpt lat="47.26341" lon="-2.30545">
        <ele>11</ele>
        <time>2021-03-21T09:12:10.000Z</time>
      </trkpt>
      <trkpt lat="47.2634" lon="-2.3054">
        <ele>11.39999961853</ele>
        <time>2021-03-21T09:12:11.000Z</time>
      </trkpt>
      <trkpt lat="47.26339" lon="-2.30534">
        <ele>11.800000190735</ele>
        <time>2021-03-21T09:12:12.000Z</time>
      </trkpt>
      <trkpt lat="47.26337" lon="-2.30528">
        <ele>12.199999809265</ele>
        <time>2021-03-21T09:12:13.000Z</time>
      </trkpt>
      <trkpt lat="47.26336" lon="-2.30522">
        <ele>12.60000038147</ele>
        <time>2021-03-21T09:12:14.000Z</time>
      </trkpt>
      <trkpt lat="47.26332" lon="-2.30503">
        <ele>12.60000038147</ele>
        <time>2021-03-21T09:12:17.000Z</time>
      </trkpt>
      <trkpt lat="47.26328" lon="-2.30483">
        <ele>12.60000038147</ele>
        <time>2021-03-21T09:12:20.000Z</time>
      </trkpt>
      <trkpt lat="47.26326" lon="-2.30468">
        <ele>12.60000038147</ele>
        <time>2021-03-21T09:12:22.000Z</time>
      </trkpt>
      <trkpt lat="47.26323" lon="-2.30453">
        <ele>12.60000038147</ele>
        <time>2021-03-21T09:12:24.000Z</time>
      </trkpt>
      <trkpt lat="47.2632" lon="-2.30439">
        <ele>12.60000038147</ele>
        <time>2021-03-21T09:12:26.000Z</time>
      </trkpt>
      <trkpt lat="47.26313" lon="-2.30411">
        <ele>12.60000038147</ele>
        <time>2021-03-21T09:12:30.000Z</time>
      </trkpt>
      <trkpt lat="47.2631" lon="-2.30396">
        <ele>12.60000038147</ele>
        <time>2021-03-21T09:12:32.000Z</time>
      </trkpt>
      <trkpt lat="47.26305" lon="-2.30374">
        <ele>12.60000038147</ele>
        <time>2021-03-21T09:12:35.000Z</time>
      </trkpt>
      <trkpt lat="47.26302" lon="-2.30358">
        <ele>12.60000038147</ele>
        <time>2021-03-21T09:12:37.000Z</time>
      </trkpt>
      <trkpt lat="47.263" lon="-2.30343">
        <ele>12.60000038147</ele>
        <time>2021-03-21T09:12:39.000Z</time>
      </trkpt>
      <trkpt lat="47.26296" lon="-2.30324">
        <ele>12.60000038147</ele>
        <time>2021-03-21T09:12:42.000Z</time>
      </trkpt>
      <trkpt lat="47.26291" lon="-2.30312">
        <ele>12.60000038147</ele>
        <time>2021-03-21T09:12:44.000Z</time>
      </trkpt>
      <trkpt lat="47.26286" lon="-2.303">
        <ele>12.60000038147</ele>
        <time>2021-03-21T09:12:46.000Z</time>
      </trkpt>
      <trkpt lat="47.26284" lon="-2.30293">
        <ele>12.60000038147</ele>
        <time>2021-03-21T09:12:47.000Z</time>
      </trkpt>
      <trkpt lat="47.26276" lon="-2.30247">
        <ele>12.60000038147</ele>
        <time>2021-03-21T09:12:53.000Z</time>
      </trkpt>
      <trkpt lat="47.26268" lon="-2.30201">
        <ele>12.60000038147</ele>
        <time>2021-03-21T09:12:59.000Z</time>
      </trkpt>
      <trkpt lat="47.26265" lon="-2.30187">
        <ele>12.60000038147</ele>
        <time>2021-03-21T09:13:01.000Z</time>
      </trkpt>
      <trkpt lat="47.26259" lon="-2.30167">
        <ele>13</ele>
        <time>2021-03-21T09:13:04.000Z</time>
      </trkpt>
      <trkpt lat="47.26256" lon="-2.30161">
        <ele>13.39999961853</ele>
        <time>2021-03-21T09:13:05.000Z</time>
      </trkpt>
      <trkpt lat="47.26254" lon="-2.30155">
        <ele>13.800000190735</ele>
        <time>2021-03-21T09:13:06.000Z</time>
      </trkpt>
      <trkpt lat="47.26253" lon="-2.3015">
        <ele>14.199999809265</ele>
        <time>2021-03-21T09:13:07.000Z</time>
      </trkpt>
      <trkpt lat="47.26251" lon="-2.30144">
        <ele>14.800000190735</ele>
        <time>2021-03-21T09:13:08.000Z</time>
      </trkpt>
      <trkpt lat="47.26243" lon="-2.30133">
        <ele>14.800000190735</ele>
        <time>2021-03-21T09:13:11.000Z</time>
      </trkpt>
      <trkpt lat="47.26231" lon="-2.30138">
        <ele>14.800000190735</ele>
        <time>2021-03-21T09:13:14.000Z</time>
      </trkpt>
      <trkpt lat="47.26226" lon="-2.3014">
        <ele>14.800000190735</ele>
        <time>2021-03-21T09:13:15.000Z</time>
      </trkpt>
      <trkpt lat="47.26207" lon="-2.30146">
        <ele>14.800000190735</ele>
        <time>2021-03-21T09:13:19.000Z</time>
      </trkpt>
      <trkpt lat="47.26182" lon="-2.30156">
        <ele>14.800000190735</ele>
        <time>2021-03-21T09:13:24.000Z</time>
      </trkpt>
      <trkpt lat="47.26178" lon="-2.30157">
        <ele>14.800000190735</ele>
        <time>2021-03-21T09:13:25.000Z</time>
      </trkpt>
      <trkpt lat="47.26174" lon="-2.30155">
        <ele>14.800000190735</ele>
        <time>2021-03-21T09:13:27.000Z</time>
      </trkpt>
      <trkpt lat="47.26172" lon="-2.30152">
        <ele>14.800000190735</ele>
        <time>2021-03-21T09:13:28.000Z</time>
      </trkpt>
      <trkpt lat="47.26172" lon="-2.30148">
        <ele>14.199999809265</ele>
        <time>2021-03-21T09:13:29.000Z</time>
      </trkpt>
      <trkpt lat="47.2617" lon="-2.30146">
        <ele>13.800000190735</ele>
        <time>2021-03-21T09:13:30.000Z</time>
      </trkpt>
      <trkpt lat="47.26168" lon="-2.30147">
        <ele>13.39999961853</ele>
        <time>2021-03-21T09:13:31.000Z</time>
      </trkpt>
      <trkpt lat="47.26165" lon="-2.30149">
        <ele>13</ele>
        <time>2021-03-21T09:13:32.000Z</time>
      </trkpt>
      <trkpt lat="47.26162" lon="-2.3015">
        <ele>12.60000038147</ele>
        <time>2021-03-21T09:13:33.000Z</time>
      </trkpt>
      <trkpt lat="47.26159" lon="-2.30151">
        <ele>12.60000038147</ele>
        <time>2021-03-21T09:13:34.000Z</time>
      </trkpt>
      <trkpt lat="47.26148" lon="-2.30155">
        <ele>12.60000038147</ele>
        <time>2021-03-21T09:13:37.000Z</time>
      </trkpt>
      <trkpt lat="47.26123" lon="-2.30162">
        <ele>12.199999809265</ele>
        <time>2021-03-21T09:13:43.000Z</time>
      </trkpt>
      <trkpt lat="47.26119" lon="-2.30164">
        <ele>11.800000190735</ele>
        <time>2021-03-21T09:13:44.000Z</time>
      </trkpt>
      <trkpt lat="47.26117" lon="-2.30164">
        <ele>11.39999961853</ele>
        <time>2021-03-21T09:13:45.000Z</time>
      </trkpt>
      <trkpt lat="47.26114" lon="-2.30165">
        <ele>10.800000190735</ele>
        <time>2021-03-21T09:13:46.000Z</time>
      </trkpt>
      <trkpt lat="47.26111" lon="-2.30166">
        <ele>10.39999961853</ele>
        <time>2021-03-21T09:13:47.000Z</time>
      </trkpt>
      <trkpt lat="47.26106" lon="-2.30165">
        <ele>10.39999961853</ele>
        <time>2021-03-21T09:13:49.000Z</time>
      </trkpt>
      <trkpt lat="47.26104" lon="-2.30162">
        <ele>10.39999961853</ele>
        <time>2021-03-21T09:13:50.000Z</time>
      </trkpt>
      <trkpt lat="47.26102" lon="-2.3016">
        <ele>10</ele>
        <time>2021-03-21T09:13:51.000Z</time>
      </trkpt>
      <trkpt lat="47.26101" lon="-2.30157">
        <ele>9.6000003814697</ele>
        <time>2021-03-21T09:13:52.000Z</time>
      </trkpt>
      <trkpt lat="47.26099" lon="-2.30154">
        <ele>9.1999998092651</ele>
        <time>2021-03-21T09:13:53.000Z</time>
      </trkpt>
      <trkpt lat="47.26096" lon="-2.30152">
        <ele>8.8000001907349</ele>
        <time>2021-03-21T09:13:54.000Z</time>
      </trkpt>
      <trkpt lat="47.26092" lon="-2.30153">
        <ele>8.3999996185303</ele>
        <time>2021-03-21T09:13:55.000Z</time>
      </trkpt>
      <trkpt lat="47.26088" lon="-2.30154">
        <ele>8.3999996185303</ele>
        <time>2021-03-21T09:13:56.000Z</time>
      </trkpt>
      <trkpt lat="47.26075" lon="-2.30157">
        <ele>8.3999996185303</ele>
        <time>2021-03-21T09:13:59.000Z</time>
      </trkpt>
      <trkpt lat="47.26061" lon="-2.30146">
        <ele>8.3999996185303</ele>
        <time>2021-03-21T09:14:03.000Z</time>
      </trkpt>
      <trkpt lat="47.26056" lon="-2.30145">
        <ele>8.3999996185303</ele>
        <time>2021-03-21T09:14:04.000Z</time>
      </trkpt>
      <trkpt lat="47.26051" lon="-2.30145">
        <ele>8</ele>
        <time>2021-03-21T09:14:05.000Z</time>
      </trkpt>
      <trkpt lat="47.26046" lon="-2.30147">
        <ele>7.5999999046326</ele>
        <time>2021-03-21T09:14:06.000Z</time>
      </trkpt>
      <trkpt lat="47.26041" lon="-2.30147">
        <ele>7.1999998092651</ele>
        <time>2021-03-21T09:14:07.000Z</time>
      </trkpt>
      <trkpt lat="47.26037" lon="-2.30148">
        <ele>6.8000001907349</ele>
        <time>2021-03-21T09:14:08.000Z</time>
      </trkpt>
      <trkpt lat="47.26032" lon="-2.30147">
        <ele>6.4000000953674</ele>
        <time>2021-03-21T09:14:09.000Z</time>
      </trkpt>
      <trkpt lat="47.26024" lon="-2.30141">
        <ele>6.4000000953674</ele>
        <time>2021-03-21T09:14:11.000Z</time>
      </trkpt>
      <trkpt lat="47.26011" lon="-2.30138">
        <ele>6.4000000953674</ele>
        <time>2021-03-21T09:14:14.000Z</time>
      </trkpt>
      <trkpt lat="47.26006" lon="-2.30137">
        <ele>5.8000001907349</ele>
        <time>2021-03-21T09:14:15.000Z</time>
      </trkpt>
      <trkpt lat="47.26001" lon="-2.30137">
        <ele>5.4000000953674</ele>
        <time>2021-03-21T09:14:16.000Z</time>
      </trkpt>
      <trkpt lat="47.25996" lon="-2.30138">
        <ele>5</ele>
        <time>2021-03-21T09:14:17.000Z</time>
      </trkpt>
      <trkpt lat="47.25992" lon="-2.30138">
        <ele>4.5999999046326</ele>
        <time>2021-03-21T09:14:18.000Z</time>
      </trkpt>
      <trkpt lat="47.25988" lon="-2.30138">
        <ele>4.1999998092651</ele>
        <time>2021-03-21T09:14:19.000Z</time>
      </trkpt>
      <trkpt lat="47.25979" lon="-2.30141">
        <ele>4.1999998092651</ele>
        <time>2021-03-21T09:14:21.000Z</time>
      </trkpt>
      <trkpt lat="47.25969" lon="-2.3015">
        <ele>4.1999998092651</ele>
        <time>2021-03-21T09:14:23.000Z</time>
      </trkpt>
      <trkpt lat="47.25945" lon="-2.30172">
        <ele>4.1999998092651</ele>
        <time>2021-03-21T09:14:28.000Z</time>
      </trkpt>
      <trkpt lat="47.25929" lon="-2.30176">
        <ele>4.1999998092651</ele>
        <time>2021-03-21T09:14:31.000Z</time>
      </trkpt>
      <trkpt lat="47.25924" lon="-2.30176">
        <ele>4.1999998092651</ele>
        <time>2021-03-21T09:14:32.000Z</time>
      </trkpt>
      <trkpt lat="47.25898" lon="-2.30185">
        <ele>4.1999998092651</ele>
        <time>2021-03-21T09:14:38.000Z</time>
      </trkpt>
      <trkpt lat="47.25894" lon="-2.30196">
        <ele>4.1999998092651</ele>
        <time>2021-03-21T09:14:40.000Z</time>
      </trkpt>
      <trkpt lat="47.25893" lon="-2.30209">
        <ele>4.1999998092651</ele>
        <time>2021-03-21T09:14:42.000Z</time>
      </trkpt>
      <trkpt lat="47.25894" lon="-2.30222">
        <ele>4.1999998092651</ele>
        <time>2021-03-21T09:14:44.000Z</time>
      </trkpt>
      <trkpt lat="47.25895" lon="-2.30241">
        <ele>4.1999998092651</ele>
        <time>2021-03-21T09:14:47.000Z</time>
      </trkpt>
      <trkpt lat="47.25895" lon="-2.30254">
        <ele>4.1999998092651</ele>
        <time>2021-03-21T09:14:49.000Z</time>
      </trkpt>
      <trkpt lat="47.25896" lon="-2.30287">
        <ele>4.1999998092651</ele>
        <time>2021-03-21T09:14:54.000Z</time>
      </trkpt>
      <trkpt lat="47.25896" lon="-2.30293">
        <ele>4.1999998092651</ele>
        <time>2021-03-21T09:14:55.000Z</time>
      </trkpt>
      <trkpt lat="47.2589" lon="-2.30307">
        <ele>4.1999998092651</ele>
        <time>2021-03-21T09:14:58.000Z</time>
      </trkpt>
      <trkpt lat="47.25878" lon="-2.30313">
        <ele>4.1999998092651</ele>
        <time>2021-03-21T09:15:02.000Z</time>
      </trkpt>
      <trkpt lat="47.25865" lon="-2.30307">
        <ele>4.1999998092651</ele>
        <time>2021-03-21T09:15:06.000Z</time>
      </trkpt>
      <trkpt lat="47.25855" lon="-2.30286">
        <ele>4.1999998092651</ele>
        <time>2021-03-21T09:15:10.000Z</time>
      </trkpt>
      <trkpt lat="47.25851" lon="-2.30281">
        <ele>4.1999998092651</ele>
        <time>2021-03-21T09:15:11.000Z</time>
      </trkpt>
      <trkpt lat="47.25842" lon="-2.30276">
        <ele>4.1999998092651</ele>
        <time>2021-03-21T09:15:13.000Z</time>
      </trkpt>
      <trkpt lat="47.25807" lon="-2.3026">
        <ele>4.1999998092651</ele>
        <time>2021-03-21T09:15:19.000Z</time>
      </trkpt>
      <trkpt lat="47.25776" lon="-2.30245">
        <ele>4.1999998092651</ele>
        <time>2021-03-21T09:15:24.000Z</time>
      </trkpt>
      <trkpt lat="47.25735" lon="-2.30224">
        <ele>4.1999998092651</ele>
        <time>2021-03-21T09:15:31.000Z</time>
      </trkpt>
      <trkpt lat="47.25724" lon="-2.3022">
        <ele>4.1999998092651</ele>
        <time>2021-03-21T09:15:33.000Z</time>
      </trkpt>
      <trkpt lat="47.25713" lon="-2.30222">
        <ele>4.1999998092651</ele>
        <time>2021-03-21T09:15:35.000Z</time>
      </trkpt>
      <trkpt lat="47.25703" lon="-2.30229">
        <ele>4.5999999046326</ele>
        <time>2021-03-21T09:15:37.000Z</time>
      </trkpt>
      <trkpt lat="47.25699" lon="-2.30235">
        <ele>5</ele>
        <time>2021-03-21T09:15:38.000Z</time>
      </trkpt>
      <trkpt lat="47.25696" lon="-2.30242">
        <ele>5.5999999046326</ele>
        <time>2021-03-21T09:15:39.000Z</time>
      </trkpt>
      <trkpt lat="47.25694" lon="-2.30249">
        <ele>6</ele>
        <time>2021-03-21T09:15:40.000Z</time>
      </trkpt>
      <trkpt lat="47.25693" lon="-2.30257">
        <ele>6.4000000953674</ele>
        <time>2021-03-21T09:15:41.000Z</time>
      </trkpt>
      <trkpt lat="47.25697" lon="-2.30278">
        <ele>6.4000000953674</ele>
        <time>2021-03-21T09:15:44.000Z</time>
      </trkpt>
      <trkpt lat="47.2569" lon="-2.303">
        <ele>6.4000000953674</ele>
        <time>2021-03-21T09:15:47.000Z</time>
      </trkpt>
      <trkpt lat="47.25684" lon="-2.30312">
        <ele>6.8000001907349</ele>
        <time>2021-03-21T09:15:49.000Z</time>
      </trkpt>
      <trkpt lat="47.25679" lon="-2.30316">
        <ele>7.1999998092651</ele>
        <time>2021-03-21T09:15:50.000Z</time>
      </trkpt>
      <trkpt lat="47.25674" lon="-2.30319">
        <ele>7.5999999046326</ele>
        <time>2021-03-21T09:15:51.000Z</time>
      </trkpt>
      <trkpt lat="47.25669" lon="-2.30322">
        <ele>8</ele>
        <time>2021-03-21T09:15:52.000Z</time>
      </trkpt>
      <trkpt lat="47.25664" lon="-2.30326">
        <ele>8.3999996185303</ele>
        <time>2021-03-21T09:15:53.000Z</time>
      </trkpt>
      <trkpt lat="47.25659" lon="-2.3033">
        <ele>8.3999996185303</ele>
        <time>2021-03-21T09:15:54.000Z</time>
      </trkpt>
      <trkpt lat="47.25647" lon="-2.30343">
        <ele>8.3999996185303</ele>
        <time>2021-03-21T09:15:57.000Z</time>
      </trkpt>
      <trkpt lat="47.25642" lon="-2.30346">
        <ele>8.3999996185303</ele>
        <time>2021-03-21T09:15:58.000Z</time>
      </trkpt>
      <trkpt lat="47.25633" lon="-2.3034">
        <ele>8.3999996185303</ele>
        <time>2021-03-21T09:16:00.000Z</time>
      </trkpt>
      <trkpt lat="47.25629" lon="-2.30322">
        <ele>8.3999996185303</ele>
        <time>2021-03-21T09:16:03.000Z</time>
      </trkpt>
      <trkpt lat="47.25628" lon="-2.30315">
        <ele>8.3999996185303</ele>
        <time>2021-03-21T09:16:04.000Z</time>
      </trkpt>
      <trkpt lat="47.25626" lon="-2.30288">
        <ele>8.3999996185303</ele>
        <time>2021-03-21T09:16:08.000Z</time>
      </trkpt>
      <trkpt lat="47.25625" lon="-2.30282">
        <ele>8.3999996185303</ele>
        <time>2021-03-21T09:16:09.000Z</time>
      </trkpt>
      <trkpt lat="47.25624" lon="-2.30269">
        <ele>8.3999996185303</ele>
        <time>2021-03-21T09:16:11.000Z</time>
      </trkpt>
      <trkpt lat="47.25618" lon="-2.30241">
        <ele>8.3999996185303</ele>
        <time>2021-03-21T09:16:15.000Z</time>
      </trkpt>
      <trkpt lat="47.25615" lon="-2.30234">
        <ele>8.3999996185303</ele>
        <time>2021-03-21T09:16:16.000Z</time>
      </trkpt>
      <trkpt lat="47.25603" lon="-2.3021">
        <ele>8.3999996185303</ele>
        <time>2021-03-21T09:16:20.000Z</time>
      </trkpt>
      <trkpt lat="47.25591" lon="-2.30197">
        <ele>8.3999996185303</ele>
        <time>2021-03-21T09:16:23.000Z</time>
      </trkpt>
      <trkpt lat="47.25583" lon="-2.30191">
        <ele>8.3999996185303</ele>
        <time>2021-03-21T09:16:25.000Z</time>
      </trkpt>
      <trkpt lat="47.25568" lon="-2.30184">
        <ele>8.3999996185303</ele>
        <time>2021-03-21T09:16:29.000Z</time>
      </trkpt>
      <trkpt lat="47.25559" lon="-2.30185">
        <ele>8.3999996185303</ele>
        <time>2021-03-21T09:16:31.000Z</time>
      </trkpt>
      <trkpt lat="47.2555" lon="-2.30188">
        <ele>8.3999996185303</ele>
        <time>2021-03-21T09:16:33.000Z</time>
      </trkpt>
      <trkpt lat="47.25534" lon="-2.30196">
        <ele>8.3999996185303</ele>
        <time>2021-03-21T09:16:37.000Z</time>
      </trkpt>
      <trkpt lat="47.25519" lon="-2.30196">
        <ele>8.3999996185303</ele>
        <time>2021-03-21T09:16:41.000Z</time>
      </trkpt>
      <trkpt lat="47.25515" lon="-2.30196">
        <ele>8.3999996185303</ele>
        <time>2021-03-21T09:16:42.000Z</time>
      </trkpt>
      <trkpt lat="47.25504" lon="-2.30199">
        <ele>8.3999996185303</ele>
        <time>2021-03-21T09:16:45.000Z</time>
      </trkpt>
      <trkpt lat="47.25496" lon="-2.30209">
        <ele>8.3999996185303</ele>
        <time>2021-03-21T09:16:48.000Z</time>
      </trkpt>
      <trkpt lat="47.25492" lon="-2.30212">
        <ele>8.3999996185303</ele>
        <time>2021-03-21T09:16:49.000Z</time>
      </trkpt>
      <trkpt lat="47.25489" lon="-2.30218">
        <ele>8.3999996185303</ele>
        <time>2021-03-21T09:16:50.000Z</time>
      </trkpt>
      <trkpt lat="47.25484" lon="-2.30235">
        <ele>8.3999996185303</ele>
        <time>2021-03-21T09:16:53.000Z</time>
      </trkpt>
      <trkpt lat="47.2548" lon="-2.30245">
        <ele>8.3999996185303</ele>
        <time>2021-03-21T09:16:55.000Z</time>
      </trkpt>
      <trkpt lat="47.25473" lon="-2.30246">
        <ele>8.3999996185303</ele>
        <time>2021-03-21T09:16:57.000Z</time>
      </trkpt>
      <trkpt lat="47.25463" lon="-2.30242">
        <ele>8.3999996185303</ele>
        <time>2021-03-21T09:17:00.000Z</time>
      </trkpt>
      <trkpt lat="47.25458" lon="-2.30242">
        <ele>8.3999996185303</ele>
        <time>2021-03-21T09:17:01.000Z</time>
      </trkpt>
      <trkpt lat="47.2545" lon="-2.3024">
        <ele>9.1999998092651</ele>
        <time>2021-03-21T09:17:03.000Z</time>
      </trkpt>
      <trkpt lat="47.25446" lon="-2.3024">
        <ele>9.6000003814697</ele>
        <time>2021-03-21T09:17:04.000Z</time>
      </trkpt>
      <trkpt lat="47.25443" lon="-2.30239">
        <ele>10</ele>
        <time>2021-03-21T09:17:05.000Z</time>
      </trkpt>
      <trkpt lat="47.25439" lon="-2.30238">
        <ele>10.60000038147</ele>
        <time>2021-03-21T09:17:06.000Z</time>
      </trkpt>
      <trkpt lat="47.25431" lon="-2.30235">
        <ele>10.60000038147</ele>
        <time>2021-03-21T09:17:08.000Z</time>
      </trkpt>
      <trkpt lat="47.25415" lon="-2.3023">
        <ele>10.60000038147</ele>
        <time>2021-03-21T09:17:13.000Z</time>
      </trkpt>
      <trkpt lat="47.25406" lon="-2.30226">
        <ele>10.60000038147</ele>
        <time>2021-03-21T09:17:18.000Z</time>
      </trkpt>
      <trkpt lat="47.25394" lon="-2.30222">
        <ele>10.60000038147</ele>
        <time>2021-03-21T09:17:24.000Z</time>
      </trkpt>
      <trkpt lat="47.25383" lon="-2.30215">
        <ele>10.60000038147</ele>
        <time>2021-03-21T09:17:30.000Z</time>
      </trkpt>
      <trkpt lat="47.25368" lon="-2.30211">
        <ele>10.60000038147</ele>
        <time>2021-03-21T09:17:34.000Z</time>
      </trkpt>
      <trkpt lat="47.25351" lon="-2.30209">
        <ele>11</ele>
        <time>2021-03-21T09:17:38.000Z</time>
      </trkpt>
      <trkpt lat="47.25347" lon="-2.30209">
        <ele>11.39999961853</ele>
        <time>2021-03-21T09:17:39.000Z</time>
      </trkpt>
      <trkpt lat="47.25344" lon="-2.30209">
        <ele>11.800000190735</ele>
        <time>2021-03-21T09:17:40.000Z</time>
      </trkpt>
      <trkpt lat="47.2534" lon="-2.30209">
        <ele>12.199999809265</ele>
        <time>2021-03-21T09:17:41.000Z</time>
      </trkpt>
      <trkpt lat="47.25336" lon="-2.30209">
        <ele>12.60000038147</ele>
        <time>2021-03-21T09:17:42.000Z</time>
      </trkpt>
      <trkpt lat="47.25317" lon="-2.30206">
        <ele>12.60000038147</ele>
        <time>2021-03-21T09:17:47.000Z</time>
      </trkpt>
      <trkpt lat="47.25308" lon="-2.30207">
        <ele>12.60000038147</ele>
        <time>2021-03-21T09:17:50.000Z</time>
      </trkpt>
      <trkpt lat="47.25308" lon="-2.30211">
        <ele>12.60000038147</ele>
        <time>2021-03-21T09:17:51.000Z</time>
      </trkpt>
      <trkpt lat="47.25298" lon="-2.30211">
        <ele>12.60000038147</ele>
        <time>2021-03-21T09:17:55.000Z</time>
      </trkpt>
      <trkpt lat="47.2529" lon="-2.30208">
        <ele>12.60000038147</ele>
        <time>2021-03-21T09:17:57.000Z</time>
      </trkpt>
      <trkpt lat="47.25283" lon="-2.30205">
        <ele>13</ele>
        <time>2021-03-21T09:17:59.000Z</time>
      </trkpt>
      <trkpt lat="47.25279" lon="-2.30202">
        <ele>13.39999961853</ele>
        <time>2021-03-21T09:18:00.000Z</time>
      </trkpt>
      <trkpt lat="47.25275" lon="-2.302">
        <ele>13.800000190735</ele>
        <time>2021-03-21T09:18:01.000Z</time>
      </trkpt>
      <trkpt lat="47.2527" lon="-2.30198">
        <ele>14.199999809265</ele>
        <time>2021-03-21T09:18:02.000Z</time>
      </trkpt>
      <trkpt lat="47.25266" lon="-2.30196">
        <ele>14.60000038147</ele>
        <time>2021-03-21T09:18:03.000Z</time>
      </trkpt>
      <trkpt lat="47.25251" lon="-2.30189">
        <ele>14.60000038147</ele>
        <time>2021-03-21T09:18:07.000Z</time>
      </trkpt>
      <trkpt lat="47.25228" lon="-2.30182">
        <ele>14.60000038147</ele>
        <time>2021-03-21T09:18:13.000Z</time>
      </trkpt>
      <trkpt lat="47.25215" lon="-2.30168">
        <ele>15</ele>
        <time>2021-03-21T09:18:17.000Z</time>
      </trkpt>
      <trkpt lat="47.25212" lon="-2.30164">
        <ele>15.39999961853</ele>
        <time>2021-03-21T09:18:18.000Z</time>
      </trkpt>
      <trkpt lat="47.25208" lon="-2.3016">
        <ele>15.800000190735</ele>
        <time>2021-03-21T09:18:19.000Z</time>
      </trkpt>
      <trkpt lat="47.25205" lon="-2.30156">
        <ele>16.39999961853</ele>
        <time>2021-03-21T09:18:20.000Z</time>
      </trkpt>
      <trkpt lat="47.25202" lon="-2.30153">
        <ele>16.799999237061</ele>
        <time>2021-03-21T09:18:21.000Z</time>
      </trkpt>
      <trkpt lat="47.25195" lon="-2.30144">
        <ele>16.799999237061</ele>
        <time>2021-03-21T09:18:23.000Z</time>
      </trkpt>
      <trkpt lat="47.25181" lon="-2.30122">
        <ele>16.799999237061</ele>
        <time>2021-03-21T09:18:28.000Z</time>
      </trkpt>
      <trkpt lat="47.25176" lon="-2.30121">
        <ele>16.799999237061</ele>
        <time>2021-03-21T09:18:29.000Z</time>
      </trkpt>
      <trkpt lat="47.25171" lon="-2.30122">
        <ele>17.200000762939</ele>
        <time>2021-03-21T09:18:30.000Z</time>
      </trkpt>
      <trkpt lat="47.25165" lon="-2.30125">
        <ele>17.60000038147</ele>
        <time>2021-03-21T09:18:31.000Z</time>
      </trkpt>
      <trkpt lat="47.25159" lon="-2.30126">
        <ele>18</ele>
        <time>2021-03-21T09:18:32.000Z</time>
      </trkpt>
      <trkpt lat="47.25154" lon="-2.30127">
        <ele>18.39999961853</ele>
        <time>2021-03-21T09:18:33.000Z</time>
      </trkpt>
      <trkpt lat="47.25149" lon="-2.30129">
        <ele>18.799999237061</ele>
        <time>2021-03-21T09:18:34.000Z</time>
      </trkpt>
      <trkpt lat="47.25137" lon="-2.30132">
        <ele>18.799999237061</ele>
        <time>2021-03-21T09:18:37.000Z</time>
      </trkpt>
      <trkpt lat="47.25132" lon="-2.30133">
        <ele>18.799999237061</ele>
        <time>2021-03-21T09:18:38.000Z</time>
      </trkpt>
      <trkpt lat="47.25114" lon="-2.30135">
        <ele>18.799999237061</ele>
        <time>2021-03-21T09:18:42.000Z</time>
      </trkpt>
      <trkpt lat="47.25084" lon="-2.30138">
        <ele>18.799999237061</ele>
        <time>2021-03-21T09:18:49.000Z</time>
      </trkpt>
      <trkpt lat="47.25071" lon="-2.30135">
        <ele>18.799999237061</ele>
        <time>2021-03-21T09:18:52.000Z</time>
      </trkpt>
      <trkpt lat="47.25067" lon="-2.30125">
        <ele>18.799999237061</ele>
        <time>2021-03-21T09:18:54.000Z</time>
      </trkpt>
      <trkpt lat="47.25068" lon="-2.30119">
        <ele>19.200000762939</ele>
        <time>2021-03-21T09:18:55.000Z</time>
      </trkpt>
      <trkpt lat="47.25069" lon="-2.30112">
        <ele>19.60000038147</ele>
        <time>2021-03-21T09:18:56.000Z</time>
      </trkpt>
      <trkpt lat="47.25069" lon="-2.30106">
        <ele>20</ele>
        <time>2021-03-21T09:18:57.000Z</time>
      </trkpt>
      <trkpt lat="47.25069" lon="-2.30099">
        <ele>20.39999961853</ele>
        <time>2021-03-21T09:18:58.000Z</time>
      </trkpt>
      <trkpt lat="47.2507" lon="-2.30093">
        <ele>20.799999237061</ele>
        <time>2021-03-21T09:18:59.000Z</time>
      </trkpt>
      <trkpt lat="47.25072" lon="-2.30065">
        <ele>20.799999237061</ele>
        <time>2021-03-21T09:19:04.000Z</time>
      </trkpt>
      <trkpt lat="47.25071" lon="-2.3006">
        <ele>20.799999237061</ele>
        <time>2021-03-21T09:19:05.000Z</time>
      </trkpt>
      <trkpt lat="47.25066" lon="-2.30057">
        <ele>20.799999237061</ele>
        <time>2021-03-21T09:19:07.000Z</time>
      </trkpt>
      <trkpt lat="47.2506" lon="-2.30056">
        <ele>20.799999237061</ele>
        <time>2021-03-21T09:19:09.000Z</time>
      </trkpt>
      <trkpt lat="47.25052" lon="-2.30056">
        <ele>20.799999237061</ele>
        <time>2021-03-21T09:19:11.000Z</time>
      </trkpt>
      <trkpt lat="47.2502" lon="-2.30053">
        <ele>20.799999237061</ele>
        <time>2021-03-21T09:19:19.000Z</time>
      </trkpt>
      <trkpt lat="47.25011" lon="-2.30053">
        <ele>20.799999237061</ele>
        <time>2021-03-21T09:19:21.000Z</time>
      </trkpt>
      <trkpt lat="47.25003" lon="-2.30053">
        <ele>20.799999237061</ele>
        <time>2021-03-21T09:19:23.000Z</time>
      </trkpt>
      <trkpt lat="47.24994" lon="-2.30053">
        <ele>20.799999237061</ele>
        <time>2021-03-21T09:19:25.000Z</time>
      </trkpt>
      <trkpt lat="47.24972" lon="-2.30055">
        <ele>20.799999237061</ele>
        <time>2021-03-21T09:19:30.000Z</time>
      </trkpt>
      <trkpt lat="47.24968" lon="-2.30056">
        <ele>21.200000762939</ele>
        <time>2021-03-21T09:19:31.000Z</time>
      </trkpt>
      <trkpt lat="47.24963" lon="-2.30056">
        <ele>21.60000038147</ele>
        <time>2021-03-21T09:19:32.000Z</time>
      </trkpt>
      <trkpt lat="47.24959" lon="-2.30055">
        <ele>22</ele>
        <time>2021-03-21T09:19:33.000Z</time>
      </trkpt>
      <trkpt lat="47.24954" lon="-2.30055">
        <ele>22.60000038147</ele>
        <time>2021-03-21T09:19:34.000Z</time>
      </trkpt>
      <trkpt lat="47.2495" lon="-2.30055">
        <ele>23</ele>
        <time>2021-03-21T09:19:35.000Z</time>
      </trkpt>
      <trkpt lat="47.24942" lon="-2.30055">
        <ele>23</ele>
        <time>2021-03-21T09:19:37.000Z</time>
      </trkpt>
      <trkpt lat="47.24909" lon="-2.30055">
        <ele>23</ele>
        <time>2021-03-21T09:19:45.000Z</time>
      </trkpt>
      <trkpt lat="47.24903" lon="-2.30048">
        <ele>23</ele>
        <time>2021-03-21T09:19:47.000Z</time>
      </trkpt>
      <trkpt lat="47.24902" lon="-2.30041">
        <ele>23</ele>
        <time>2021-03-21T09:19:48.000Z</time>
      </trkpt>
      <trkpt lat="47.249" lon="-2.30008">
        <ele>23</ele>
        <time>2021-03-21T09:19:52.000Z</time>
      </trkpt>
      <trkpt lat="47.24896" lon="-2.29991">
        <ele>23</ele>
        <time>2021-03-21T09:19:54.000Z</time>
      </trkpt>
      <trkpt lat="47.24888" lon="-2.29963">
        <ele>23</ele>
        <time>2021-03-21T09:19:57.000Z</time>
      </trkpt>
      <trkpt lat="47.24877" lon="-2.29896">
        <ele>23</ele>
        <time>2021-03-21T09:20:04.000Z</time>
      </trkpt>
      <trkpt lat="47.24876" lon="-2.29877">
        <ele>23</ele>
        <time>2021-03-21T09:20:06.000Z</time>
      </trkpt>
      <trkpt lat="47.2487" lon="-2.29852">
        <ele>23</ele>
        <time>2021-03-21T09:20:09.000Z</time>
      </trkpt>
      <trkpt lat="47.24861" lon="-2.2983">
        <ele>23</ele>
        <time>2021-03-21T09:20:13.000Z</time>
      </trkpt>
      <trkpt lat="47.2485" lon="-2.29838">
        <ele>23</ele>
        <time>2021-03-21T09:20:16.000Z</time>
      </trkpt>
      <trkpt lat="47.24838" lon="-2.29844">
        <ele>23</ele>
        <time>2021-03-21T09:20:19.000Z</time>
      </trkpt>
      <trkpt lat="47.24828" lon="-2.29846">
        <ele>23</ele>
        <time>2021-03-21T09:20:22.000Z</time>
      </trkpt>
      <trkpt lat="47.24801" lon="-2.29855">
        <ele>23</ele>
        <time>2021-03-21T09:20:29.000Z</time>
      </trkpt>
      <trkpt lat="47.24772" lon="-2.29874">
        <ele>23</ele>
        <time>2021-03-21T09:20:37.000Z</time>
      </trkpt>
      <trkpt lat="47.24754" lon="-2.2989">
        <ele>23</ele>
        <time>2021-03-21T09:20:43.000Z</time>
      </trkpt>
      <trkpt lat="47.24746" lon="-2.29897">
        <ele>23</ele>
        <time>2021-03-21T09:20:49.000Z</time>
      </trkpt>
      <trkpt lat="47.24746" lon="-2.29897">
        <ele>23</ele>
        <time>2021-03-21T09:20:50.000Z</time>
      </trkpt>
      <trkpt lat="47.24743" lon="-2.29898">
        <ele>23</ele>
        <time>2021-03-21T09:22:02.000Z</time>
      </trkpt>
      <trkpt lat="47.24739" lon="-2.29898">
        <ele>23</ele>
        <time>2021-03-21T09:22:04.000Z</time>
      </trkpt>
      <trkpt lat="47.24722" lon="-2.29905">
        <ele>23</ele>
        <time>2021-03-21T09:22:09.000Z</time>
      </trkpt>
      <trkpt lat="47.24694" lon="-2.29913">
        <ele>23</ele>
        <time>2021-03-21T09:22:16.000Z</time>
      </trkpt>
      <trkpt lat="47.24665" lon="-2.29922">
        <ele>23</ele>
        <time>2021-03-21T09:22:22.000Z</time>
      </trkpt>
      <trkpt lat="47.24625" lon="-2.29936">
        <ele>23</ele>
        <time>2021-03-21T09:22:31.000Z</time>
      </trkpt>
      <trkpt lat="47.246" lon="-2.29943">
        <ele>22.60000038147</ele>
        <time>2021-03-21T09:22:37.000Z</time>
      </trkpt>
      <trkpt lat="47.24597" lon="-2.29941">
        <ele>22.200000762939</ele>
        <time>2021-03-21T09:22:38.000Z</time>
      </trkpt>
      <trkpt lat="47.24594" lon="-2.29937">
        <ele>21.799999237061</ele>
        <time>2021-03-21T09:22:39.000Z</time>
      </trkpt>
      <trkpt lat="47.24591" lon="-2.29932">
        <ele>21.200000762939</ele>
        <time>2021-03-21T09:22:40.000Z</time>
      </trkpt>
      <trkpt lat="47.24588" lon="-2.29927">
        <ele>20.799999237061</ele>
        <time>2021-03-21T09:22:41.000Z</time>
      </trkpt>
      <trkpt lat="47.24585" lon="-2.29922">
        <ele>20.799999237061</ele>
        <time>2021-03-21T09:22:42.000Z</time>
      </trkpt>
      <trkpt lat="47.24575" lon="-2.29907">
        <ele>20.799999237061</ele>
        <time>2021-03-21T09:22:45.000Z</time>
      </trkpt>
      <trkpt lat="47.24568" lon="-2.29889">
        <ele>20.799999237061</ele>
        <time>2021-03-21T09:22:48.000Z</time>
      </trkpt>
      <trkpt lat="47.24565" lon="-2.29884">
        <ele>20.799999237061</ele>
        <time>2021-03-21T09:22:49.000Z</time>
      </trkpt>
      <trkpt lat="47.24547" lon="-2.29869">
        <ele>20.799999237061</ele>
        <time>2021-03-21T09:22:53.000Z</time>
      </trkpt>
      <trkpt lat="47.24537" lon="-2.29866">
        <ele>20.799999237061</ele>
        <time>2021-03-21T09:22:55.000Z</time>
      </trkpt>
      <trkpt lat="47.24522" lon="-2.2986">
        <ele>20.799999237061</ele>
        <time>2021-03-21T09:22:58.000Z</time>
      </trkpt>
      <trkpt lat="47.24487" lon="-2.29838">
        <ele>20.799999237061</ele>
        <time>2021-03-21T09:23:05.000Z</time>
      </trkpt>
      <trkpt lat="47.24476" lon="-2.29822">
        <ele>20.799999237061</ele>
        <time>2021-03-21T09:23:08.000Z</time>
      </trkpt>
      <trkpt lat="47.24469" lon="-2.29808">
        <ele>20.799999237061</ele>
        <time>2021-03-21T09:23:10.000Z</time>
      </trkpt>
      <trkpt lat="47.24463" lon="-2.29793">
        <ele>20.799999237061</ele>
        <time>2021-03-21T09:23:12.000Z</time>
      </trkpt>
      <trkpt lat="47.24459" lon="-2.29769">
        <ele>20.799999237061</ele>
        <time>2021-03-21T09:23:15.000Z</time>
      </trkpt>
      <trkpt lat="47.24458" lon="-2.2976">
        <ele>20.799999237061</ele>
        <time>2021-03-21T09:23:16.000Z</time>
      </trkpt>
      <trkpt lat="47.24456" lon="-2.29752">
        <ele>20.799999237061</ele>
        <time>2021-03-21T09:23:17.000Z</time>
      </trkpt>
      <trkpt lat="47.24447" lon="-2.29733">
        <ele>20.799999237061</ele>
        <time>2021-03-21T09:23:20.000Z</time>
      </trkpt>
      <trkpt lat="47.24444" lon="-2.29727">
        <ele>20.799999237061</ele>
        <time>2021-03-21T09:23:21.000Z</time>
      </trkpt>
      <trkpt lat="47.24443" lon="-2.2972">
        <ele>20.799999237061</ele>
        <time>2021-03-21T09:23:22.000Z</time>
      </trkpt>
      <trkpt lat="47.24436" lon="-2.29697">
        <ele>20.799999237061</ele>
        <time>2021-03-21T09:23:25.000Z</time>
      </trkpt>
      <trkpt lat="47.24425" lon="-2.29694">
        <ele>20.799999237061</ele>
        <time>2021-03-21T09:23:27.000Z</time>
      </trkpt>
      <trkpt lat="47.24413" lon="-2.297">
        <ele>20.799999237061</ele>
        <time>2021-03-21T09:23:29.000Z</time>
      </trkpt>
      <trkpt lat="47.24407" lon="-2.29704">
        <ele>20.799999237061</ele>
        <time>2021-03-21T09:23:30.000Z</time>
      </trkpt>
      <trkpt lat="47.24396" lon="-2.29712">
        <ele>20.799999237061</ele>
        <time>2021-03-21T09:23:32.000Z</time>
      </trkpt>
      <trkpt lat="47.2439" lon="-2.2973">
        <ele>20.799999237061</ele>
        <time>2021-03-21T09:23:34.000Z</time>
      </trkpt>
      <trkpt lat="47.24381" lon="-2.29758">
        <ele>20.799999237061</ele>
        <time>2021-03-21T09:23:37.000Z</time>
      </trkpt>
      <trkpt lat="47.24374" lon="-2.29775">
        <ele>20.799999237061</ele>
        <time>2021-03-21T09:23:39.000Z</time>
      </trkpt>
      <trkpt lat="47.24356" lon="-2.29804">
        <ele>20.799999237061</ele>
        <time>2021-03-21T09:23:43.000Z</time>
      </trkpt>
      <trkpt lat="47.2435" lon="-2.29808">
        <ele>20.799999237061</ele>
        <time>2021-03-21T09:23:44.000Z</time>
      </trkpt>
      <trkpt lat="47.24337" lon="-2.29813">
        <ele>20.39999961853</ele>
        <time>2021-03-21T09:23:46.000Z</time>
      </trkpt>
      <trkpt lat="47.24331" lon="-2.29815">
        <ele>20</ele>
        <time>2021-03-21T09:23:47.000Z</time>
      </trkpt>
      <trkpt lat="47.24326" lon="-2.29818">
        <ele>19.60000038147</ele>
        <time>2021-03-21T09:23:48.000Z</time>
      </trkpt>
      <trkpt lat="47.24321" lon="-2.29825">
        <ele>19.200000762939</ele>
        <time>2021-03-21T09:23:49.000Z</time>
      </trkpt>
      <trkpt lat="47.24319" lon="-2.29834">
        <ele>18.799999237061</ele>
        <time>2021-03-21T09:23:50.000Z</time>
      </trkpt>
      <trkpt lat="47.24321" lon="-2.29844">
        <ele>18.799999237061</ele>
        <time>2021-03-21T09:23:51.000Z</time>
      </trkpt>
      <trkpt lat="47.24323" lon="-2.29862">
        <ele>18.799999237061</ele>
        <time>2021-03-21T09:23:53.000Z</time>
      </trkpt>
      <trkpt lat="47.24323" lon="-2.29871">
        <ele>18.799999237061</ele>
        <time>2021-03-21T09:23:54.000Z</time>
      </trkpt>
      <trkpt lat="47.24321" lon="-2.2988">
        <ele>18.799999237061</ele>
        <time>2021-03-21T09:23:55.000Z</time>
      </trkpt>
      <trkpt lat="47.24312" lon="-2.29892">
        <ele>18.799999237061</ele>
        <time>2021-03-21T09:23:57.000Z</time>
      </trkpt>
      <trkpt lat="47.243" lon="-2.29899">
        <ele>18.39999961853</ele>
        <time>2021-03-21T09:23:59.000Z</time>
      </trkpt>
      <trkpt lat="47.24294" lon="-2.29903">
        <ele>18</ele>
        <time>2021-03-21T09:24:00.000Z</time>
      </trkpt>
      <trkpt lat="47.24288" lon="-2.29906">
        <ele>17.60000038147</ele>
        <time>2021-03-21T09:24:01.000Z</time>
      </trkpt>
      <trkpt lat="47.24282" lon="-2.2991">
        <ele>17.200000762939</ele>
        <time>2021-03-21T09:24:02.000Z</time>
      </trkpt>
      <trkpt lat="47.24277" lon="-2.29914">
        <ele>16.799999237061</ele>
        <time>2021-03-21T09:24:03.000Z</time>
      </trkpt>
      <trkpt lat="47.24267" lon="-2.29924">
        <ele>16.799999237061</ele>
        <time>2021-03-21T09:24:05.000Z</time>
      </trkpt>
      <trkpt lat="47.24262" lon="-2.2993">
        <ele>16.799999237061</ele>
        <time>2021-03-21T09:24:06.000Z</time>
      </trkpt>
      <trkpt lat="47.24259" lon="-2.29936">
        <ele>16.799999237061</ele>
        <time>2021-03-21T09:24:07.000Z</time>
      </trkpt>
      <trkpt lat="47.24244" lon="-2.29952">
        <ele>16.799999237061</ele>
        <time>2021-03-21T09:24:10.000Z</time>
      </trkpt>
      <trkpt lat="47.24224" lon="-2.29959">
        <ele>16.799999237061</ele>
        <time>2021-03-21T09:24:14.000Z</time>
      </trkpt>
      <trkpt lat="47.24199" lon="-2.29971">
        <ele>16.799999237061</ele>
        <time>2021-03-21T09:24:20.000Z</time>
      </trkpt>
      <trkpt lat="47.24176" lon="-2.29975">
        <ele>16.799999237061</ele>
        <time>2021-03-21T09:24:26.000Z</time>
      </trkpt>
      <trkpt lat="47.24172" lon="-2.29976">
        <ele>17.200000762939</ele>
        <time>2021-03-21T09:24:28.000Z</time>
      </trkpt>
      <trkpt lat="47.24171" lon="-2.29977">
        <ele>17.60000038147</ele>
        <time>2021-03-21T09:24:29.000Z</time>
      </trkpt>
      <trkpt lat="47.24171" lon="-2.29977">
        <ele>18</ele>
        <time>2021-03-21T09:24:30.000Z</time>
      </trkpt>
      <trkpt lat="47.24171" lon="-2.29977">
        <ele>18.39999961853</ele>
        <time>2021-03-21T09:24:31.000Z</time>
      </trkpt>
      <trkpt lat="47.24171" lon="-2.29977">
        <ele>19</ele>
        <time>2021-03-21T09:24:32.000Z</time>
      </trkpt>
      <trkpt lat="47.24171" lon="-2.29977">
        <ele>19</ele>
        <time>2021-03-21T09:24:33.000Z</time>
      </trkpt>
      <trkpt lat="47.24172" lon="-2.29979">
        <ele>19</ele>
        <time>2021-03-21T09:24:37.000Z</time>
      </trkpt>
      <trkpt lat="47.24174" lon="-2.29982">
        <ele>19</ele>
        <time>2021-03-21T09:24:38.000Z</time>
      </trkpt>
      <trkpt lat="47.24183" lon="-2.30002">
        <ele>19</ele>
        <time>2021-03-21T09:24:43.000Z</time>
      </trkpt>
      <trkpt lat="47.24187" lon="-2.30016">
        <ele>18.39999961853</ele>
        <time>2021-03-21T09:24:46.000Z</time>
      </trkpt>
      <trkpt lat="47.24187" lon="-2.3002">
        <ele>18</ele>
        <time>2021-03-21T09:24:47.000Z</time>
      </trkpt>
      <trkpt lat="47.24185" lon="-2.30023">
        <ele>17.60000038147</ele>
        <time>2021-03-21T09:24:48.000Z</time>
      </trkpt>
      <trkpt lat="47.24183" lon="-2.30026">
        <ele>17.200000762939</ele>
        <time>2021-03-21T09:24:49.000Z</time>
      </trkpt>
      <trkpt lat="47.24182" lon="-2.30027">
        <ele>16.799999237061</ele>
        <time>2021-03-21T09:24:50.000Z</time>
      </trkpt>
      <trkpt lat="47.24179" lon="-2.30028">
        <ele>16.799999237061</ele>
        <time>2021-03-21T09:24:52.000Z</time>
      </trkpt>
      <trkpt lat="47.24177" lon="-2.30028">
        <ele>16.799999237061</ele>
        <time>2021-03-21T09:24:53.000Z</time>
      </trkpt>
      <trkpt lat="47.24163" lon="-2.30025">
        <ele>16.799999237061</ele>
        <time>2021-03-21T09:24:59.000Z</time>
      </trkpt>
      <trkpt lat="47.24158" lon="-2.30028">
        <ele>16.799999237061</ele>
        <time>2021-03-21T09:25:04.000Z</time>
      </trkpt>
      <trkpt lat="47.24156" lon="-2.30031">
        <ele>16.799999237061</ele>
        <time>2021-03-21T09:25:06.000Z</time>
      </trkpt>
      <trkpt lat="47.24152" lon="-2.3004">
        <ele>16.799999237061</ele>
        <time>2021-03-21T09:25:09.000Z</time>
      </trkpt>
      <trkpt lat="47.24152" lon="-2.30044">
        <ele>16.799999237061</ele>
        <time>2021-03-21T09:25:10.000Z</time>
      </trkpt>
      <trkpt lat="47.24153" lon="-2.30066">
        <ele>16.799999237061</ele>
        <time>2021-03-21T09:25:13.000Z</time>
      </trkpt>
      <trkpt lat="47.24158" lon="-2.30089">
        <ele>16.799999237061</ele>
        <time>2021-03-21T09:25:17.000Z</time>
      </trkpt>
      <trkpt lat="47.24156" lon="-2.30097">
        <ele>16.39999961853</ele>
        <time>2021-03-21T09:25:18.000Z</time>
      </trkpt>
      <trkpt lat="47.24155" lon="-2.30103">
        <ele>15.800000190735</ele>
        <time>2021-03-21T09:25:19.000Z</time>
      </trkpt>
      <trkpt lat="47.24154" lon="-2.3011">
        <ele>15.39999961853</ele>
        <time>2021-03-21T09:25:20.000Z</time>
      </trkpt>
      <trkpt lat="47.24152" lon="-2.30118">
        <ele>15</ele>
        <time>2021-03-21T09:25:21.000Z</time>
      </trkpt>
      <trkpt lat="47.24149" lon="-2.30126">
        <ele>14.39999961853</ele>
        <time>2021-03-21T09:25:22.000Z</time>
      </trkpt>
      <trkpt lat="47.24142" lon="-2.30139">
        <ele>14.39999961853</ele>
        <time>2021-03-21T09:25:25.000Z</time>
      </trkpt>
      <trkpt lat="47.2414" lon="-2.30142">
        <ele>14.39999961853</ele>
        <time>2021-03-21T09:25:26.000Z</time>
      </trkpt>
      <trkpt lat="47.24129" lon="-2.30155">
        <ele>14.39999961853</ele>
        <time>2021-03-21T09:25:32.000Z</time>
      </trkpt>
      <trkpt lat="47.24109" lon="-2.3016">
        <ele>14.39999961853</ele>
        <time>2021-03-21T09:25:37.000Z</time>
      </trkpt>
      <trkpt lat="47.24086" lon="-2.30166">
        <ele>14.800000190735</ele>
        <time>2021-03-21T09:25:43.000Z</time>
      </trkpt>
      <trkpt lat="47.24084" lon="-2.30169">
        <ele>15.199999809265</ele>
        <time>2021-03-21T09:25:44.000Z</time>
      </trkpt>
      <trkpt lat="47.24081" lon="-2.30171">
        <ele>15.60000038147</ele>
        <time>2021-03-21T09:25:45.000Z</time>
      </trkpt>
      <trkpt lat="47.24078" lon="-2.30173">
        <ele>16</ele>
        <time>2021-03-21T09:25:46.000Z</time>
      </trkpt>
      <trkpt lat="47.24074" lon="-2.30174">
        <ele>16.60000038147</ele>
        <time>2021-03-21T09:25:47.000Z</time>
      </trkpt>
      <trkpt lat="47.2407" lon="-2.30175">
        <ele>16.60000038147</ele>
        <time>2021-03-21T09:25:48.000Z</time>
      </trkpt>
      <trkpt lat="47.24051" lon="-2.30187">
        <ele>16.60000038147</ele>
        <time>2021-03-21T09:25:55.000Z</time>
      </trkpt>
      <trkpt lat="47.24038" lon="-2.30183">
        <ele>16.60000038147</ele>
        <time>2021-03-21T09:25:59.000Z</time>
      </trkpt>
      <trkpt lat="47.24023" lon="-2.30169">
        <ele>16.60000038147</ele>
        <time>2021-03-21T09:26:04.000Z</time>
      </trkpt>
      <trkpt lat="47.24003" lon="-2.30159">
        <ele>16.60000038147</ele>
        <time>2021-03-21T09:26:09.000Z</time>
      </trkpt>
      <trkpt lat="47.2398" lon="-2.30148">
        <ele>16.60000038147</ele>
        <time>2021-03-21T09:26:15.000Z</time>
      </trkpt>
      <trkpt lat="47.23968" lon="-2.3014">
        <ele>16.60000038147</ele>
        <time>2021-03-21T09:26:18.000Z</time>
      </trkpt>
      <trkpt lat="47.23953" lon="-2.30137">
        <ele>16.60000038147</ele>
        <time>2021-03-21T09:26:21.000Z</time>
      </trkpt>
      <trkpt lat="47.23943" lon="-2.30135">
        <ele>16.60000038147</ele>
        <time>2021-03-21T09:26:23.000Z</time>
      </trkpt>
      <trkpt lat="47.23934" lon="-2.30129">
        <ele>16.60000038147</ele>
        <time>2021-03-21T09:26:25.000Z</time>
      </trkpt>
      <trkpt lat="47.23929" lon="-2.30127">
        <ele>16</ele>
        <time>2021-03-21T09:26:26.000Z</time>
      </trkpt>
      <trkpt lat="47.23924" lon="-2.30125">
        <ele>15.60000038147</ele>
        <time>2021-03-21T09:26:27.000Z</time>
      </trkpt>
      <trkpt lat="47.2392" lon="-2.30124">
        <ele>15.199999809265</ele>
        <time>2021-03-21T09:26:28.000Z</time>
      </trkpt>
      <trkpt lat="47.23916" lon="-2.30123">
        <ele>14.39999961853</ele>
        <time>2021-03-21T09:26:29.000Z</time>
      </trkpt>
      <trkpt lat="47.23912" lon="-2.30119">
        <ele>14.39999961853</ele>
        <time>2021-03-21T09:26:30.000Z</time>
      </trkpt>
      <trkpt lat="47.23909" lon="-2.3011">
        <ele>14.39999961853</ele>
        <time>2021-03-21T09:26:32.000Z</time>
      </trkpt>
      <trkpt lat="47.23902" lon="-2.30094">
        <ele>14.39999961853</ele>
        <time>2021-03-21T09:26:36.000Z</time>
      </trkpt>
      <trkpt lat="47.23897" lon="-2.30092">
        <ele>14.39999961853</ele>
        <time>2021-03-21T09:26:37.000Z</time>
      </trkpt>
      <trkpt lat="47.2388" lon="-2.30078">
        <ele>14.39999961853</ele>
        <time>2021-03-21T09:26:40.000Z</time>
      </trkpt>
      <trkpt lat="47.23855" lon="-2.30058">
        <ele>14.39999961853</ele>
        <time>2021-03-21T09:26:45.000Z</time>
      </trkpt>
      <trkpt lat="47.23851" lon="-2.30054">
        <ele>14.39999961853</ele>
        <time>2021-03-21T09:26:46.000Z</time>
      </trkpt>
      <trkpt lat="47.23845" lon="-2.30032">
        <ele>14.39999961853</ele>
        <time>2021-03-21T09:26:49.000Z</time>
      </trkpt>
      <trkpt lat="47.23839" lon="-2.2999">
        <ele>14.800000190735</ele>
        <time>2021-03-21T09:26:55.000Z</time>
      </trkpt>
      <trkpt lat="47.23837" lon="-2.29984">
        <ele>15.199999809265</ele>
        <time>2021-03-21T09:26:56.000Z</time>
      </trkpt>
      <trkpt lat="47.23836" lon="-2.29977">
        <ele>15.60000038147</ele>
        <time>2021-03-21T09:26:57.000Z</time>
      </trkpt>
      <trkpt lat="47.23834" lon="-2.2997">
        <ele>16</ele>
        <time>2021-03-21T09:26:58.000Z</time>
      </trkpt>
      <trkpt lat="47.23833" lon="-2.29963">
        <ele>16.60000038147</ele>
        <time>2021-03-21T09:26:59.000Z</time>
      </trkpt>
      <trkpt lat="47.2383" lon="-2.29949">
        <ele>16.60000038147</ele>
        <time>2021-03-21T09:27:01.000Z</time>
      </trkpt>
      <trkpt lat="47.23821" lon="-2.29896">
        <ele>17</ele>
        <time>2021-03-21T09:27:09.000Z</time>
      </trkpt>
      <trkpt lat="47.2382" lon="-2.29891">
        <ele>17.39999961853</ele>
        <time>2021-03-21T09:27:10.000Z</time>
      </trkpt>
      <trkpt lat="47.23819" lon="-2.29884">
        <ele>17.799999237061</ele>
        <time>2021-03-21T09:27:11.000Z</time>
      </trkpt>
      <trkpt lat="47.23818" lon="-2.29878">
        <ele>18.200000762939</ele>
        <time>2021-03-21T09:27:12.000Z</time>
      </trkpt>
      <trkpt lat="47.23817" lon="-2.29872">
        <ele>18.60000038147</ele>
        <time>2021-03-21T09:27:13.000Z</time>
      </trkpt>
      <trkpt lat="47.23813" lon="-2.29847">
        <ele>18.60000038147</ele>
        <time>2021-03-21T09:27:17.000Z</time>
      </trkpt>
      <trkpt lat="47.23811" lon="-2.29835">
        <ele>18.60000038147</ele>
        <time>2021-03-21T09:27:19.000Z</time>
      </trkpt>
      <trkpt lat="47.23811" lon="-2.29809">
        <ele>18.60000038147</ele>
        <time>2021-03-21T09:27:23.000Z</time>
      </trkpt>
      <trkpt lat="47.23813" lon="-2.29749">
        <ele>18.60000038147</ele>
        <time>2021-03-21T09:27:32.000Z</time>
      </trkpt>
      <trkpt lat="47.23814" lon="-2.29701">
        <ele>18.60000038147</ele>
        <time>2021-03-21T09:27:39.000Z</time>
      </trkpt>
      <trkpt lat="47.23816" lon="-2.29662">
        <ele>18.60000038147</ele>
        <time>2021-03-21T09:27:45.000Z</time>
      </trkpt>
      <trkpt lat="47.23816" lon="-2.2965">
        <ele>18.60000038147</ele>
        <time>2021-03-21T09:27:47.000Z</time>
      </trkpt>
      <trkpt lat="47.23816" lon="-2.29623">
        <ele>18.60000038147</ele>
        <time>2021-03-21T09:27:51.000Z</time>
      </trkpt>
      <trkpt lat="47.23816" lon="-2.29588">
        <ele>18.60000038147</ele>
        <time>2021-03-21T09:27:56.000Z</time>
      </trkpt>
      <trkpt lat="47.23818" lon="-2.29543">
        <ele>18.60000038147</ele>
        <time>2021-03-21T09:28:02.000Z</time>
      </trkpt>
      <trkpt lat="47.23819" lon="-2.29506">
        <ele>18.60000038147</ele>
        <time>2021-03-21T09:28:07.000Z</time>
      </trkpt>
      <trkpt lat="47.2382" lon="-2.29483">
        <ele>18.60000038147</ele>
        <time>2021-03-21T09:28:10.000Z</time>
      </trkpt>
      <trkpt lat="47.2382" lon="-2.2947">
        <ele>18.60000038147</ele>
        <time>2021-03-21T09:28:12.000Z</time>
      </trkpt>
      <trkpt lat="47.2382" lon="-2.29457">
        <ele>18.60000038147</ele>
        <time>2021-03-21T09:28:14.000Z</time>
      </trkpt>
      <trkpt lat="47.23823" lon="-2.2944">
        <ele>18.60000038147</ele>
        <time>2021-03-21T09:28:17.000Z</time>
      </trkpt>
      <trkpt lat="47.23831" lon="-2.29417">
        <ele>18.60000038147</ele>
        <time>2021-03-21T09:28:22.000Z</time>
      </trkpt>
      <trkpt lat="47.23847" lon="-2.29384">
        <ele>18.60000038147</ele>
        <time>2021-03-21T09:28:28.000Z</time>
      </trkpt>
      <trkpt lat="47.23862" lon="-2.2935">
        <ele>18.60000038147</ele>
        <time>2021-03-21T09:28:34.000Z</time>
      </trkpt>
      <trkpt lat="47.23863" lon="-2.29345">
        <ele>18.60000038147</ele>
        <time>2021-03-21T09:28:35.000Z</time>
      </trkpt>
      <trkpt lat="47.2387" lon="-2.29337">
        <ele>18.60000038147</ele>
        <time>2021-03-21T09:28:37.000Z</time>
      </trkpt>
      <trkpt lat="47.23887" lon="-2.29332">
        <ele>18.60000038147</ele>
        <time>2021-03-21T09:28:41.000Z</time>
      </trkpt>
      <trkpt lat="47.23901" lon="-2.29331">
        <ele>18.60000038147</ele>
        <time>2021-03-21T09:28:45.000Z</time>
      </trkpt>
      <trkpt lat="47.23911" lon="-2.2934">
        <ele>18.60000038147</ele>
        <time>2021-03-21T09:28:49.000Z</time>
      </trkpt>
      <trkpt lat="47.2392" lon="-2.29354">
        <ele>18.60000038147</ele>
        <time>2021-03-21T09:28:52.000Z</time>
      </trkpt>
      <trkpt lat="47.23926" lon="-2.29365">
        <ele>18.60000038147</ele>
        <time>2021-03-21T09:28:54.000Z</time>
      </trkpt>
      <trkpt lat="47.23945" lon="-2.29403">
        <ele>18.60000038147</ele>
        <time>2021-03-21T09:29:01.000Z</time>
      </trkpt>
      <trkpt lat="47.23966" lon="-2.2944">
        <ele>18.60000038147</ele>
        <time>2021-03-21T09:29:09.000Z</time>
      </trkpt>
      <trkpt lat="47.23979" lon="-2.29464">
        <ele>18.60000038147</ele>
        <time>2021-03-21T09:29:15.000Z</time>
      </trkpt>
      <trkpt lat="47.23994" lon="-2.29497">
        <ele>18.60000038147</ele>
        <time>2021-03-21T09:29:22.000Z</time>
      </trkpt>
      <trkpt lat="47.23997" lon="-2.29515">
        <ele>18.60000038147</ele>
        <time>2021-03-21T09:29:25.000Z</time>
      </trkpt>
      <trkpt lat="47.23997" lon="-2.29522">
        <ele>18.60000038147</ele>
        <time>2021-03-21T09:29:26.000Z</time>
      </trkpt>
      <trkpt lat="47.23998" lon="-2.29529">
        <ele>18.60000038147</ele>
        <time>2021-03-21T09:29:27.000Z</time>
      </trkpt>
      <trkpt lat="47.23999" lon="-2.29552">
        <ele>19</ele>
        <time>2021-03-21T09:29:30.000Z</time>
      </trkpt>
      <trkpt lat="47.24" lon="-2.2956">
        <ele>19.39999961853</ele>
        <time>2021-03-21T09:29:31.000Z</time>
      </trkpt>
      <trkpt lat="47.24" lon="-2.29567">
        <ele>20</ele>
        <time>2021-03-21T09:29:32.000Z</time>
      </trkpt>
      <trkpt lat="47.24" lon="-2.29575">
        <ele>20.39999961853</ele>
        <time>2021-03-21T09:29:33.000Z</time>
      </trkpt>
      <trkpt lat="47.24001" lon="-2.29583">
        <ele>20.799999237061</ele>
        <time>2021-03-21T09:29:34.000Z</time>
      </trkpt>
      <trkpt lat="47.24004" lon="-2.29618">
        <ele>20.799999237061</ele>
        <time>2021-03-21T09:29:39.000Z</time>
      </trkpt>
      <trkpt lat="47.24009" lon="-2.2967">
        <ele>20.799999237061</ele>
        <time>2021-03-21T09:29:46.000Z</time>
      </trkpt>
      <trkpt lat="47.24009" lon="-2.29678">
        <ele>20.799999237061</ele>
        <time>2021-03-21T09:29:47.000Z</time>
      </trkpt>
      <trkpt lat="47.2401" lon="-2.297">
        <ele>20.799999237061</ele>
        <time>2021-03-21T09:29:50.000Z</time>
      </trkpt>
      <trkpt lat="47.24011" lon="-2.29706">
        <ele>20.799999237061</ele>
        <time>2021-03-21T09:29:51.000Z</time>
      </trkpt>
      <trkpt lat="47.24013" lon="-2.29748">
        <ele>20.799999237061</ele>
        <time>2021-03-21T09:29:58.000Z</time>
      </trkpt>
      <trkpt lat="47.24014" lon="-2.29782">
        <ele>20.799999237061</ele>
        <time>2021-03-21T09:30:04.000Z</time>
      </trkpt>
      <trkpt lat="47.24015" lon="-2.2979">
        <ele>20.799999237061</ele>
        <time>2021-03-21T09:30:09.000Z</time>
      </trkpt>
      <trkpt lat="47.24016" lon="-2.29792">
        <ele>20.799999237061</ele>
        <time>2021-03-21T09:30:27.000Z</time>
      </trkpt>
      <trkpt lat="47.24018" lon="-2.29795">
        <ele>20.799999237061</ele>
        <time>2021-03-21T09:30:29.000Z</time>
      </trkpt>
      <trkpt lat="47.24019" lon="-2.29796">
        <ele>20.799999237061</ele>
        <time>2021-03-21T09:30:30.000Z</time>
      </trkpt>
      <trkpt lat="47.24025" lon="-2.29803">
        <ele>20.799999237061</ele>
        <time>2021-03-21T09:30:35.000Z</time>
      </trkpt>
      <trkpt lat="47.24026" lon="-2.29806">
        <ele>20.799999237061</ele>
        <time>2021-03-21T09:30:40.000Z</time>
      </trkpt>
      <trkpt lat="47.24027" lon="-2.29812">
        <ele>20.799999237061</ele>
        <time>2021-03-21T09:30:45.000Z</time>
      </trkpt>
      <trkpt lat="47.24028" lon="-2.29817">
        <ele>20.799999237061</ele>
        <time>2021-03-21T09:30:47.000Z</time>
      </trkpt>
      <trkpt lat="47.24028" lon="-2.29825">
        <ele>20.799999237061</ele>
        <time>2021-03-21T09:30:49.000Z</time>
      </trkpt>
      <trkpt lat="47.2403" lon="-2.29856">
        <ele>20.799999237061</ele>
        <time>2021-03-21T09:30:56.000Z</time>
      </trkpt>
      <trkpt lat="47.24025" lon="-2.2988">
        <ele>20.799999237061</ele>
        <time>2021-03-21T09:31:01.000Z</time>
      </trkpt>
      <trkpt lat="47.24027" lon="-2.29888">
        <ele>20.799999237061</ele>
        <time>2021-03-21T09:31:03.000Z</time>
      </trkpt>
      <trkpt lat="47.24031" lon="-2.29892">
        <ele>20.799999237061</ele>
        <time>2021-03-21T09:31:05.000Z</time>
      </trkpt>
      <trkpt lat="47.2404" lon="-2.29888">
        <ele>20.799999237061</ele>
        <time>2021-03-21T09:31:08.000Z</time>
      </trkpt>
      <trkpt lat="47.24046" lon="-2.2987">
        <ele>20.799999237061</ele>
        <time>2021-03-21T09:31:11.000Z</time>
      </trkpt>
      <trkpt lat="47.24054" lon="-2.2984">
        <ele>20.799999237061</ele>
        <time>2021-03-21T09:31:16.000Z</time>
      </trkpt>
      <trkpt lat="47.24065" lon="-2.29803">
        <ele>20.799999237061</ele>
        <time>2021-03-21T09:31:23.000Z</time>
      </trkpt>
      <trkpt lat="47.24071" lon="-2.29795">
        <ele>20.799999237061</ele>
        <time>2021-03-21T09:31:25.000Z</time>
      </trkpt>
      <trkpt lat="47.24077" lon="-2.29797">
        <ele>20.799999237061</ele>
        <time>2021-03-21T09:31:27.000Z</time>
      </trkpt>
      <trkpt lat="47.2408" lon="-2.29809">
        <ele>20.799999237061</ele>
        <time>2021-03-21T09:31:29.000Z</time>
      </trkpt>
      <trkpt lat="47.2408" lon="-2.29822">
        <ele>20.799999237061</ele>
        <time>2021-03-21T09:31:31.000Z</time>
      </trkpt>
      <trkpt lat="47.24077" lon="-2.29849">
        <ele>20.799999237061</ele>
        <time>2021-03-21T09:31:36.000Z</time>
      </trkpt>
      <trkpt lat="47.24076" lon="-2.29873">
        <ele>20.799999237061</ele>
        <time>2021-03-21T09:31:40.000Z</time>
      </trkpt>
      <trkpt lat="47.24073" lon="-2.29893">
        <ele>20.799999237061</ele>
        <time>2021-03-21T09:31:43.000Z</time>
      </trkpt>
      <trkpt lat="47.24072" lon="-2.29901">
        <ele>20.799999237061</ele>
        <time>2021-03-21T09:31:44.000Z</time>
      </trkpt>
      <trkpt lat="47.24069" lon="-2.29918">
        <ele>20.799999237061</ele>
        <time>2021-03-21T09:31:46.000Z</time>
      </trkpt>
      <trkpt lat="47.24068" lon="-2.29926">
        <ele>20.799999237061</ele>
        <time>2021-03-21T09:31:47.000Z</time>
      </trkpt>
      <trkpt lat="47.24071" lon="-2.29942">
        <ele>20.799999237061</ele>
        <time>2021-03-21T09:31:50.000Z</time>
      </trkpt>
      <trkpt lat="47.24076" lon="-2.29946">
        <ele>20.799999237061</ele>
        <time>2021-03-21T09:31:52.000Z</time>
      </trkpt>
      <trkpt lat="47.2408" lon="-2.29951">
        <ele>20.799999237061</ele>
        <time>2021-03-21T09:31:54.000Z</time>
      </trkpt>
      <trkpt lat="47.24081" lon="-2.29954">
        <ele>20.799999237061</ele>
        <time>2021-03-21T09:31:55.000Z</time>
      </trkpt>
      <trkpt lat="47.2408" lon="-2.29964">
        <ele>20.799999237061</ele>
        <time>2021-03-21T09:31:57.000Z</time>
      </trkpt>
      <trkpt lat="47.2408" lon="-2.29972">
        <ele>20.799999237061</ele>
        <time>2021-03-21T09:31:59.000Z</time>
      </trkpt>
      <trkpt lat="47.2408" lon="-2.29981">
        <ele>20.799999237061</ele>
        <time>2021-03-21T09:32:01.000Z</time>
      </trkpt>
      <trkpt lat="47.24081" lon="-2.29986">
        <ele>20.799999237061</ele>
        <time>2021-03-21T09:32:02.000Z</time>
      </trkpt>
      <trkpt lat="47.24083" lon="-2.2999">
        <ele>20.39999961853</ele>
        <time>2021-03-21T09:32:03.000Z</time>
      </trkpt>
      <trkpt lat="47.24085" lon="-2.29993">
        <ele>19.799999237061</ele>
        <time>2021-03-21T09:32:04.000Z</time>
      </trkpt>
      <trkpt lat="47.24087" lon="-2.29995">
        <ele>19.39999961853</ele>
        <time>2021-03-21T09:32:05.000Z</time>
      </trkpt>
      <trkpt lat="47.2409" lon="-2.29997">
        <ele>19</ele>
        <time>2021-03-21T09:32:06.000Z</time>
      </trkpt>
      <trkpt lat="47.24093" lon="-2.29998">
        <ele>18.60000038147</ele>
        <time>2021-03-21T09:32:07.000Z</time>
      </trkpt>
      <trkpt lat="47.24099" lon="-2.29997">
        <ele>18.60000038147</ele>
        <time>2021-03-21T09:32:09.000Z</time>
      </trkpt>
      <trkpt lat="47.241" lon="-2.29994">
        <ele>18.60000038147</ele>
        <time>2021-03-21T09:32:10.000Z</time>
      </trkpt>
      <trkpt lat="47.24105" lon="-2.29983">
        <ele>18.60000038147</ele>
        <time>2021-03-21T09:32:14.000Z</time>
      </trkpt>
      <trkpt lat="47.24118" lon="-2.29978">
        <ele>18.60000038147</ele>
        <time>2021-03-21T09:32:19.000Z</time>
      </trkpt>
      <trkpt lat="47.24139" lon="-2.29974">
        <ele>18.60000038147</ele>
        <time>2021-03-21T09:32:25.000Z</time>
      </trkpt>
      <trkpt lat="47.24141" lon="-2.29976">
        <ele>18.60000038147</ele>
        <time>2021-03-21T09:32:26.000Z</time>
      </trkpt>
      <trkpt lat="47.24143" lon="-2.29985">
        <ele>18.60000038147</ele>
        <time>2021-03-21T09:32:28.000Z</time>
      </trkpt>
      <trkpt lat="47.24141" lon="-2.30002">
        <ele>18.60000038147</ele>
        <time>2021-03-21T09:32:31.000Z</time>
      </trkpt>
      <trkpt lat="47.24137" lon="-2.3002">
        <ele>18.60000038147</ele>
        <time>2021-03-21T09:32:35.000Z</time>
      </trkpt>
      <trkpt lat="47.24137" lon="-2.30025">
        <ele>18.60000038147</ele>
        <time>2021-03-21T09:32:36.000Z</time>
      </trkpt>
      <trkpt lat="47.2414" lon="-2.3005">
        <ele>18.60000038147</ele>
        <time>2021-03-21T09:32:40.000Z</time>
      </trkpt>
      <trkpt lat="47.24141" lon="-2.30065">
        <ele>18.200000762939</ele>
        <time>2021-03-21T09:32:42.000Z</time>
      </trkpt>
      <trkpt lat="47.24143" lon="-2.30071">
        <ele>17.60000038147</ele>
        <time>2021-03-21T09:32:43.000Z</time>
      </trkpt>
      <trkpt lat="47.24145" lon="-2.30077">
        <ele>17.200000762939</ele>
        <time>2021-03-21T09:32:44.000Z</time>
      </trkpt>
      <trkpt lat="47.24145" lon="-2.30084">
        <ele>16.799999237061</ele>
        <time>2021-03-21T09:32:45.000Z</time>
      </trkpt>
      <trkpt lat="47.24143" lon="-2.30092">
        <ele>16.200000762939</ele>
        <time>2021-03-21T09:32:46.000Z</time>
      </trkpt>
      <trkpt lat="47.24142" lon="-2.30099">
        <ele>16.200000762939</ele>
        <time>2021-03-21T09:32:47.000Z</time>
      </trkpt>
      <trkpt lat="47.24139" lon="-2.30114">
        <ele>15.800000190735</ele>
        <time>2021-03-21T09:32:49.000Z</time>
      </trkpt>
      <trkpt lat="47.24137" lon="-2.30122">
        <ele>15.39999961853</ele>
        <time>2021-03-21T09:32:50.000Z</time>
      </trkpt>
      <trkpt lat="47.24134" lon="-2.30129">
        <ele>15</ele>
        <time>2021-03-21T09:32:51.000Z</time>
      </trkpt>
      <trkpt lat="47.24131" lon="-2.30135">
        <ele>14.60000038147</ele>
        <time>2021-03-21T09:32:52.000Z</time>
      </trkpt>
      <trkpt lat="47.2413" lon="-2.3014">
        <ele>14.199999809265</ele>
        <time>2021-03-21T09:32:53.000Z</time>
      </trkpt>
      <trkpt lat="47.2413" lon="-2.30145">
        <ele>14.199999809265</ele>
        <time>2021-03-21T09:32:55.000Z</time>
      </trkpt>
      <trkpt lat="47.24134" lon="-2.30148">
        <ele>13.60000038147</ele>
        <time>2021-03-21T09:32:59.000Z</time>
      </trkpt>
      <trkpt lat="47.24135" lon="-2.30146">
        <ele>13.199999809265</ele>
        <time>2021-03-21T09:33:00.000Z</time>
      </trkpt>
      <trkpt lat="47.24135" lon="-2.30142">
        <ele>12.800000190735</ele>
        <time>2021-03-21T09:33:01.000Z</time>
      </trkpt>
      <trkpt lat="47.24135" lon="-2.30138">
        <ele>12.39999961853</ele>
        <time>2021-03-21T09:33:02.000Z</time>
      </trkpt>
      <trkpt lat="47.24136" lon="-2.30134">
        <ele>12</ele>
        <time>2021-03-21T09:33:03.000Z</time>
      </trkpt>
      <trkpt lat="47.24141" lon="-2.30108">
        <ele>12</ele>
        <time>2021-03-21T09:33:09.000Z</time>
      </trkpt>
      <trkpt lat="47.24143" lon="-2.30098">
        <ele>12.39999961853</ele>
        <time>2021-03-21T09:33:11.000Z</time>
      </trkpt>
      <trkpt lat="47.24144" lon="-2.30094">
        <ele>12.800000190735</ele>
        <time>2021-03-21T09:33:12.000Z</time>
      </trkpt>
      <trkpt lat="47.24144" lon="-2.3009">
        <ele>13.199999809265</ele>
        <time>2021-03-21T09:33:13.000Z</time>
      </trkpt>
      <trkpt lat="47.24146" lon="-2.30087">
        <ele>13.60000038147</ele>
        <time>2021-03-21T09:33:14.000Z</time>
      </trkpt>
      <trkpt lat="47.24147" lon="-2.30083">
        <ele>14</ele>
        <time>2021-03-21T09:33:15.000Z</time>
      </trkpt>
      <trkpt lat="47.24156" lon="-2.30066">
        <ele>14</ele>
        <time>2021-03-21T09:33:21.000Z</time>
      </trkpt>
      <trkpt lat="47.24159" lon="-2.3006">
        <ele>14.39999961853</ele>
        <time>2021-03-21T09:33:24.000Z</time>
      </trkpt>
      <trkpt lat="47.2416" lon="-2.30059">
        <ele>14.800000190735</ele>
        <time>2021-03-21T09:33:25.000Z</time>
      </trkpt>
      <trkpt lat="47.24162" lon="-2.30057">
        <ele>15.199999809265</ele>
        <time>2021-03-21T09:33:26.000Z</time>
      </trkpt>
      <trkpt lat="47.24163" lon="-2.30055">
        <ele>15.60000038147</ele>
        <time>2021-03-21T09:33:27.000Z</time>
      </trkpt>
      <trkpt lat="47.24164" lon="-2.30054">
        <ele>16.200000762939</ele>
        <time>2021-03-21T09:33:28.000Z</time>
      </trkpt>
      <trkpt lat="47.24167" lon="-2.30048">
        <ele>16.200000762939</ele>
        <time>2021-03-21T09:33:31.000Z</time>
      </trkpt>
      <trkpt lat="47.24167" lon="-2.30046">
        <ele>16.200000762939</ele>
        <time>2021-03-21T09:33:32.000Z</time>
      </trkpt>
      <trkpt lat="47.24169" lon="-2.30046">
        <ele>16.200000762939</ele>
        <time>2021-03-21T09:33:34.000Z</time>
      </trkpt>
      <trkpt lat="47.24173" lon="-2.30039">
        <ele>16.200000762939</ele>
        <time>2021-03-21T09:33:36.000Z</time>
      </trkpt>
      <trkpt lat="47.24174" lon="-2.30025">
        <ele>16.200000762939</ele>
        <time>2021-03-21T09:33:40.000Z</time>
      </trkpt>
      <trkpt lat="47.2417" lon="-2.30012">
        <ele>16.200000762939</ele>
        <time>2021-03-21T09:33:45.000Z</time>
      </trkpt>
      <trkpt lat="47.24169" lon="-2.3001">
        <ele>16.200000762939</ele>
        <time>2021-03-21T09:33:46.000Z</time>
      </trkpt>
      <trkpt lat="47.24168" lon="-2.30007">
        <ele>16.60000038147</ele>
        <time>2021-03-21T09:33:47.000Z</time>
      </trkpt>
      <trkpt lat="47.24167" lon="-2.30004">
        <ele>17</ele>
        <time>2021-03-21T09:33:48.000Z</time>
      </trkpt>
      <trkpt lat="47.24166" lon="-2.30001">
        <ele>17.39999961853</ele>
        <time>2021-03-21T09:33:49.000Z</time>
      </trkpt>
      <trkpt lat="47.24165" lon="-2.29999">
        <ele>17.799999237061</ele>
        <time>2021-03-21T09:33:50.000Z</time>
      </trkpt>
      <trkpt lat="47.24164" lon="-2.29996">
        <ele>18.200000762939</ele>
        <time>2021-03-21T09:33:51.000Z</time>
      </trkpt>
      <trkpt lat="47.24158" lon="-2.29984">
        <ele>18.200000762939</ele>
        <time>2021-03-21T09:33:56.000Z</time>
      </trkpt>
      <trkpt lat="47.24158" lon="-2.29979">
        <ele>18.200000762939</ele>
        <time>2021-03-21T09:33:57.000Z</time>
      </trkpt>
      <trkpt lat="47.24159" lon="-2.29955">
        <ele>18.200000762939</ele>
        <time>2021-03-21T09:34:02.000Z</time>
      </trkpt>
      <trkpt lat="47.24165" lon="-2.29924">
        <ele>18.200000762939</ele>
        <time>2021-03-21T09:34:09.000Z</time>
      </trkpt>
      <trkpt lat="47.24173" lon="-2.29906">
        <ele>18.200000762939</ele>
        <time>2021-03-21T09:34:14.000Z</time>
      </trkpt>
      <trkpt lat="47.24173" lon="-2.29902">
        <ele>18.60000038147</ele>
        <time>2021-03-21T09:34:15.000Z</time>
      </trkpt>
      <trkpt lat="47.24173" lon="-2.29898">
        <ele>19.39999961853</ele>
        <time>2021-03-21T09:34:16.000Z</time>
      </trkpt>
      <trkpt lat="47.24173" lon="-2.29894">
        <ele>19.799999237061</ele>
        <time>2021-03-21T09:34:17.000Z</time>
      </trkpt>
      <trkpt lat="47.24173" lon="-2.29889">
        <ele>20.200000762939</ele>
        <time>2021-03-21T09:34:18.000Z</time>
      </trkpt>
      <trkpt lat="47.24171" lon="-2.29885">
        <ele>20.200000762939</ele>
        <time>2021-03-21T09:34:19.000Z</time>
      </trkpt>
      <trkpt lat="47.24161" lon="-2.29876">
        <ele>20.200000762939</ele>
        <time>2021-03-21T09:34:23.000Z</time>
      </trkpt>
      <trkpt lat="47.2415" lon="-2.29861">
        <ele>20.200000762939</ele>
        <time>2021-03-21T09:34:27.000Z</time>
      </trkpt>
      <trkpt lat="47.2415" lon="-2.29857">
        <ele>20.200000762939</ele>
        <time>2021-03-21T09:34:28.000Z</time>
      </trkpt>
      <trkpt lat="47.24145" lon="-2.29846">
        <ele>20.200000762939</ele>
        <time>2021-03-21T09:34:31.000Z</time>
      </trkpt>
      <trkpt lat="47.24143" lon="-2.29845">
        <ele>20.200000762939</ele>
        <time>2021-03-21T09:34:32.000Z</time>
      </trkpt>
      <trkpt lat="47.24133" lon="-2.29847">
        <ele>20.200000762939</ele>
        <time>2021-03-21T09:34:35.000Z</time>
      </trkpt>
      <trkpt lat="47.2413" lon="-2.29847">
        <ele>20.200000762939</ele>
        <time>2021-03-21T09:34:36.000Z</time>
      </trkpt>
      <trkpt lat="47.24104" lon="-2.29851">
        <ele>20.200000762939</ele>
        <time>2021-03-21T09:34:43.000Z</time>
      </trkpt>
      <trkpt lat="47.24089" lon="-2.29843">
        <ele>20.200000762939</ele>
        <time>2021-03-21T09:34:48.000Z</time>
      </trkpt>
      <trkpt lat="47.24088" lon="-2.2984">
        <ele>20.200000762939</ele>
        <time>2021-03-21T09:34:49.000Z</time>
      </trkpt>
      <trkpt lat="47.24085" lon="-2.29822">
        <ele>20.200000762939</ele>
        <time>2021-03-21T09:34:52.000Z</time>
      </trkpt>
      <trkpt lat="47.24079" lon="-2.29773">
        <ele>20.200000762939</ele>
        <time>2021-03-21T09:34:59.000Z</time>
      </trkpt>
      <trkpt lat="47.24073" lon="-2.29742">
        <ele>20.200000762939</ele>
        <time>2021-03-21T09:35:04.000Z</time>
      </trkpt>
      <trkpt lat="47.24067" lon="-2.29717">
        <ele>20.200000762939</ele>
        <time>2021-03-21T09:35:09.000Z</time>
      </trkpt>
      <trkpt lat="47.24061" lon="-2.29682">
        <ele>20.200000762939</ele>
        <time>2021-03-21T09:35:16.000Z</time>
      </trkpt>
      <trkpt lat="47.24057" lon="-2.29658">
        <ele>20.200000762939</ele>
        <time>2021-03-21T09:35:22.000Z</time>
      </trkpt>
      <trkpt lat="47.24061" lon="-2.2964">
        <ele>20.200000762939</ele>
        <time>2021-03-21T09:35:26.000Z</time>
      </trkpt>
      <trkpt lat="47.24076" lon="-2.29621">
        <ele>20.200000762939</ele>
        <time>2021-03-21T09:35:31.000Z</time>
      </trkpt>
      <trkpt lat="47.24098" lon="-2.29604">
        <ele>20.200000762939</ele>
        <time>2021-03-21T09:35:37.000Z</time>
      </trkpt>
      <trkpt lat="47.24117" lon="-2.29587">
        <ele>20.200000762939</ele>
        <time>2021-03-21T09:35:42.000Z</time>
      </trkpt>
      <trkpt lat="47.2412" lon="-2.29574">
        <ele>20.200000762939</ele>
        <time>2021-03-21T09:35:44.000Z</time>
      </trkpt>
      <trkpt lat="47.24116" lon="-2.29549">
        <ele>20.200000762939</ele>
        <time>2021-03-21T09:35:48.000Z</time>
      </trkpt>
      <trkpt lat="47.24101" lon="-2.29499">
        <ele>20.200000762939</ele>
        <time>2021-03-21T09:35:56.000Z</time>
      </trkpt>
      <trkpt lat="47.24105" lon="-2.29481">
        <ele>20.200000762939</ele>
        <time>2021-03-21T09:35:59.000Z</time>
      </trkpt>
      <trkpt lat="47.24114" lon="-2.29471">
        <ele>19.799999237061</ele>
        <time>2021-03-21T09:36:02.000Z</time>
      </trkpt>
      <trkpt lat="47.24118" lon="-2.29468">
        <ele>19.39999961853</ele>
        <time>2021-03-21T09:36:03.000Z</time>
      </trkpt>
      <trkpt lat="47.24121" lon="-2.29466">
        <ele>19</ele>
        <time>2021-03-21T09:36:04.000Z</time>
      </trkpt>
      <trkpt lat="47.24125" lon="-2.29463">
        <ele>18.39999961853</ele>
        <time>2021-03-21T09:36:05.000Z</time>
      </trkpt>
      <trkpt lat="47.24128" lon="-2.2946">
        <ele>18</ele>
        <time>2021-03-21T09:36:06.000Z</time>
      </trkpt>
      <trkpt lat="47.24145" lon="-2.2945">
        <ele>18</ele>
        <time>2021-03-21T09:36:10.000Z</time>
      </trkpt>
      <trkpt lat="47.24158" lon="-2.29445">
        <ele>18</ele>
        <time>2021-03-21T09:36:13.000Z</time>
      </trkpt>
      <trkpt lat="47.24168" lon="-2.29443">
        <ele>18</ele>
        <time>2021-03-21T09:36:15.000Z</time>
      </trkpt>
      <trkpt lat="47.24198" lon="-2.29444">
        <ele>18</ele>
        <time>2021-03-21T09:36:20.000Z</time>
      </trkpt>
      <trkpt lat="47.24226" lon="-2.29458">
        <ele>18</ele>
        <time>2021-03-21T09:36:25.000Z</time>
      </trkpt>
      <trkpt lat="47.24237" lon="-2.29462">
        <ele>18</ele>
        <time>2021-03-21T09:36:27.000Z</time>
      </trkpt>
      <trkpt lat="47.24251" lon="-2.29461">
        <ele>18</ele>
        <time>2021-03-21T09:36:29.000Z</time>
      </trkpt>
      <trkpt lat="47.24268" lon="-2.29451">
        <ele>18</ele>
        <time>2021-03-21T09:36:32.000Z</time>
      </trkpt>
      <trkpt lat="47.24273" lon="-2.29448">
        <ele>18</ele>
        <time>2021-03-21T09:36:33.000Z</time>
      </trkpt>
      <trkpt lat="47.24278" lon="-2.29445">
        <ele>17.60000038147</ele>
        <time>2021-03-21T09:36:34.000Z</time>
      </trkpt>
      <trkpt lat="47.24283" lon="-2.29442">
        <ele>17.200000762939</ele>
        <time>2021-03-21T09:36:35.000Z</time>
      </trkpt>
      <trkpt lat="47.24288" lon="-2.29439">
        <ele>16.799999237061</ele>
        <time>2021-03-21T09:36:36.000Z</time>
      </trkpt>
      <trkpt lat="47.24294" lon="-2.29436">
        <ele>16.39999961853</ele>
        <time>2021-03-21T09:36:37.000Z</time>
      </trkpt>
      <trkpt lat="47.243" lon="-2.29433">
        <ele>16</ele>
        <time>2021-03-21T09:36:38.000Z</time>
      </trkpt>
      <trkpt lat="47.24305" lon="-2.29432">
        <ele>16</ele>
        <time>2021-03-21T09:36:39.000Z</time>
      </trkpt>
      <trkpt lat="47.24323" lon="-2.29439">
        <ele>16</ele>
        <time>2021-03-21T09:36:42.000Z</time>
      </trkpt>
      <trkpt lat="47.24333" lon="-2.29447">
        <ele>16</ele>
        <time>2021-03-21T09:36:44.000Z</time>
      </trkpt>
      <trkpt lat="47.24352" lon="-2.29465">
        <ele>16</ele>
        <time>2021-03-21T09:36:48.000Z</time>
      </trkpt>
      <trkpt lat="47.24357" lon="-2.29468">
        <ele>16</ele>
        <time>2021-03-21T09:36:49.000Z</time>
      </trkpt>
      <trkpt lat="47.24368" lon="-2.29466">
        <ele>16</ele>
        <time>2021-03-21T09:36:51.000Z</time>
      </trkpt>
      <trkpt lat="47.24377" lon="-2.29457">
        <ele>16</ele>
        <time>2021-03-21T09:36:53.000Z</time>
      </trkpt>
      <trkpt lat="47.24386" lon="-2.29449">
        <ele>16</ele>
        <time>2021-03-21T09:36:55.000Z</time>
      </trkpt>
      <trkpt lat="47.244" lon="-2.29438">
        <ele>16</ele>
        <time>2021-03-21T09:36:58.000Z</time>
      </trkpt>
      <trkpt lat="47.24416" lon="-2.29434">
        <ele>16</ele>
        <time>2021-03-21T09:37:01.000Z</time>
      </trkpt>
      <trkpt lat="47.24436" lon="-2.29432">
        <ele>16</ele>
        <time>2021-03-21T09:37:05.000Z</time>
      </trkpt>
      <trkpt lat="47.24441" lon="-2.29431">
        <ele>16.39999961853</ele>
        <time>2021-03-21T09:37:06.000Z</time>
      </trkpt>
      <trkpt lat="47.24446" lon="-2.29431">
        <ele>17</ele>
        <time>2021-03-21T09:37:07.000Z</time>
      </trkpt>
      <trkpt lat="47.24451" lon="-2.2943">
        <ele>17.39999961853</ele>
        <time>2021-03-21T09:37:08.000Z</time>
      </trkpt>
      <trkpt lat="47.24455" lon="-2.29429">
        <ele>18.200000762939</ele>
        <time>2021-03-21T09:37:09.000Z</time>
      </trkpt>
      <trkpt lat="47.24484" lon="-2.29426">
        <ele>18.200000762939</ele>
        <time>2021-03-21T09:37:15.000Z</time>
      </trkpt>
      <trkpt lat="47.24499" lon="-2.29423">
        <ele>18.60000038147</ele>
        <time>2021-03-21T09:37:18.000Z</time>
      </trkpt>
      <trkpt lat="47.24504" lon="-2.29422">
        <ele>19</ele>
        <time>2021-03-21T09:37:19.000Z</time>
      </trkpt>
      <trkpt lat="47.24509" lon="-2.2942">
        <ele>19.60000038147</ele>
        <time>2021-03-21T09:37:20.000Z</time>
      </trkpt>
      <trkpt lat="47.24514" lon="-2.29418">
        <ele>20</ele>
        <time>2021-03-21T09:37:21.000Z</time>
      </trkpt>
      <trkpt lat="47.24518" lon="-2.29415">
        <ele>20.39999961853</ele>
        <time>2021-03-21T09:37:22.000Z</time>
      </trkpt>
      <trkpt lat="47.24523" lon="-2.29398">
        <ele>20.39999961853</ele>
        <time>2021-03-21T09:37:25.000Z</time>
      </trkpt>
      <trkpt lat="47.24522" lon="-2.29385">
        <ele>20.799999237061</ele>
        <time>2021-03-21T09:37:27.000Z</time>
      </trkpt>
      <trkpt lat="47.24521" lon="-2.29377">
        <ele>21.200000762939</ele>
        <time>2021-03-21T09:37:28.000Z</time>
      </trkpt>
      <trkpt lat="47.2452" lon="-2.2937">
        <ele>21.60000038147</ele>
        <time>2021-03-21T09:37:29.000Z</time>
      </trkpt>
      <trkpt lat="47.24519" lon="-2.29363">
        <ele>22</ele>
        <time>2021-03-21T09:37:30.000Z</time>
      </trkpt>
      <trkpt lat="47.24518" lon="-2.29355">
        <ele>22.39999961853</ele>
        <time>2021-03-21T09:37:31.000Z</time>
      </trkpt>
      <trkpt lat="47.24516" lon="-2.2934">
        <ele>22.39999961853</ele>
        <time>2021-03-21T09:37:33.000Z</time>
      </trkpt>
      <trkpt lat="47.24517" lon="-2.29314">
        <ele>22.39999961853</ele>
        <time>2021-03-21T09:37:36.000Z</time>
      </trkpt>
      <trkpt lat="47.24515" lon="-2.29256">
        <ele>22.39999961853</ele>
        <time>2021-03-21T09:37:42.000Z</time>
      </trkpt>
      <trkpt lat="47.24522" lon="-2.29189">
        <ele>22.39999961853</ele>
        <time>2021-03-21T09:37:49.000Z</time>
      </trkpt>
      <trkpt lat="47.24539" lon="-2.2912">
        <ele>22.39999961853</ele>
        <time>2021-03-21T09:37:56.000Z</time>
      </trkpt>
      <trkpt lat="47.2455" lon="-2.29058">
        <ele>22.39999961853</ele>
        <time>2021-03-21T09:38:02.000Z</time>
      </trkpt>
      <trkpt lat="47.24553" lon="-2.29005">
        <ele>22</ele>
        <time>2021-03-21T09:38:07.000Z</time>
      </trkpt>
      <trkpt lat="47.24552" lon="-2.28994">
        <ele>21.60000038147</ele>
        <time>2021-03-21T09:38:08.000Z</time>
      </trkpt>
      <trkpt lat="47.2455" lon="-2.28983">
        <ele>21.200000762939</ele>
        <time>2021-03-21T09:38:09.000Z</time>
      </trkpt>
      <trkpt lat="47.24547" lon="-2.28972">
        <ele>20.799999237061</ele>
        <time>2021-03-21T09:38:10.000Z</time>
      </trkpt>
      <trkpt lat="47.24544" lon="-2.28962">
        <ele>20.39999961853</ele>
        <time>2021-03-21T09:38:11.000Z</time>
      </trkpt>
      <trkpt lat="47.24533" lon="-2.28919">
        <ele>20.39999961853</ele>
        <time>2021-03-21T09:38:15.000Z</time>
      </trkpt>
      <trkpt lat="47.24525" lon="-2.28899">
        <ele>20.39999961853</ele>
        <time>2021-03-21T09:38:17.000Z</time>
      </trkpt>
      <trkpt lat="47.24525" lon="-2.28866">
        <ele>20.39999961853</ele>
        <time>2021-03-21T09:38:20.000Z</time>
      </trkpt>
      <trkpt lat="47.24529" lon="-2.28857">
        <ele>19.60000038147</ele>
        <time>2021-03-21T09:38:21.000Z</time>
      </trkpt>
      <trkpt lat="47.24533" lon="-2.2885">
        <ele>19.200000762939</ele>
        <time>2021-03-21T09:38:22.000Z</time>
      </trkpt>
      <trkpt lat="47.24539" lon="-2.28845">
        <ele>18.799999237061</ele>
        <time>2021-03-21T09:38:23.000Z</time>
      </trkpt>
      <trkpt lat="47.24545" lon="-2.28839">
        <ele>18.39999961853</ele>
        <time>2021-03-21T09:38:24.000Z</time>
      </trkpt>
      <trkpt lat="47.24551" lon="-2.28834">
        <ele>18.39999961853</ele>
        <time>2021-03-21T09:38:25.000Z</time>
      </trkpt>
      <trkpt lat="47.24562" lon="-2.28822">
        <ele>18.39999961853</ele>
        <time>2021-03-21T09:38:27.000Z</time>
      </trkpt>
      <trkpt lat="47.24567" lon="-2.28816">
        <ele>18.39999961853</ele>
        <time>2021-03-21T09:38:28.000Z</time>
      </trkpt>
      <trkpt lat="47.24572" lon="-2.2881">
        <ele>18.39999961853</ele>
        <time>2021-03-21T09:38:29.000Z</time>
      </trkpt>
      <trkpt lat="47.24583" lon="-2.288">
        <ele>18.39999961853</ele>
        <time>2021-03-21T09:38:31.000Z</time>
      </trkpt>
      <trkpt lat="47.24589" lon="-2.28796">
        <ele>18.39999961853</ele>
        <time>2021-03-21T09:38:32.000Z</time>
      </trkpt>
      <trkpt lat="47.24616" lon="-2.28771">
        <ele>18.39999961853</ele>
        <time>2021-03-21T09:38:37.000Z</time>
      </trkpt>
      <trkpt lat="47.24621" lon="-2.28765">
        <ele>18.39999961853</ele>
        <time>2021-03-21T09:38:38.000Z</time>
      </trkpt>
      <trkpt lat="47.24638" lon="-2.28741">
        <ele>18.39999961853</ele>
        <time>2021-03-21T09:38:42.000Z</time>
      </trkpt>
      <trkpt lat="47.2465" lon="-2.28723">
        <ele>18.39999961853</ele>
        <time>2021-03-21T09:38:45.000Z</time>
      </trkpt>
      <trkpt lat="47.2466" lon="-2.28711">
        <ele>18.39999961853</ele>
        <time>2021-03-21T09:38:47.000Z</time>
      </trkpt>
      <trkpt lat="47.24678" lon="-2.28689">
        <ele>18.39999961853</ele>
        <time>2021-03-21T09:38:51.000Z</time>
      </trkpt>
      <trkpt lat="47.24682" lon="-2.28683">
        <ele>18.39999961853</ele>
        <time>2021-03-21T09:38:52.000Z</time>
      </trkpt>
      <trkpt lat="47.24698" lon="-2.28659">
        <ele>18.39999961853</ele>
        <time>2021-03-21T09:38:56.000Z</time>
      </trkpt>
      <trkpt lat="47.24702" lon="-2.28654">
        <ele>18.39999961853</ele>
        <time>2021-03-21T09:38:57.000Z</time>
      </trkpt>
      <trkpt lat="47.24722" lon="-2.28635">
        <ele>18.39999961853</ele>
        <time>2021-03-21T09:39:01.000Z</time>
      </trkpt>
      <trkpt lat="47.24735" lon="-2.28617">
        <ele>18.39999961853</ele>
        <time>2021-03-21T09:39:04.000Z</time>
      </trkpt>
      <trkpt lat="47.24737" lon="-2.2861">
        <ele>18.39999961853</ele>
        <time>2021-03-21T09:39:05.000Z</time>
      </trkpt>
      <trkpt lat="47.24743" lon="-2.28578">
        <ele>18.39999961853</ele>
        <time>2021-03-21T09:39:09.000Z</time>
      </trkpt>
      <trkpt lat="47.24752" lon="-2.2856">
        <ele>18.39999961853</ele>
        <time>2021-03-21T09:39:12.000Z</time>
      </trkpt>
      <trkpt lat="47.24762" lon="-2.2855">
        <ele>18.39999961853</ele>
        <time>2021-03-21T09:39:14.000Z</time>
      </trkpt>
      <trkpt lat="47.24782" lon="-2.28529">
        <ele>18.799999237061</ele>
        <time>2021-03-21T09:39:18.000Z</time>
      </trkpt>
      <trkpt lat="47.24787" lon="-2.28524">
        <ele>19.200000762939</ele>
        <time>2021-03-21T09:39:19.000Z</time>
      </trkpt>
      <trkpt lat="47.24793" lon="-2.28518">
        <ele>19.60000038147</ele>
        <time>2021-03-21T09:39:20.000Z</time>
      </trkpt>
      <trkpt lat="47.24798" lon="-2.28514">
        <ele>20</ele>
        <time>2021-03-21T09:39:21.000Z</time>
      </trkpt>
      <trkpt lat="47.24804" lon="-2.28509">
        <ele>20.39999961853</ele>
        <time>2021-03-21T09:39:22.000Z</time>
      </trkpt>
      <trkpt lat="47.24815" lon="-2.28501">
        <ele>20.39999961853</ele>
        <time>2021-03-21T09:39:24.000Z</time>
      </trkpt>
      <trkpt lat="47.24859" lon="-2.28465">
        <ele>20.39999961853</ele>
        <time>2021-03-21T09:39:31.000Z</time>
      </trkpt>
      <trkpt lat="47.24865" lon="-2.28458">
        <ele>20.39999961853</ele>
        <time>2021-03-21T09:39:32.000Z</time>
      </trkpt>
      <trkpt lat="47.2489" lon="-2.28432">
        <ele>20</ele>
        <time>2021-03-21T09:39:36.000Z</time>
      </trkpt>
      <trkpt lat="47.24897" lon="-2.28427">
        <ele>19.60000038147</ele>
        <time>2021-03-21T09:39:37.000Z</time>
      </trkpt>
      <trkpt lat="47.24905" lon="-2.28423">
        <ele>19.200000762939</ele>
        <time>2021-03-21T09:39:38.000Z</time>
      </trkpt>
      <trkpt lat="47.24913" lon="-2.28419">
        <ele>18.799999237061</ele>
        <time>2021-03-21T09:39:39.000Z</time>
      </trkpt>
      <trkpt lat="47.24922" lon="-2.28415">
        <ele>18.39999961853</ele>
        <time>2021-03-21T09:39:40.000Z</time>
      </trkpt>
      <trkpt lat="47.24945" lon="-2.28407">
        <ele>17.799999237061</ele>
        <time>2021-03-21T09:39:41.000Z</time>
      </trkpt>
      <trkpt lat="47.24953" lon="-2.28404">
        <ele>17.39999961853</ele>
        <time>2021-03-21T09:39:44.000Z</time>
      </trkpt>
      <trkpt lat="47.24962" lon="-2.284">
        <ele>17</ele>
        <time>2021-03-21T09:39:45.000Z</time>
      </trkpt>
      <trkpt lat="47.2497" lon="-2.28395">
        <ele>16.60000038147</ele>
        <time>2021-03-21T09:39:46.000Z</time>
      </trkpt>
      <trkpt lat="47.24978" lon="-2.28388">
        <ele>16.200000762939</ele>
        <time>2021-03-21T09:39:47.000Z</time>
      </trkpt>
      <trkpt lat="47.24985" lon="-2.28381">
        <ele>16.200000762939</ele>
        <time>2021-03-21T09:39:48.000Z</time>
      </trkpt>
      <trkpt lat="47.24991" lon="-2.28371">
        <ele>15.800000190735</ele>
        <time>2021-03-21T09:39:49.000Z</time>
      </trkpt>
      <trkpt lat="47.24995" lon="-2.28361">
        <ele>15.199999809265</ele>
        <time>2021-03-21T09:39:50.000Z</time>
      </trkpt>
      <trkpt lat="47.24999" lon="-2.28352">
        <ele>14.800000190735</ele>
        <time>2021-03-21T09:39:51.000Z</time>
      </trkpt>
      <trkpt lat="47.25004" lon="-2.28344">
        <ele>14.39999961853</ele>
        <time>2021-03-21T09:39:52.000Z</time>
      </trkpt>
      <trkpt lat="47.25009" lon="-2.28336">
        <ele>14</ele>
        <time>2021-03-21T09:39:53.000Z</time>
      </trkpt>
      <trkpt lat="47.25015" lon="-2.28331">
        <ele>14</ele>
        <time>2021-03-21T09:39:54.000Z</time>
      </trkpt>
      <trkpt lat="47.25029" lon="-2.28315">
        <ele>14</ele>
        <time>2021-03-21T09:39:57.000Z</time>
      </trkpt>
      <trkpt lat="47.2503" lon="-2.28295">
        <ele>14</ele>
        <time>2021-03-21T09:40:00.000Z</time>
      </trkpt>
      <trkpt lat="47.2503" lon="-2.28287">
        <ele>14</ele>
        <time>2021-03-21T09:40:01.000Z</time>
      </trkpt>
      <trkpt lat="47.25036" lon="-2.28252">
        <ele>14</ele>
        <time>2021-03-21T09:40:05.000Z</time>
      </trkpt>
      <trkpt lat="47.25043" lon="-2.28217">
        <ele>14.39999961853</ele>
        <time>2021-03-21T09:40:09.000Z</time>
      </trkpt>
      <trkpt lat="47.25045" lon="-2.28209">
        <ele>14.800000190735</ele>
        <time>2021-03-21T09:40:10.000Z</time>
      </trkpt>
      <trkpt lat="47.25047" lon="-2.282">
        <ele>15.199999809265</ele>
        <time>2021-03-21T09:40:11.000Z</time>
      </trkpt>
      <trkpt lat="47.25049" lon="-2.28192">
        <ele>15.800000190735</ele>
        <time>2021-03-21T09:40:12.000Z</time>
      </trkpt>
      <trkpt lat="47.25051" lon="-2.28184">
        <ele>16.200000762939</ele>
        <time>2021-03-21T09:40:13.000Z</time>
      </trkpt>
      <trkpt lat="47.25065" lon="-2.2814">
        <ele>16.200000762939</ele>
        <time>2021-03-21T09:40:19.000Z</time>
      </trkpt>
      <trkpt lat="47.25071" lon="-2.2812">
        <ele>16.200000762939</ele>
        <time>2021-03-21T09:40:22.000Z</time>
      </trkpt>
      <trkpt lat="47.25073" lon="-2.28104">
        <ele>16.200000762939</ele>
        <time>2021-03-21T09:40:24.000Z</time>
      </trkpt>
      <trkpt lat="47.25074" lon="-2.28097">
        <ele>16.200000762939</ele>
        <time>2021-03-21T09:40:25.000Z</time>
      </trkpt>
      <trkpt lat="47.25082" lon="-2.28073">
        <ele>16.200000762939</ele>
        <time>2021-03-21T09:40:28.000Z</time>
      </trkpt>
      <trkpt lat="47.25102" lon="-2.28024">
        <ele>16.200000762939</ele>
        <time>2021-03-21T09:40:35.000Z</time>
      </trkpt>
      <trkpt lat="47.25118" lon="-2.27986">
        <ele>16.200000762939</ele>
        <time>2021-03-21T09:40:41.000Z</time>
      </trkpt>
      <trkpt lat="47.25134" lon="-2.27964">
        <ele>16.60000038147</ele>
        <time>2021-03-21T09:40:45.000Z</time>
      </trkpt>
      <trkpt lat="47.25139" lon="-2.27959">
        <ele>17</ele>
        <time>2021-03-21T09:40:46.000Z</time>
      </trkpt>
      <trkpt lat="47.25144" lon="-2.27955">
        <ele>17.39999961853</ele>
        <time>2021-03-21T09:40:47.000Z</time>
      </trkpt>
      <trkpt lat="47.25149" lon="-2.2795">
        <ele>18</ele>
        <time>2021-03-21T09:40:48.000Z</time>
      </trkpt>
      <trkpt lat="47.25155" lon="-2.27946">
        <ele>18.39999961853</ele>
        <time>2021-03-21T09:40:49.000Z</time>
      </trkpt>
      <trkpt lat="47.25172" lon="-2.27934">
        <ele>18.39999961853</ele>
        <time>2021-03-21T09:40:52.000Z</time>
      </trkpt>
      <trkpt lat="47.25205" lon="-2.27912">
        <ele>18.39999961853</ele>
        <time>2021-03-21T09:40:58.000Z</time>
      </trkpt>
      <trkpt lat="47.25211" lon="-2.27909">
        <ele>18.799999237061</ele>
        <time>2021-03-21T09:40:59.000Z</time>
      </trkpt>
      <trkpt lat="47.25216" lon="-2.27907">
        <ele>19.200000762939</ele>
        <time>2021-03-21T09:41:00.000Z</time>
      </trkpt>
      <trkpt lat="47.25221" lon="-2.27904">
        <ele>19.60000038147</ele>
        <time>2021-03-21T09:41:01.000Z</time>
      </trkpt>
      <trkpt lat="47.25226" lon="-2.27901">
        <ele>20</ele>
        <time>2021-03-21T09:41:02.000Z</time>
      </trkpt>
      <trkpt lat="47.25232" lon="-2.27898">
        <ele>20.39999961853</ele>
        <time>2021-03-21T09:41:03.000Z</time>
      </trkpt>
      <trkpt lat="47.25243" lon="-2.27891">
        <ele>20.39999961853</ele>
        <time>2021-03-21T09:41:05.000Z</time>
      </trkpt>
      <trkpt lat="47.25249" lon="-2.27888">
        <ele>20.39999961853</ele>
        <time>2021-03-21T09:41:06.000Z</time>
      </trkpt>
      <trkpt lat="47.25278" lon="-2.27877">
        <ele>20.39999961853</ele>
        <time>2021-03-21T09:41:11.000Z</time>
      </trkpt>
      <trkpt lat="47.25314" lon="-2.27869">
        <ele>20.799999237061</ele>
        <time>2021-03-21T09:41:17.000Z</time>
      </trkpt>
      <trkpt lat="47.25321" lon="-2.27869">
        <ele>21.200000762939</ele>
        <time>2021-03-21T09:41:18.000Z</time>
      </trkpt>
      <trkpt lat="47.25326" lon="-2.27868">
        <ele>21.60000038147</ele>
        <time>2021-03-21T09:41:19.000Z</time>
      </trkpt>
      <trkpt lat="47.25332" lon="-2.27866">
        <ele>22</ele>
        <time>2021-03-21T09:41:20.000Z</time>
      </trkpt>
      <trkpt lat="47.25338" lon="-2.27865">
        <ele>22.39999961853</ele>
        <time>2021-03-21T09:41:21.000Z</time>
      </trkpt>
      <trkpt lat="47.25354" lon="-2.27861">
        <ele>22.39999961853</ele>
        <time>2021-03-21T09:41:24.000Z</time>
      </trkpt>
      <trkpt lat="47.25394" lon="-2.27848">
        <ele>22.39999961853</ele>
        <time>2021-03-21T09:41:31.000Z</time>
      </trkpt>
      <trkpt lat="47.25426" lon="-2.27831">
        <ele>22.799999237061</ele>
        <time>2021-03-21T09:41:37.000Z</time>
      </trkpt>
      <trkpt lat="47.25431" lon="-2.27828">
        <ele>23.200000762939</ele>
        <time>2021-03-21T09:41:38.000Z</time>
      </trkpt>
      <trkpt lat="47.25436" lon="-2.27824">
        <ele>24</ele>
        <time>2021-03-21T09:41:39.000Z</time>
      </trkpt>
      <trkpt lat="47.25441" lon="-2.27819">
        <ele>24.39999961853</ele>
        <time>2021-03-21T09:41:40.000Z</time>
      </trkpt>
      <trkpt lat="47.25451" lon="-2.27809">
        <ele>24.39999961853</ele>
        <time>2021-03-21T09:41:42.000Z</time>
      </trkpt>
      <trkpt lat="47.25456" lon="-2.27805">
        <ele>24.39999961853</ele>
        <time>2021-03-21T09:41:43.000Z</time>
      </trkpt>
      <trkpt lat="47.2548" lon="-2.27774">
        <ele>24.39999961853</ele>
        <time>2021-03-21T09:41:49.000Z</time>
      </trkpt>
      <trkpt lat="47.25501" lon="-2.27751">
        <ele>24.39999961853</ele>
        <time>2021-03-21T09:41:54.000Z</time>
      </trkpt>
      <trkpt lat="47.25504" lon="-2.27745">
        <ele>24.39999961853</ele>
        <time>2021-03-21T09:41:55.000Z</time>
      </trkpt>
      <trkpt lat="47.25504" lon="-2.27733">
        <ele>24.799999237061</ele>
        <time>2021-03-21T09:41:57.000Z</time>
      </trkpt>
      <trkpt lat="47.25503" lon="-2.27726">
        <ele>25.200000762939</ele>
        <time>2021-03-21T09:41:58.000Z</time>
      </trkpt>
      <trkpt lat="47.25501" lon="-2.27718">
        <ele>25.799999237061</ele>
        <time>2021-03-21T09:41:59.000Z</time>
      </trkpt>
      <trkpt lat="47.255" lon="-2.27711">
        <ele>26.200000762939</ele>
        <time>2021-03-21T09:42:00.000Z</time>
      </trkpt>
      <trkpt lat="47.25499" lon="-2.27703">
        <ele>26.60000038147</ele>
        <time>2021-03-21T09:42:01.000Z</time>
      </trkpt>
      <trkpt lat="47.25496" lon="-2.2769">
        <ele>26.60000038147</ele>
        <time>2021-03-21T09:42:03.000Z</time>
      </trkpt>
      <trkpt lat="47.25493" lon="-2.27678">
        <ele>26.60000038147</ele>
        <time>2021-03-21T09:42:05.000Z</time>
      </trkpt>
      <trkpt lat="47.25489" lon="-2.27658">
        <ele>26.60000038147</ele>
        <time>2021-03-21T09:42:09.000Z</time>
      </trkpt>
      <trkpt lat="47.25482" lon="-2.27629">
        <ele>26.60000038147</ele>
        <time>2021-03-21T09:42:15.000Z</time>
      </trkpt>
      <trkpt lat="47.25471" lon="-2.27611">
        <ele>26.60000038147</ele>
        <time>2021-03-21T09:42:20.000Z</time>
      </trkpt>
      <trkpt lat="47.25463" lon="-2.27592">
        <ele>26.60000038147</ele>
        <time>2021-03-21T09:42:25.000Z</time>
      </trkpt>
      <trkpt lat="47.25459" lon="-2.27571">
        <ele>26.60000038147</ele>
        <time>2021-03-21T09:42:30.000Z</time>
      </trkpt>
      <trkpt lat="47.2545" lon="-2.27543">
        <ele>26.60000038147</ele>
        <time>2021-03-21T09:42:36.000Z</time>
      </trkpt>
      <trkpt lat="47.25446" lon="-2.27523">
        <ele>26.60000038147</ele>
        <time>2021-03-21T09:42:40.000Z</time>
      </trkpt>
      <trkpt lat="47.25441" lon="-2.27509">
        <ele>26.60000038147</ele>
        <time>2021-03-21T09:42:44.000Z</time>
      </trkpt>
      <trkpt lat="47.25431" lon="-2.27496">
        <ele>26.60000038147</ele>
        <time>2021-03-21T09:42:47.000Z</time>
      </trkpt>
      <trkpt lat="47.25425" lon="-2.27485">
        <ele>26.60000038147</ele>
        <time>2021-03-21T09:42:49.000Z</time>
      </trkpt>
      <trkpt lat="47.25421" lon="-2.27474">
        <ele>26.60000038147</ele>
        <time>2021-03-21T09:42:51.000Z</time>
      </trkpt>
      <trkpt lat="47.25413" lon="-2.27453">
        <ele>26.60000038147</ele>
        <time>2021-03-21T09:42:55.000Z</time>
      </trkpt>
      <trkpt lat="47.254" lon="-2.27406">
        <ele>26.60000038147</ele>
        <time>2021-03-21T09:43:03.000Z</time>
      </trkpt>
      <trkpt lat="47.25391" lon="-2.27384">
        <ele>26.60000038147</ele>
        <time>2021-03-21T09:43:08.000Z</time>
      </trkpt>
      <trkpt lat="47.25388" lon="-2.27383">
        <ele>26.60000038147</ele>
        <time>2021-03-21T09:43:09.000Z</time>
      </trkpt>
      <trkpt lat="47.25376" lon="-2.2738">
        <ele>26.60000038147</ele>
        <time>2021-03-21T09:43:12.000Z</time>
      </trkpt>
      <trkpt lat="47.25374" lon="-2.27377">
        <ele>26.60000038147</ele>
        <time>2021-03-21T09:43:13.000Z</time>
      </trkpt>
      <trkpt lat="47.25371" lon="-2.27371">
        <ele>26.60000038147</ele>
        <time>2021-03-21T09:43:15.000Z</time>
      </trkpt>
      <trkpt lat="47.25368" lon="-2.2735">
        <ele>26.60000038147</ele>
        <time>2021-03-21T09:43:19.000Z</time>
      </trkpt>
      <trkpt lat="47.25361" lon="-2.2734">
        <ele>26.60000038147</ele>
        <time>2021-03-21T09:43:21.000Z</time>
      </trkpt>
      <trkpt lat="47.25354" lon="-2.27331">
        <ele>26.60000038147</ele>
        <time>2021-03-21T09:43:23.000Z</time>
      </trkpt>
      <trkpt lat="47.25346" lon="-2.27314">
        <ele>26.60000038147</ele>
        <time>2021-03-21T09:43:26.000Z</time>
      </trkpt>
      <trkpt lat="47.25343" lon="-2.27301">
        <ele>26.60000038147</ele>
        <time>2021-03-21T09:43:28.000Z</time>
      </trkpt>
      <trkpt lat="47.25342" lon="-2.27296">
        <ele>26.60000038147</ele>
        <time>2021-03-21T09:43:29.000Z</time>
      </trkpt>
      <trkpt lat="47.25333" lon="-2.27277">
        <ele>26.60000038147</ele>
        <time>2021-03-21T09:43:33.000Z</time>
      </trkpt>
      <trkpt lat="47.25319" lon="-2.2726">
        <ele>26.60000038147</ele>
        <time>2021-03-21T09:43:38.000Z</time>
      </trkpt>
      <trkpt lat="47.25304" lon="-2.27237">
        <ele>26.60000038147</ele>
        <time>2021-03-21T09:43:44.000Z</time>
      </trkpt>
      <trkpt lat="47.25296" lon="-2.27213">
        <ele>26.60000038147</ele>
        <time>2021-03-21T09:43:50.000Z</time>
      </trkpt>
      <trkpt lat="47.25288" lon="-2.27193">
        <ele>26.60000038147</ele>
        <time>2021-03-21T09:43:54.000Z</time>
      </trkpt>
      <trkpt lat="47.25285" lon="-2.27189">
        <ele>26.60000038147</ele>
        <time>2021-03-21T09:43:55.000Z</time>
      </trkpt>
      <trkpt lat="47.25257" lon="-2.27145">
        <ele>26.60000038147</ele>
        <time>2021-03-21T09:44:05.000Z</time>
      </trkpt>
      <trkpt lat="47.2525" lon="-2.27138">
        <ele>26.60000038147</ele>
        <time>2021-03-21T09:44:07.000Z</time>
      </trkpt>
      <trkpt lat="47.25245" lon="-2.27128">
        <ele>26.60000038147</ele>
        <time>2021-03-21T09:44:09.000Z</time>
      </trkpt>
      <trkpt lat="47.25224" lon="-2.27088">
        <ele>26.60000038147</ele>
        <time>2021-03-21T09:44:17.000Z</time>
      </trkpt>
      <trkpt lat="47.25202" lon="-2.27046">
        <ele>26.60000038147</ele>
        <time>2021-03-21T09:44:25.000Z</time>
      </trkpt>
      <trkpt lat="47.25194" lon="-2.2703">
        <ele>26.60000038147</ele>
        <time>2021-03-21T09:44:28.000Z</time>
      </trkpt>
      <trkpt lat="47.25186" lon="-2.27016">
        <ele>26.60000038147</ele>
        <time>2021-03-21T09:44:31.000Z</time>
      </trkpt>
      <trkpt lat="47.25183" lon="-2.27011">
        <ele>26.60000038147</ele>
        <time>2021-03-21T09:44:32.000Z</time>
      </trkpt>
      <trkpt lat="47.25179" lon="-2.26998">
        <ele>26.60000038147</ele>
        <time>2021-03-21T09:44:34.000Z</time>
      </trkpt>
      <trkpt lat="47.25178" lon="-2.26992">
        <ele>26.60000038147</ele>
        <time>2021-03-21T09:44:35.000Z</time>
      </trkpt>
      <trkpt lat="47.25173" lon="-2.26974">
        <ele>26.60000038147</ele>
        <time>2021-03-21T09:44:39.000Z</time>
      </trkpt>
      <trkpt lat="47.25163" lon="-2.26973">
        <ele>26.60000038147</ele>
        <time>2021-03-21T09:44:42.000Z</time>
      </trkpt>
      <trkpt lat="47.25154" lon="-2.26957">
        <ele>26.60000038147</ele>
        <time>2021-03-21T09:44:46.000Z</time>
      </trkpt>
      <trkpt lat="47.25148" lon="-2.26936">
        <ele>26.60000038147</ele>
        <time>2021-03-21T09:44:50.000Z</time>
      </trkpt>
      <trkpt lat="47.25149" lon="-2.26905">
        <ele>26.60000038147</ele>
        <time>2021-03-21T09:44:54.000Z</time>
      </trkpt>
      <trkpt lat="47.25149" lon="-2.26889">
        <ele>26.60000038147</ele>
        <time>2021-03-21T09:44:56.000Z</time>
      </trkpt>
      <trkpt lat="47.25148" lon="-2.26866">
        <ele>26.60000038147</ele>
        <time>2021-03-21T09:44:59.000Z</time>
      </trkpt>
      <trkpt lat="47.25154" lon="-2.2685">
        <ele>26.60000038147</ele>
        <time>2021-03-21T09:45:02.000Z</time>
      </trkpt>
      <trkpt lat="47.25151" lon="-2.26843">
        <ele>26.60000038147</ele>
        <time>2021-03-21T09:45:06.000Z</time>
      </trkpt>
      <trkpt lat="47.2514" lon="-2.26851">
        <ele>26.60000038147</ele>
        <time>2021-03-21T09:45:10.000Z</time>
      </trkpt>
      <trkpt lat="47.25121" lon="-2.26865">
        <ele>26.60000038147</ele>
        <time>2021-03-21T09:45:16.000Z</time>
      </trkpt>
      <trkpt lat="47.25109" lon="-2.26873">
        <ele>26.60000038147</ele>
        <time>2021-03-21T09:45:21.000Z</time>
      </trkpt>
      <trkpt lat="47.2509" lon="-2.26872">
        <ele>26.60000038147</ele>
        <time>2021-03-21T09:45:26.000Z</time>
      </trkpt>
      <trkpt lat="47.25076" lon="-2.26866">
        <ele>26.60000038147</ele>
        <time>2021-03-21T09:45:30.000Z</time>
      </trkpt>
      <trkpt lat="47.25072" lon="-2.26865">
        <ele>26.60000038147</ele>
        <time>2021-03-21T09:45:31.000Z</time>
      </trkpt>
      <trkpt lat="47.25052" lon="-2.26861">
        <ele>26.60000038147</ele>
        <time>2021-03-21T09:45:36.000Z</time>
      </trkpt>
      <trkpt lat="47.25033" lon="-2.26864">
        <ele>26.60000038147</ele>
        <time>2021-03-21T09:45:41.000Z</time>
      </trkpt>
      <trkpt lat="47.25007" lon="-2.2687">
        <ele>26.60000038147</ele>
        <time>2021-03-21T09:45:46.000Z</time>
      </trkpt>
      <trkpt lat="47.24981" lon="-2.26874">
        <ele>26.60000038147</ele>
        <time>2021-03-21T09:45:50.000Z</time>
      </trkpt>
      <trkpt lat="47.24974" lon="-2.26871">
        <ele>26.60000038147</ele>
        <time>2021-03-21T09:45:51.000Z</time>
      </trkpt>
      <trkpt lat="47.24956" lon="-2.26856">
        <ele>26.60000038147</ele>
        <time>2021-03-21T09:45:54.000Z</time>
      </trkpt>
      <trkpt lat="47.24949" lon="-2.26852">
        <ele>26.60000038147</ele>
        <time>2021-03-21T09:45:55.000Z</time>
      </trkpt>
      <trkpt lat="47.24935" lon="-2.26845">
        <ele>26.60000038147</ele>
        <time>2021-03-21T09:45:57.000Z</time>
      </trkpt>
      <trkpt lat="47.24924" lon="-2.26835">
        <ele>26.60000038147</ele>
        <time>2021-03-21T09:45:59.000Z</time>
      </trkpt>
      <trkpt lat="47.24919" lon="-2.26832">
        <ele>26.60000038147</ele>
        <time>2021-03-21T09:46:00.000Z</time>
      </trkpt>
      <trkpt lat="47.249" lon="-2.26824">
        <ele>26.60000038147</ele>
        <time>2021-03-21T09:46:04.000Z</time>
      </trkpt>
      <trkpt lat="47.2488" lon="-2.26815">
        <ele>26.60000038147</ele>
        <time>2021-03-21T09:46:08.000Z</time>
      </trkpt>
      <trkpt lat="47.24876" lon="-2.26813">
        <ele>26.200000762939</ele>
        <time>2021-03-21T09:46:09.000Z</time>
      </trkpt>
      <trkpt lat="47.24872" lon="-2.26812">
        <ele>25.799999237061</ele>
        <time>2021-03-21T09:46:10.000Z</time>
      </trkpt>
      <trkpt lat="47.24868" lon="-2.2681">
        <ele>25.39999961853</ele>
        <time>2021-03-21T09:46:11.000Z</time>
      </trkpt>
      <trkpt lat="47.24864" lon="-2.26808">
        <ele>24.60000038147</ele>
        <time>2021-03-21T09:46:12.000Z</time>
      </trkpt>
      <trkpt lat="47.24856" lon="-2.26804">
        <ele>24.60000038147</ele>
        <time>2021-03-21T09:46:14.000Z</time>
      </trkpt>
      <trkpt lat="47.24847" lon="-2.268">
        <ele>24.60000038147</ele>
        <time>2021-03-21T09:46:16.000Z</time>
      </trkpt>
      <trkpt lat="47.24836" lon="-2.26801">
        <ele>24.60000038147</ele>
        <time>2021-03-21T09:46:18.000Z</time>
      </trkpt>
      <trkpt lat="47.24824" lon="-2.26801">
        <ele>24.60000038147</ele>
        <time>2021-03-21T09:46:20.000Z</time>
      </trkpt>
      <trkpt lat="47.24806" lon="-2.26795">
        <ele>24.60000038147</ele>
        <time>2021-03-21T09:46:23.000Z</time>
      </trkpt>
      <trkpt lat="47.24784" lon="-2.26787">
        <ele>24</ele>
        <time>2021-03-21T09:46:27.000Z</time>
      </trkpt>
      <trkpt lat="47.24782" lon="-2.26785">
        <ele>23.60000038147</ele>
        <time>2021-03-21T09:46:28.000Z</time>
      </trkpt>
      <trkpt lat="47.2478" lon="-2.26785">
        <ele>23.200000762939</ele>
        <time>2021-03-21T09:46:29.000Z</time>
      </trkpt>
      <trkpt lat="47.24777" lon="-2.26785">
        <ele>22.799999237061</ele>
        <time>2021-03-21T09:46:30.000Z</time>
      </trkpt>
      <trkpt lat="47.24774" lon="-2.26784">
        <ele>22.39999961853</ele>
        <time>2021-03-21T09:46:31.000Z</time>
      </trkpt>
      <trkpt lat="47.2477" lon="-2.26782">
        <ele>22.39999961853</ele>
        <time>2021-03-21T09:46:32.000Z</time>
      </trkpt>
      <trkpt lat="47.24741" lon="-2.2678">
        <ele>22.39999961853</ele>
        <time>2021-03-21T09:46:37.000Z</time>
      </trkpt>
      <trkpt lat="47.24735" lon="-2.2678">
        <ele>21.799999237061</ele>
        <time>2021-03-21T09:46:38.000Z</time>
      </trkpt>
      <trkpt lat="47.24728" lon="-2.26779">
        <ele>21.39999961853</ele>
        <time>2021-03-21T09:46:39.000Z</time>
      </trkpt>
      <trkpt lat="47.24722" lon="-2.26779">
        <ele>21</ele>
        <time>2021-03-21T09:46:40.000Z</time>
      </trkpt>
      <trkpt lat="47.24715" lon="-2.2678">
        <ele>20.60000038147</ele>
        <time>2021-03-21T09:46:41.000Z</time>
      </trkpt>
      <trkpt lat="47.24709" lon="-2.26781">
        <ele>20.200000762939</ele>
        <time>2021-03-21T09:46:42.000Z</time>
      </trkpt>
      <trkpt lat="47.24703" lon="-2.26782">
        <ele>20.200000762939</ele>
        <time>2021-03-21T09:46:43.000Z</time>
      </trkpt>
      <trkpt lat="47.24679" lon="-2.26786">
        <ele>20.200000762939</ele>
        <time>2021-03-21T09:46:48.000Z</time>
      </trkpt>
      <trkpt lat="47.24678" lon="-2.26789">
        <ele>20.200000762939</ele>
        <time>2021-03-21T09:46:49.000Z</time>
      </trkpt>
      <trkpt lat="47.24673" lon="-2.26795">
        <ele>20.200000762939</ele>
        <time>2021-03-21T09:46:51.000Z</time>
      </trkpt>
      <trkpt lat="47.24654" lon="-2.26809">
        <ele>19.799999237061</ele>
        <time>2021-03-21T09:46:56.000Z</time>
      </trkpt>
      <trkpt lat="47.24649" lon="-2.26813">
        <ele>19.39999961853</ele>
        <time>2021-03-21T09:46:57.000Z</time>
      </trkpt>
      <trkpt lat="47.24645" lon="-2.26817">
        <ele>19</ele>
        <time>2021-03-21T09:46:58.000Z</time>
      </trkpt>
      <trkpt lat="47.24641" lon="-2.26821">
        <ele>18.60000038147</ele>
        <time>2021-03-21T09:46:59.000Z</time>
      </trkpt>
      <trkpt lat="47.24638" lon="-2.26824">
        <ele>18.200000762939</ele>
        <time>2021-03-21T09:47:00.000Z</time>
      </trkpt>
      <trkpt lat="47.24633" lon="-2.26827">
        <ele>18.200000762939</ele>
        <time>2021-03-21T09:47:01.000Z</time>
      </trkpt>
      <trkpt lat="47.24614" lon="-2.26839">
        <ele>17.60000038147</ele>
        <time>2021-03-21T09:47:05.000Z</time>
      </trkpt>
      <trkpt lat="47.24608" lon="-2.26842">
        <ele>17.200000762939</ele>
        <time>2021-03-21T09:47:06.000Z</time>
      </trkpt>
      <trkpt lat="47.24603" lon="-2.26844">
        <ele>16.799999237061</ele>
        <time>2021-03-21T09:47:07.000Z</time>
      </trkpt>
      <trkpt lat="47.24598" lon="-2.26847">
        <ele>16.39999961853</ele>
        <time>2021-03-21T09:47:08.000Z</time>
      </trkpt>
      <trkpt lat="47.24594" lon="-2.26849">
        <ele>16</ele>
        <time>2021-03-21T09:47:09.000Z</time>
      </trkpt>
      <trkpt lat="47.24585" lon="-2.26856">
        <ele>16</ele>
        <time>2021-03-21T09:47:11.000Z</time>
      </trkpt>
      <trkpt lat="47.24581" lon="-2.2686">
        <ele>16</ele>
        <time>2021-03-21T09:47:12.000Z</time>
      </trkpt>
      <trkpt lat="47.24576" lon="-2.26864">
        <ele>16</ele>
        <time>2021-03-21T09:47:13.000Z</time>
      </trkpt>
      <trkpt lat="47.24572" lon="-2.26867">
        <ele>15.60000038147</ele>
        <time>2021-03-21T09:47:14.000Z</time>
      </trkpt>
      <trkpt lat="47.24567" lon="-2.2687">
        <ele>15.199999809265</ele>
        <time>2021-03-21T09:47:15.000Z</time>
      </trkpt>
      <trkpt lat="47.24563" lon="-2.26873">
        <ele>14.800000190735</ele>
        <time>2021-03-21T09:47:16.000Z</time>
      </trkpt>
      <trkpt lat="47.24558" lon="-2.26876">
        <ele>14.39999961853</ele>
        <time>2021-03-21T09:47:17.000Z</time>
      </trkpt>
      <trkpt lat="47.24553" lon="-2.26877">
        <ele>13.800000190735</ele>
        <time>2021-03-21T09:47:18.000Z</time>
      </trkpt>
      <trkpt lat="47.24539" lon="-2.26883">
        <ele>13.800000190735</ele>
        <time>2021-03-21T09:47:21.000Z</time>
      </trkpt>
      <trkpt lat="47.24529" lon="-2.26899">
        <ele>13.800000190735</ele>
        <time>2021-03-21T09:47:24.000Z</time>
      </trkpt>
      <trkpt lat="47.24526" lon="-2.26906">
        <ele>13.800000190735</ele>
        <time>2021-03-21T09:47:25.000Z</time>
      </trkpt>
      <trkpt lat="47.24516" lon="-2.26925">
        <ele>13.800000190735</ele>
        <time>2021-03-21T09:47:28.000Z</time>
      </trkpt>
      <trkpt lat="47.24497" lon="-2.26938">
        <ele>13.800000190735</ele>
        <time>2021-03-21T09:47:32.000Z</time>
      </trkpt>
      <trkpt lat="47.24494" lon="-2.26942">
        <ele>13.39999961853</ele>
        <time>2021-03-21T09:47:33.000Z</time>
      </trkpt>
      <trkpt lat="47.24492" lon="-2.26947">
        <ele>13</ele>
        <time>2021-03-21T09:47:34.000Z</time>
      </trkpt>
      <trkpt lat="47.24491" lon="-2.26951">
        <ele>12.60000038147</ele>
        <time>2021-03-21T09:47:35.000Z</time>
      </trkpt>
      <trkpt lat="47.2449" lon="-2.26955">
        <ele>12.199999809265</ele>
        <time>2021-03-21T09:47:36.000Z</time>
      </trkpt>
      <trkpt lat="47.2449" lon="-2.2696">
        <ele>11.800000190735</ele>
        <time>2021-03-21T09:47:37.000Z</time>
      </trkpt>
      <trkpt lat="47.24483" lon="-2.26971">
        <ele>11.800000190735</ele>
        <time>2021-03-21T09:47:40.000Z</time>
      </trkpt>
      <trkpt lat="47.24462" lon="-2.26982">
        <ele>11.800000190735</ele>
        <time>2021-03-21T09:47:44.000Z</time>
      </trkpt>
      <trkpt lat="47.2443" lon="-2.26999">
        <ele>11.800000190735</ele>
        <time>2021-03-21T09:47:50.000Z</time>
      </trkpt>
      <trkpt lat="47.24424" lon="-2.27015">
        <ele>11.199999809265</ele>
        <time>2021-03-21T09:47:52.000Z</time>
      </trkpt>
      <trkpt lat="47.24423" lon="-2.27025">
        <ele>10.800000190735</ele>
        <time>2021-03-21T09:47:53.000Z</time>
      </trkpt>
      <trkpt lat="47.24424" lon="-2.27035">
        <ele>10.39999961853</ele>
        <time>2021-03-21T09:47:54.000Z</time>
      </trkpt>
      <trkpt lat="47.24425" lon="-2.27044">
        <ele>10</ele>
        <time>2021-03-21T09:47:55.000Z</time>
      </trkpt>
      <trkpt lat="47.24425" lon="-2.27053">
        <ele>9.6000003814697</ele>
        <time>2021-03-21T09:47:56.000Z</time>
      </trkpt>
      <trkpt lat="47.24417" lon="-2.27079">
        <ele>9.6000003814697</ele>
        <time>2021-03-21T09:47:59.000Z</time>
      </trkpt>
      <trkpt lat="47.24411" lon="-2.27095">
        <ele>9.6000003814697</ele>
        <time>2021-03-21T09:48:01.000Z</time>
      </trkpt>
      <trkpt lat="47.24402" lon="-2.27107">
        <ele>9.1999998092651</ele>
        <time>2021-03-21T09:48:03.000Z</time>
      </trkpt>
      <trkpt lat="47.24396" lon="-2.27112">
        <ele>8.8000001907349</ele>
        <time>2021-03-21T09:48:04.000Z</time>
      </trkpt>
      <trkpt lat="47.24391" lon="-2.27115">
        <ele>8.3999996185303</ele>
        <time>2021-03-21T09:48:05.000Z</time>
      </trkpt>
      <trkpt lat="47.24387" lon="-2.27119">
        <ele>8</ele>
        <time>2021-03-21T09:48:06.000Z</time>
      </trkpt>
      <trkpt lat="47.24386" lon="-2.27124">
        <ele>7.5999999046326</ele>
        <time>2021-03-21T09:48:07.000Z</time>
      </trkpt>
      <trkpt lat="47.24388" lon="-2.27132">
        <ele>7.5999999046326</ele>
        <time>2021-03-21T09:48:09.000Z</time>
      </trkpt>
      <trkpt lat="47.24391" lon="-2.27142">
        <ele>7.5999999046326</ele>
        <time>2021-03-21T09:48:11.000Z</time>
      </trkpt>
      <trkpt lat="47.24391" lon="-2.27149">
        <ele>7.5999999046326</ele>
        <time>2021-03-21T09:48:12.000Z</time>
      </trkpt>
      <trkpt lat="47.24393" lon="-2.27159">
        <ele>7.5999999046326</ele>
        <time>2021-03-21T09:48:13.000Z</time>
      </trkpt>
      <trkpt lat="47.24384" lon="-2.2718">
        <ele>7.5999999046326</ele>
        <time>2021-03-21T09:48:16.000Z</time>
      </trkpt>
      <trkpt lat="47.2438" lon="-2.27187">
        <ele>7.5999999046326</ele>
        <time>2021-03-21T09:48:17.000Z</time>
      </trkpt>
      <trkpt lat="47.24378" lon="-2.27195">
        <ele>7.5999999046326</ele>
        <time>2021-03-21T09:48:18.000Z</time>
      </trkpt>
      <trkpt lat="47.24375" lon="-2.27204">
        <ele>7.1999998092651</ele>
        <time>2021-03-21T09:48:20.000Z</time>
      </trkpt>
      <trkpt lat="47.24372" lon="-2.27205">
        <ele>6.8000001907349</ele>
        <time>2021-03-21T09:48:21.000Z</time>
      </trkpt>
      <trkpt lat="47.2437" lon="-2.27208">
        <ele>6.4000000953674</ele>
        <time>2021-03-21T09:48:22.000Z</time>
      </trkpt>
      <trkpt lat="47.24368" lon="-2.27212">
        <ele>6</ele>
        <time>2021-03-21T09:48:23.000Z</time>
      </trkpt>
      <trkpt lat="47.24366" lon="-2.27215">
        <ele>5.5999999046326</ele>
        <time>2021-03-21T09:48:24.000Z</time>
      </trkpt>
      <trkpt lat="47.2436" lon="-2.2722">
        <ele>5.5999999046326</ele>
        <time>2021-03-21T09:48:25.000Z</time>
      </trkpt>
      <trkpt lat="47.24355" lon="-2.27226">
        <ele>5.5999999046326</ele>
        <time>2021-03-21T09:48:26.000Z</time>
      </trkpt>
      <trkpt lat="47.24342" lon="-2.27243">
        <ele>5.5999999046326</ele>
        <time>2021-03-21T09:48:29.000Z</time>
      </trkpt>
      <trkpt lat="47.24336" lon="-2.27248">
        <ele>5.5999999046326</ele>
        <time>2021-03-21T09:48:30.000Z</time>
      </trkpt>
      <trkpt lat="47.24324" lon="-2.27253">
        <ele>5.5999999046326</ele>
        <time>2021-03-21T09:48:32.000Z</time>
      </trkpt>
      <trkpt lat="47.24318" lon="-2.2725">
        <ele>5.5999999046326</ele>
        <time>2021-03-21T09:48:33.000Z</time>
      </trkpt>
      <trkpt lat="47.24304" lon="-2.27233">
        <ele>5.5999999046326</ele>
        <time>2021-03-21T09:48:36.000Z</time>
      </trkpt>
      <trkpt lat="47.24301" lon="-2.27227">
        <ele>5.5999999046326</ele>
        <time>2021-03-21T09:48:37.000Z</time>
      </trkpt>
      <trkpt lat="47.24295" lon="-2.27215">
        <ele>5.5999999046326</ele>
        <time>2021-03-21T09:48:39.000Z</time>
      </trkpt>
      <trkpt lat="47.24295" lon="-2.27203">
        <ele>5.5999999046326</ele>
        <time>2021-03-21T09:48:41.000Z</time>
      </trkpt>
      <trkpt lat="47.24304" lon="-2.27181">
        <ele>5.5999999046326</ele>
        <time>2021-03-21T09:48:46.000Z</time>
      </trkpt>
      <trkpt lat="47.2431" lon="-2.27176">
        <ele>5.5999999046326</ele>
        <time>2021-03-21T09:48:48.000Z</time>
      </trkpt>
      <trkpt lat="47.24313" lon="-2.27169">
        <ele>5.5999999046326</ele>
        <time>2021-03-21T09:48:50.000Z</time>
      </trkpt>
      <trkpt lat="47.24312" lon="-2.27143">
        <ele>5.5999999046326</ele>
        <time>2021-03-21T09:48:55.000Z</time>
      </trkpt>
      <trkpt lat="47.24311" lon="-2.27138">
        <ele>6</ele>
        <time>2021-03-21T09:48:56.000Z</time>
      </trkpt>
      <trkpt lat="47.24311" lon="-2.27132">
        <ele>6.4000000953674</ele>
        <time>2021-03-21T09:48:57.000Z</time>
      </trkpt>
      <trkpt lat="47.24309" lon="-2.27126">
        <ele>6.8000001907349</ele>
        <time>2021-03-21T09:48:58.000Z</time>
      </trkpt>
      <trkpt lat="47.24306" lon="-2.27122">
        <ele>7.1999998092651</ele>
        <time>2021-03-21T09:48:59.000Z</time>
      </trkpt>
      <trkpt lat="47.24302" lon="-2.27121">
        <ele>7.5999999046326</ele>
        <time>2021-03-21T09:49:00.000Z</time>
      </trkpt>
      <trkpt lat="47.24286" lon="-2.27123">
        <ele>7.5999999046326</ele>
        <time>2021-03-21T09:49:04.000Z</time>
      </trkpt>
      <trkpt lat="47.24281" lon="-2.27122">
        <ele>7.5999999046326</ele>
        <time>2021-03-21T09:49:05.000Z</time>
      </trkpt>
      <trkpt lat="47.24275" lon="-2.27122">
        <ele>7.5999999046326</ele>
        <time>2021-03-21T09:49:06.000Z</time>
      </trkpt>
      <trkpt lat="47.24259" lon="-2.27128">
        <ele>7.5999999046326</ele>
        <time>2021-03-21T09:49:09.000Z</time>
      </trkpt>
      <trkpt lat="47.24224" lon="-2.27149">
        <ele>7.5999999046326</ele>
        <time>2021-03-21T09:49:16.000Z</time>
      </trkpt>
      <trkpt lat="47.24196" lon="-2.27167">
        <ele>7.5999999046326</ele>
        <time>2021-03-21T09:49:22.000Z</time>
      </trkpt>
      <trkpt lat="47.24191" lon="-2.27168">
        <ele>7.5999999046326</ele>
        <time>2021-03-21T09:49:23.000Z</time>
      </trkpt>
      <trkpt lat="47.24146" lon="-2.27183">
        <ele>7.5999999046326</ele>
        <time>2021-03-21T09:49:32.000Z</time>
      </trkpt>
      <trkpt lat="47.24119" lon="-2.27191">
        <ele>7.5999999046326</ele>
        <time>2021-03-21T09:49:39.000Z</time>
      </trkpt>
      <trkpt lat="47.24107" lon="-2.27188">
        <ele>7.5999999046326</ele>
        <time>2021-03-21T09:49:43.000Z</time>
      </trkpt>
      <trkpt lat="47.24101" lon="-2.27169">
        <ele>7.5999999046326</ele>
        <time>2021-03-21T09:49:47.000Z</time>
      </trkpt>
      <trkpt lat="47.24101" lon="-2.27138">
        <ele>7.5999999046326</ele>
        <time>2021-03-21T09:49:51.000Z</time>
      </trkpt>
      <trkpt lat="47.24101" lon="-2.27129">
        <ele>7.5999999046326</ele>
        <time>2021-03-21T09:49:52.000Z</time>
      </trkpt>
      <trkpt lat="47.24101" lon="-2.27094">
        <ele>7.1999998092651</ele>
        <time>2021-03-21T09:49:56.000Z</time>
      </trkpt>
      <trkpt lat="47.24101" lon="-2.27084">
        <ele>6.5999999046326</ele>
        <time>2021-03-21T09:49:57.000Z</time>
      </trkpt>
      <trkpt lat="47.24101" lon="-2.27074">
        <ele>6.1999998092651</ele>
        <time>2021-03-21T09:49:58.000Z</time>
      </trkpt>
      <trkpt lat="47.24101" lon="-2.27063">
        <ele>5.8000001907349</ele>
        <time>2021-03-21T09:49:59.000Z</time>
      </trkpt>
      <trkpt lat="47.24101" lon="-2.27052">
        <ele>5.4000000953674</ele>
        <time>2021-03-21T09:50:00.000Z</time>
      </trkpt>
      <trkpt lat="47.24101" lon="-2.27017">
        <ele>5.4000000953674</ele>
        <time>2021-03-21T09:50:03.000Z</time>
      </trkpt>
      <trkpt lat="47.241" lon="-2.26955">
        <ele>5.4000000953674</ele>
        <time>2021-03-21T09:50:09.000Z</time>
      </trkpt>
      <trkpt lat="47.24101" lon="-2.269">
        <ele>5.4000000953674</ele>
        <time>2021-03-21T09:50:15.000Z</time>
      </trkpt>
      <trkpt lat="47.24101" lon="-2.26892">
        <ele>5.8000001907349</ele>
        <time>2021-03-21T09:50:16.000Z</time>
      </trkpt>
      <trkpt lat="47.24101" lon="-2.26883">
        <ele>6.1999998092651</ele>
        <time>2021-03-21T09:50:17.000Z</time>
      </trkpt>
      <trkpt lat="47.24102" lon="-2.26875">
        <ele>7</ele>
        <time>2021-03-21T09:50:18.000Z</time>
      </trkpt>
      <trkpt lat="47.24102" lon="-2.26867">
        <ele>7.5999999046326</ele>
        <time>2021-03-21T09:50:19.000Z</time>
      </trkpt>
      <trkpt lat="47.24103" lon="-2.26859">
        <ele>8</ele>
        <time>2021-03-21T09:50:20.000Z</time>
      </trkpt>
      <trkpt lat="47.24104" lon="-2.26853">
        <ele>8.6000003814697</ele>
        <time>2021-03-21T09:50:21.000Z</time>
      </trkpt>
      <trkpt lat="47.24104" lon="-2.26848">
        <ele>9</ele>
        <time>2021-03-21T09:50:22.000Z</time>
      </trkpt>
      <trkpt lat="47.24103" lon="-2.26843">
        <ele>9.6000003814697</ele>
        <time>2021-03-21T09:50:23.000Z</time>
      </trkpt>
      <trkpt lat="47.24102" lon="-2.26842">
        <ele>9.6000003814697</ele>
        <time>2021-03-21T09:50:24.000Z</time>
      </trkpt>
      <trkpt lat="47.241" lon="-2.2684">
        <ele>9.6000003814697</ele>
        <time>2021-03-21T09:50:25.000Z</time>
      </trkpt>
      <trkpt lat="47.24093" lon="-2.26837">
        <ele>9.6000003814697</ele>
        <time>2021-03-21T09:50:28.000Z</time>
      </trkpt>
      <trkpt lat="47.24089" lon="-2.26838">
        <ele>9.6000003814697</ele>
        <time>2021-03-21T09:50:29.000Z</time>
      </trkpt>
      <trkpt lat="47.24063" lon="-2.26843">
        <ele>10</ele>
        <time>2021-03-21T09:50:35.000Z</time>
      </trkpt>
      <trkpt lat="47.2406" lon="-2.26848">
        <ele>10.39999961853</ele>
        <time>2021-03-21T09:50:36.000Z</time>
      </trkpt>
      <trkpt lat="47.24059" lon="-2.26854">
        <ele>10.800000190735</ele>
        <time>2021-03-21T09:50:37.000Z</time>
      </trkpt>
      <trkpt lat="47.24058" lon="-2.26859">
        <ele>11.199999809265</ele>
        <time>2021-03-21T09:50:38.000Z</time>
      </trkpt>
      <trkpt lat="47.24058" lon="-2.26863">
        <ele>11.60000038147</ele>
        <time>2021-03-21T09:50:39.000Z</time>
      </trkpt>
      <trkpt lat="47.24056" lon="-2.26872">
        <ele>11.60000038147</ele>
        <time>2021-03-21T09:50:41.000Z</time>
      </trkpt>
      <trkpt lat="47.24055" lon="-2.26881">
        <ele>11.60000038147</ele>
        <time>2021-03-21T09:50:43.000Z</time>
      </trkpt>
      <trkpt lat="47.24054" lon="-2.26895">
        <ele>11.60000038147</ele>
        <time>2021-03-21T09:50:45.000Z</time>
      </trkpt>
      <trkpt lat="47.24052" lon="-2.26904">
        <ele>11.60000038147</ele>
        <time>2021-03-21T09:50:46.000Z</time>
      </trkpt>
      <trkpt lat="47.24047" lon="-2.26931">
        <ele>11</ele>
        <time>2021-03-21T09:50:49.000Z</time>
      </trkpt>
      <trkpt lat="47.24047" lon="-2.26941">
        <ele>10.60000038147</ele>
        <time>2021-03-21T09:50:50.000Z</time>
      </trkpt>
      <trkpt lat="47.24047" lon="-2.2695">
        <ele>10.199999809265</ele>
        <time>2021-03-21T09:50:51.000Z</time>
      </trkpt>
      <trkpt lat="47.24047" lon="-2.26958">
        <ele>9.8000001907349</ele>
        <time>2021-03-21T09:50:52.000Z</time>
      </trkpt>
      <trkpt lat="47.24046" lon="-2.26967">
        <ele>9.1999998092651</ele>
        <time>2021-03-21T09:50:53.000Z</time>
      </trkpt>
      <trkpt lat="47.24047" lon="-2.26975">
        <ele>8.6000003814697</ele>
        <time>2021-03-21T09:50:54.000Z</time>
      </trkpt>
      <trkpt lat="47.24047" lon="-2.26983">
        <ele>8</ele>
        <time>2021-03-21T09:50:55.000Z</time>
      </trkpt>
      <trkpt lat="47.24046" lon="-2.2699">
        <ele>7.4000000953674</ele>
        <time>2021-03-21T09:50:56.000Z</time>
      </trkpt>
      <trkpt lat="47.24044" lon="-2.26995">
        <ele>6.5999999046326</ele>
        <time>2021-03-21T09:50:57.000Z</time>
      </trkpt>
      <trkpt lat="47.24039" lon="-2.27">
        <ele>6</ele>
        <time>2021-03-21T09:50:58.000Z</time>
      </trkpt>
      <trkpt lat="47.24034" lon="-2.27001">
        <ele>5.1999998092651</ele>
        <time>2021-03-21T09:50:59.000Z</time>
      </trkpt>
      <trkpt lat="47.24029" lon="-2.27004">
        <ele>4.5999999046326</ele>
        <time>2021-03-21T09:51:00.000Z</time>
      </trkpt>
      <trkpt lat="47.24024" lon="-2.27006">
        <ele>3.7999999523163</ele>
        <time>2021-03-21T09:51:01.000Z</time>
      </trkpt>
      <trkpt lat="47.24019" lon="-2.27006">
        <ele>3</ele>
        <time>2021-03-21T09:51:02.000Z</time>
      </trkpt>
      <trkpt lat="47.24015" lon="-2.27003">
        <ele>2.4000000953674</ele>
        <time>2021-03-21T09:51:03.000Z</time>
      </trkpt>
      <trkpt lat="47.24013" lon="-2.26999">
        <ele>2</ele>
        <time>2021-03-21T09:51:04.000Z</time>
      </trkpt>
      <trkpt lat="47.24012" lon="-2.26993">
        <ele>1.3999999761581</ele>
        <time>2021-03-21T09:51:05.000Z</time>
      </trkpt>
      <trkpt lat="47.24011" lon="-2.26988">
        <ele>1</ele>
        <time>2021-03-21T09:51:06.000Z</time>
      </trkpt>
      <trkpt lat="47.24009" lon="-2.26983">
        <ele>0.20000000298023</ele>
        <time>2021-03-21T09:51:07.000Z</time>
      </trkpt>
      <trkpt lat="47.24006" lon="-2.26979">
        <ele>0.20000000298023</ele>
        <time>2021-03-21T09:51:08.000Z</time>
      </trkpt>
      <trkpt lat="47.23984" lon="-2.26962">
        <ele>0.20000000298023</ele>
        <time>2021-03-21T09:51:13.000Z</time>
      </trkpt>
      <trkpt lat="47.23957" lon="-2.2695">
        <ele>0.20000000298023</ele>
        <time>2021-03-21T09:51:18.000Z</time>
      </trkpt>
      <trkpt lat="47.23953" lon="-2.26947">
        <ele>0.20000000298023</ele>
        <time>2021-03-21T09:51:19.000Z</time>
      </trkpt>
      <trkpt lat="47.23948" lon="-2.2693">
        <ele>0.20000000298023</ele>
        <time>2021-03-21T09:51:22.000Z</time>
      </trkpt>
      <trkpt lat="47.23954" lon="-2.26925">
        <ele>0.60000002384186</ele>
        <time>2021-03-21T09:51:25.000Z</time>
      </trkpt>
      <trkpt lat="47.23957" lon="-2.26928">
        <ele>1</ele>
        <time>2021-03-21T09:51:26.000Z</time>
      </trkpt>
      <trkpt lat="47.2396" lon="-2.26933">
        <ele>1.3999999761581</ele>
        <time>2021-03-21T09:51:27.000Z</time>
      </trkpt>
      <trkpt lat="47.23964" lon="-2.26938">
        <ele>1.7999999523163</ele>
        <time>2021-03-21T09:51:28.000Z</time>
      </trkpt>
      <trkpt lat="47.23968" lon="-2.26942">
        <ele>2.2000000476837</ele>
        <time>2021-03-21T09:51:29.000Z</time>
      </trkpt>
      <trkpt lat="47.23983" lon="-2.26949">
        <ele>2.2000000476837</ele>
        <time>2021-03-21T09:51:32.000Z</time>
      </trkpt>
      <trkpt lat="47.23999" lon="-2.26959">
        <ele>2.2000000476837</ele>
        <time>2021-03-21T09:51:35.000Z</time>
      </trkpt>
      <trkpt lat="47.24009" lon="-2.26965">
        <ele>2.2000000476837</ele>
        <time>2021-03-21T09:51:37.000Z</time>
      </trkpt>
      <trkpt lat="47.24015" lon="-2.26973">
        <ele>2.2000000476837</ele>
        <time>2021-03-21T09:51:39.000Z</time>
      </trkpt>
      <trkpt lat="47.24018" lon="-2.26975">
        <ele>2.2000000476837</ele>
        <time>2021-03-21T09:51:40.000Z</time>
      </trkpt>
      <trkpt lat="47.24035" lon="-2.26994">
        <ele>2.2000000476837</ele>
        <time>2021-03-21T09:51:45.000Z</time>
      </trkpt>
      <trkpt lat="47.24046" lon="-2.26991">
        <ele>2.2000000476837</ele>
        <time>2021-03-21T09:51:49.000Z</time>
      </trkpt>
      <trkpt lat="47.24046" lon="-2.26975">
        <ele>2.2000000476837</ele>
        <time>2021-03-21T09:51:53.000Z</time>
      </trkpt>
      <trkpt lat="47.24045" lon="-2.2695">
        <ele>2.5999999046326</ele>
        <time>2021-03-21T09:51:59.000Z</time>
      </trkpt>
      <trkpt lat="47.24044" lon="-2.26946">
        <ele>3.2000000476837</ele>
        <time>2021-03-21T09:52:00.000Z</time>
      </trkpt>
      <trkpt lat="47.24043" lon="-2.26941">
        <ele>3.5999999046326</ele>
        <time>2021-03-21T09:52:01.000Z</time>
      </trkpt>
      <trkpt lat="47.24043" lon="-2.26938">
        <ele>4</ele>
        <time>2021-03-21T09:52:02.000Z</time>
      </trkpt>
      <trkpt lat="47.24043" lon="-2.26933">
        <ele>4.4000000953674</ele>
        <time>2021-03-21T09:52:03.000Z</time>
      </trkpt>
      <trkpt lat="47.24044" lon="-2.26928">
        <ele>4.4000000953674</ele>
        <time>2021-03-21T09:52:04.000Z</time>
      </trkpt>
      <trkpt lat="47.24043" lon="-2.26925">
        <ele>4.8000001907349</ele>
        <time>2021-03-21T09:52:05.000Z</time>
      </trkpt>
      <trkpt lat="47.24042" lon="-2.26922">
        <ele>5.1999998092651</ele>
        <time>2021-03-21T09:52:06.000Z</time>
      </trkpt>
      <trkpt lat="47.24039" lon="-2.2692">
        <ele>5.5999999046326</ele>
        <time>2021-03-21T09:52:07.000Z</time>
      </trkpt>
      <trkpt lat="47.24037" lon="-2.26917">
        <ele>6</ele>
        <time>2021-03-21T09:52:08.000Z</time>
      </trkpt>
      <trkpt lat="47.24036" lon="-2.26913">
        <ele>6.4000000953674</ele>
        <time>2021-03-21T09:52:09.000Z</time>
      </trkpt>
      <trkpt lat="47.24029" lon="-2.269">
        <ele>6.4000000953674</ele>
        <time>2021-03-21T09:52:13.000Z</time>
      </trkpt>
      <trkpt lat="47.24028" lon="-2.26897">
        <ele>6.8000001907349</ele>
        <time>2021-03-21T09:52:14.000Z</time>
      </trkpt>
      <trkpt lat="47.24025" lon="-2.26895">
        <ele>7.1999998092651</ele>
        <time>2021-03-21T09:52:15.000Z</time>
      </trkpt>
      <trkpt lat="47.24023" lon="-2.26893">
        <ele>7.8000001907349</ele>
        <time>2021-03-21T09:52:16.000Z</time>
      </trkpt>
      <trkpt lat="47.24022" lon="-2.26889">
        <ele>8.1999998092651</ele>
        <time>2021-03-21T09:52:17.000Z</time>
      </trkpt>
      <trkpt lat="47.24021" lon="-2.26886">
        <ele>8.6000003814697</ele>
        <time>2021-03-21T09:52:18.000Z</time>
      </trkpt>
      <trkpt lat="47.24014" lon="-2.26874">
        <ele>8.6000003814697</ele>
        <time>2021-03-21T09:52:22.000Z</time>
      </trkpt>
      <trkpt lat="47.24004" lon="-2.26871">
        <ele>8.6000003814697</ele>
        <time>2021-03-21T09:52:27.000Z</time>
      </trkpt>
      <trkpt lat="47.23999" lon="-2.26886">
        <ele>8.6000003814697</ele>
        <time>2021-03-21T09:52:31.000Z</time>
      </trkpt>
      <trkpt lat="47.24" lon="-2.26903">
        <ele>8.6000003814697</ele>
        <time>2021-03-21T09:52:34.000Z</time>
      </trkpt>
      <trkpt lat="47.24001" lon="-2.2691">
        <ele>8.6000003814697</ele>
        <time>2021-03-21T09:52:35.000Z</time>
      </trkpt>
      <trkpt lat="47.24" lon="-2.26917">
        <ele>8.6000003814697</ele>
        <time>2021-03-21T09:52:36.000Z</time>
      </trkpt>
      <trkpt lat="47.24004" lon="-2.26943">
        <ele>8</ele>
        <time>2021-03-21T09:52:39.000Z</time>
      </trkpt>
      <trkpt lat="47.24005" lon="-2.26951">
        <ele>7.5999999046326</ele>
        <time>2021-03-21T09:52:40.000Z</time>
      </trkpt>
      <trkpt lat="47.24006" lon="-2.26957">
        <ele>7</ele>
        <time>2021-03-21T09:52:41.000Z</time>
      </trkpt>
      <trkpt lat="47.24007" lon="-2.26962">
        <ele>6.4000000953674</ele>
        <time>2021-03-21T09:52:42.000Z</time>
      </trkpt>
      <trkpt lat="47.24006" lon="-2.26965">
        <ele>5.8000001907349</ele>
        <time>2021-03-21T09:52:43.000Z</time>
      </trkpt>
      <trkpt lat="47.24005" lon="-2.26968">
        <ele>5</ele>
        <time>2021-03-21T09:52:44.000Z</time>
      </trkpt>
      <trkpt lat="47.24004" lon="-2.26971">
        <ele>4.4000000953674</ele>
        <time>2021-03-21T09:52:45.000Z</time>
      </trkpt>
      <trkpt lat="47.24002" lon="-2.26972">
        <ele>3.2000000476837</ele>
        <time>2021-03-21T09:52:46.000Z</time>
      </trkpt>
      <trkpt lat="47.23999" lon="-2.26971">
        <ele>2.5999999046326</ele>
        <time>2021-03-21T09:52:47.000Z</time>
      </trkpt>
      <trkpt lat="47.23996" lon="-2.26969">
        <ele>2</ele>
        <time>2021-03-21T09:52:48.000Z</time>
      </trkpt>
      <trkpt lat="47.23992" lon="-2.26966">
        <ele>1.3999999761581</ele>
        <time>2021-03-21T09:52:49.000Z</time>
      </trkpt>
      <trkpt lat="47.23987" lon="-2.26963">
        <ele>1.3999999761581</ele>
        <time>2021-03-21T09:52:50.000Z</time>
      </trkpt>
      <trkpt lat="47.23957" lon="-2.26948">
        <ele>1.3999999761581</ele>
        <time>2021-03-21T09:52:56.000Z</time>
      </trkpt>
      <trkpt lat="47.23952" lon="-2.26944">
        <ele>1.3999999761581</ele>
        <time>2021-03-21T09:52:57.000Z</time>
      </trkpt>
      <trkpt lat="47.23949" lon="-2.26932">
        <ele>1.3999999761581</ele>
        <time>2021-03-21T09:52:59.000Z</time>
      </trkpt>
      <trkpt lat="47.23947" lon="-2.26914">
        <ele>1.3999999761581</ele>
        <time>2021-03-21T09:53:02.000Z</time>
      </trkpt>
      <trkpt lat="47.23946" lon="-2.26904">
        <ele>1.3999999761581</ele>
        <time>2021-03-21T09:53:04.000Z</time>
      </trkpt>
      <trkpt lat="47.23946" lon="-2.269">
        <ele>1.7999999523163</ele>
        <time>2021-03-21T09:53:05.000Z</time>
      </trkpt>
      <trkpt lat="47.23946" lon="-2.26895">
        <ele>2.2000000476837</ele>
        <time>2021-03-21T09:53:06.000Z</time>
      </trkpt>
      <trkpt lat="47.23947" lon="-2.26892">
        <ele>2.5999999046326</ele>
        <time>2021-03-21T09:53:07.000Z</time>
      </trkpt>
      <trkpt lat="47.23947" lon="-2.26888">
        <ele>3</ele>
        <time>2021-03-21T09:53:08.000Z</time>
      </trkpt>
      <trkpt lat="47.23947" lon="-2.26886">
        <ele>3.4000000953674</ele>
        <time>2021-03-21T09:53:09.000Z</time>
      </trkpt>
      <trkpt lat="47.23947" lon="-2.26883">
        <ele>3.7999999523163</ele>
        <time>2021-03-21T09:53:10.000Z</time>
      </trkpt>
      <trkpt lat="47.23946" lon="-2.26879">
        <ele>4.4000000953674</ele>
        <time>2021-03-21T09:53:11.000Z</time>
      </trkpt>
      <trkpt lat="47.23946" lon="-2.26874">
        <ele>4.8000001907349</ele>
        <time>2021-03-21T09:53:12.000Z</time>
      </trkpt>
      <trkpt lat="47.23945" lon="-2.2687">
        <ele>5.1999998092651</ele>
        <time>2021-03-21T09:53:13.000Z</time>
      </trkpt>
      <trkpt lat="47.23943" lon="-2.26867">
        <ele>5.5999999046326</ele>
        <time>2021-03-21T09:53:14.000Z</time>
      </trkpt>
      <trkpt lat="47.23938" lon="-2.26865">
        <ele>5.5999999046326</ele>
        <time>2021-03-21T09:53:16.000Z</time>
      </trkpt>
      <trkpt lat="47.23925" lon="-2.26859">
        <ele>5.5999999046326</ele>
        <time>2021-03-21T09:53:21.000Z</time>
      </trkpt>
      <trkpt lat="47.23916" lon="-2.26853">
        <ele>5.5999999046326</ele>
        <time>2021-03-21T09:53:25.000Z</time>
      </trkpt>
      <trkpt lat="47.23909" lon="-2.26843">
        <ele>5.5999999046326</ele>
        <time>2021-03-21T09:53:28.000Z</time>
      </trkpt>
      <trkpt lat="47.23908" lon="-2.2684">
        <ele>5.5999999046326</ele>
        <time>2021-03-21T09:53:29.000Z</time>
      </trkpt>
      <trkpt lat="47.23913" lon="-2.26832">
        <ele>5.5999999046326</ele>
        <time>2021-03-21T09:53:32.000Z</time>
      </trkpt>
      <trkpt lat="47.23916" lon="-2.2683">
        <ele>5.5999999046326</ele>
        <time>2021-03-21T09:53:33.000Z</time>
      </trkpt>
      <trkpt lat="47.23929" lon="-2.26816">
        <ele>5.5999999046326</ele>
        <time>2021-03-21T09:53:38.000Z</time>
      </trkpt>
      <trkpt lat="47.23934" lon="-2.26805">
        <ele>5.5999999046326</ele>
        <time>2021-03-21T09:53:42.000Z</time>
      </trkpt>
      <trkpt lat="47.23933" lon="-2.268">
        <ele>5.5999999046326</ele>
        <time>2021-03-21T09:53:43.000Z</time>
      </trkpt>
      <trkpt lat="47.23932" lon="-2.26773">
        <ele>5.5999999046326</ele>
        <time>2021-03-21T09:53:49.000Z</time>
      </trkpt>
      <trkpt lat="47.23926" lon="-2.26751">
        <ele>5.5999999046326</ele>
        <time>2021-03-21T09:53:55.000Z</time>
      </trkpt>
      <trkpt lat="47.2391" lon="-2.26746">
        <ele>5.5999999046326</ele>
        <time>2021-03-21T09:53:59.000Z</time>
      </trkpt>
      <trkpt lat="47.23897" lon="-2.26742">
        <ele>5</ele>
        <time>2021-03-21T09:54:03.000Z</time>
      </trkpt>
      <trkpt lat="47.23895" lon="-2.26742">
        <ele>4.5999999046326</ele>
        <time>2021-03-21T09:54:04.000Z</time>
      </trkpt>
      <trkpt lat="47.23894" lon="-2.26741">
        <ele>4.1999998092651</ele>
        <time>2021-03-21T09:54:05.000Z</time>
      </trkpt>
      <trkpt lat="47.23895" lon="-2.26741">
        <ele>3.7999999523163</ele>
        <time>2021-03-21T09:54:06.000Z</time>
      </trkpt>
      <trkpt lat="47.23896" lon="-2.26745">
        <ele>3.2000000476837</ele>
        <time>2021-03-21T10:04:24.000Z</time>
      </trkpt>
      <trkpt lat="47.23909" lon="-2.26747">
        <ele>3.2000000476837</ele>
        <time>2021-03-21T10:04:31.000Z</time>
      </trkpt>
      <trkpt lat="47.23926" lon="-2.26748">
        <ele>3.2000000476837</ele>
        <time>2021-03-21T10:04:37.000Z</time>
      </trkpt>
      <trkpt lat="47.23942" lon="-2.26743">
        <ele>3.2000000476837</ele>
        <time>2021-03-21T10:04:43.000Z</time>
      </trkpt>
      <trkpt lat="47.23954" lon="-2.26734">
        <ele>3.5999999046326</ele>
        <time>2021-03-21T10:04:47.000Z</time>
      </trkpt>
      <trkpt lat="47.23957" lon="-2.26734">
        <ele>4</ele>
        <time>2021-03-21T10:04:48.000Z</time>
      </trkpt>
      <trkpt lat="47.23961" lon="-2.26734">
        <ele>4.5999999046326</ele>
        <time>2021-03-21T10:04:49.000Z</time>
      </trkpt>
      <trkpt lat="47.23964" lon="-2.26735">
        <ele>5</ele>
        <time>2021-03-21T10:04:50.000Z</time>
      </trkpt>
      <trkpt lat="47.23967" lon="-2.26735">
        <ele>5.4000000953674</ele>
        <time>2021-03-21T10:04:51.000Z</time>
      </trkpt>
      <trkpt lat="47.23984" lon="-2.26736">
        <ele>5.4000000953674</ele>
        <time>2021-03-21T10:04:56.000Z</time>
      </trkpt>
      <trkpt lat="47.23991" lon="-2.26736">
        <ele>5.8000001907349</ele>
        <time>2021-03-21T10:04:58.000Z</time>
      </trkpt>
      <trkpt lat="47.23994" lon="-2.26736">
        <ele>6.1999998092651</ele>
        <time>2021-03-21T10:04:59.000Z</time>
      </trkpt>
      <trkpt lat="47.23997" lon="-2.26737">
        <ele>6.5999999046326</ele>
        <time>2021-03-21T10:05:00.000Z</time>
      </trkpt>
      <trkpt lat="47.24" lon="-2.26738">
        <ele>7</ele>
        <time>2021-03-21T10:05:01.000Z</time>
      </trkpt>
      <trkpt lat="47.24003" lon="-2.26738">
        <ele>7.4000000953674</ele>
        <time>2021-03-21T10:05:02.000Z</time>
      </trkpt>
      <trkpt lat="47.24006" lon="-2.26738">
        <ele>7.4000000953674</ele>
        <time>2021-03-21T10:05:03.000Z</time>
      </trkpt>
      <trkpt lat="47.24022" lon="-2.26736">
        <ele>7.8000001907349</ele>
        <time>2021-03-21T10:05:09.000Z</time>
      </trkpt>
      <trkpt lat="47.24024" lon="-2.26735">
        <ele>8.1999998092651</ele>
        <time>2021-03-21T10:05:10.000Z</time>
      </trkpt>
      <trkpt lat="47.24026" lon="-2.26735">
        <ele>8.6000003814697</ele>
        <time>2021-03-21T10:05:11.000Z</time>
      </trkpt>
      <trkpt lat="47.24029" lon="-2.26733">
        <ele>9</ele>
        <time>2021-03-21T10:05:12.000Z</time>
      </trkpt>
      <trkpt lat="47.24031" lon="-2.26732">
        <ele>9.3999996185303</ele>
        <time>2021-03-21T10:05:13.000Z</time>
      </trkpt>
      <trkpt lat="47.2404" lon="-2.26728">
        <ele>9.3999996185303</ele>
        <time>2021-03-21T10:05:18.000Z</time>
      </trkpt>
      <trkpt lat="47.24049" lon="-2.26722">
        <ele>9.3999996185303</ele>
        <time>2021-03-21T10:05:24.000Z</time>
      </trkpt>
      <trkpt lat="47.24059" lon="-2.26711">
        <ele>10</ele>
        <time>2021-03-21T10:05:30.000Z</time>
      </trkpt>
      <trkpt lat="47.24061" lon="-2.26709">
        <ele>10.39999961853</ele>
        <time>2021-03-21T10:05:31.000Z</time>
      </trkpt>
      <trkpt lat="47.24062" lon="-2.26707">
        <ele>10.800000190735</ele>
        <time>2021-03-21T10:05:32.000Z</time>
      </trkpt>
      <trkpt lat="47.24064" lon="-2.26705">
        <ele>11.199999809265</ele>
        <time>2021-03-21T10:05:33.000Z</time>
      </trkpt>
      <trkpt lat="47.24066" lon="-2.26703">
        <ele>11.60000038147</ele>
        <time>2021-03-21T10:05:34.000Z</time>
      </trkpt>
      <trkpt lat="47.24072" lon="-2.26693">
        <ele>12</ele>
        <time>2021-03-21T10:05:38.000Z</time>
      </trkpt>
      <trkpt lat="47.24073" lon="-2.2669">
        <ele>12.39999961853</ele>
        <time>2021-03-21T10:05:39.000Z</time>
      </trkpt>
      <trkpt lat="47.24075" lon="-2.26687">
        <ele>12.800000190735</ele>
        <time>2021-03-21T10:05:40.000Z</time>
      </trkpt>
      <trkpt lat="47.24077" lon="-2.26683">
        <ele>13.199999809265</ele>
        <time>2021-03-21T10:05:41.000Z</time>
      </trkpt>
      <trkpt lat="47.24079" lon="-2.26679">
        <ele>13.60000038147</ele>
        <time>2021-03-21T10:05:42.000Z</time>
      </trkpt>
      <trkpt lat="47.24084" lon="-2.26669">
        <ele>13.60000038147</ele>
        <time>2021-03-21T10:05:45.000Z</time>
      </trkpt>
      <trkpt lat="47.24096" lon="-2.26651">
        <ele>13.60000038147</ele>
        <time>2021-03-21T10:05:51.000Z</time>
      </trkpt>
      <trkpt lat="47.24106" lon="-2.26653">
        <ele>13.60000038147</ele>
        <time>2021-03-21T10:05:56.000Z</time>
      </trkpt>
      <trkpt lat="47.2411" lon="-2.26644">
        <ele>13.60000038147</ele>
        <time>2021-03-21T10:06:01.000Z</time>
      </trkpt>
      <trkpt lat="47.24112" lon="-2.26639">
        <ele>13.60000038147</ele>
        <time>2021-03-21T10:06:04.000Z</time>
      </trkpt>
      <trkpt lat="47.24114" lon="-2.26639">
        <ele>13.60000038147</ele>
        <time>2021-03-21T10:06:05.000Z</time>
      </trkpt>
      <trkpt lat="47.24115" lon="-2.26639">
        <ele>13.60000038147</ele>
        <time>2021-03-21T10:06:06.000Z</time>
      </trkpt>
      <trkpt lat="47.2412" lon="-2.26635">
        <ele>13.60000038147</ele>
        <time>2021-03-21T10:06:10.000Z</time>
      </trkpt>
      <trkpt lat="47.24125" lon="-2.26623">
        <ele>13.60000038147</ele>
        <time>2021-03-21T10:06:13.000Z</time>
      </trkpt>
      <trkpt lat="47.24127" lon="-2.26618">
        <ele>13.60000038147</ele>
        <time>2021-03-21T10:06:14.000Z</time>
      </trkpt>
      <trkpt lat="47.24129" lon="-2.26612">
        <ele>13.60000038147</ele>
        <time>2021-03-21T10:06:15.000Z</time>
      </trkpt>
      <trkpt lat="47.24131" lon="-2.26606">
        <ele>13.199999809265</ele>
        <time>2021-03-21T10:06:16.000Z</time>
      </trkpt>
      <trkpt lat="47.24133" lon="-2.266">
        <ele>12.800000190735</ele>
        <time>2021-03-21T10:06:17.000Z</time>
      </trkpt>
      <trkpt lat="47.24135" lon="-2.26596">
        <ele>12.39999961853</ele>
        <time>2021-03-21T10:06:18.000Z</time>
      </trkpt>
      <trkpt lat="47.24137" lon="-2.26593">
        <ele>12</ele>
        <time>2021-03-21T10:06:19.000Z</time>
      </trkpt>
      <trkpt lat="47.24137" lon="-2.26591">
        <ele>11.39999961853</ele>
        <time>2021-03-21T10:06:20.000Z</time>
      </trkpt>
      <trkpt lat="47.24137" lon="-2.26583">
        <ele>11.39999961853</ele>
        <time>2021-03-21T10:06:22.000Z</time>
      </trkpt>
      <trkpt lat="47.24137" lon="-2.2658">
        <ele>11.39999961853</ele>
        <time>2021-03-21T10:06:23.000Z</time>
      </trkpt>
      <trkpt lat="47.24139" lon="-2.26577">
        <ele>11</ele>
        <time>2021-03-21T10:06:24.000Z</time>
      </trkpt>
      <trkpt lat="47.24141" lon="-2.26575">
        <ele>10.60000038147</ele>
        <time>2021-03-21T10:06:25.000Z</time>
      </trkpt>
      <trkpt lat="47.24143" lon="-2.26575">
        <ele>10.199999809265</ele>
        <time>2021-03-21T10:06:26.000Z</time>
      </trkpt>
      <trkpt lat="47.24145" lon="-2.26575">
        <ele>9.6000003814697</ele>
        <time>2021-03-21T10:06:27.000Z</time>
      </trkpt>
      <trkpt lat="47.24147" lon="-2.26574">
        <ele>9.1999998092651</ele>
        <time>2021-03-21T10:06:28.000Z</time>
      </trkpt>
      <trkpt lat="47.24154" lon="-2.26575">
        <ele>9.1999998092651</ele>
        <time>2021-03-21T10:06:32.000Z</time>
      </trkpt>
      <trkpt lat="47.24156" lon="-2.26578">
        <ele>9.1999998092651</ele>
        <time>2021-03-21T10:06:35.000Z</time>
      </trkpt>
      <trkpt lat="47.24157" lon="-2.26607">
        <ele>13.199999809265</ele>
        <time>2021-03-21T10:07:13.000Z</time>
      </trkpt>
      <trkpt lat="47.24157" lon="-2.26608">
        <ele>13.199999809265</ele>
        <time>2021-03-21T10:07:14.000Z</time>
      </trkpt>
      <trkpt lat="47.24166" lon="-2.26613">
        <ele>13.199999809265</ele>
        <time>2021-03-21T10:07:18.000Z</time>
      </trkpt>
      <trkpt lat="47.24169" lon="-2.26614">
        <ele>13.60000038147</ele>
        <time>2021-03-21T10:07:19.000Z</time>
      </trkpt>
      <trkpt lat="47.24172" lon="-2.26615">
        <ele>14</ele>
        <time>2021-03-21T10:07:20.000Z</time>
      </trkpt>
      <trkpt lat="47.24176" lon="-2.26615">
        <ele>14.39999961853</ele>
        <time>2021-03-21T10:07:21.000Z</time>
      </trkpt>
      <trkpt lat="47.24179" lon="-2.26616">
        <ele>14.800000190735</ele>
        <time>2021-03-21T10:07:22.000Z</time>
      </trkpt>
      <trkpt lat="47.24183" lon="-2.26617">
        <ele>15.39999961853</ele>
        <time>2021-03-21T10:07:23.000Z</time>
      </trkpt>
      <trkpt lat="47.2419" lon="-2.26619">
        <ele>15.39999961853</ele>
        <time>2021-03-21T10:07:25.000Z</time>
      </trkpt>
      <trkpt lat="47.24207" lon="-2.26624">
        <ele>15.39999961853</ele>
        <time>2021-03-21T10:07:30.000Z</time>
      </trkpt>
      <trkpt lat="47.24226" lon="-2.2662">
        <ele>15.39999961853</ele>
        <time>2021-03-21T10:07:35.000Z</time>
      </trkpt>
      <trkpt lat="47.24247" lon="-2.26603">
        <ele>15.39999961853</ele>
        <time>2021-03-21T10:07:40.000Z</time>
      </trkpt>
      <trkpt lat="47.24287" lon="-2.26569">
        <ele>15.39999961853</ele>
        <time>2021-03-21T10:07:48.000Z</time>
      </trkpt>
      <trkpt lat="47.24298" lon="-2.2656">
        <ele>15.39999961853</ele>
        <time>2021-03-21T10:07:50.000Z</time>
      </trkpt>
      <trkpt lat="47.24309" lon="-2.26548">
        <ele>15.39999961853</ele>
        <time>2021-03-21T10:07:52.000Z</time>
      </trkpt>
      <trkpt lat="47.24339" lon="-2.26515">
        <ele>15.39999961853</ele>
        <time>2021-03-21T10:07:58.000Z</time>
      </trkpt>
      <trkpt lat="47.24384" lon="-2.2648">
        <ele>15.39999961853</ele>
        <time>2021-03-21T10:08:06.000Z</time>
      </trkpt>
      <trkpt lat="47.24425" lon="-2.26453">
        <ele>15.39999961853</ele>
        <time>2021-03-21T10:08:13.000Z</time>
      </trkpt>
      <trkpt lat="47.24455" lon="-2.26435">
        <ele>15.800000190735</ele>
        <time>2021-03-21T10:08:18.000Z</time>
      </trkpt>
      <trkpt lat="47.24461" lon="-2.26432">
        <ele>16.200000762939</ele>
        <time>2021-03-21T10:08:19.000Z</time>
      </trkpt>
      <trkpt lat="47.24467" lon="-2.26429">
        <ele>16.60000038147</ele>
        <time>2021-03-21T10:08:20.000Z</time>
      </trkpt>
      <trkpt lat="47.24474" lon="-2.26425">
        <ele>17</ele>
        <time>2021-03-21T10:08:21.000Z</time>
      </trkpt>
      <trkpt lat="47.2448" lon="-2.26422">
        <ele>17.39999961853</ele>
        <time>2021-03-21T10:08:22.000Z</time>
      </trkpt>
      <trkpt lat="47.24522" lon="-2.26401">
        <ele>17.39999961853</ele>
        <time>2021-03-21T10:08:29.000Z</time>
      </trkpt>
      <trkpt lat="47.24567" lon="-2.26383">
        <ele>17.39999961853</ele>
        <time>2021-03-21T10:08:36.000Z</time>
      </trkpt>
      <trkpt lat="47.24606" lon="-2.26375">
        <ele>17.39999961853</ele>
        <time>2021-03-21T10:08:42.000Z</time>
      </trkpt>
      <trkpt lat="47.24612" lon="-2.26375">
        <ele>17.39999961853</ele>
        <time>2021-03-21T10:08:43.000Z</time>
      </trkpt>
      <trkpt lat="47.24653" lon="-2.26385">
        <ele>17.39999961853</ele>
        <time>2021-03-21T10:08:49.000Z</time>
      </trkpt>
      <trkpt lat="47.24704" lon="-2.2641">
        <ele>17.39999961853</ele>
        <time>2021-03-21T10:08:57.000Z</time>
      </trkpt>
      <trkpt lat="47.2474" lon="-2.26429">
        <ele>17.39999961853</ele>
        <time>2021-03-21T10:09:03.000Z</time>
      </trkpt>
      <trkpt lat="47.24784" lon="-2.26451">
        <ele>17.39999961853</ele>
        <time>2021-03-21T10:09:11.000Z</time>
      </trkpt>
      <trkpt lat="47.24804" lon="-2.26459">
        <ele>17.39999961853</ele>
        <time>2021-03-21T10:09:15.000Z</time>
      </trkpt>
      <trkpt lat="47.24808" lon="-2.26461">
        <ele>17.39999961853</ele>
        <time>2021-03-21T10:09:16.000Z</time>
      </trkpt>
      <trkpt lat="47.24825" lon="-2.26463">
        <ele>17.39999961853</ele>
        <time>2021-03-21T10:09:21.000Z</time>
      </trkpt>
      <trkpt lat="47.24831" lon="-2.26474">
        <ele>17.39999961853</ele>
        <time>2021-03-21T10:09:25.000Z</time>
      </trkpt>
      <trkpt lat="47.24836" lon="-2.26485">
        <ele>17.39999961853</ele>
        <time>2021-03-21T10:09:29.000Z</time>
      </trkpt>
      <trkpt lat="47.24839" lon="-2.26483">
        <ele>17.39999961853</ele>
        <time>2021-03-21T10:09:32.000Z</time>
      </trkpt>
      <trkpt lat="47.24841" lon="-2.2648">
        <ele>17.39999961853</ele>
        <time>2021-03-21T10:09:34.000Z</time>
      </trkpt>
      <trkpt lat="47.24841" lon="-2.26479">
        <ele>17.39999961853</ele>
        <time>2021-03-21T10:09:37.000Z</time>
      </trkpt>
      <trkpt lat="47.24841" lon="-2.26477">
        <ele>17.39999961853</ele>
        <time>2021-03-21T10:09:38.000Z</time>
      </trkpt>
      <trkpt lat="47.24843" lon="-2.26468">
        <ele>17.39999961853</ele>
        <time>2021-03-21T10:09:41.000Z</time>
      </trkpt>
      <trkpt lat="47.24855" lon="-2.26458">
        <ele>17.39999961853</ele>
        <time>2021-03-21T10:09:45.000Z</time>
      </trkpt>
      <trkpt lat="47.24859" lon="-2.26455">
        <ele>17.39999961853</ele>
        <time>2021-03-21T10:09:46.000Z</time>
      </trkpt>
      <trkpt lat="47.24873" lon="-2.26449">
        <ele>17.799999237061</ele>
        <time>2021-03-21T10:09:49.000Z</time>
      </trkpt>
      <trkpt lat="47.24877" lon="-2.26447">
        <ele>18.200000762939</ele>
        <time>2021-03-21T10:09:50.000Z</time>
      </trkpt>
      <trkpt lat="47.24882" lon="-2.26445">
        <ele>18.60000038147</ele>
        <time>2021-03-21T10:09:51.000Z</time>
      </trkpt>
      <trkpt lat="47.24887" lon="-2.26444">
        <ele>19</ele>
        <time>2021-03-21T10:09:52.000Z</time>
      </trkpt>
      <trkpt lat="47.24892" lon="-2.26443">
        <ele>19.39999961853</ele>
        <time>2021-03-21T10:09:53.000Z</time>
      </trkpt>
      <trkpt lat="47.24925" lon="-2.26431">
        <ele>19.39999961853</ele>
        <time>2021-03-21T10:10:00.000Z</time>
      </trkpt>
      <trkpt lat="47.24929" lon="-2.26428">
        <ele>19.39999961853</ele>
        <time>2021-03-21T10:10:01.000Z</time>
      </trkpt>
      <trkpt lat="47.24942" lon="-2.26423">
        <ele>19.39999961853</ele>
        <time>2021-03-21T10:10:04.000Z</time>
      </trkpt>
      <trkpt lat="47.24947" lon="-2.26424">
        <ele>19.39999961853</ele>
        <time>2021-03-21T10:10:05.000Z</time>
      </trkpt>
      <trkpt lat="47.24952" lon="-2.26424">
        <ele>19.39999961853</ele>
        <time>2021-03-21T10:10:06.000Z</time>
      </trkpt>
      <trkpt lat="47.24961" lon="-2.2642">
        <ele>19.39999961853</ele>
        <time>2021-03-21T10:10:08.000Z</time>
      </trkpt>
      <trkpt lat="47.24969" lon="-2.26401">
        <ele>19.39999961853</ele>
        <time>2021-03-21T10:10:11.000Z</time>
      </trkpt>
      <trkpt lat="47.24988" lon="-2.26383">
        <ele>19.39999961853</ele>
        <time>2021-03-21T10:10:15.000Z</time>
      </trkpt>
      <trkpt lat="47.25025" lon="-2.26359">
        <ele>19.39999961853</ele>
        <time>2021-03-21T10:10:21.000Z</time>
      </trkpt>
      <trkpt lat="47.25038" lon="-2.26352">
        <ele>19.39999961853</ele>
        <time>2021-03-21T10:10:23.000Z</time>
      </trkpt>
      <trkpt lat="47.25049" lon="-2.2634">
        <ele>19.39999961853</ele>
        <time>2021-03-21T10:10:25.000Z</time>
      </trkpt>
      <trkpt lat="47.25052" lon="-2.26331">
        <ele>19</ele>
        <time>2021-03-21T10:10:26.000Z</time>
      </trkpt>
      <trkpt lat="47.25054" lon="-2.26322">
        <ele>18</ele>
        <time>2021-03-21T10:10:27.000Z</time>
      </trkpt>
      <trkpt lat="47.25055" lon="-2.26313">
        <ele>17.60000038147</ele>
        <time>2021-03-21T10:10:28.000Z</time>
      </trkpt>
      <trkpt lat="47.25056" lon="-2.26303">
        <ele>17</ele>
        <time>2021-03-21T10:10:29.000Z</time>
      </trkpt>
      <trkpt lat="47.25061" lon="-2.26263">
        <ele>17</ele>
        <time>2021-03-21T10:10:33.000Z</time>
      </trkpt>
      <trkpt lat="47.25063" lon="-2.26254">
        <ele>17</ele>
        <time>2021-03-21T10:10:34.000Z</time>
      </trkpt>
      <trkpt lat="47.25073" lon="-2.26231">
        <ele>17</ele>
        <time>2021-03-21T10:10:37.000Z</time>
      </trkpt>
      <trkpt lat="47.25075" lon="-2.26223">
        <ele>17</ele>
        <time>2021-03-21T10:10:38.000Z</time>
      </trkpt>
      <trkpt lat="47.25077" lon="-2.26205">
        <ele>17</ele>
        <time>2021-03-21T10:10:40.000Z</time>
      </trkpt>
      <trkpt lat="47.25079" lon="-2.2614">
        <ele>17</ele>
        <time>2021-03-21T10:10:47.000Z</time>
      </trkpt>
      <trkpt lat="47.25079" lon="-2.26114">
        <ele>17</ele>
        <time>2021-03-21T10:10:50.000Z</time>
      </trkpt>
      <trkpt lat="47.25082" lon="-2.26097">
        <ele>17</ele>
        <time>2021-03-21T10:10:52.000Z</time>
      </trkpt>
      <trkpt lat="47.25083" lon="-2.26088">
        <ele>17</ele>
        <time>2021-03-21T10:10:53.000Z</time>
      </trkpt>
      <trkpt lat="47.25092" lon="-2.26035">
        <ele>17</ele>
        <time>2021-03-21T10:10:58.000Z</time>
      </trkpt>
      <trkpt lat="47.25094" lon="-2.26023">
        <ele>16.60000038147</ele>
        <time>2021-03-21T10:10:59.000Z</time>
      </trkpt>
      <trkpt lat="47.25097" lon="-2.26011">
        <ele>16.200000762939</ele>
        <time>2021-03-21T10:11:00.000Z</time>
      </trkpt>
      <trkpt lat="47.251" lon="-2.25999">
        <ele>15.800000190735</ele>
        <time>2021-03-21T10:11:01.000Z</time>
      </trkpt>
      <trkpt lat="47.25103" lon="-2.25987">
        <ele>15.39999961853</ele>
        <time>2021-03-21T10:11:02.000Z</time>
      </trkpt>
      <trkpt lat="47.25107" lon="-2.25977">
        <ele>15</ele>
        <time>2021-03-21T10:11:03.000Z</time>
      </trkpt>
      <trkpt lat="47.2511" lon="-2.25967">
        <ele>15</ele>
        <time>2021-03-21T10:11:04.000Z</time>
      </trkpt>
      <trkpt lat="47.25122" lon="-2.2594">
        <ele>15</ele>
        <time>2021-03-21T10:11:07.000Z</time>
      </trkpt>
      <trkpt lat="47.2513" lon="-2.25927">
        <ele>15</ele>
        <time>2021-03-21T10:11:09.000Z</time>
      </trkpt>
      <trkpt lat="47.25136" lon="-2.25921">
        <ele>14.60000038147</ele>
        <time>2021-03-21T10:11:11.000Z</time>
      </trkpt>
      <trkpt lat="47.25137" lon="-2.25919">
        <ele>14.199999809265</ele>
        <time>2021-03-21T10:11:12.000Z</time>
      </trkpt>
      <trkpt lat="47.25139" lon="-2.25917">
        <ele>13.60000038147</ele>
        <time>2021-03-21T10:11:13.000Z</time>
      </trkpt>
      <trkpt lat="47.2514" lon="-2.25917">
        <ele>13.199999809265</ele>
        <time>2021-03-21T10:11:14.000Z</time>
      </trkpt>
      <trkpt lat="47.25141" lon="-2.25916">
        <ele>12.800000190735</ele>
        <time>2021-03-21T10:11:15.000Z</time>
      </trkpt>
      <trkpt lat="47.25142" lon="-2.25915">
        <ele>12.800000190735</ele>
        <time>2021-03-21T10:11:17.000Z</time>
      </trkpt>
      <trkpt lat="47.25147" lon="-2.2591">
        <ele>12.800000190735</ele>
        <time>2021-03-21T10:11:22.000Z</time>
      </trkpt>
      <trkpt lat="47.25148" lon="-2.25905">
        <ele>12.800000190735</ele>
        <time>2021-03-21T10:11:24.000Z</time>
      </trkpt>
      <trkpt lat="47.25153" lon="-2.259">
        <ele>12.800000190735</ele>
        <time>2021-03-21T10:11:29.000Z</time>
      </trkpt>
      <trkpt lat="47.25149" lon="-2.25906">
        <ele>12.800000190735</ele>
        <time>2021-03-21T10:11:33.000Z</time>
      </trkpt>
      <trkpt lat="47.25148" lon="-2.25914">
        <ele>12.800000190735</ele>
        <time>2021-03-21T10:11:38.000Z</time>
      </trkpt>
      <trkpt lat="47.25152" lon="-2.25919">
        <ele>12.800000190735</ele>
        <time>2021-03-21T10:11:42.000Z</time>
      </trkpt>
      <trkpt lat="47.25153" lon="-2.2592">
        <ele>12.800000190735</ele>
        <time>2021-03-21T10:11:43.000Z</time>
      </trkpt>
      <trkpt lat="47.25155" lon="-2.2592">
        <ele>12.800000190735</ele>
        <time>2021-03-21T10:11:45.000Z</time>
      </trkpt>
      <trkpt lat="47.25161" lon="-2.25919">
        <ele>12.800000190735</ele>
        <time>2021-03-21T10:11:48.000Z</time>
      </trkpt>
      <trkpt lat="47.25171" lon="-2.25912">
        <ele>12.800000190735</ele>
        <time>2021-03-21T10:11:52.000Z</time>
      </trkpt>
      <trkpt lat="47.25176" lon="-2.25911">
        <ele>13.199999809265</ele>
        <time>2021-03-21T10:11:54.000Z</time>
      </trkpt>
      <trkpt lat="47.25179" lon="-2.25911">
        <ele>13.60000038147</ele>
        <time>2021-03-21T10:11:55.000Z</time>
      </trkpt>
      <trkpt lat="47.25181" lon="-2.2591">
        <ele>14</ele>
        <time>2021-03-21T10:11:56.000Z</time>
      </trkpt>
      <trkpt lat="47.25183" lon="-2.2591">
        <ele>14.39999961853</ele>
        <time>2021-03-21T10:11:57.000Z</time>
      </trkpt>
      <trkpt lat="47.25186" lon="-2.2591">
        <ele>14.800000190735</ele>
        <time>2021-03-21T10:11:58.000Z</time>
      </trkpt>
      <trkpt lat="47.25196" lon="-2.25912">
        <ele>14.800000190735</ele>
        <time>2021-03-21T10:12:02.000Z</time>
      </trkpt>
      <trkpt lat="47.25207" lon="-2.25921">
        <ele>14.800000190735</ele>
        <time>2021-03-21T10:12:07.000Z</time>
      </trkpt>
      <trkpt lat="47.25223" lon="-2.25929">
        <ele>14.800000190735</ele>
        <time>2021-03-21T10:12:13.000Z</time>
      </trkpt>
      <trkpt lat="47.25239" lon="-2.25933">
        <ele>14.800000190735</ele>
        <time>2021-03-21T10:12:18.000Z</time>
      </trkpt>
      <trkpt lat="47.25258" lon="-2.25938">
        <ele>14.800000190735</ele>
        <time>2021-03-21T10:12:24.000Z</time>
      </trkpt>
      <trkpt lat="47.25268" lon="-2.25949">
        <ele>14.800000190735</ele>
        <time>2021-03-21T10:12:28.000Z</time>
      </trkpt>
      <trkpt lat="47.25276" lon="-2.25978">
        <ele>14.800000190735</ele>
        <time>2021-03-21T10:12:33.000Z</time>
      </trkpt>
      <trkpt lat="47.25285" lon="-2.26021">
        <ele>14.800000190735</ele>
        <time>2021-03-21T10:12:40.000Z</time>
      </trkpt>
      <trkpt lat="47.25289" lon="-2.26026">
        <ele>14.800000190735</ele>
        <time>2021-03-21T10:12:42.000Z</time>
      </trkpt>
      <trkpt lat="47.25292" lon="-2.26026">
        <ele>14.800000190735</ele>
        <time>2021-03-21T10:12:43.000Z</time>
      </trkpt>
      <trkpt lat="47.25311" lon="-2.26021">
        <ele>14.800000190735</ele>
        <time>2021-03-21T10:12:49.000Z</time>
      </trkpt>
      <trkpt lat="47.25322" lon="-2.26026">
        <ele>14.800000190735</ele>
        <time>2021-03-21T10:12:54.000Z</time>
      </trkpt>
      <trkpt lat="47.25324" lon="-2.26028">
        <ele>14.800000190735</ele>
        <time>2021-03-21T10:12:56.000Z</time>
      </trkpt>
      <trkpt lat="47.25326" lon="-2.26034">
        <ele>14.800000190735</ele>
        <time>2021-03-21T10:12:59.000Z</time>
      </trkpt>
      <trkpt lat="47.25333" lon="-2.26032">
        <ele>14.800000190735</ele>
        <time>2021-03-21T10:13:03.000Z</time>
      </trkpt>
      <trkpt lat="47.2534" lon="-2.26026">
        <ele>14.800000190735</ele>
        <time>2021-03-21T10:13:05.000Z</time>
      </trkpt>
      <trkpt lat="47.25345" lon="-2.26021">
        <ele>14.800000190735</ele>
        <time>2021-03-21T10:13:07.000Z</time>
      </trkpt>
      <trkpt lat="47.25352" lon="-2.26017">
        <ele>14.39999961853</ele>
        <time>2021-03-21T10:13:09.000Z</time>
      </trkpt>
      <trkpt lat="47.25356" lon="-2.26016">
        <ele>14</ele>
        <time>2021-03-21T10:13:10.000Z</time>
      </trkpt>
      <trkpt lat="47.2536" lon="-2.26015">
        <ele>13.60000038147</ele>
        <time>2021-03-21T10:13:11.000Z</time>
      </trkpt>
      <trkpt lat="47.25364" lon="-2.26015">
        <ele>13.199999809265</ele>
        <time>2021-03-21T10:13:12.000Z</time>
      </trkpt>
      <trkpt lat="47.25368" lon="-2.26015">
        <ele>12.800000190735</ele>
        <time>2021-03-21T10:13:13.000Z</time>
      </trkpt>
      <trkpt lat="47.25372" lon="-2.26018">
        <ele>12.199999809265</ele>
        <time>2021-03-21T10:13:14.000Z</time>
      </trkpt>
      <trkpt lat="47.25375" lon="-2.26021">
        <ele>11.60000038147</ele>
        <time>2021-03-21T10:13:15.000Z</time>
      </trkpt>
      <trkpt lat="47.25378" lon="-2.26024">
        <ele>11.199999809265</ele>
        <time>2021-03-21T10:13:16.000Z</time>
      </trkpt>
      <trkpt lat="47.2538" lon="-2.2603">
        <ele>10.60000038147</ele>
        <time>2021-03-21T10:13:17.000Z</time>
      </trkpt>
      <trkpt lat="47.25381" lon="-2.26035">
        <ele>10</ele>
        <time>2021-03-21T10:13:18.000Z</time>
      </trkpt>
      <trkpt lat="47.25382" lon="-2.2604">
        <ele>10</ele>
        <time>2021-03-21T10:13:19.000Z</time>
      </trkpt>
      <trkpt lat="47.25383" lon="-2.26046">
        <ele>9.6000003814697</ele>
        <time>2021-03-21T10:13:20.000Z</time>
      </trkpt>
      <trkpt lat="47.25383" lon="-2.26054">
        <ele>9.1999998092651</ele>
        <time>2021-03-21T10:13:21.000Z</time>
      </trkpt>
      <trkpt lat="47.25383" lon="-2.26062">
        <ele>8.8000001907349</ele>
        <time>2021-03-21T10:13:22.000Z</time>
      </trkpt>
      <trkpt lat="47.25384" lon="-2.26069">
        <ele>8.3999996185303</ele>
        <time>2021-03-21T10:13:23.000Z</time>
      </trkpt>
      <trkpt lat="47.25385" lon="-2.26075">
        <ele>8</ele>
        <time>2021-03-21T10:13:24.000Z</time>
      </trkpt>
      <trkpt lat="47.25387" lon="-2.26088">
        <ele>8</ele>
        <time>2021-03-21T10:13:26.000Z</time>
      </trkpt>
      <trkpt lat="47.25387" lon="-2.26095">
        <ele>8</ele>
        <time>2021-03-21T10:13:27.000Z</time>
      </trkpt>
      <trkpt lat="47.25387" lon="-2.26107">
        <ele>8</ele>
        <time>2021-03-21T10:13:30.000Z</time>
      </trkpt>
      <trkpt lat="47.25386" lon="-2.26111">
        <ele>8</ele>
        <time>2021-03-21T10:13:31.000Z</time>
      </trkpt>
      <trkpt lat="47.25384" lon="-2.26122">
        <ele>8</ele>
        <time>2021-03-21T10:13:34.000Z</time>
      </trkpt>
      <trkpt lat="47.25383" lon="-2.26126">
        <ele>8.3999996185303</ele>
        <time>2021-03-21T10:13:35.000Z</time>
      </trkpt>
      <trkpt lat="47.25382" lon="-2.26132">
        <ele>8.8000001907349</ele>
        <time>2021-03-21T10:13:36.000Z</time>
      </trkpt>
      <trkpt lat="47.25381" lon="-2.26137">
        <ele>9.3999996185303</ele>
        <time>2021-03-21T10:13:37.000Z</time>
      </trkpt>
      <trkpt lat="47.25379" lon="-2.26142">
        <ele>9.8000001907349</ele>
        <time>2021-03-21T10:13:38.000Z</time>
      </trkpt>
      <trkpt lat="47.25378" lon="-2.26147">
        <ele>10.199999809265</ele>
        <time>2021-03-21T10:13:39.000Z</time>
      </trkpt>
      <trkpt lat="47.25373" lon="-2.26156">
        <ele>10.199999809265</ele>
        <time>2021-03-21T10:13:43.000Z</time>
      </trkpt>
      <trkpt lat="47.2537" lon="-2.26154">
        <ele>10.199999809265</ele>
        <time>2021-03-21T10:13:46.000Z</time>
      </trkpt>
      <trkpt lat="47.25367" lon="-2.26152">
        <ele>10.199999809265</ele>
        <time>2021-03-21T10:13:48.000Z</time>
      </trkpt>
      <trkpt lat="47.25364" lon="-2.2615">
        <ele>10.60000038147</ele>
        <time>2021-03-21T10:13:50.000Z</time>
      </trkpt>
      <trkpt lat="47.25363" lon="-2.2615">
        <ele>11</ele>
        <time>2021-03-21T10:13:51.000Z</time>
      </trkpt>
      <trkpt lat="47.25361" lon="-2.2615">
        <ele>11.60000038147</ele>
        <time>2021-03-21T10:13:52.000Z</time>
      </trkpt>
      <trkpt lat="47.2536" lon="-2.2615">
        <ele>12</ele>
        <time>2021-03-21T10:13:53.000Z</time>
      </trkpt>
      <trkpt lat="47.25359" lon="-2.26151">
        <ele>12.39999961853</ele>
        <time>2021-03-21T10:13:54.000Z</time>
      </trkpt>
      <trkpt lat="47.25357" lon="-2.26152">
        <ele>12.39999961853</ele>
        <time>2021-03-21T10:13:55.000Z</time>
      </trkpt>
      <trkpt lat="47.25353" lon="-2.26152">
        <ele>12.800000190735</ele>
        <time>2021-03-21T10:13:59.000Z</time>
      </trkpt>
      <trkpt lat="47.25352" lon="-2.26153">
        <ele>13.199999809265</ele>
        <time>2021-03-21T10:14:00.000Z</time>
      </trkpt>
      <trkpt lat="47.25351" lon="-2.26154">
        <ele>13.60000038147</ele>
        <time>2021-03-21T10:14:01.000Z</time>
      </trkpt>
      <trkpt lat="47.2535" lon="-2.26156">
        <ele>14</ele>
        <time>2021-03-21T10:14:02.000Z</time>
      </trkpt>
      <trkpt lat="47.2535" lon="-2.26157">
        <ele>14.39999961853</ele>
        <time>2021-03-21T10:14:03.000Z</time>
      </trkpt>
      <trkpt lat="47.25349" lon="-2.26159">
        <ele>14.39999961853</ele>
        <time>2021-03-21T10:14:04.000Z</time>
      </trkpt>
      <trkpt lat="47.25345" lon="-2.26161">
        <ele>14.39999961853</ele>
        <time>2021-03-21T10:14:08.000Z</time>
      </trkpt>
      <trkpt lat="47.25344" lon="-2.2616">
        <ele>14.39999961853</ele>
        <time>2021-03-21T10:14:09.000Z</time>
      </trkpt>
      <trkpt lat="47.25342" lon="-2.26158">
        <ele>15</ele>
        <time>2021-03-21T10:14:10.000Z</time>
      </trkpt>
      <trkpt lat="47.25341" lon="-2.26156">
        <ele>15.39999961853</ele>
        <time>2021-03-21T10:14:11.000Z</time>
      </trkpt>
      <trkpt lat="47.25341" lon="-2.26154">
        <ele>15.800000190735</ele>
        <time>2021-03-21T10:14:12.000Z</time>
      </trkpt>
      <trkpt lat="47.25341" lon="-2.26153">
        <ele>16.200000762939</ele>
        <time>2021-03-21T10:14:13.000Z</time>
      </trkpt>
      <trkpt lat="47.25341" lon="-2.26152">
        <ele>16.60000038147</ele>
        <time>2021-03-21T10:14:14.000Z</time>
      </trkpt>
      <trkpt lat="47.25342" lon="-2.26149">
        <ele>16.60000038147</ele>
        <time>2021-03-21T10:14:16.000Z</time>
      </trkpt>
      <trkpt lat="47.25342" lon="-2.26146">
        <ele>16.60000038147</ele>
        <time>2021-03-21T10:14:18.000Z</time>
      </trkpt>
      <trkpt lat="47.25344" lon="-2.26143">
        <ele>16.200000762939</ele>
        <time>2021-03-21T10:14:21.000Z</time>
      </trkpt>
      <trkpt lat="47.25345" lon="-2.26143">
        <ele>15.60000038147</ele>
        <time>2021-03-21T10:14:22.000Z</time>
      </trkpt>
      <trkpt lat="47.25346" lon="-2.26142">
        <ele>15.199999809265</ele>
        <time>2021-03-21T10:14:23.000Z</time>
      </trkpt>
      <trkpt lat="47.25347" lon="-2.26142">
        <ele>14.800000190735</ele>
        <time>2021-03-21T10:14:24.000Z</time>
      </trkpt>
      <trkpt lat="47.25349" lon="-2.26142">
        <ele>14.39999961853</ele>
        <time>2021-03-21T10:14:25.000Z</time>
      </trkpt>
      <trkpt lat="47.25351" lon="-2.26142">
        <ele>14.39999961853</ele>
        <time>2021-03-21T10:14:26.000Z</time>
      </trkpt>
      <trkpt lat="47.25362" lon="-2.26155">
        <ele>14.39999961853</ele>
        <time>2021-03-21T10:14:30.000Z</time>
      </trkpt>
      <trkpt lat="47.25367" lon="-2.26177">
        <ele>14.39999961853</ele>
        <time>2021-03-21T10:14:35.000Z</time>
      </trkpt>
      <trkpt lat="47.25376" lon="-2.26193">
        <ele>14.39999961853</ele>
        <time>2021-03-21T10:14:40.000Z</time>
      </trkpt>
      <trkpt lat="47.25386" lon="-2.26211">
        <ele>14.39999961853</ele>
        <time>2021-03-21T10:14:44.000Z</time>
      </trkpt>
      <trkpt lat="47.2539" lon="-2.26243">
        <ele>14.39999961853</ele>
        <time>2021-03-21T10:14:48.000Z</time>
      </trkpt>
      <trkpt lat="47.2539" lon="-2.26251">
        <ele>14.39999961853</ele>
        <time>2021-03-21T10:14:50.000Z</time>
      </trkpt>
      <trkpt lat="47.2539" lon="-2.26255">
        <ele>14.800000190735</ele>
        <time>2021-03-21T10:14:51.000Z</time>
      </trkpt>
      <trkpt lat="47.2539" lon="-2.26258">
        <ele>15.199999809265</ele>
        <time>2021-03-21T10:14:52.000Z</time>
      </trkpt>
      <trkpt lat="47.2539" lon="-2.26261">
        <ele>15.60000038147</ele>
        <time>2021-03-21T10:14:53.000Z</time>
      </trkpt>
      <trkpt lat="47.25391" lon="-2.26265">
        <ele>16</ele>
        <time>2021-03-21T10:14:54.000Z</time>
      </trkpt>
      <trkpt lat="47.25392" lon="-2.26271">
        <ele>16.39999961853</ele>
        <time>2021-03-21T10:14:55.000Z</time>
      </trkpt>
      <trkpt lat="47.25395" lon="-2.26287">
        <ele>16.39999961853</ele>
        <time>2021-03-21T10:14:58.000Z</time>
      </trkpt>
      <trkpt lat="47.25398" lon="-2.26299">
        <ele>16.39999961853</ele>
        <time>2021-03-21T10:15:01.000Z</time>
      </trkpt>
      <trkpt lat="47.25403" lon="-2.26309">
        <ele>16.39999961853</ele>
        <time>2021-03-21T10:15:04.000Z</time>
      </trkpt>
      <trkpt lat="47.25411" lon="-2.26334">
        <ele>16.39999961853</ele>
        <time>2021-03-21T10:15:09.000Z</time>
      </trkpt>
      <trkpt lat="47.25419" lon="-2.26354">
        <ele>16.39999961853</ele>
        <time>2021-03-21T10:15:13.000Z</time>
      </trkpt>
      <trkpt lat="47.25428" lon="-2.26374">
        <ele>16.39999961853</ele>
        <time>2021-03-21T10:15:16.000Z</time>
      </trkpt>
      <trkpt lat="47.25431" lon="-2.26382">
        <ele>16</ele>
        <time>2021-03-21T10:15:17.000Z</time>
      </trkpt>
      <trkpt lat="47.25432" lon="-2.26391">
        <ele>15.60000038147</ele>
        <time>2021-03-21T10:15:18.000Z</time>
      </trkpt>
      <trkpt lat="47.25433" lon="-2.264">
        <ele>15.199999809265</ele>
        <time>2021-03-21T10:15:19.000Z</time>
      </trkpt>
      <trkpt lat="47.25433" lon="-2.26408">
        <ele>14.800000190735</ele>
        <time>2021-03-21T10:15:20.000Z</time>
      </trkpt>
      <trkpt lat="47.25434" lon="-2.26414">
        <ele>14.39999961853</ele>
        <time>2021-03-21T10:15:21.000Z</time>
      </trkpt>
      <trkpt lat="47.25443" lon="-2.26422">
        <ele>14.39999961853</ele>
        <time>2021-03-21T10:15:24.000Z</time>
      </trkpt>
      <trkpt lat="47.25453" lon="-2.26431">
        <ele>14.39999961853</ele>
        <time>2021-03-21T10:15:27.000Z</time>
      </trkpt>
      <trkpt lat="47.25459" lon="-2.2645">
        <ele>14.39999961853</ele>
        <time>2021-03-21T10:15:30.000Z</time>
      </trkpt>
      <trkpt lat="47.25462" lon="-2.26459">
        <ele>14.39999961853</ele>
        <time>2021-03-21T10:15:31.000Z</time>
      </trkpt>
      <trkpt lat="47.25465" lon="-2.26467">
        <ele>14.39999961853</ele>
        <time>2021-03-21T10:15:32.000Z</time>
      </trkpt>
      <trkpt lat="47.25473" lon="-2.26483">
        <ele>14.39999961853</ele>
        <time>2021-03-21T10:15:35.000Z</time>
      </trkpt>
      <trkpt lat="47.25476" lon="-2.26492">
        <ele>14.800000190735</ele>
        <time>2021-03-21T10:15:37.000Z</time>
      </trkpt>
      <trkpt lat="47.25476" lon="-2.26496">
        <ele>15.199999809265</ele>
        <time>2021-03-21T10:15:38.000Z</time>
      </trkpt>
      <trkpt lat="47.25477" lon="-2.265">
        <ele>15.60000038147</ele>
        <time>2021-03-21T10:15:39.000Z</time>
      </trkpt>
      <trkpt lat="47.25477" lon="-2.26506">
        <ele>16.200000762939</ele>
        <time>2021-03-21T10:15:40.000Z</time>
      </trkpt>
      <trkpt lat="47.25478" lon="-2.26512">
        <ele>16.60000038147</ele>
        <time>2021-03-21T10:15:41.000Z</time>
      </trkpt>
      <trkpt lat="47.25478" lon="-2.26518">
        <ele>17</ele>
        <time>2021-03-21T10:15:42.000Z</time>
      </trkpt>
      <trkpt lat="47.25478" lon="-2.26524">
        <ele>17.39999961853</ele>
        <time>2021-03-21T10:15:43.000Z</time>
      </trkpt>
      <trkpt lat="47.25478" lon="-2.2653">
        <ele>18</ele>
        <time>2021-03-21T10:15:44.000Z</time>
      </trkpt>
      <trkpt lat="47.25479" lon="-2.26537">
        <ele>18.39999961853</ele>
        <time>2021-03-21T10:15:45.000Z</time>
      </trkpt>
      <trkpt lat="47.2548" lon="-2.26543">
        <ele>18.799999237061</ele>
        <time>2021-03-21T10:15:46.000Z</time>
      </trkpt>
      <trkpt lat="47.25484" lon="-2.26555">
        <ele>18.799999237061</ele>
        <time>2021-03-21T10:15:48.000Z</time>
      </trkpt>
      <trkpt lat="47.25486" lon="-2.26561">
        <ele>18.799999237061</ele>
        <time>2021-03-21T10:15:49.000Z</time>
      </trkpt>
      <trkpt lat="47.25488" lon="-2.26568">
        <ele>18.799999237061</ele>
        <time>2021-03-21T10:15:50.000Z</time>
      </trkpt>
      <trkpt lat="47.2549" lon="-2.26589">
        <ele>19.39999961853</ele>
        <time>2021-03-21T10:15:53.000Z</time>
      </trkpt>
      <trkpt lat="47.25489" lon="-2.26597">
        <ele>19.799999237061</ele>
        <time>2021-03-21T10:15:54.000Z</time>
      </trkpt>
      <trkpt lat="47.25489" lon="-2.26605">
        <ele>20.200000762939</ele>
        <time>2021-03-21T10:15:55.000Z</time>
      </trkpt>
      <trkpt lat="47.25488" lon="-2.26613">
        <ele>20.60000038147</ele>
        <time>2021-03-21T10:15:56.000Z</time>
      </trkpt>
      <trkpt lat="47.25488" lon="-2.26622">
        <ele>21.200000762939</ele>
        <time>2021-03-21T10:15:57.000Z</time>
      </trkpt>
      <trkpt lat="47.25487" lon="-2.26645">
        <ele>21.200000762939</ele>
        <time>2021-03-21T10:16:00.000Z</time>
      </trkpt>
      <trkpt lat="47.25487" lon="-2.26679">
        <ele>21.200000762939</ele>
        <time>2021-03-21T10:16:05.000Z</time>
      </trkpt>
      <trkpt lat="47.25484" lon="-2.26689">
        <ele>21.200000762939</ele>
        <time>2021-03-21T10:16:07.000Z</time>
      </trkpt>
      <trkpt lat="47.2548" lon="-2.26698">
        <ele>21.200000762939</ele>
        <time>2021-03-21T10:16:09.000Z</time>
      </trkpt>
      <trkpt lat="47.25476" lon="-2.26714">
        <ele>21.200000762939</ele>
        <time>2021-03-21T10:16:12.000Z</time>
      </trkpt>
      <trkpt lat="47.25478" lon="-2.26719">
        <ele>21.200000762939</ele>
        <time>2021-03-21T10:16:14.000Z</time>
      </trkpt>
      <trkpt lat="47.25481" lon="-2.26719">
        <ele>21.200000762939</ele>
        <time>2021-03-21T10:16:15.000Z</time>
      </trkpt>
      <trkpt lat="47.25483" lon="-2.26716">
        <ele>21.60000038147</ele>
        <time>2021-03-21T10:16:16.000Z</time>
      </trkpt>
      <trkpt lat="47.25486" lon="-2.26712">
        <ele>22</ele>
        <time>2021-03-21T10:16:17.000Z</time>
      </trkpt>
      <trkpt lat="47.25489" lon="-2.26707">
        <ele>22.39999961853</ele>
        <time>2021-03-21T10:16:18.000Z</time>
      </trkpt>
      <trkpt lat="47.25492" lon="-2.26703">
        <ele>22.799999237061</ele>
        <time>2021-03-21T10:16:19.000Z</time>
      </trkpt>
      <trkpt lat="47.25496" lon="-2.26699">
        <ele>23.200000762939</ele>
        <time>2021-03-21T10:16:20.000Z</time>
      </trkpt>
      <trkpt lat="47.25509" lon="-2.26683">
        <ele>23.200000762939</ele>
        <time>2021-03-21T10:16:24.000Z</time>
      </trkpt>
      <trkpt lat="47.2553" lon="-2.26651">
        <ele>23.60000038147</ele>
        <time>2021-03-21T10:16:31.000Z</time>
      </trkpt>
      <trkpt lat="47.25533" lon="-2.26647">
        <ele>24</ele>
        <time>2021-03-21T10:16:32.000Z</time>
      </trkpt>
      <trkpt lat="47.25537" lon="-2.26643">
        <ele>24.60000038147</ele>
        <time>2021-03-21T10:16:33.000Z</time>
      </trkpt>
      <trkpt lat="47.2554" lon="-2.2664">
        <ele>25</ele>
        <time>2021-03-21T10:16:34.000Z</time>
      </trkpt>
      <trkpt lat="47.25544" lon="-2.26636">
        <ele>25.39999961853</ele>
        <time>2021-03-21T10:16:35.000Z</time>
      </trkpt>
      <trkpt lat="47.25547" lon="-2.26632">
        <ele>25.39999961853</ele>
        <time>2021-03-21T10:16:36.000Z</time>
      </trkpt>
      <trkpt lat="47.2555" lon="-2.26628">
        <ele>25.39999961853</ele>
        <time>2021-03-21T10:16:37.000Z</time>
      </trkpt>
      <trkpt lat="47.25553" lon="-2.26625">
        <ele>25.799999237061</ele>
        <time>2021-03-21T10:16:38.000Z</time>
      </trkpt>
      <trkpt lat="47.25557" lon="-2.26622">
        <ele>26.200000762939</ele>
        <time>2021-03-21T10:16:39.000Z</time>
      </trkpt>
      <trkpt lat="47.25561" lon="-2.26619">
        <ele>26.60000038147</ele>
        <time>2021-03-21T10:16:40.000Z</time>
      </trkpt>
      <trkpt lat="47.25565" lon="-2.26618">
        <ele>27</ele>
        <time>2021-03-21T10:16:41.000Z</time>
      </trkpt>
      <trkpt lat="47.25569" lon="-2.26616">
        <ele>27.39999961853</ele>
        <time>2021-03-21T10:16:42.000Z</time>
      </trkpt>
      <trkpt lat="47.25594" lon="-2.26614">
        <ele>27.39999961853</ele>
        <time>2021-03-21T10:16:48.000Z</time>
      </trkpt>
      <trkpt lat="47.25598" lon="-2.26614">
        <ele>27.799999237061</ele>
        <time>2021-03-21T10:16:49.000Z</time>
      </trkpt>
      <trkpt lat="47.25602" lon="-2.26613">
        <ele>28.200000762939</ele>
        <time>2021-03-21T10:16:50.000Z</time>
      </trkpt>
      <trkpt lat="47.25606" lon="-2.26613">
        <ele>28.60000038147</ele>
        <time>2021-03-21T10:16:51.000Z</time>
      </trkpt>
      <trkpt lat="47.2561" lon="-2.26612">
        <ele>29</ele>
        <time>2021-03-21T10:16:52.000Z</time>
      </trkpt>
      <trkpt lat="47.25614" lon="-2.26612">
        <ele>29.39999961853</ele>
        <time>2021-03-21T10:16:53.000Z</time>
      </trkpt>
      <trkpt lat="47.25621" lon="-2.26612">
        <ele>29.39999961853</ele>
        <time>2021-03-21T10:16:55.000Z</time>
      </trkpt>
      <trkpt lat="47.25633" lon="-2.26609">
        <ele>29.39999961853</ele>
        <time>2021-03-21T10:17:00.000Z</time>
      </trkpt>
      <trkpt lat="47.25637" lon="-2.26606">
        <ele>29.39999961853</ele>
        <time>2021-03-21T10:17:04.000Z</time>
      </trkpt>
      <trkpt lat="47.25637" lon="-2.26605">
        <ele>29.39999961853</ele>
        <time>2021-03-21T10:17:05.000Z</time>
      </trkpt>
      <trkpt lat="47.25639" lon="-2.26601">
        <ele>29.39999961853</ele>
        <time>2021-03-21T10:17:09.000Z</time>
      </trkpt>
      <trkpt lat="47.25638" lon="-2.2658">
        <ele>29.39999961853</ele>
        <time>2021-03-21T10:17:13.000Z</time>
      </trkpt>
      <trkpt lat="47.25637" lon="-2.26547">
        <ele>29.39999961853</ele>
        <time>2021-03-21T10:17:19.000Z</time>
      </trkpt>
      <trkpt lat="47.25639" lon="-2.26515">
        <ele>29.39999961853</ele>
        <time>2021-03-21T10:17:24.000Z</time>
      </trkpt>
      <trkpt lat="47.2564" lon="-2.265">
        <ele>29.39999961853</ele>
        <time>2021-03-21T10:17:26.000Z</time>
      </trkpt>
      <trkpt lat="47.25642" lon="-2.26493">
        <ele>29.39999961853</ele>
        <time>2021-03-21T10:17:27.000Z</time>
      </trkpt>
      <trkpt lat="47.25652" lon="-2.26478">
        <ele>29.39999961853</ele>
        <time>2021-03-21T10:17:30.000Z</time>
      </trkpt>
      <trkpt lat="47.25662" lon="-2.26474">
        <ele>29.39999961853</ele>
        <time>2021-03-21T10:17:33.000Z</time>
      </trkpt>
      <trkpt lat="47.25671" lon="-2.26471">
        <ele>29.39999961853</ele>
        <time>2021-03-21T10:17:35.000Z</time>
      </trkpt>
      <trkpt lat="47.25677" lon="-2.26476">
        <ele>29.39999961853</ele>
        <time>2021-03-21T10:17:37.000Z</time>
      </trkpt>
      <trkpt lat="47.25679" lon="-2.26494">
        <ele>29.39999961853</ele>
        <time>2021-03-21T10:17:40.000Z</time>
      </trkpt>
      <trkpt lat="47.25679" lon="-2.265">
        <ele>29.39999961853</ele>
        <time>2021-03-21T10:17:41.000Z</time>
      </trkpt>
      <trkpt lat="47.25675" lon="-2.26543">
        <ele>29.39999961853</ele>
        <time>2021-03-21T10:17:47.000Z</time>
      </trkpt>
      <trkpt lat="47.25674" lon="-2.2657">
        <ele>29.39999961853</ele>
        <time>2021-03-21T10:17:52.000Z</time>
      </trkpt>
      <trkpt lat="47.25666" lon="-2.26592">
        <ele>29.39999961853</ele>
        <time>2021-03-21T10:17:57.000Z</time>
      </trkpt>
      <trkpt lat="47.25663" lon="-2.26603">
        <ele>29.39999961853</ele>
        <time>2021-03-21T10:17:59.000Z</time>
      </trkpt>
      <trkpt lat="47.25663" lon="-2.26615">
        <ele>29.39999961853</ele>
        <time>2021-03-21T10:18:01.000Z</time>
      </trkpt>
      <trkpt lat="47.25667" lon="-2.26629">
        <ele>29.39999961853</ele>
        <time>2021-03-21T10:18:04.000Z</time>
      </trkpt>
      <trkpt lat="47.25669" lon="-2.2663">
        <ele>29.39999961853</ele>
        <time>2021-03-21T10:18:05.000Z</time>
      </trkpt>
      <trkpt lat="47.25672" lon="-2.2663">
        <ele>29.39999961853</ele>
        <time>2021-03-21T10:18:09.000Z</time>
      </trkpt>
      <trkpt lat="47.25675" lon="-2.26631">
        <ele>29.39999961853</ele>
        <time>2021-03-21T10:18:13.000Z</time>
      </trkpt>
      <trkpt lat="47.25681" lon="-2.26634">
        <ele>29.39999961853</ele>
        <time>2021-03-21T10:18:15.000Z</time>
      </trkpt>
      <trkpt lat="47.25696" lon="-2.26635">
        <ele>29.39999961853</ele>
        <time>2021-03-21T10:18:19.000Z</time>
      </trkpt>
      <trkpt lat="47.257" lon="-2.26634">
        <ele>29.799999237061</ele>
        <time>2021-03-21T10:18:20.000Z</time>
      </trkpt>
      <trkpt lat="47.25704" lon="-2.26634">
        <ele>30.200000762939</ele>
        <time>2021-03-21T10:18:21.000Z</time>
      </trkpt>
      <trkpt lat="47.25709" lon="-2.26633">
        <ele>30.60000038147</ele>
        <time>2021-03-21T10:18:22.000Z</time>
      </trkpt>
      <trkpt lat="47.25714" lon="-2.26632">
        <ele>31</ele>
        <time>2021-03-21T10:18:23.000Z</time>
      </trkpt>
      <trkpt lat="47.25719" lon="-2.26631">
        <ele>31.39999961853</ele>
        <time>2021-03-21T10:18:24.000Z</time>
      </trkpt>
      <trkpt lat="47.25733" lon="-2.26628">
        <ele>31.39999961853</ele>
        <time>2021-03-21T10:18:27.000Z</time>
      </trkpt>
      <trkpt lat="47.25753" lon="-2.26621">
        <ele>31.39999961853</ele>
        <time>2021-03-21T10:18:32.000Z</time>
      </trkpt>
      <trkpt lat="47.25772" lon="-2.26618">
        <ele>31.39999961853</ele>
        <time>2021-03-21T10:18:37.000Z</time>
      </trkpt>
      <trkpt lat="47.2579" lon="-2.2662">
        <ele>31.39999961853</ele>
        <time>2021-03-21T10:18:42.000Z</time>
      </trkpt>
      <trkpt lat="47.25811" lon="-2.26623">
        <ele>31.39999961853</ele>
        <time>2021-03-21T10:18:46.000Z</time>
      </trkpt>
      <trkpt lat="47.2582" lon="-2.26635">
        <ele>31.39999961853</ele>
        <time>2021-03-21T10:18:49.000Z</time>
      </trkpt>
      <trkpt lat="47.25821" lon="-2.26639">
        <ele>31.39999961853</ele>
        <time>2021-03-21T10:18:50.000Z</time>
      </trkpt>
      <trkpt lat="47.25828" lon="-2.26655">
        <ele>31.39999961853</ele>
        <time>2021-03-21T10:18:54.000Z</time>
      </trkpt>
      <trkpt lat="47.25839" lon="-2.26667">
        <ele>31.39999961853</ele>
        <time>2021-03-21T10:18:58.000Z</time>
      </trkpt>
      <trkpt lat="47.25842" lon="-2.26665">
        <ele>31.39999961853</ele>
        <time>2021-03-21T10:18:59.000Z</time>
      </trkpt>
      <trkpt lat="47.2585" lon="-2.26661">
        <ele>31.39999961853</ele>
        <time>2021-03-21T10:19:01.000Z</time>
      </trkpt>
      <trkpt lat="47.25854" lon="-2.2666">
        <ele>31.39999961853</ele>
        <time>2021-03-21T10:19:03.000Z</time>
      </trkpt>
      <trkpt lat="47.25861" lon="-2.26652">
        <ele>31.39999961853</ele>
        <time>2021-03-21T10:19:06.000Z</time>
      </trkpt>
      <trkpt lat="47.25864" lon="-2.26649">
        <ele>31.39999961853</ele>
        <time>2021-03-21T10:19:07.000Z</time>
      </trkpt>
      <trkpt lat="47.25877" lon="-2.26646">
        <ele>31.39999961853</ele>
        <time>2021-03-21T10:19:10.000Z</time>
      </trkpt>
      <trkpt lat="47.25881" lon="-2.26647">
        <ele>31.39999961853</ele>
        <time>2021-03-21T10:19:11.000Z</time>
      </trkpt>
      <trkpt lat="47.25892" lon="-2.26659">
        <ele>31.39999961853</ele>
        <time>2021-03-21T10:19:14.000Z</time>
      </trkpt>
      <trkpt lat="47.25892" lon="-2.26681">
        <ele>31.39999961853</ele>
        <time>2021-03-21T10:19:17.000Z</time>
      </trkpt>
      <trkpt lat="47.25882" lon="-2.26696">
        <ele>31.39999961853</ele>
        <time>2021-03-21T10:19:20.000Z</time>
      </trkpt>
      <trkpt lat="47.25874" lon="-2.2671">
        <ele>31.39999961853</ele>
        <time>2021-03-21T10:19:24.000Z</time>
      </trkpt>
      <trkpt lat="47.25872" lon="-2.26717">
        <ele>31</ele>
        <time>2021-03-21T10:19:26.000Z</time>
      </trkpt>
      <trkpt lat="47.25876" lon="-2.26723">
        <ele>30.60000038147</ele>
        <time>2021-03-21T10:19:27.000Z</time>
      </trkpt>
      <trkpt lat="47.2588" lon="-2.26728">
        <ele>30.200000762939</ele>
        <time>2021-03-21T10:19:28.000Z</time>
      </trkpt>
      <trkpt lat="47.25884" lon="-2.26733">
        <ele>29.799999237061</ele>
        <time>2021-03-21T10:19:29.000Z</time>
      </trkpt>
      <trkpt lat="47.25888" lon="-2.26737">
        <ele>29.39999961853</ele>
        <time>2021-03-21T10:19:30.000Z</time>
      </trkpt>
      <trkpt lat="47.25898" lon="-2.26751">
        <ele>29.39999961853</ele>
        <time>2021-03-21T10:19:34.000Z</time>
      </trkpt>
      <trkpt lat="47.25908" lon="-2.2676">
        <ele>29.39999961853</ele>
        <time>2021-03-21T10:19:39.000Z</time>
      </trkpt>
      <trkpt lat="47.25917" lon="-2.26771">
        <ele>29.39999961853</ele>
        <time>2021-03-21T10:19:44.000Z</time>
      </trkpt>
      <trkpt lat="47.25922" lon="-2.26785">
        <ele>29.39999961853</ele>
        <time>2021-03-21T10:19:46.000Z</time>
      </trkpt>
      <trkpt lat="47.25926" lon="-2.26799">
        <ele>29.39999961853</ele>
        <time>2021-03-21T10:19:48.000Z</time>
      </trkpt>
      <trkpt lat="47.25929" lon="-2.26806">
        <ele>29.39999961853</ele>
        <time>2021-03-21T10:19:49.000Z</time>
      </trkpt>
      <trkpt lat="47.25936" lon="-2.26824">
        <ele>29</ele>
        <time>2021-03-21T10:19:52.000Z</time>
      </trkpt>
      <trkpt lat="47.25936" lon="-2.26828">
        <ele>28.60000038147</ele>
        <time>2021-03-21T10:19:53.000Z</time>
      </trkpt>
      <trkpt lat="47.25936" lon="-2.26832">
        <ele>28.200000762939</ele>
        <time>2021-03-21T10:19:54.000Z</time>
      </trkpt>
      <trkpt lat="47.25935" lon="-2.26835">
        <ele>27.799999237061</ele>
        <time>2021-03-21T10:19:55.000Z</time>
      </trkpt>
      <trkpt lat="47.25933" lon="-2.26837">
        <ele>27.39999961853</ele>
        <time>2021-03-21T10:19:56.000Z</time>
      </trkpt>
      <trkpt lat="47.25931" lon="-2.2683">
        <ele>27.39999961853</ele>
        <time>2021-03-21T10:19:59.000Z</time>
      </trkpt>
      <trkpt lat="47.25941" lon="-2.26821">
        <ele>27.39999961853</ele>
        <time>2021-03-21T10:20:02.000Z</time>
      </trkpt>
      <trkpt lat="47.25945" lon="-2.26818">
        <ele>27.39999961853</ele>
        <time>2021-03-21T10:20:03.000Z</time>
      </trkpt>
      <trkpt lat="47.2596" lon="-2.2681">
        <ele>27.39999961853</ele>
        <time>2021-03-21T10:20:06.000Z</time>
      </trkpt>
      <trkpt lat="47.25966" lon="-2.26809">
        <ele>27.39999961853</ele>
        <time>2021-03-21T10:20:07.000Z</time>
      </trkpt>
      <trkpt lat="47.25978" lon="-2.26807">
        <ele>27.39999961853</ele>
        <time>2021-03-21T10:20:09.000Z</time>
      </trkpt>
      <trkpt lat="47.25986" lon="-2.26817">
        <ele>27.39999961853</ele>
        <time>2021-03-21T10:20:11.000Z</time>
      </trkpt>
      <trkpt lat="47.25989" lon="-2.26838">
        <ele>27.39999961853</ele>
        <time>2021-03-21T10:20:14.000Z</time>
      </trkpt>
      <trkpt lat="47.2599" lon="-2.26855">
        <ele>27.39999961853</ele>
        <time>2021-03-21T10:20:16.000Z</time>
      </trkpt>
      <trkpt lat="47.25994" lon="-2.26888">
        <ele>27.39999961853</ele>
        <time>2021-03-21T10:20:20.000Z</time>
      </trkpt>
      <trkpt lat="47.25998" lon="-2.26897">
        <ele>27.39999961853</ele>
        <time>2021-03-21T10:20:21.000Z</time>
      </trkpt>
      <trkpt lat="47.26009" lon="-2.26921">
        <ele>27.39999961853</ele>
        <time>2021-03-21T10:20:24.000Z</time>
      </trkpt>
      <trkpt lat="47.26018" lon="-2.26934">
        <ele>27.39999961853</ele>
        <time>2021-03-21T10:20:26.000Z</time>
      </trkpt>
      <trkpt lat="47.26032" lon="-2.26952">
        <ele>27.39999961853</ele>
        <time>2021-03-21T10:20:29.000Z</time>
      </trkpt>
      <trkpt lat="47.26054" lon="-2.26981">
        <ele>27.39999961853</ele>
        <time>2021-03-21T10:20:34.000Z</time>
      </trkpt>
      <trkpt lat="47.26057" lon="-2.2699">
        <ele>27.39999961853</ele>
        <time>2021-03-21T10:20:35.000Z</time>
      </trkpt>
      <trkpt lat="47.26065" lon="-2.27006">
        <ele>27.39999961853</ele>
        <time>2021-03-21T10:20:37.000Z</time>
      </trkpt>
      <trkpt lat="47.26074" lon="-2.27032">
        <ele>27.39999961853</ele>
        <time>2021-03-21T10:20:40.000Z</time>
      </trkpt>
      <trkpt lat="47.26082" lon="-2.27061">
        <ele>27.39999961853</ele>
        <time>2021-03-21T10:20:43.000Z</time>
      </trkpt>
      <trkpt lat="47.26086" lon="-2.27082">
        <ele>27.39999961853</ele>
        <time>2021-03-21T10:20:45.000Z</time>
      </trkpt>
      <trkpt lat="47.26092" lon="-2.27124">
        <ele>27.39999961853</ele>
        <time>2021-03-21T10:20:49.000Z</time>
      </trkpt>
      <trkpt lat="47.26096" lon="-2.27145">
        <ele>27.39999961853</ele>
        <time>2021-03-21T10:20:51.000Z</time>
      </trkpt>
      <trkpt lat="47.26102" lon="-2.27163">
        <ele>27.39999961853</ele>
        <time>2021-03-21T10:20:53.000Z</time>
      </trkpt>
      <trkpt lat="47.26109" lon="-2.27182">
        <ele>27.39999961853</ele>
        <time>2021-03-21T10:20:55.000Z</time>
      </trkpt>
      <trkpt lat="47.26113" lon="-2.27191">
        <ele>27.39999961853</ele>
        <time>2021-03-21T10:20:56.000Z</time>
      </trkpt>
      <trkpt lat="47.26135" lon="-2.27239">
        <ele>27.39999961853</ele>
        <time>2021-03-21T10:21:02.000Z</time>
      </trkpt>
      <trkpt lat="47.26143" lon="-2.27264">
        <ele>27.39999961853</ele>
        <time>2021-03-21T10:21:05.000Z</time>
      </trkpt>
      <trkpt lat="47.26145" lon="-2.27281">
        <ele>27.39999961853</ele>
        <time>2021-03-21T10:21:07.000Z</time>
      </trkpt>
      <trkpt lat="47.26145" lon="-2.27288">
        <ele>27.39999961853</ele>
        <time>2021-03-21T10:21:08.000Z</time>
      </trkpt>
      <trkpt lat="47.26147" lon="-2.27303">
        <ele>27.39999961853</ele>
        <time>2021-03-21T10:21:10.000Z</time>
      </trkpt>
      <trkpt lat="47.2615" lon="-2.27309">
        <ele>27.39999961853</ele>
        <time>2021-03-21T10:21:11.000Z</time>
      </trkpt>
      <trkpt lat="47.26162" lon="-2.2732">
        <ele>27.39999961853</ele>
        <time>2021-03-21T10:21:14.000Z</time>
      </trkpt>
      <trkpt lat="47.26179" lon="-2.27317">
        <ele>27.39999961853</ele>
        <time>2021-03-21T10:21:17.000Z</time>
      </trkpt>
      <trkpt lat="47.26214" lon="-2.27313">
        <ele>27.39999961853</ele>
        <time>2021-03-21T10:21:23.000Z</time>
      </trkpt>
      <trkpt lat="47.26243" lon="-2.27317">
        <ele>27.39999961853</ele>
        <time>2021-03-21T10:21:28.000Z</time>
      </trkpt>
      <trkpt lat="47.26249" lon="-2.27319">
        <ele>27.39999961853</ele>
        <time>2021-03-21T10:21:29.000Z</time>
      </trkpt>
      <trkpt lat="47.26255" lon="-2.27319">
        <ele>27.39999961853</ele>
        <time>2021-03-21T10:21:30.000Z</time>
      </trkpt>
      <trkpt lat="47.26281" lon="-2.27319">
        <ele>27.39999961853</ele>
        <time>2021-03-21T10:21:34.000Z</time>
      </trkpt>
      <trkpt lat="47.26312" lon="-2.27324">
        <ele>27.39999961853</ele>
        <time>2021-03-21T10:21:39.000Z</time>
      </trkpt>
      <trkpt lat="47.26318" lon="-2.27325">
        <ele>27</ele>
        <time>2021-03-21T10:21:40.000Z</time>
      </trkpt>
      <trkpt lat="47.26324" lon="-2.27325">
        <ele>26.60000038147</ele>
        <time>2021-03-21T10:21:41.000Z</time>
      </trkpt>
      <trkpt lat="47.2633" lon="-2.27325">
        <ele>26.200000762939</ele>
        <time>2021-03-21T10:21:42.000Z</time>
      </trkpt>
      <trkpt lat="47.26335" lon="-2.27326">
        <ele>25.799999237061</ele>
        <time>2021-03-21T10:21:43.000Z</time>
      </trkpt>
      <trkpt lat="47.26341" lon="-2.27328">
        <ele>25.39999961853</ele>
        <time>2021-03-21T10:21:44.000Z</time>
      </trkpt>
      <trkpt lat="47.26346" lon="-2.27328">
        <ele>25.39999961853</ele>
        <time>2021-03-21T10:21:45.000Z</time>
      </trkpt>
      <trkpt lat="47.26385" lon="-2.27329">
        <ele>25.39999961853</ele>
        <time>2021-03-21T10:21:51.000Z</time>
      </trkpt>
      <trkpt lat="47.2641" lon="-2.27332">
        <ele>25.39999961853</ele>
        <time>2021-03-21T10:21:55.000Z</time>
      </trkpt>
      <trkpt lat="47.26422" lon="-2.27334">
        <ele>25.39999961853</ele>
        <time>2021-03-21T10:21:57.000Z</time>
      </trkpt>
      <trkpt lat="47.26427" lon="-2.27339">
        <ele>25.39999961853</ele>
        <time>2021-03-21T10:21:58.000Z</time>
      </trkpt>
      <trkpt lat="47.26435" lon="-2.2735">
        <ele>25.39999961853</ele>
        <time>2021-03-21T10:22:00.000Z</time>
      </trkpt>
      <trkpt lat="47.26439" lon="-2.27357">
        <ele>25.39999961853</ele>
        <time>2021-03-21T10:22:01.000Z</time>
      </trkpt>
      <trkpt lat="47.26443" lon="-2.27364">
        <ele>24.799999237061</ele>
        <time>2021-03-21T10:22:02.000Z</time>
      </trkpt>
      <trkpt lat="47.26446" lon="-2.27372">
        <ele>24.39999961853</ele>
        <time>2021-03-21T10:22:03.000Z</time>
      </trkpt>
      <trkpt lat="47.26448" lon="-2.27382">
        <ele>24</ele>
        <time>2021-03-21T10:22:04.000Z</time>
      </trkpt>
      <trkpt lat="47.26451" lon="-2.27392">
        <ele>23.39999961853</ele>
        <time>2021-03-21T10:22:05.000Z</time>
      </trkpt>
      <trkpt lat="47.26454" lon="-2.27402">
        <ele>23</ele>
        <time>2021-03-21T10:22:06.000Z</time>
      </trkpt>
      <trkpt lat="47.26464" lon="-2.27434">
        <ele>23</ele>
        <time>2021-03-21T10:22:09.000Z</time>
      </trkpt>
      <trkpt lat="47.26485" lon="-2.27512">
        <ele>23</ele>
        <time>2021-03-21T10:22:16.000Z</time>
      </trkpt>
      <trkpt lat="47.26488" lon="-2.27536">
        <ele>22</ele>
        <time>2021-03-21T10:22:18.000Z</time>
      </trkpt>
      <trkpt lat="47.2649" lon="-2.27549">
        <ele>21.60000038147</ele>
        <time>2021-03-21T10:22:19.000Z</time>
      </trkpt>
      <trkpt lat="47.26492" lon="-2.2756">
        <ele>21</ele>
        <time>2021-03-21T10:22:20.000Z</time>
      </trkpt>
      <trkpt lat="47.26494" lon="-2.27569">
        <ele>20.60000038147</ele>
        <time>2021-03-21T10:22:21.000Z</time>
      </trkpt>
      <trkpt lat="47.26496" lon="-2.27576">
        <ele>20.60000038147</ele>
        <time>2021-03-21T10:22:22.000Z</time>
      </trkpt>
      <trkpt lat="47.26501" lon="-2.27579">
        <ele>20</ele>
        <time>2021-03-21T10:22:23.000Z</time>
      </trkpt>
      <trkpt lat="47.26506" lon="-2.2758">
        <ele>19.60000038147</ele>
        <time>2021-03-21T10:22:24.000Z</time>
      </trkpt>
      <trkpt lat="47.26512" lon="-2.27578">
        <ele>19.200000762939</ele>
        <time>2021-03-21T10:22:25.000Z</time>
      </trkpt>
      <trkpt lat="47.26519" lon="-2.27576">
        <ele>18.799999237061</ele>
        <time>2021-03-21T10:22:26.000Z</time>
      </trkpt>
      <trkpt lat="47.26525" lon="-2.27573">
        <ele>18.39999961853</ele>
        <time>2021-03-21T10:22:27.000Z</time>
      </trkpt>
      <trkpt lat="47.26537" lon="-2.27564">
        <ele>18.39999961853</ele>
        <time>2021-03-21T10:22:29.000Z</time>
      </trkpt>
      <trkpt lat="47.26561" lon="-2.27537">
        <ele>18.39999961853</ele>
        <time>2021-03-21T10:22:34.000Z</time>
      </trkpt>
      <trkpt lat="47.26575" lon="-2.27513">
        <ele>18.39999961853</ele>
        <time>2021-03-21T10:22:38.000Z</time>
      </trkpt>
      <trkpt lat="47.26578" lon="-2.27506">
        <ele>18.39999961853</ele>
        <time>2021-03-21T10:22:39.000Z</time>
      </trkpt>
      <trkpt lat="47.26586" lon="-2.27482">
        <ele>18.39999961853</ele>
        <time>2021-03-21T10:22:42.000Z</time>
      </trkpt>
      <trkpt lat="47.2659" lon="-2.27476">
        <ele>19.200000762939</ele>
        <time>2021-03-21T10:22:43.000Z</time>
      </trkpt>
      <trkpt lat="47.26593" lon="-2.2747">
        <ele>19.60000038147</ele>
        <time>2021-03-21T10:22:44.000Z</time>
      </trkpt>
      <trkpt lat="47.26597" lon="-2.27465">
        <ele>20.200000762939</ele>
        <time>2021-03-21T10:22:45.000Z</time>
      </trkpt>
      <trkpt lat="47.26601" lon="-2.27459">
        <ele>20.60000038147</ele>
        <time>2021-03-21T10:22:46.000Z</time>
      </trkpt>
      <trkpt lat="47.26619" lon="-2.27439">
        <ele>20.60000038147</ele>
        <time>2021-03-21T10:22:50.000Z</time>
      </trkpt>
      <trkpt lat="47.26647" lon="-2.27411">
        <ele>20.60000038147</ele>
        <time>2021-03-21T10:22:56.000Z</time>
      </trkpt>
      <trkpt lat="47.26678" lon="-2.2738">
        <ele>20.60000038147</ele>
        <time>2021-03-21T10:23:02.000Z</time>
      </trkpt>
      <trkpt lat="47.26684" lon="-2.27377">
        <ele>20.60000038147</ele>
        <time>2021-03-21T10:23:03.000Z</time>
      </trkpt>
      <trkpt lat="47.26721" lon="-2.27358">
        <ele>20.60000038147</ele>
        <time>2021-03-21T10:23:10.000Z</time>
      </trkpt>
      <trkpt lat="47.26733" lon="-2.27357">
        <ele>20.60000038147</ele>
        <time>2021-03-21T10:23:13.000Z</time>
      </trkpt>
      <trkpt lat="47.26736" lon="-2.2736">
        <ele>20.60000038147</ele>
        <time>2021-03-21T10:23:14.000Z</time>
      </trkpt>
      <trkpt lat="47.26748" lon="-2.27382">
        <ele>20.60000038147</ele>
        <time>2021-03-21T10:23:19.000Z</time>
      </trkpt>
      <trkpt lat="47.26751" lon="-2.27402">
        <ele>20.60000038147</ele>
        <time>2021-03-21T10:23:22.000Z</time>
      </trkpt>
      <trkpt lat="47.26755" lon="-2.27413">
        <ele>20.60000038147</ele>
        <time>2021-03-21T10:23:24.000Z</time>
      </trkpt>
      <trkpt lat="47.26769" lon="-2.27415">
        <ele>20.60000038147</ele>
        <time>2021-03-21T10:23:27.000Z</time>
      </trkpt>
      <trkpt lat="47.26774" lon="-2.27415">
        <ele>20.60000038147</ele>
        <time>2021-03-21T10:23:28.000Z</time>
      </trkpt>
      <trkpt lat="47.26801" lon="-2.27414">
        <ele>20.200000762939</ele>
        <time>2021-03-21T10:23:33.000Z</time>
      </trkpt>
      <trkpt lat="47.26806" lon="-2.27413">
        <ele>19.799999237061</ele>
        <time>2021-03-21T10:23:34.000Z</time>
      </trkpt>
      <trkpt lat="47.26811" lon="-2.27413">
        <ele>19.39999961853</ele>
        <time>2021-03-21T10:23:35.000Z</time>
      </trkpt>
      <trkpt lat="47.26817" lon="-2.27412">
        <ele>18.799999237061</ele>
        <time>2021-03-21T10:23:36.000Z</time>
      </trkpt>
      <trkpt lat="47.26821" lon="-2.27412">
        <ele>18.39999961853</ele>
        <time>2021-03-21T10:23:37.000Z</time>
      </trkpt>
      <trkpt lat="47.26837" lon="-2.27408">
        <ele>18.39999961853</ele>
        <time>2021-03-21T10:23:40.000Z</time>
      </trkpt>
      <trkpt lat="47.26853" lon="-2.27399">
        <ele>18.39999961853</ele>
        <time>2021-03-21T10:23:43.000Z</time>
      </trkpt>
      <trkpt lat="47.26868" lon="-2.2739">
        <ele>18.39999961853</ele>
        <time>2021-03-21T10:23:46.000Z</time>
      </trkpt>
      <trkpt lat="47.26874" lon="-2.27387">
        <ele>18</ele>
        <time>2021-03-21T10:23:47.000Z</time>
      </trkpt>
      <trkpt lat="47.2688" lon="-2.27384">
        <ele>17.60000038147</ele>
        <time>2021-03-21T10:23:48.000Z</time>
      </trkpt>
      <trkpt lat="47.26886" lon="-2.27381">
        <ele>17.200000762939</ele>
        <time>2021-03-21T10:23:49.000Z</time>
      </trkpt>
      <trkpt lat="47.26891" lon="-2.27378">
        <ele>16.799999237061</ele>
        <time>2021-03-21T10:23:50.000Z</time>
      </trkpt>
      <trkpt lat="47.26896" lon="-2.27374">
        <ele>16.39999961853</ele>
        <time>2021-03-21T10:23:51.000Z</time>
      </trkpt>
      <trkpt lat="47.26901" lon="-2.27371">
        <ele>16</ele>
        <time>2021-03-21T10:23:52.000Z</time>
      </trkpt>
      <trkpt lat="47.26904" lon="-2.27368">
        <ele>15.39999961853</ele>
        <time>2021-03-21T10:23:53.000Z</time>
      </trkpt>
      <trkpt lat="47.26908" lon="-2.27364">
        <ele>15</ele>
        <time>2021-03-21T10:23:54.000Z</time>
      </trkpt>
      <trkpt lat="47.26911" lon="-2.27358">
        <ele>14.60000038147</ele>
        <time>2021-03-21T10:23:55.000Z</time>
      </trkpt>
      <trkpt lat="47.26912" lon="-2.27354">
        <ele>14.199999809265</ele>
        <time>2021-03-21T10:23:56.000Z</time>
      </trkpt>
      <trkpt lat="47.26913" lon="-2.27345">
        <ele>14.199999809265</ele>
        <time>2021-03-21T10:23:58.000Z</time>
      </trkpt>
      <trkpt lat="47.26919" lon="-2.27326">
        <ele>14.199999809265</ele>
        <time>2021-03-21T10:24:04.000Z</time>
      </trkpt>
      <trkpt lat="47.26921" lon="-2.2732">
        <ele>13.800000190735</ele>
        <time>2021-03-21T10:24:06.000Z</time>
      </trkpt>
      <trkpt lat="47.26922" lon="-2.27318">
        <ele>13.39999961853</ele>
        <time>2021-03-21T10:24:07.000Z</time>
      </trkpt>
      <trkpt lat="47.26922" lon="-2.27315">
        <ele>13</ele>
        <time>2021-03-21T10:24:08.000Z</time>
      </trkpt>
      <trkpt lat="47.26922" lon="-2.27313">
        <ele>12.60000038147</ele>
        <time>2021-03-21T10:24:09.000Z</time>
      </trkpt>
      <trkpt lat="47.26923" lon="-2.2731">
        <ele>12.199999809265</ele>
        <time>2021-03-21T10:24:10.000Z</time>
      </trkpt>
      <trkpt lat="47.26924" lon="-2.27298">
        <ele>12.199999809265</ele>
        <time>2021-03-21T10:24:14.000Z</time>
      </trkpt>
      <trkpt lat="47.26923" lon="-2.27289">
        <ele>12.60000038147</ele>
        <time>2021-03-21T10:24:18.000Z</time>
      </trkpt>
      <trkpt lat="47.26924" lon="-2.27286">
        <ele>13</ele>
        <time>2021-03-21T10:24:19.000Z</time>
      </trkpt>
      <trkpt lat="47.26926" lon="-2.27282">
        <ele>13.39999961853</ele>
        <time>2021-03-21T10:24:20.000Z</time>
      </trkpt>
      <trkpt lat="47.26927" lon="-2.27277">
        <ele>14.199999809265</ele>
        <time>2021-03-21T10:24:21.000Z</time>
      </trkpt>
      <trkpt lat="47.26929" lon="-2.27269">
        <ele>14.199999809265</ele>
        <time>2021-03-21T10:24:23.000Z</time>
      </trkpt>
      <trkpt lat="47.26935" lon="-2.27258">
        <ele>14.199999809265</ele>
        <time>2021-03-21T10:24:26.000Z</time>
      </trkpt>
      <trkpt lat="47.26941" lon="-2.27255">
        <ele>14.199999809265</ele>
        <time>2021-03-21T10:24:28.000Z</time>
      </trkpt>
      <trkpt lat="47.26947" lon="-2.27249">
        <ele>13.800000190735</ele>
        <time>2021-03-21T10:24:30.000Z</time>
      </trkpt>
      <trkpt lat="47.2695" lon="-2.27246">
        <ele>13.39999961853</ele>
        <time>2021-03-21T10:24:31.000Z</time>
      </trkpt>
      <trkpt lat="47.26954" lon="-2.27241">
        <ele>13</ele>
        <time>2021-03-21T10:24:32.000Z</time>
      </trkpt>
      <trkpt lat="47.26956" lon="-2.27237">
        <ele>12.39999961853</ele>
        <time>2021-03-21T10:24:33.000Z</time>
      </trkpt>
      <trkpt lat="47.26959" lon="-2.27232">
        <ele>12</ele>
        <time>2021-03-21T10:24:34.000Z</time>
      </trkpt>
      <trkpt lat="47.26961" lon="-2.27216">
        <ele>12</ele>
        <time>2021-03-21T10:24:37.000Z</time>
      </trkpt>
      <trkpt lat="47.26961" lon="-2.27211">
        <ele>12</ele>
        <time>2021-03-21T10:24:38.000Z</time>
      </trkpt>
      <trkpt lat="47.26959" lon="-2.27192">
        <ele>12</ele>
        <time>2021-03-21T10:24:43.000Z</time>
      </trkpt>
      <trkpt lat="47.26966" lon="-2.2718">
        <ele>12</ele>
        <time>2021-03-21T10:24:49.000Z</time>
      </trkpt>
      <trkpt lat="47.26968" lon="-2.27175">
        <ele>12</ele>
        <time>2021-03-21T10:24:51.000Z</time>
      </trkpt>
      <trkpt lat="47.26969" lon="-2.27174">
        <ele>12</ele>
        <time>2021-03-21T10:24:53.000Z</time>
      </trkpt>
      <trkpt lat="47.26985" lon="-2.27171">
        <ele>12</ele>
        <time>2021-03-21T10:24:58.000Z</time>
      </trkpt>
      <trkpt lat="47.26998" lon="-2.27162">
        <ele>12</ele>
        <time>2021-03-21T10:25:03.000Z</time>
      </trkpt>
      <trkpt lat="47.27002" lon="-2.27162">
        <ele>12</ele>
        <time>2021-03-21T10:25:04.000Z</time>
      </trkpt>
      <trkpt lat="47.27005" lon="-2.27166">
        <ele>12</ele>
        <time>2021-03-21T10:25:06.000Z</time>
      </trkpt>
      <trkpt lat="47.2701" lon="-2.27171">
        <ele>12</ele>
        <time>2021-03-21T10:25:11.000Z</time>
      </trkpt>
      <trkpt lat="47.27015" lon="-2.27157">
        <ele>12</ele>
        <time>2021-03-21T10:25:16.000Z</time>
      </trkpt>
      <trkpt lat="47.27019" lon="-2.27154">
        <ele>12</ele>
        <time>2021-03-21T10:25:18.000Z</time>
      </trkpt>
      <trkpt lat="47.27022" lon="-2.27153">
        <ele>11.60000038147</ele>
        <time>2021-03-21T10:25:19.000Z</time>
      </trkpt>
      <trkpt lat="47.27024" lon="-2.27152">
        <ele>11.199999809265</ele>
        <time>2021-03-21T10:25:20.000Z</time>
      </trkpt>
      <trkpt lat="47.27028" lon="-2.27148">
        <ele>10.800000190735</ele>
        <time>2021-03-21T10:25:21.000Z</time>
      </trkpt>
      <trkpt lat="47.27031" lon="-2.27144">
        <ele>10.199999809265</ele>
        <time>2021-03-21T10:25:22.000Z</time>
      </trkpt>
      <trkpt lat="47.27033" lon="-2.2714">
        <ele>9.8000001907349</ele>
        <time>2021-03-21T10:25:23.000Z</time>
      </trkpt>
      <trkpt lat="47.27036" lon="-2.27133">
        <ele>9.8000001907349</ele>
        <time>2021-03-21T10:25:25.000Z</time>
      </trkpt>
      <trkpt lat="47.27034" lon="-2.27126">
        <ele>9.8000001907349</ele>
        <time>2021-03-21T10:25:27.000Z</time>
      </trkpt>
      <trkpt lat="47.27031" lon="-2.27121">
        <ele>9.8000001907349</ele>
        <time>2021-03-21T10:25:28.000Z</time>
      </trkpt>
      <trkpt lat="47.27015" lon="-2.27092">
        <ele>10.39999961853</ele>
        <time>2021-03-21T10:25:33.000Z</time>
      </trkpt>
      <trkpt lat="47.27013" lon="-2.27085">
        <ele>10.800000190735</ele>
        <time>2021-03-21T10:25:34.000Z</time>
      </trkpt>
      <trkpt lat="47.27011" lon="-2.27078">
        <ele>11.60000038147</ele>
        <time>2021-03-21T10:25:35.000Z</time>
      </trkpt>
      <trkpt lat="47.27009" lon="-2.27071">
        <ele>12</ele>
        <time>2021-03-21T10:25:36.000Z</time>
      </trkpt>
      <trkpt lat="47.26996" lon="-2.2704">
        <ele>12</ele>
        <time>2021-03-21T10:25:41.000Z</time>
      </trkpt>
      <trkpt lat="47.26977" lon="-2.27017">
        <ele>12</ele>
        <time>2021-03-21T10:25:46.000Z</time>
      </trkpt>
      <trkpt lat="47.26972" lon="-2.27012">
        <ele>12</ele>
        <time>2021-03-21T10:25:47.000Z</time>
      </trkpt>
      <trkpt lat="47.26965" lon="-2.27004">
        <ele>12</ele>
        <time>2021-03-21T10:25:49.000Z</time>
      </trkpt>
      <trkpt lat="47.2696" lon="-2.26995">
        <ele>11.60000038147</ele>
        <time>2021-03-21T10:25:51.000Z</time>
      </trkpt>
      <trkpt lat="47.26958" lon="-2.26989">
        <ele>11.199999809265</ele>
        <time>2021-03-21T10:25:52.000Z</time>
      </trkpt>
      <trkpt lat="47.26957" lon="-2.26982">
        <ele>10.800000190735</ele>
        <time>2021-03-21T10:25:53.000Z</time>
      </trkpt>
      <trkpt lat="47.26957" lon="-2.26976">
        <ele>10.39999961853</ele>
        <time>2021-03-21T10:25:54.000Z</time>
      </trkpt>
      <trkpt lat="47.26958" lon="-2.2697">
        <ele>10</ele>
        <time>2021-03-21T10:25:55.000Z</time>
      </trkpt>
      <trkpt lat="47.26959" lon="-2.26964">
        <ele>10</ele>
        <time>2021-03-21T10:25:56.000Z</time>
      </trkpt>
      <trkpt lat="47.26964" lon="-2.26929">
        <ele>10</ele>
        <time>2021-03-21T10:26:01.000Z</time>
      </trkpt>
      <trkpt lat="47.26965" lon="-2.26916">
        <ele>10</ele>
        <time>2021-03-21T10:26:03.000Z</time>
      </trkpt>
      <trkpt lat="47.26964" lon="-2.26902">
        <ele>10</ele>
        <time>2021-03-21T10:26:05.000Z</time>
      </trkpt>
      <trkpt lat="47.26963" lon="-2.2689">
        <ele>10</ele>
        <time>2021-03-21T10:26:07.000Z</time>
      </trkpt>
      <trkpt lat="47.26959" lon="-2.26861">
        <ele>9.6000003814697</ele>
        <time>2021-03-21T10:26:12.000Z</time>
      </trkpt>
      <trkpt lat="47.26959" lon="-2.26854">
        <ele>9.1999998092651</ele>
        <time>2021-03-21T10:26:13.000Z</time>
      </trkpt>
      <trkpt lat="47.26957" lon="-2.26848">
        <ele>8.8000001907349</ele>
        <time>2021-03-21T10:26:14.000Z</time>
      </trkpt>
      <trkpt lat="47.26956" lon="-2.26842">
        <ele>8.3999996185303</ele>
        <time>2021-03-21T10:26:15.000Z</time>
      </trkpt>
      <trkpt lat="47.26956" lon="-2.26835">
        <ele>8</ele>
        <time>2021-03-21T10:26:16.000Z</time>
      </trkpt>
      <trkpt lat="47.26957" lon="-2.26829">
        <ele>8</ele>
        <time>2021-03-21T10:26:17.000Z</time>
      </trkpt>
      <trkpt lat="47.26959" lon="-2.26823">
        <ele>8</ele>
        <time>2021-03-21T10:26:18.000Z</time>
      </trkpt>
      <trkpt lat="47.26974" lon="-2.26804">
        <ele>8</ele>
        <time>2021-03-21T10:26:22.000Z</time>
      </trkpt>
      <trkpt lat="47.26987" lon="-2.2679">
        <ele>8</ele>
        <time>2021-03-21T10:26:26.000Z</time>
      </trkpt>
      <trkpt lat="47.26994" lon="-2.26788">
        <ele>8</ele>
        <time>2021-03-21T10:26:29.000Z</time>
      </trkpt>
      <trkpt lat="47.27006" lon="-2.26777">
        <ele>8</ele>
        <time>2021-03-21T10:26:34.000Z</time>
      </trkpt>
      <trkpt lat="47.27012" lon="-2.26763">
        <ele>8</ele>
        <time>2021-03-21T10:26:38.000Z</time>
      </trkpt>
      <trkpt lat="47.27019" lon="-2.26754">
        <ele>8</ele>
        <time>2021-03-21T10:26:42.000Z</time>
      </trkpt>
      <trkpt lat="47.27025" lon="-2.26747">
        <ele>8</ele>
        <time>2021-03-21T10:26:45.000Z</time>
      </trkpt>
      <trkpt lat="47.27029" lon="-2.26743">
        <ele>8</ele>
        <time>2021-03-21T10:26:47.000Z</time>
      </trkpt>
      <trkpt lat="47.2703" lon="-2.26739">
        <ele>7</ele>
        <time>2021-03-21T10:26:49.000Z</time>
      </trkpt>
      <trkpt lat="47.27032" lon="-2.26734">
        <ele>6.5999999046326</ele>
        <time>2021-03-21T10:26:50.000Z</time>
      </trkpt>
      <trkpt lat="47.27033" lon="-2.26728">
        <ele>6.1999998092651</ele>
        <time>2021-03-21T10:26:51.000Z</time>
      </trkpt>
      <trkpt lat="47.27033" lon="-2.26722">
        <ele>5.8000001907349</ele>
        <time>2021-03-21T10:26:52.000Z</time>
      </trkpt>
      <trkpt lat="47.27037" lon="-2.26701">
        <ele>5.8000001907349</ele>
        <time>2021-03-21T10:26:55.000Z</time>
      </trkpt>
      <trkpt lat="47.27035" lon="-2.2668">
        <ele>5.8000001907349</ele>
        <time>2021-03-21T10:26:58.000Z</time>
      </trkpt>
      <trkpt lat="47.27033" lon="-2.26666">
        <ele>5.8000001907349</ele>
        <time>2021-03-21T10:27:00.000Z</time>
      </trkpt>
      <trkpt lat="47.27034" lon="-2.26658">
        <ele>5.8000001907349</ele>
        <time>2021-03-21T10:27:01.000Z</time>
      </trkpt>
      <trkpt lat="47.27035" lon="-2.26644">
        <ele>5.8000001907349</ele>
        <time>2021-03-21T10:27:03.000Z</time>
      </trkpt>
      <trkpt lat="47.2703" lon="-2.26632">
        <ele>5.8000001907349</ele>
        <time>2021-03-21T10:27:05.000Z</time>
      </trkpt>
      <trkpt lat="47.27024" lon="-2.26622">
        <ele>5.8000001907349</ele>
        <time>2021-03-21T10:27:07.000Z</time>
      </trkpt>
      <trkpt lat="47.27012" lon="-2.26604">
        <ele>5.8000001907349</ele>
        <time>2021-03-21T10:27:10.000Z</time>
      </trkpt>
      <trkpt lat="47.27008" lon="-2.26597">
        <ele>6.1999998092651</ele>
        <time>2021-03-21T10:27:11.000Z</time>
      </trkpt>
      <trkpt lat="47.27005" lon="-2.26591">
        <ele>6.5999999046326</ele>
        <time>2021-03-21T10:27:12.000Z</time>
      </trkpt>
      <trkpt lat="47.27001" lon="-2.26585">
        <ele>7</ele>
        <time>2021-03-21T10:27:13.000Z</time>
      </trkpt>
      <trkpt lat="47.26997" lon="-2.26581">
        <ele>7.8000001907349</ele>
        <time>2021-03-21T10:27:14.000Z</time>
      </trkpt>
      <trkpt lat="47.26986" lon="-2.26567">
        <ele>7.8000001907349</ele>
        <time>2021-03-21T10:27:17.000Z</time>
      </trkpt>
      <trkpt lat="47.26976" lon="-2.26542">
        <ele>7.8000001907349</ele>
        <time>2021-03-21T10:27:21.000Z</time>
      </trkpt>
      <trkpt lat="47.26975" lon="-2.26536">
        <ele>7.8000001907349</ele>
        <time>2021-03-21T10:27:22.000Z</time>
      </trkpt>
      <trkpt lat="47.26969" lon="-2.26514">
        <ele>8.1999998092651</ele>
        <time>2021-03-21T10:27:26.000Z</time>
      </trkpt>
      <trkpt lat="47.26969" lon="-2.26511">
        <ele>8.6000003814697</ele>
        <time>2021-03-21T10:27:27.000Z</time>
      </trkpt>
      <trkpt lat="47.2697" lon="-2.26508">
        <ele>9.1999998092651</ele>
        <time>2021-03-21T10:27:28.000Z</time>
      </trkpt>
      <trkpt lat="47.2697" lon="-2.26506">
        <ele>9.6000003814697</ele>
        <time>2021-03-21T10:27:29.000Z</time>
      </trkpt>
      <trkpt lat="47.26971" lon="-2.26504">
        <ele>10</ele>
        <time>2021-03-21T10:27:30.000Z</time>
      </trkpt>
      <trkpt lat="47.26976" lon="-2.26495">
        <ele>10</ele>
        <time>2021-03-21T10:27:33.000Z</time>
      </trkpt>
      <trkpt lat="47.26979" lon="-2.26489">
        <ele>10</ele>
        <time>2021-03-21T10:27:34.000Z</time>
      </trkpt>
      <trkpt lat="47.26985" lon="-2.26479">
        <ele>10</ele>
        <time>2021-03-21T10:27:36.000Z</time>
      </trkpt>
      <trkpt lat="47.26989" lon="-2.26473">
        <ele>10</ele>
        <time>2021-03-21T10:27:37.000Z</time>
      </trkpt>
      <trkpt lat="47.27013" lon="-2.26435">
        <ele>10</ele>
        <time>2021-03-21T10:27:44.000Z</time>
      </trkpt>
      <trkpt lat="47.27017" lon="-2.26431">
        <ele>10</ele>
        <time>2021-03-21T10:27:45.000Z</time>
      </trkpt>
      <trkpt lat="47.27042" lon="-2.26394">
        <ele>10</ele>
        <time>2021-03-21T10:27:52.000Z</time>
      </trkpt>
      <trkpt lat="47.2707" lon="-2.26353">
        <ele>10</ele>
        <time>2021-03-21T10:27:59.000Z</time>
      </trkpt>
      <trkpt lat="47.27099" lon="-2.26312">
        <ele>10</ele>
        <time>2021-03-21T10:28:06.000Z</time>
      </trkpt>
      <trkpt lat="47.27135" lon="-2.2626">
        <ele>10</ele>
        <time>2021-03-21T10:28:14.000Z</time>
      </trkpt>
      <trkpt lat="47.27177" lon="-2.26208">
        <ele>10</ele>
        <time>2021-03-21T10:28:22.000Z</time>
      </trkpt>
      <trkpt lat="47.27183" lon="-2.26202">
        <ele>10</ele>
        <time>2021-03-21T10:28:23.000Z</time>
      </trkpt>
      <trkpt lat="47.27226" lon="-2.26169">
        <ele>9.6000003814697</ele>
        <time>2021-03-21T10:28:30.000Z</time>
      </trkpt>
      <trkpt lat="47.27233" lon="-2.26164">
        <ele>9.1999998092651</ele>
        <time>2021-03-21T10:28:31.000Z</time>
      </trkpt>
      <trkpt lat="47.27241" lon="-2.2616">
        <ele>8.6000003814697</ele>
        <time>2021-03-21T10:28:32.000Z</time>
      </trkpt>
      <trkpt lat="47.27248" lon="-2.26156">
        <ele>8.1999998092651</ele>
        <time>2021-03-21T10:28:33.000Z</time>
      </trkpt>
      <trkpt lat="47.27256" lon="-2.26152">
        <ele>7.8000001907349</ele>
        <time>2021-03-21T10:28:34.000Z</time>
      </trkpt>
      <trkpt lat="47.2727" lon="-2.26145">
        <ele>7.8000001907349</ele>
        <time>2021-03-21T10:28:36.000Z</time>
      </trkpt>
      <trkpt lat="47.27321" lon="-2.26126">
        <ele>7.8000001907349</ele>
        <time>2021-03-21T10:28:43.000Z</time>
      </trkpt>
      <trkpt lat="47.2735" lon="-2.2612">
        <ele>7.8000001907349</ele>
        <time>2021-03-21T10:28:47.000Z</time>
      </trkpt>
      <trkpt lat="47.27363" lon="-2.26131">
        <ele>7.8000001907349</ele>
        <time>2021-03-21T10:28:49.000Z</time>
      </trkpt>
      <trkpt lat="47.27378" lon="-2.26156">
        <ele>7.8000001907349</ele>
        <time>2021-03-21T10:28:52.000Z</time>
      </trkpt>
      <trkpt lat="47.27419" lon="-2.26222">
        <ele>7.8000001907349</ele>
        <time>2021-03-21T10:29:00.000Z</time>
      </trkpt>
      <trkpt lat="47.27436" lon="-2.26247">
        <ele>7.4000000953674</ele>
        <time>2021-03-21T10:29:03.000Z</time>
      </trkpt>
      <trkpt lat="47.27442" lon="-2.26254">
        <ele>7</ele>
        <time>2021-03-21T10:29:04.000Z</time>
      </trkpt>
      <trkpt lat="47.27449" lon="-2.26261">
        <ele>6.5999999046326</ele>
        <time>2021-03-21T10:29:05.000Z</time>
      </trkpt>
      <trkpt lat="47.27457" lon="-2.26267">
        <ele>6.1999998092651</ele>
        <time>2021-03-21T10:29:06.000Z</time>
      </trkpt>
      <trkpt lat="47.27464" lon="-2.26273">
        <ele>5.8000001907349</ele>
        <time>2021-03-21T10:29:07.000Z</time>
      </trkpt>
      <trkpt lat="47.27489" lon="-2.26285">
        <ele>5.8000001907349</ele>
        <time>2021-03-21T10:29:10.000Z</time>
      </trkpt>
      <trkpt lat="47.27497" lon="-2.26287">
        <ele>5.8000001907349</ele>
        <time>2021-03-21T10:29:11.000Z</time>
      </trkpt>
      <trkpt lat="47.27515" lon="-2.2629">
        <ele>5.1999998092651</ele>
        <time>2021-03-21T10:29:13.000Z</time>
      </trkpt>
      <trkpt lat="47.27524" lon="-2.2629">
        <ele>4.8000001907349</ele>
        <time>2021-03-21T10:29:14.000Z</time>
      </trkpt>
      <trkpt lat="47.27533" lon="-2.2629">
        <ele>4.4000000953674</ele>
        <time>2021-03-21T10:29:15.000Z</time>
      </trkpt>
      <trkpt lat="47.27541" lon="-2.26289">
        <ele>4</ele>
        <time>2021-03-21T10:29:16.000Z</time>
      </trkpt>
      <trkpt lat="47.2755" lon="-2.26288">
        <ele>3.5999999046326</ele>
        <time>2021-03-21T10:29:17.000Z</time>
      </trkpt>
      <trkpt lat="47.27575" lon="-2.26286">
        <ele>3.5999999046326</ele>
        <time>2021-03-21T10:29:20.000Z</time>
      </trkpt>
      <trkpt lat="47.276" lon="-2.26287">
        <ele>3.5999999046326</ele>
        <time>2021-03-21T10:29:23.000Z</time>
      </trkpt>
      <trkpt lat="47.27616" lon="-2.26294">
        <ele>3.5999999046326</ele>
        <time>2021-03-21T10:29:25.000Z</time>
      </trkpt>
      <trkpt lat="47.27629" lon="-2.26302">
        <ele>3.2000000476837</ele>
        <time>2021-03-21T10:29:27.000Z</time>
      </trkpt>
      <trkpt lat="47.27635" lon="-2.26309">
        <ele>2.5999999046326</ele>
        <time>2021-03-21T10:29:28.000Z</time>
      </trkpt>
      <trkpt lat="47.2764" lon="-2.26315">
        <ele>2.2000000476837</ele>
        <time>2021-03-21T10:29:29.000Z</time>
      </trkpt>
      <trkpt lat="47.27646" lon="-2.26323">
        <ele>1.7999999523163</ele>
        <time>2021-03-21T10:29:30.000Z</time>
      </trkpt>
      <trkpt lat="47.2765" lon="-2.26329">
        <ele>1.2000000476837</ele>
        <time>2021-03-21T10:29:31.000Z</time>
      </trkpt>
      <trkpt lat="47.27658" lon="-2.26338">
        <ele>1.2000000476837</ele>
        <time>2021-03-21T10:29:33.000Z</time>
      </trkpt>
      <trkpt lat="47.2766" lon="-2.26337">
        <ele>1.2000000476837</ele>
        <time>2021-03-21T10:29:34.000Z</time>
      </trkpt>
      <trkpt lat="47.27663" lon="-2.2633">
        <ele>1.2000000476837</ele>
        <time>2021-03-21T10:29:35.000Z</time>
      </trkpt>
      <trkpt lat="47.27662" lon="-2.2631">
        <ele>1.2000000476837</ele>
        <time>2021-03-21T10:29:38.000Z</time>
      </trkpt>
      <trkpt lat="47.27658" lon="-2.26279">
        <ele>1.2000000476837</ele>
        <time>2021-03-21T10:29:44.000Z</time>
      </trkpt>
      <trkpt lat="47.27653" lon="-2.26258">
        <ele>1.2000000476837</ele>
        <time>2021-03-21T10:29:51.000Z</time>
      </trkpt>
      <trkpt lat="47.27645" lon="-2.26238">
        <ele>1.2000000476837</ele>
        <time>2021-03-21T10:29:56.000Z</time>
      </trkpt>
      <trkpt lat="47.27634" lon="-2.26219">
        <ele>1.2000000476837</ele>
        <time>2021-03-21T10:30:00.000Z</time>
      </trkpt>
      <trkpt lat="47.27632" lon="-2.26212">
        <ele>1.2000000476837</ele>
        <time>2021-03-21T10:30:01.000Z</time>
      </trkpt>
      <trkpt lat="47.27627" lon="-2.26187">
        <ele>1.2000000476837</ele>
        <time>2021-03-21T10:30:05.000Z</time>
      </trkpt>
      <trkpt lat="47.27625" lon="-2.26184">
        <ele>1.2000000476837</ele>
        <time>2021-03-21T10:30:06.000Z</time>
      </trkpt>
      <trkpt lat="47.27623" lon="-2.26175">
        <ele>1.2000000476837</ele>
        <time>2021-03-21T10:30:08.000Z</time>
      </trkpt>
      <trkpt lat="47.2763" lon="-2.26168">
        <ele>1.2000000476837</ele>
        <time>2021-03-21T10:30:11.000Z</time>
      </trkpt>
      <trkpt lat="47.27637" lon="-2.26165">
        <ele>1.2000000476837</ele>
        <time>2021-03-21T10:30:13.000Z</time>
      </trkpt>
      <trkpt lat="47.27641" lon="-2.26161">
        <ele>1.2000000476837</ele>
        <time>2021-03-21T10:30:14.000Z</time>
      </trkpt>
      <trkpt lat="47.27649" lon="-2.26152">
        <ele>1.2000000476837</ele>
        <time>2021-03-21T10:30:16.000Z</time>
      </trkpt>
      <trkpt lat="47.27658" lon="-2.26144">
        <ele>1.2000000476837</ele>
        <time>2021-03-21T10:30:18.000Z</time>
      </trkpt>
      <trkpt lat="47.27661" lon="-2.26139">
        <ele>1.2000000476837</ele>
        <time>2021-03-21T10:30:19.000Z</time>
      </trkpt>
      <trkpt lat="47.27668" lon="-2.2613">
        <ele>1.2000000476837</ele>
        <time>2021-03-21T10:30:21.000Z</time>
      </trkpt>
      <trkpt lat="47.2769" lon="-2.26105">
        <ele>1.2000000476837</ele>
        <time>2021-03-21T10:30:27.000Z</time>
      </trkpt>
      <trkpt lat="47.27694" lon="-2.26102">
        <ele>1.2000000476837</ele>
        <time>2021-03-21T10:30:28.000Z</time>
      </trkpt>
      <trkpt lat="47.27703" lon="-2.26091">
        <ele>1.2000000476837</ele>
        <time>2021-03-21T10:30:30.000Z</time>
      </trkpt>
      <trkpt lat="47.27708" lon="-2.26086">
        <ele>1.2000000476837</ele>
        <time>2021-03-21T10:30:31.000Z</time>
      </trkpt>
      <trkpt lat="47.27724" lon="-2.26077">
        <ele>1.2000000476837</ele>
        <time>2021-03-21T10:30:34.000Z</time>
      </trkpt>
      <trkpt lat="47.27736" lon="-2.26055">
        <ele>1.2000000476837</ele>
        <time>2021-03-21T10:30:38.000Z</time>
      </trkpt>
      <trkpt lat="47.27741" lon="-2.26043">
        <ele>1.2000000476837</ele>
        <time>2021-03-21T10:30:40.000Z</time>
      </trkpt>
      <trkpt lat="47.27748" lon="-2.26026">
        <ele>1.2000000476837</ele>
        <time>2021-03-21T10:30:43.000Z</time>
      </trkpt>
      <trkpt lat="47.27759" lon="-2.26">
        <ele>1.2000000476837</ele>
        <time>2021-03-21T10:30:48.000Z</time>
      </trkpt>
      <trkpt lat="47.27762" lon="-2.25997">
        <ele>1.2000000476837</ele>
        <time>2021-03-21T10:30:49.000Z</time>
      </trkpt>
      <trkpt lat="47.27775" lon="-2.25986">
        <ele>0.80000001192093</ele>
        <time>2021-03-21T10:30:53.000Z</time>
      </trkpt>
      <trkpt lat="47.27778" lon="-2.25983">
        <ele>0.40000000596046</ele>
        <time>2021-03-21T10:30:54.000Z</time>
      </trkpt>
      <trkpt lat="47.27781" lon="-2.2598">
        <ele>14</ele>
        <time>2021-03-21T10:30:55.000Z</time>
      </trkpt>
      <trkpt lat="47.27784" lon="-2.25979">
        <ele>-0.80000001192093</ele>
        <time>2021-03-21T10:30:56.000Z</time>
      </trkpt>
      <trkpt lat="47.27786" lon="-2.25977">
        <ele>-0.80000001192093</ele>
        <time>2021-03-21T10:30:57.000Z</time>
      </trkpt>
      <trkpt lat="47.27787" lon="-2.25974">
        <ele>-0.80000001192093</ele>
        <time>2021-03-21T10:30:58.000Z</time>
      </trkpt>
      <trkpt lat="47.27787" lon="-2.25958">
        <ele>-0.80000001192093</ele>
        <time>2021-03-21T10:31:01.000Z</time>
      </trkpt>
      <trkpt lat="47.27783" lon="-2.25944">
        <ele>-0.80000001192093</ele>
        <time>2021-03-21T10:31:03.000Z</time>
      </trkpt>
      <trkpt lat="47.27776" lon="-2.25925">
        <ele>-0.80000001192093</ele>
        <time>2021-03-21T10:31:06.000Z</time>
      </trkpt>
      <trkpt lat="47.27769" lon="-2.25914">
        <ele>-0.80000001192093</ele>
        <time>2021-03-21T10:31:08.000Z</time>
      </trkpt>
      <trkpt lat="47.2776" lon="-2.25893">
        <ele>-0.80000001192093</ele>
        <time>2021-03-21T10:31:11.000Z</time>
      </trkpt>
      <trkpt lat="47.27757" lon="-2.25885">
        <ele>-0.80000001192093</ele>
        <time>2021-03-21T10:31:12.000Z</time>
      </trkpt>
      <trkpt lat="47.27748" lon="-2.25864">
        <ele>-0.80000001192093</ele>
        <time>2021-03-21T10:31:15.000Z</time>
      </trkpt>
      <trkpt lat="47.27743" lon="-2.25859">
        <ele>-0.80000001192093</ele>
        <time>2021-03-21T10:31:16.000Z</time>
      </trkpt>
      <trkpt lat="47.27726" lon="-2.25853">
        <ele>-0.80000001192093</ele>
        <time>2021-03-21T10:31:19.000Z</time>
      </trkpt>
      <trkpt lat="47.27703" lon="-2.25845">
        <ele>-0.80000001192093</ele>
        <time>2021-03-21T10:31:23.000Z</time>
      </trkpt>
      <trkpt lat="47.27682" lon="-2.2583">
        <ele>-0.80000001192093</ele>
        <time>2021-03-21T10:31:28.000Z</time>
      </trkpt>
      <trkpt lat="47.27679" lon="-2.25806">
        <ele>-0.80000001192093</ele>
        <time>2021-03-21T10:31:33.000Z</time>
      </trkpt>
      <trkpt lat="47.27672" lon="-2.25777">
        <ele>-0.80000001192093</ele>
        <time>2021-03-21T10:31:38.000Z</time>
      </trkpt>
      <trkpt lat="47.27663" lon="-2.25743">
        <ele>-0.80000001192093</ele>
        <time>2021-03-21T10:31:44.000Z</time>
      </trkpt>
      <trkpt lat="47.27659" lon="-2.2574">
        <ele>-0.80000001192093</ele>
        <time>2021-03-21T10:31:45.000Z</time>
      </trkpt>
      <trkpt lat="47.27655" lon="-2.25732">
        <ele>-0.80000001192093</ele>
        <time>2021-03-21T10:31:48.000Z</time>
      </trkpt>
      <trkpt lat="47.27654" lon="-2.25717">
        <ele>-0.80000001192093</ele>
        <time>2021-03-21T10:31:52.000Z</time>
      </trkpt>
      <trkpt lat="47.27651" lon="-2.25697">
        <ele>-0.80000001192093</ele>
        <time>2021-03-21T10:31:56.000Z</time>
      </trkpt>
      <trkpt lat="47.2765" lon="-2.25692">
        <ele>-0.80000001192093</ele>
        <time>2021-03-21T10:31:57.000Z</time>
      </trkpt>
      <trkpt lat="47.27648" lon="-2.2568">
        <ele>-0.80000001192093</ele>
        <time>2021-03-21T10:32:01.000Z</time>
      </trkpt>
      <trkpt lat="47.27645" lon="-2.25664">
        <ele>-0.80000001192093</ele>
        <time>2021-03-21T10:32:06.000Z</time>
      </trkpt>
      <trkpt lat="47.27634" lon="-2.25651">
        <ele>-0.80000001192093</ele>
        <time>2021-03-21T10:32:10.000Z</time>
      </trkpt>
      <trkpt lat="47.27617" lon="-2.25641">
        <ele>-0.80000001192093</ele>
        <time>2021-03-21T10:32:14.000Z</time>
      </trkpt>
      <trkpt lat="47.27613" lon="-2.25639">
        <ele>-0.80000001192093</ele>
        <time>2021-03-21T10:32:15.000Z</time>
      </trkpt>
      <trkpt lat="47.27599" lon="-2.25633">
        <ele>-0.80000001192093</ele>
        <time>2021-03-21T10:32:19.000Z</time>
      </trkpt>
      <trkpt lat="47.27592" lon="-2.25625">
        <ele>-0.80000001192093</ele>
        <time>2021-03-21T10:32:22.000Z</time>
      </trkpt>
      <trkpt lat="47.2759" lon="-2.25623">
        <ele>-0.80000001192093</ele>
        <time>2021-03-21T10:32:23.000Z</time>
      </trkpt>
      <trkpt lat="47.27576" lon="-2.25615">
        <ele>-0.80000001192093</ele>
        <time>2021-03-21T10:32:28.000Z</time>
      </trkpt>
      <trkpt lat="47.2757" lon="-2.25611">
        <ele>-0.80000001192093</ele>
        <time>2021-03-21T10:32:30.000Z</time>
      </trkpt>
      <trkpt lat="47.27568" lon="-2.25604">
        <ele>-0.80000001192093</ele>
        <time>2021-03-21T10:32:32.000Z</time>
      </trkpt>
      <trkpt lat="47.27565" lon="-2.25589">
        <ele>-0.80000001192093</ele>
        <time>2021-03-21T10:32:35.000Z</time>
      </trkpt>
      <trkpt lat="47.27561" lon="-2.25573">
        <ele>-0.80000001192093</ele>
        <time>2021-03-21T10:32:38.000Z</time>
      </trkpt>
      <trkpt lat="47.27551" lon="-2.25535">
        <ele>-0.80000001192093</ele>
        <time>2021-03-21T10:32:44.000Z</time>
      </trkpt>
      <trkpt lat="47.27544" lon="-2.25515">
        <ele>-0.80000001192093</ele>
        <time>2021-03-21T10:32:47.000Z</time>
      </trkpt>
      <trkpt lat="47.27536" lon="-2.25497">
        <ele>-0.80000001192093</ele>
        <time>2021-03-21T10:32:50.000Z</time>
      </trkpt>
      <trkpt lat="47.27529" lon="-2.25485">
        <ele>-0.80000001192093</ele>
        <time>2021-03-21T10:32:52.000Z</time>
      </trkpt>
      <trkpt lat="47.2752" lon="-2.25475">
        <ele>-0.80000001192093</ele>
        <time>2021-03-21T10:32:54.000Z</time>
      </trkpt>
      <trkpt lat="47.27505" lon="-2.25462">
        <ele>-0.80000001192093</ele>
        <time>2021-03-21T10:32:57.000Z</time>
      </trkpt>
      <trkpt lat="47.27493" lon="-2.25457">
        <ele>-0.80000001192093</ele>
        <time>2021-03-21T10:32:59.000Z</time>
      </trkpt>
      <trkpt lat="47.27476" lon="-2.25457">
        <ele>-0.80000001192093</ele>
        <time>2021-03-21T10:33:02.000Z</time>
      </trkpt>
      <trkpt lat="47.2747" lon="-2.25458">
        <ele>-0.80000001192093</ele>
        <time>2021-03-21T10:33:03.000Z</time>
      </trkpt>
      <trkpt lat="47.27458" lon="-2.25454">
        <ele>-0.80000001192093</ele>
        <time>2021-03-21T10:33:05.000Z</time>
      </trkpt>
      <trkpt lat="47.27439" lon="-2.25438">
        <ele>-0.80000001192093</ele>
        <time>2021-03-21T10:33:09.000Z</time>
      </trkpt>
      <trkpt lat="47.27435" lon="-2.25434">
        <ele>-0.80000001192093</ele>
        <time>2021-03-21T10:33:10.000Z</time>
      </trkpt>
      <trkpt lat="47.27417" lon="-2.25413">
        <ele>-0.80000001192093</ele>
        <time>2021-03-21T10:33:15.000Z</time>
      </trkpt>
      <trkpt lat="47.2741" lon="-2.25396">
        <ele>-0.80000001192093</ele>
        <time>2021-03-21T10:33:19.000Z</time>
      </trkpt>
      <trkpt lat="47.27403" lon="-2.25382">
        <ele>-0.80000001192093</ele>
        <time>2021-03-21T10:33:22.000Z</time>
      </trkpt>
      <trkpt lat="47.27402" lon="-2.25377">
        <ele>-0.40000000596046</ele>
        <time>2021-03-21T10:33:23.000Z</time>
      </trkpt>
      <trkpt lat="47.27401" lon="-2.25371">
        <ele>16.2</ele>
        <time>2021-03-21T10:33:24.000Z</time>
      </trkpt>
      <trkpt lat="47.274" lon="-2.25365">
        <ele>0.80000001192093</ele>
        <time>2021-03-21T10:33:25.000Z</time>
      </trkpt>
      <trkpt lat="47.274" lon="-2.25361">
        <ele>1.2000000476837</ele>
        <time>2021-03-21T10:33:26.000Z</time>
      </trkpt>
      <trkpt lat="47.27401" lon="-2.25358">
        <ele>1.2000000476837</ele>
        <time>2021-03-21T10:33:27.000Z</time>
      </trkpt>
      <trkpt lat="47.27404" lon="-2.2536">
        <ele>1.2000000476837</ele>
        <time>2021-03-21T10:33:30.000Z</time>
      </trkpt>
      <trkpt lat="47.2741" lon="-2.25375">
        <ele>1.2000000476837</ele>
        <time>2021-03-21T10:33:34.000Z</time>
      </trkpt>
      <trkpt lat="47.27417" lon="-2.25387">
        <ele>1.2000000476837</ele>
        <time>2021-03-21T10:33:38.000Z</time>
      </trkpt>
      <trkpt lat="47.27418" lon="-2.25387">
        <ele>1.2000000476837</ele>
        <time>2021-03-21T10:33:39.000Z</time>
      </trkpt>
      <trkpt lat="47.27421" lon="-2.25376">
        <ele>1.2000000476837</ele>
        <time>2021-03-21T10:33:43.000Z</time>
      </trkpt>
      <trkpt lat="47.27416" lon="-2.25364">
        <ele>1.2000000476837</ele>
        <time>2021-03-21T10:33:47.000Z</time>
      </trkpt>
      <trkpt lat="47.27415" lon="-2.25361">
        <ele>1.2000000476837</ele>
        <time>2021-03-21T10:33:48.000Z</time>
      </trkpt>
      <trkpt lat="47.27411" lon="-2.2535">
        <ele>1.2000000476837</ele>
        <time>2021-03-21T10:33:52.000Z</time>
      </trkpt>
      <trkpt lat="47.27411" lon="-2.25329">
        <ele>1.2000000476837</ele>
        <time>2021-03-21T10:33:58.000Z</time>
      </trkpt>
      <trkpt lat="47.27411" lon="-2.2532">
        <ele>1.2000000476837</ele>
        <time>2021-03-21T10:34:02.000Z</time>
      </trkpt>
      <trkpt lat="47.27415" lon="-2.25333">
        <ele>1.2000000476837</ele>
        <time>2021-03-21T10:34:05.000Z</time>
      </trkpt>
      <trkpt lat="47.27417" lon="-2.25338">
        <ele>1.2000000476837</ele>
        <time>2021-03-21T10:34:06.000Z</time>
      </trkpt>
      <trkpt lat="47.27422" lon="-2.25361">
        <ele>1.2000000476837</ele>
        <time>2021-03-21T10:34:10.000Z</time>
      </trkpt>
      <trkpt lat="47.27425" lon="-2.2537">
        <ele>1.2000000476837</ele>
        <time>2021-03-21T10:34:12.000Z</time>
      </trkpt>
      <trkpt lat="47.27427" lon="-2.2538">
        <ele>1.2000000476837</ele>
        <time>2021-03-21T10:34:14.000Z</time>
      </trkpt>
      <trkpt lat="47.27431" lon="-2.25385">
        <ele>1.2000000476837</ele>
        <time>2021-03-21T10:34:16.000Z</time>
      </trkpt>
      <trkpt lat="47.27432" lon="-2.25385">
        <ele>0.80000001192093</ele>
        <time>2021-03-21T10:34:17.000Z</time>
      </trkpt>
      <trkpt lat="47.27433" lon="-2.25382">
        <ele>0.20000000298023</ele>
        <time>2021-03-21T10:34:18.000Z</time>
      </trkpt>
      <trkpt lat="47.27432" lon="-2.25379">
        <ele>-0.20000000298023</ele>
        <time>2021-03-21T10:34:19.000Z</time>
      </trkpt>
      <trkpt lat="47.27431" lon="-2.25376">
        <ele>-0.60000002384186</ele>
        <time>2021-03-21T10:34:20.000Z</time>
      </trkpt>
      <trkpt lat="47.27431" lon="-2.25373">
        <ele>-1</ele>
        <time>2021-03-21T10:34:21.000Z</time>
      </trkpt>
      <trkpt lat="47.27431" lon="-2.25371">
        <ele>-1</ele>
        <time>2021-03-21T10:34:22.000Z</time>
      </trkpt>
      <trkpt lat="47.27432" lon="-2.25372">
        <ele>-1</ele>
        <time>2021-03-21T10:34:23.000Z</time>
      </trkpt>
      <trkpt lat="47.27437" lon="-2.25373">
        <ele>-1</ele>
        <time>2021-03-21T10:34:27.000Z</time>
      </trkpt>
      <trkpt lat="47.27437" lon="-2.25365">
        <ele>-1</ele>
        <time>2021-03-21T10:34:32.000Z</time>
      </trkpt>
      <trkpt lat="47.27435" lon="-2.25362">
        <ele>-1</ele>
        <time>2021-03-21T10:34:36.000Z</time>
      </trkpt>
      <trkpt lat="47.27433" lon="-2.25347">
        <ele>-1</ele>
        <time>2021-03-21T10:34:41.000Z</time>
      </trkpt>
      <trkpt lat="47.27429" lon="-2.25333">
        <ele>-1</ele>
        <time>2021-03-21T10:34:45.000Z</time>
      </trkpt>
      <trkpt lat="47.27424" lon="-2.25331">
        <ele>-1</ele>
        <time>2021-03-21T10:34:48.000Z</time>
      </trkpt>
      <trkpt lat="47.27423" lon="-2.25328">
        <ele>-1</ele>
        <time>2021-03-21T10:34:49.000Z</time>
      </trkpt>
      <trkpt lat="47.2742" lon="-2.25318">
        <ele>-1</ele>
        <time>2021-03-21T10:34:53.000Z</time>
      </trkpt>
      <trkpt lat="47.27416" lon="-2.25308">
        <ele>-1</ele>
        <time>2021-03-21T10:34:57.000Z</time>
      </trkpt>
      <trkpt lat="47.2741" lon="-2.2529">
        <ele>-1</ele>
        <time>2021-03-21T10:35:00.000Z</time>
      </trkpt>
      <trkpt lat="47.27408" lon="-2.25287">
        <ele>-1</ele>
        <time>2021-03-21T10:35:01.000Z</time>
      </trkpt>
      <trkpt lat="47.27402" lon="-2.25283">
        <ele>-1</ele>
        <time>2021-03-21T10:35:04.000Z</time>
      </trkpt>
      <trkpt lat="47.27398" lon="-2.25263">
        <ele>-1</ele>
        <time>2021-03-21T10:35:08.000Z</time>
      </trkpt>
      <trkpt lat="47.27396" lon="-2.25258">
        <ele>-1</ele>
        <time>2021-03-21T10:35:09.000Z</time>
      </trkpt>
      <trkpt lat="47.27389" lon="-2.25229">
        <ele>-1</ele>
        <time>2021-03-21T10:35:14.000Z</time>
      </trkpt>
      <trkpt lat="47.27386" lon="-2.25212">
        <ele>-1</ele>
        <time>2021-03-21T10:35:18.000Z</time>
      </trkpt>
      <trkpt lat="47.27388" lon="-2.25203">
        <ele>-1</ele>
        <time>2021-03-21T10:35:23.000Z</time>
      </trkpt>
      <trkpt lat="47.27389" lon="-2.25201">
        <ele>-1</ele>
        <time>2021-03-21T10:35:24.000Z</time>
      </trkpt>
      <trkpt lat="47.27388" lon="-2.25187">
        <ele>-1</ele>
        <time>2021-03-21T10:35:29.000Z</time>
      </trkpt>
      <trkpt lat="47.27386" lon="-2.25182">
        <ele>-1</ele>
        <time>2021-03-21T10:35:30.000Z</time>
      </trkpt>
      <trkpt lat="47.27375" lon="-2.25154">
        <ele>-1</ele>
        <time>2021-03-21T10:35:35.000Z</time>
      </trkpt>
      <trkpt lat="47.27362" lon="-2.25118">
        <ele>-1</ele>
        <time>2021-03-21T10:35:41.000Z</time>
      </trkpt>
      <trkpt lat="47.27351" lon="-2.25085">
        <ele>-1</ele>
        <time>2021-03-21T10:35:48.000Z</time>
      </trkpt>
      <trkpt lat="47.27344" lon="-2.2506">
        <ele>-1</ele>
        <time>2021-03-21T10:35:54.000Z</time>
      </trkpt>
      <trkpt lat="47.27346" lon="-2.2504">
        <ele>-1</ele>
        <time>2021-03-21T10:35:59.000Z</time>
      </trkpt>
      <trkpt lat="47.27353" lon="-2.25018">
        <ele>-1</ele>
        <time>2021-03-21T10:36:05.000Z</time>
      </trkpt>
      <trkpt lat="47.27364" lon="-2.24996">
        <ele>-1</ele>
        <time>2021-03-21T10:36:11.000Z</time>
      </trkpt>
      <trkpt lat="47.27383" lon="-2.24972">
        <ele>-1</ele>
        <time>2021-03-21T10:36:18.000Z</time>
      </trkpt>
      <trkpt lat="47.274" lon="-2.24964">
        <ele>-1</ele>
        <time>2021-03-21T10:36:23.000Z</time>
      </trkpt>
      <trkpt lat="47.27407" lon="-2.2496">
        <ele>-1</ele>
        <time>2021-03-21T10:36:25.000Z</time>
      </trkpt>
      <trkpt lat="47.27421" lon="-2.2495">
        <ele>-1</ele>
        <time>2021-03-21T10:36:29.000Z</time>
      </trkpt>
      <trkpt lat="47.27434" lon="-2.24948">
        <ele>-1</ele>
        <time>2021-03-21T10:36:32.000Z</time>
      </trkpt>
      <trkpt lat="47.27438" lon="-2.2495">
        <ele>-1</ele>
        <time>2021-03-21T10:36:33.000Z</time>
      </trkpt>
      <trkpt lat="47.27467" lon="-2.24963">
        <ele>-1</ele>
        <time>2021-03-21T10:36:39.000Z</time>
      </trkpt>
      <trkpt lat="47.27501" lon="-2.24991">
        <ele>-1</ele>
        <time>2021-03-21T10:36:46.000Z</time>
      </trkpt>
      <trkpt lat="47.2751" lon="-2.25">
        <ele>-1</ele>
        <time>2021-03-21T10:36:48.000Z</time>
      </trkpt>
      <trkpt lat="47.27524" lon="-2.25015">
        <ele>-1</ele>
        <time>2021-03-21T10:36:52.000Z</time>
      </trkpt>
      <trkpt lat="47.27536" lon="-2.25033">
        <ele>-1</ele>
        <time>2021-03-21T10:36:56.000Z</time>
      </trkpt>
      <trkpt lat="47.27554" lon="-2.25054">
        <ele>-1</ele>
        <time>2021-03-21T10:37:01.000Z</time>
      </trkpt>
      <trkpt lat="47.27563" lon="-2.25059">
        <ele>-1</ele>
        <time>2021-03-21T10:37:03.000Z</time>
      </trkpt>
      <trkpt lat="47.27578" lon="-2.25067">
        <ele>-1</ele>
        <time>2021-03-21T10:37:06.000Z</time>
      </trkpt>
      <trkpt lat="47.27583" lon="-2.25068">
        <ele>-1</ele>
        <time>2021-03-21T10:37:07.000Z</time>
      </trkpt>
      <trkpt lat="47.27601" lon="-2.25077">
        <ele>-1</ele>
        <time>2021-03-21T10:37:11.000Z</time>
      </trkpt>
      <trkpt lat="47.27613" lon="-2.25086">
        <ele>-1</ele>
        <time>2021-03-21T10:37:14.000Z</time>
      </trkpt>
      <trkpt lat="47.27623" lon="-2.2509">
        <ele>-1</ele>
        <time>2021-03-21T10:37:16.000Z</time>
      </trkpt>
      <trkpt lat="47.27633" lon="-2.25093">
        <ele>-1</ele>
        <time>2021-03-21T10:37:18.000Z</time>
      </trkpt>
      <trkpt lat="47.27647" lon="-2.25093">
        <ele>-1</ele>
        <time>2021-03-21T10:37:21.000Z</time>
      </trkpt>
      <trkpt lat="47.27671" lon="-2.25086">
        <ele>-1</ele>
        <time>2021-03-21T10:37:27.000Z</time>
      </trkpt>
      <trkpt lat="47.27684" lon="-2.2508">
        <ele>-1</ele>
        <time>2021-03-21T10:37:30.000Z</time>
      </trkpt>
      <trkpt lat="47.27698" lon="-2.25075">
        <ele>-1</ele>
        <time>2021-03-21T10:37:33.000Z</time>
      </trkpt>
      <trkpt lat="47.27706" lon="-2.2507">
        <ele>-1</ele>
        <time>2021-03-21T10:37:35.000Z</time>
      </trkpt>
      <trkpt lat="47.27717" lon="-2.25062">
        <ele>-1</ele>
        <time>2021-03-21T10:37:38.000Z</time>
      </trkpt>
      <trkpt lat="47.27721" lon="-2.25058">
        <ele>-1</ele>
        <time>2021-03-21T10:37:39.000Z</time>
      </trkpt>
      <trkpt lat="47.27737" lon="-2.25044">
        <ele>-1</ele>
        <time>2021-03-21T10:37:43.000Z</time>
      </trkpt>
      <trkpt lat="47.27758" lon="-2.25028">
        <ele>-1</ele>
        <time>2021-03-21T10:37:49.000Z</time>
      </trkpt>
      <trkpt lat="47.27778" lon="-2.25019">
        <ele>-1</ele>
        <time>2021-03-21T10:37:54.000Z</time>
      </trkpt>
      <trkpt lat="47.27798" lon="-2.25021">
        <ele>-1</ele>
        <time>2021-03-21T10:37:59.000Z</time>
      </trkpt>
      <trkpt lat="47.27826" lon="-2.25037">
        <ele>-1</ele>
        <time>2021-03-21T10:38:05.000Z</time>
      </trkpt>
      <trkpt lat="47.27838" lon="-2.25046">
        <ele>-1</ele>
        <time>2021-03-21T10:38:08.000Z</time>
      </trkpt>
      <trkpt lat="47.27852" lon="-2.25054">
        <ele>-1</ele>
        <time>2021-03-21T10:38:11.000Z</time>
      </trkpt>
      <trkpt lat="47.2788" lon="-2.25067">
        <ele>-1</ele>
        <time>2021-03-21T10:38:17.000Z</time>
      </trkpt>
      <trkpt lat="47.27901" lon="-2.25082">
        <ele>-1</ele>
        <time>2021-03-21T10:38:22.000Z</time>
      </trkpt>
      <trkpt lat="47.27905" lon="-2.25081">
        <ele>-1</ele>
        <time>2021-03-21T10:38:23.000Z</time>
      </trkpt>
      <trkpt lat="47.27925" lon="-2.25072">
        <ele>-1</ele>
        <time>2021-03-21T10:38:28.000Z</time>
      </trkpt>
      <trkpt lat="47.27934" lon="-2.2507">
        <ele>-1</ele>
        <time>2021-03-21T10:38:30.000Z</time>
      </trkpt>
      <trkpt lat="47.27948" lon="-2.25069">
        <ele>-1</ele>
        <time>2021-03-21T10:38:33.000Z</time>
      </trkpt>
      <trkpt lat="47.27953" lon="-2.25069">
        <ele>-1</ele>
        <time>2021-03-21T10:38:34.000Z</time>
      </trkpt>
      <trkpt lat="47.27979" lon="-2.2507">
        <ele>-1</ele>
        <time>2021-03-21T10:38:40.000Z</time>
      </trkpt>
      <trkpt lat="47.27985" lon="-2.25069">
        <ele>-1</ele>
        <time>2021-03-21T10:38:42.000Z</time>
      </trkpt>
      <trkpt lat="47.27991" lon="-2.25073">
        <ele>-1</ele>
        <time>2021-03-21T10:38:44.000Z</time>
      </trkpt>
      <trkpt lat="47.28022" lon="-2.25098">
        <ele>-1</ele>
        <time>2021-03-21T10:38:52.000Z</time>
      </trkpt>
      <trkpt lat="47.28057" lon="-2.25125">
        <ele>-1</ele>
        <time>2021-03-21T10:39:00.000Z</time>
      </trkpt>
      <trkpt lat="47.28087" lon="-2.25152">
        <ele>-1</ele>
        <time>2021-03-21T10:39:06.000Z</time>
      </trkpt>
      <trkpt lat="47.28095" lon="-2.25163">
        <ele>-1</ele>
        <time>2021-03-21T10:39:08.000Z</time>
      </trkpt>
      <trkpt lat="47.281" lon="-2.25192">
        <ele>-1</ele>
        <time>2021-03-21T10:39:12.000Z</time>
      </trkpt>
      <trkpt lat="47.28099" lon="-2.252">
        <ele>-1</ele>
        <time>2021-03-21T10:39:13.000Z</time>
      </trkpt>
      <trkpt lat="47.28098" lon="-2.25231">
        <ele>-1</ele>
        <time>2021-03-21T10:39:17.000Z</time>
      </trkpt>
      <trkpt lat="47.2809" lon="-2.25251">
        <ele>-1</ele>
        <time>2021-03-21T10:39:20.000Z</time>
      </trkpt>
      <trkpt lat="47.28087" lon="-2.25259">
        <ele>-1</ele>
        <time>2021-03-21T10:39:21.000Z</time>
      </trkpt>
      <trkpt lat="47.28083" lon="-2.25286">
        <ele>-1</ele>
        <time>2021-03-21T10:39:24.000Z</time>
      </trkpt>
      <trkpt lat="47.28082" lon="-2.25305">
        <ele>-1</ele>
        <time>2021-03-21T10:39:26.000Z</time>
      </trkpt>
      <trkpt lat="47.28082" lon="-2.25338">
        <ele>-1</ele>
        <time>2021-03-21T10:39:30.000Z</time>
      </trkpt>
      <trkpt lat="47.28082" lon="-2.25354">
        <ele>-1</ele>
        <time>2021-03-21T10:39:32.000Z</time>
      </trkpt>
      <trkpt lat="47.28083" lon="-2.2538">
        <ele>-1</ele>
        <time>2021-03-21T10:39:35.000Z</time>
      </trkpt>
      <trkpt lat="47.28086" lon="-2.25432">
        <ele>-1</ele>
        <time>2021-03-21T10:39:42.000Z</time>
      </trkpt>
      <trkpt lat="47.28087" lon="-2.25438">
        <ele>-1</ele>
        <time>2021-03-21T10:39:43.000Z</time>
      </trkpt>
      <trkpt lat="47.28091" lon="-2.25455">
        <ele>-1</ele>
        <time>2021-03-21T10:39:47.000Z</time>
      </trkpt>
      <trkpt lat="47.28099" lon="-2.2547">
        <ele>-1</ele>
        <time>2021-03-21T10:39:53.000Z</time>
      </trkpt>
      <trkpt lat="47.28102" lon="-2.25471">
        <ele>-1</ele>
        <time>2021-03-21T10:39:55.000Z</time>
      </trkpt>
      <trkpt lat="47.28106" lon="-2.25471">
        <ele>-1</ele>
        <time>2021-03-21T10:39:58.000Z</time>
      </trkpt>
      <trkpt lat="47.28111" lon="-2.25468">
        <ele>-1</ele>
        <time>2021-03-21T10:40:01.000Z</time>
      </trkpt>
      <trkpt lat="47.28113" lon="-2.25465">
        <ele>-1</ele>
        <time>2021-03-21T10:40:02.000Z</time>
      </trkpt>
      <trkpt lat="47.28126" lon="-2.25454">
        <ele>-1</ele>
        <time>2021-03-21T10:40:06.000Z</time>
      </trkpt>
      <trkpt lat="47.28138" lon="-2.25448">
        <ele>-1</ele>
        <time>2021-03-21T10:40:09.000Z</time>
      </trkpt>
      <trkpt lat="47.28142" lon="-2.25445">
        <ele>-0.60000002384186</ele>
        <time>2021-03-21T10:40:10.000Z</time>
      </trkpt>
      <trkpt lat="47.28146" lon="-2.25442">
        <ele>-0.20000000298023</ele>
        <time>2021-03-21T10:40:11.000Z</time>
      </trkpt>
      <trkpt lat="47.2815" lon="-2.25439">
        <ele>0.40000000596046</ele>
        <time>2021-03-21T10:40:12.000Z</time>
      </trkpt>
      <trkpt lat="47.28154" lon="-2.25437">
        <ele>0.80000001192093</ele>
        <time>2021-03-21T10:40:13.000Z</time>
      </trkpt>
      <trkpt lat="47.28158" lon="-2.25435">
        <ele>1.2000000476837</ele>
        <time>2021-03-21T10:40:14.000Z</time>
      </trkpt>
      <trkpt lat="47.28167" lon="-2.25431">
        <ele>1.2000000476837</ele>
        <time>2021-03-21T10:40:16.000Z</time>
      </trkpt>
      <trkpt lat="47.28193" lon="-2.2541">
        <ele>1.6000000238419</ele>
        <time>2021-03-21T10:40:22.000Z</time>
      </trkpt>
      <trkpt lat="47.28197" lon="-2.25407">
        <ele>2</ele>
        <time>2021-03-21T10:40:23.000Z</time>
      </trkpt>
      <trkpt lat="47.28201" lon="-2.25404">
        <ele>2.4000000953674</ele>
        <time>2021-03-21T10:40:24.000Z</time>
      </trkpt>
      <trkpt lat="47.28204" lon="-2.25401">
        <ele>3.2000000476837</ele>
        <time>2021-03-21T10:40:25.000Z</time>
      </trkpt>
      <trkpt lat="47.28212" lon="-2.25395">
        <ele>3.2000000476837</ele>
        <time>2021-03-21T10:40:27.000Z</time>
      </trkpt>
      <trkpt lat="47.2822" lon="-2.25389">
        <ele>3.7999999523163</ele>
        <time>2021-03-21T10:40:29.000Z</time>
      </trkpt>
      <trkpt lat="47.28224" lon="-2.25386">
        <ele>4.1999998092651</ele>
        <time>2021-03-21T10:40:30.000Z</time>
      </trkpt>
      <trkpt lat="47.28228" lon="-2.25385">
        <ele>4.5999999046326</ele>
        <time>2021-03-21T10:40:31.000Z</time>
      </trkpt>
      <trkpt lat="47.28231" lon="-2.25382">
        <ele>5</ele>
        <time>2021-03-21T10:40:32.000Z</time>
      </trkpt>
      <trkpt lat="47.28235" lon="-2.25379">
        <ele>5.4000000953674</ele>
        <time>2021-03-21T10:40:33.000Z</time>
      </trkpt>
      <trkpt lat="47.28249" lon="-2.25369">
        <ele>5.8000001907349</ele>
        <time>2021-03-21T10:40:37.000Z</time>
      </trkpt>
      <trkpt lat="47.28253" lon="-2.25367">
        <ele>6.1999998092651</ele>
        <time>2021-03-21T10:40:38.000Z</time>
      </trkpt>
      <trkpt lat="47.28256" lon="-2.25364">
        <ele>6.8000001907349</ele>
        <time>2021-03-21T10:40:39.000Z</time>
      </trkpt>
      <trkpt lat="47.28259" lon="-2.25362">
        <ele>7.1999998092651</ele>
        <time>2021-03-21T10:40:40.000Z</time>
      </trkpt>
      <trkpt lat="47.28263" lon="-2.25361">
        <ele>7.5999999046326</ele>
        <time>2021-03-21T10:40:41.000Z</time>
      </trkpt>
      <trkpt lat="47.28271" lon="-2.2536">
        <ele>7.5999999046326</ele>
        <time>2021-03-21T10:40:43.000Z</time>
      </trkpt>
      <trkpt lat="47.28291" lon="-2.25357">
        <ele>7.5999999046326</ele>
        <time>2021-03-21T10:40:48.000Z</time>
      </trkpt>
      <trkpt lat="47.28295" lon="-2.25355">
        <ele>8.3999996185303</ele>
        <time>2021-03-21T10:40:49.000Z</time>
      </trkpt>
      <trkpt lat="47.28299" lon="-2.25353">
        <ele>8.8000001907349</ele>
        <time>2021-03-21T10:40:50.000Z</time>
      </trkpt>
      <trkpt lat="47.28305" lon="-2.25352">
        <ele>9.1999998092651</ele>
        <time>2021-03-21T10:40:51.000Z</time>
      </trkpt>
      <trkpt lat="47.28309" lon="-2.25351">
        <ele>9.6000003814697</ele>
        <time>2021-03-21T10:40:52.000Z</time>
      </trkpt>
      <trkpt lat="47.28313" lon="-2.2535">
        <ele>9.6000003814697</ele>
        <time>2021-03-21T10:40:53.000Z</time>
      </trkpt>
      <trkpt lat="47.28329" lon="-2.2534">
        <ele>9.6000003814697</ele>
        <time>2021-03-21T10:40:58.000Z</time>
      </trkpt>
      <trkpt lat="47.28336" lon="-2.25334">
        <ele>10</ele>
        <time>2021-03-21T10:41:00.000Z</time>
      </trkpt>
      <trkpt lat="47.28339" lon="-2.25331">
        <ele>10.39999961853</ele>
        <time>2021-03-21T10:41:01.000Z</time>
      </trkpt>
      <trkpt lat="47.28342" lon="-2.25328">
        <ele>10.800000190735</ele>
        <time>2021-03-21T10:41:02.000Z</time>
      </trkpt>
      <trkpt lat="47.28345" lon="-2.25326">
        <ele>11.199999809265</ele>
        <time>2021-03-21T10:41:03.000Z</time>
      </trkpt>
      <trkpt lat="47.28348" lon="-2.25322">
        <ele>11.60000038147</ele>
        <time>2021-03-21T10:41:04.000Z</time>
      </trkpt>
      <trkpt lat="47.28351" lon="-2.25319">
        <ele>11.60000038147</ele>
        <time>2021-03-21T10:41:05.000Z</time>
      </trkpt>
      <trkpt lat="47.28367" lon="-2.25309">
        <ele>11.60000038147</ele>
        <time>2021-03-21T10:41:10.000Z</time>
      </trkpt>
      <trkpt lat="47.28371" lon="-2.25309">
        <ele>11.60000038147</ele>
        <time>2021-03-21T10:41:11.000Z</time>
      </trkpt>
      <trkpt lat="47.28381" lon="-2.25319">
        <ele>11.60000038147</ele>
        <time>2021-03-21T10:41:14.000Z</time>
      </trkpt>
      <trkpt lat="47.28383" lon="-2.25338">
        <ele>11.60000038147</ele>
        <time>2021-03-21T10:41:18.000Z</time>
      </trkpt>
      <trkpt lat="47.28382" lon="-2.25347">
        <ele>11.60000038147</ele>
        <time>2021-03-21T10:41:20.000Z</time>
      </trkpt>
      <trkpt lat="47.28382" lon="-2.25369">
        <ele>11.60000038147</ele>
        <time>2021-03-21T10:41:24.000Z</time>
      </trkpt>
      <trkpt lat="47.28381" lon="-2.25398">
        <ele>11.60000038147</ele>
        <time>2021-03-21T10:41:30.000Z</time>
      </trkpt>
      <trkpt lat="47.28379" lon="-2.25427">
        <ele>11.60000038147</ele>
        <time>2021-03-21T10:41:35.000Z</time>
      </trkpt>
      <trkpt lat="47.28375" lon="-2.25494">
        <ele>11.60000038147</ele>
        <time>2021-03-21T10:41:44.000Z</time>
      </trkpt>
      <trkpt lat="47.28372" lon="-2.25538">
        <ele>11.60000038147</ele>
        <time>2021-03-21T10:41:50.000Z</time>
      </trkpt>
      <trkpt lat="47.28371" lon="-2.25544">
        <ele>11.60000038147</ele>
        <time>2021-03-21T10:41:51.000Z</time>
      </trkpt>
      <trkpt lat="47.28369" lon="-2.25583">
        <ele>11.60000038147</ele>
        <time>2021-03-21T10:41:57.000Z</time>
      </trkpt>
      <trkpt lat="47.28367" lon="-2.25619">
        <ele>11.60000038147</ele>
        <time>2021-03-21T10:42:03.000Z</time>
      </trkpt>
      <trkpt lat="47.28367" lon="-2.25634">
        <ele>11.60000038147</ele>
        <time>2021-03-21T10:42:06.000Z</time>
      </trkpt>
      <trkpt lat="47.28371" lon="-2.25642">
        <ele>11.60000038147</ele>
        <time>2021-03-21T10:42:08.000Z</time>
      </trkpt>
      <trkpt lat="47.28379" lon="-2.25661">
        <ele>11.60000038147</ele>
        <time>2021-03-21T10:42:13.000Z</time>
      </trkpt>
      <trkpt lat="47.28378" lon="-2.25675">
        <ele>11.60000038147</ele>
        <time>2021-03-21T10:42:16.000Z</time>
      </trkpt>
      <trkpt lat="47.28376" lon="-2.25685">
        <ele>11.60000038147</ele>
        <time>2021-03-21T10:42:19.000Z</time>
      </trkpt>
      <trkpt lat="47.2837" lon="-2.25683">
        <ele>11.60000038147</ele>
        <time>2021-03-21T10:42:22.000Z</time>
      </trkpt>
      <trkpt lat="47.28368" lon="-2.2568">
        <ele>11.60000038147</ele>
        <time>2021-03-21T10:42:23.000Z</time>
      </trkpt>
      <trkpt lat="47.28368" lon="-2.25674">
        <ele>11.60000038147</ele>
        <time>2021-03-21T10:42:25.000Z</time>
      </trkpt>
      <trkpt lat="47.28374" lon="-2.25678">
        <ele>11.60000038147</ele>
        <time>2021-03-21T10:42:28.000Z</time>
      </trkpt>
      <trkpt lat="47.28376" lon="-2.25685">
        <ele>11.60000038147</ele>
        <time>2021-03-21T10:42:30.000Z</time>
      </trkpt>
      <trkpt lat="47.28378" lon="-2.25694">
        <ele>11.60000038147</ele>
        <time>2021-03-21T10:42:32.000Z</time>
      </trkpt>
      <trkpt lat="47.28382" lon="-2.25717">
        <ele>11.60000038147</ele>
        <time>2021-03-21T10:42:38.000Z</time>
      </trkpt>
      <trkpt lat="47.28382" lon="-2.25721">
        <ele>11.60000038147</ele>
        <time>2021-03-21T10:42:43.000Z</time>
      </trkpt>
      <trkpt lat="47.28381" lon="-2.25726">
        <ele>11.60000038147</ele>
        <time>2021-03-21T10:42:49.000Z</time>
      </trkpt>
      <trkpt lat="47.28379" lon="-2.25742">
        <ele>11.60000038147</ele>
        <time>2021-03-21T10:42:52.000Z</time>
      </trkpt>
      <trkpt lat="47.28376" lon="-2.25775">
        <ele>12</ele>
        <time>2021-03-21T10:42:57.000Z</time>
      </trkpt>
      <trkpt lat="47.28375" lon="-2.25781">
        <ele>12.39999961853</ele>
        <time>2021-03-21T10:42:58.000Z</time>
      </trkpt>
      <trkpt lat="47.28375" lon="-2.25786">
        <ele>12.800000190735</ele>
        <time>2021-03-21T10:42:59.000Z</time>
      </trkpt>
      <trkpt lat="47.28375" lon="-2.2579">
        <ele>13.199999809265</ele>
        <time>2021-03-21T10:43:00.000Z</time>
      </trkpt>
      <trkpt lat="47.28375" lon="-2.25793">
        <ele>13.60000038147</ele>
        <time>2021-03-21T10:43:01.000Z</time>
      </trkpt>
      <trkpt lat="47.28375" lon="-2.25805">
        <ele>13.60000038147</ele>
        <time>2021-03-21T10:43:05.000Z</time>
      </trkpt>
      <trkpt lat="47.28384" lon="-2.2581">
        <ele>13.60000038147</ele>
        <time>2021-03-21T10:43:08.000Z</time>
      </trkpt>
      <trkpt lat="47.28392" lon="-2.25811">
        <ele>13.60000038147</ele>
        <time>2021-03-21T10:43:10.000Z</time>
      </trkpt>
      <trkpt lat="47.284" lon="-2.25812">
        <ele>13.60000038147</ele>
        <time>2021-03-21T10:43:12.000Z</time>
      </trkpt>
      <trkpt lat="47.28409" lon="-2.25812">
        <ele>13.60000038147</ele>
        <time>2021-03-21T10:43:14.000Z</time>
      </trkpt>
      <trkpt lat="47.2844" lon="-2.25816">
        <ele>13.60000038147</ele>
        <time>2021-03-21T10:43:20.000Z</time>
      </trkpt>
      <trkpt lat="47.28478" lon="-2.25823">
        <ele>13.60000038147</ele>
        <time>2021-03-21T10:43:27.000Z</time>
      </trkpt>
      <trkpt lat="47.28508" lon="-2.25829">
        <ele>13.199999809265</ele>
        <time>2021-03-21T10:43:32.000Z</time>
      </trkpt>
      <trkpt lat="47.28514" lon="-2.2583">
        <ele>12.800000190735</ele>
        <time>2021-03-21T10:43:33.000Z</time>
      </trkpt>
      <trkpt lat="47.28521" lon="-2.25832">
        <ele>12.39999961853</ele>
        <time>2021-03-21T10:43:34.000Z</time>
      </trkpt>
      <trkpt lat="47.28528" lon="-2.25833">
        <ele>12</ele>
        <time>2021-03-21T10:43:35.000Z</time>
      </trkpt>
      <trkpt lat="47.28534" lon="-2.25834">
        <ele>11.39999961853</ele>
        <time>2021-03-21T10:43:36.000Z</time>
      </trkpt>
      <trkpt lat="47.28554" lon="-2.25841">
        <ele>11</ele>
        <time>2021-03-21T10:43:39.000Z</time>
      </trkpt>
      <trkpt lat="47.28559" lon="-2.25846">
        <ele>10.60000038147</ele>
        <time>2021-03-21T10:43:40.000Z</time>
      </trkpt>
      <trkpt lat="47.28562" lon="-2.25853">
        <ele>10.199999809265</ele>
        <time>2021-03-21T10:43:41.000Z</time>
      </trkpt>
      <trkpt lat="47.28563" lon="-2.25861">
        <ele>9.3999996185303</ele>
        <time>2021-03-21T10:43:42.000Z</time>
      </trkpt>
      <trkpt lat="47.28564" lon="-2.25869">
        <ele>9.3999996185303</ele>
        <time>2021-03-21T10:43:43.000Z</time>
      </trkpt>
      <trkpt lat="47.28562" lon="-2.25895">
        <ele>9.3999996185303</ele>
        <time>2021-03-21T10:43:46.000Z</time>
      </trkpt>
      <trkpt lat="47.28561" lon="-2.25914">
        <ele>9.3999996185303</ele>
        <time>2021-03-21T10:43:48.000Z</time>
      </trkpt>
      <trkpt lat="47.28561" lon="-2.25946">
        <ele>9.3999996185303</ele>
        <time>2021-03-21T10:43:52.000Z</time>
      </trkpt>
      <trkpt lat="47.28563" lon="-2.25952">
        <ele>9.3999996185303</ele>
        <time>2021-03-21T10:43:53.000Z</time>
      </trkpt>
      <trkpt lat="47.2857" lon="-2.25967">
        <ele>9.3999996185303</ele>
        <time>2021-03-21T10:43:57.000Z</time>
      </trkpt>
      <trkpt lat="47.28577" lon="-2.25969">
        <ele>9.3999996185303</ele>
        <time>2021-03-21T10:43:59.000Z</time>
      </trkpt>
      <trkpt lat="47.28587" lon="-2.25973">
        <ele>9.3999996185303</ele>
        <time>2021-03-21T10:44:02.000Z</time>
      </trkpt>
      <trkpt lat="47.286" lon="-2.2598">
        <ele>9.3999996185303</ele>
        <time>2021-03-21T10:44:05.000Z</time>
      </trkpt>
      <trkpt lat="47.28602" lon="-2.25985">
        <ele>9.3999996185303</ele>
        <time>2021-03-21T10:44:06.000Z</time>
      </trkpt>
      <trkpt lat="47.28604" lon="-2.26013">
        <ele>9.3999996185303</ele>
        <time>2021-03-21T10:44:10.000Z</time>
      </trkpt>
      <trkpt lat="47.28603" lon="-2.26059">
        <ele>9.3999996185303</ele>
        <time>2021-03-21T10:44:16.000Z</time>
      </trkpt>
      <trkpt lat="47.28602" lon="-2.26091">
        <ele>9.3999996185303</ele>
        <time>2021-03-21T10:44:20.000Z</time>
      </trkpt>
      <trkpt lat="47.28602" lon="-2.26109">
        <ele>9.3999996185303</ele>
        <time>2021-03-21T10:44:22.000Z</time>
      </trkpt>
      <trkpt lat="47.286" lon="-2.26171">
        <ele>9.3999996185303</ele>
        <time>2021-03-21T10:44:29.000Z</time>
      </trkpt>
      <trkpt lat="47.28602" lon="-2.262">
        <ele>9.3999996185303</ele>
        <time>2021-03-21T10:44:32.000Z</time>
      </trkpt>
      <trkpt lat="47.28605" lon="-2.26209">
        <ele>9.3999996185303</ele>
        <time>2021-03-21T10:44:33.000Z</time>
      </trkpt>
      <trkpt lat="47.28615" lon="-2.26234">
        <ele>9.3999996185303</ele>
        <time>2021-03-21T10:44:36.000Z</time>
      </trkpt>
      <trkpt lat="47.2862" lon="-2.26242">
        <ele>9.3999996185303</ele>
        <time>2021-03-21T10:44:37.000Z</time>
      </trkpt>
      <trkpt lat="47.28641" lon="-2.26291">
        <ele>9.3999996185303</ele>
        <time>2021-03-21T10:44:43.000Z</time>
      </trkpt>
      <trkpt lat="47.2865" lon="-2.26314">
        <ele>9</ele>
        <time>2021-03-21T10:44:46.000Z</time>
      </trkpt>
      <trkpt lat="47.28652" lon="-2.26321">
        <ele>8.6000003814697</ele>
        <time>2021-03-21T10:44:47.000Z</time>
      </trkpt>
      <trkpt lat="47.28655" lon="-2.26328">
        <ele>8.1999998092651</ele>
        <time>2021-03-21T10:44:48.000Z</time>
      </trkpt>
      <trkpt lat="47.28657" lon="-2.26335">
        <ele>7.8000001907349</ele>
        <time>2021-03-21T10:44:49.000Z</time>
      </trkpt>
      <trkpt lat="47.2866" lon="-2.26342">
        <ele>7.4000000953674</ele>
        <time>2021-03-21T10:44:50.000Z</time>
      </trkpt>
      <trkpt lat="47.28666" lon="-2.26355">
        <ele>7.4000000953674</ele>
        <time>2021-03-21T10:44:52.000Z</time>
      </trkpt>
      <trkpt lat="47.28678" lon="-2.2637">
        <ele>7.4000000953674</ele>
        <time>2021-03-21T10:44:55.000Z</time>
      </trkpt>
      <trkpt lat="47.28702" lon="-2.26394">
        <ele>7.4000000953674</ele>
        <time>2021-03-21T10:45:01.000Z</time>
      </trkpt>
      <trkpt lat="47.28713" lon="-2.264">
        <ele>7.4000000953674</ele>
        <time>2021-03-21T10:45:04.000Z</time>
      </trkpt>
      <trkpt lat="47.28716" lon="-2.26397">
        <ele>7.4000000953674</ele>
        <time>2021-03-21T10:45:05.000Z</time>
      </trkpt>
      <trkpt lat="47.2872" lon="-2.26379">
        <ele>7.4000000953674</ele>
        <time>2021-03-21T10:45:08.000Z</time>
      </trkpt>
      <trkpt lat="47.28724" lon="-2.26366">
        <ele>7.4000000953674</ele>
        <time>2021-03-21T10:45:10.000Z</time>
      </trkpt>
      <trkpt lat="47.28727" lon="-2.26361">
        <ele>7.4000000953674</ele>
        <time>2021-03-21T10:45:11.000Z</time>
      </trkpt>
      <trkpt lat="47.28732" lon="-2.2636">
        <ele>7.4000000953674</ele>
        <time>2021-03-21T10:45:12.000Z</time>
      </trkpt>
      <trkpt lat="47.28751" lon="-2.26361">
        <ele>7.4000000953674</ele>
        <time>2021-03-21T10:45:16.000Z</time>
      </trkpt>
      <trkpt lat="47.28755" lon="-2.26362">
        <ele>7.4000000953674</ele>
        <time>2021-03-21T10:45:17.000Z</time>
      </trkpt>
      <trkpt lat="47.28767" lon="-2.26364">
        <ele>8.1999998092651</ele>
        <time>2021-03-21T10:45:20.000Z</time>
      </trkpt>
      <trkpt lat="47.28776" lon="-2.26365">
        <ele>9</ele>
        <time>2021-03-21T10:45:22.000Z</time>
      </trkpt>
      <trkpt lat="47.28781" lon="-2.26366">
        <ele>9.6000003814697</ele>
        <time>2021-03-21T10:45:23.000Z</time>
      </trkpt>
      <trkpt lat="47.28791" lon="-2.26367">
        <ele>10</ele>
        <time>2021-03-21T10:45:25.000Z</time>
      </trkpt>
      <trkpt lat="47.28795" lon="-2.26368">
        <ele>10.39999961853</ele>
        <time>2021-03-21T10:45:26.000Z</time>
      </trkpt>
      <trkpt lat="47.288" lon="-2.26368">
        <ele>10.800000190735</ele>
        <time>2021-03-21T10:45:27.000Z</time>
      </trkpt>
      <trkpt lat="47.28804" lon="-2.26368">
        <ele>11.199999809265</ele>
        <time>2021-03-21T10:45:28.000Z</time>
      </trkpt>
      <trkpt lat="47.28809" lon="-2.26367">
        <ele>11.60000038147</ele>
        <time>2021-03-21T10:45:29.000Z</time>
      </trkpt>
      <trkpt lat="47.28831" lon="-2.26369">
        <ele>11.60000038147</ele>
        <time>2021-03-21T10:45:34.000Z</time>
      </trkpt>
      <trkpt lat="47.28851" lon="-2.26367">
        <ele>11.60000038147</ele>
        <time>2021-03-21T10:45:38.000Z</time>
      </trkpt>
      <trkpt lat="47.28881" lon="-2.26361">
        <ele>11.60000038147</ele>
        <time>2021-03-21T10:45:44.000Z</time>
      </trkpt>
      <trkpt lat="47.28885" lon="-2.26361">
        <ele>11.60000038147</ele>
        <time>2021-03-21T10:45:45.000Z</time>
      </trkpt>
      <trkpt lat="47.28913" lon="-2.26364">
        <ele>11.60000038147</ele>
        <time>2021-03-21T10:45:51.000Z</time>
      </trkpt>
      <trkpt lat="47.28917" lon="-2.26365">
        <ele>11.60000038147</ele>
        <time>2021-03-21T10:45:52.000Z</time>
      </trkpt>
      <trkpt lat="47.28936" lon="-2.2637">
        <ele>11.60000038147</ele>
        <time>2021-03-21T10:45:56.000Z</time>
      </trkpt>
      <trkpt lat="47.28947" lon="-2.26369">
        <ele>11.60000038147</ele>
        <time>2021-03-21T10:45:58.000Z</time>
      </trkpt>
      <trkpt lat="47.28957" lon="-2.26367">
        <ele>11.60000038147</ele>
        <time>2021-03-21T10:46:00.000Z</time>
      </trkpt>
      <trkpt lat="47.28971" lon="-2.2636">
        <ele>11.60000038147</ele>
        <time>2021-03-21T10:46:03.000Z</time>
      </trkpt>
      <trkpt lat="47.28981" lon="-2.26358">
        <ele>11.60000038147</ele>
        <time>2021-03-21T10:46:05.000Z</time>
      </trkpt>
      <trkpt lat="47.28994" lon="-2.26371">
        <ele>11.60000038147</ele>
        <time>2021-03-21T10:46:08.000Z</time>
      </trkpt>
      <trkpt lat="47.29011" lon="-2.26398">
        <ele>11.60000038147</ele>
        <time>2021-03-21T10:46:12.000Z</time>
      </trkpt>
      <trkpt lat="47.29013" lon="-2.26408">
        <ele>11.60000038147</ele>
        <time>2021-03-21T10:46:13.000Z</time>
      </trkpt>
      <trkpt lat="47.29018" lon="-2.2644">
        <ele>11.60000038147</ele>
        <time>2021-03-21T10:46:16.000Z</time>
      </trkpt>
      <trkpt lat="47.29019" lon="-2.26452">
        <ele>11.60000038147</ele>
        <time>2021-03-21T10:46:17.000Z</time>
      </trkpt>
      <trkpt lat="47.29021" lon="-2.26465">
        <ele>11.199999809265</ele>
        <time>2021-03-21T10:46:18.000Z</time>
      </trkpt>
      <trkpt lat="47.29022" lon="-2.26477">
        <ele>10.800000190735</ele>
        <time>2021-03-21T10:46:19.000Z</time>
      </trkpt>
      <trkpt lat="47.29024" lon="-2.26489">
        <ele>10.39999961853</ele>
        <time>2021-03-21T10:46:20.000Z</time>
      </trkpt>
      <trkpt lat="47.29025" lon="-2.26501">
        <ele>9.8000001907349</ele>
        <time>2021-03-21T10:46:21.000Z</time>
      </trkpt>
      <trkpt lat="47.29027" lon="-2.26512">
        <ele>9.3999996185303</ele>
        <time>2021-03-21T10:46:22.000Z</time>
      </trkpt>
      <trkpt lat="47.29029" lon="-2.26523">
        <ele>9.3999996185303</ele>
        <time>2021-03-21T10:46:23.000Z</time>
      </trkpt>
      <trkpt lat="47.29031" lon="-2.26533">
        <ele>9.3999996185303</ele>
        <time>2021-03-21T10:46:24.000Z</time>
      </trkpt>
      <trkpt lat="47.29039" lon="-2.2656">
        <ele>9.3999996185303</ele>
        <time>2021-03-21T10:46:27.000Z</time>
      </trkpt>
      <trkpt lat="47.29041" lon="-2.26569">
        <ele>9</ele>
        <time>2021-03-21T10:46:28.000Z</time>
      </trkpt>
      <trkpt lat="47.29043" lon="-2.26576">
        <ele>8.6000003814697</ele>
        <time>2021-03-21T10:46:29.000Z</time>
      </trkpt>
      <trkpt lat="47.29044" lon="-2.26582">
        <ele>8.1999998092651</ele>
        <time>2021-03-21T10:46:30.000Z</time>
      </trkpt>
      <trkpt lat="47.29045" lon="-2.26587">
        <ele>7.8000001907349</ele>
        <time>2021-03-21T10:46:31.000Z</time>
      </trkpt>
      <trkpt lat="47.29045" lon="-2.26591">
        <ele>7.1999998092651</ele>
        <time>2021-03-21T10:46:32.000Z</time>
      </trkpt>
      <trkpt lat="47.29046" lon="-2.26617">
        <ele>7.1999998092651</ele>
        <time>2021-03-21T10:46:36.000Z</time>
      </trkpt>
      <trkpt lat="47.29048" lon="-2.26641">
        <ele>7.1999998092651</ele>
        <time>2021-03-21T10:46:39.000Z</time>
      </trkpt>
      <trkpt lat="47.29049" lon="-2.2666">
        <ele>7.1999998092651</ele>
        <time>2021-03-21T10:46:41.000Z</time>
      </trkpt>
      <trkpt lat="47.29055" lon="-2.26713">
        <ele>6.8000001907349</ele>
        <time>2021-03-21T10:46:46.000Z</time>
      </trkpt>
      <trkpt lat="47.29057" lon="-2.26724">
        <ele>6.4000000953674</ele>
        <time>2021-03-21T10:46:47.000Z</time>
      </trkpt>
      <trkpt lat="47.29059" lon="-2.26736">
        <ele>6</ele>
        <time>2021-03-21T10:46:48.000Z</time>
      </trkpt>
      <trkpt lat="47.2906" lon="-2.26749">
        <ele>5.5999999046326</ele>
        <time>2021-03-21T10:46:49.000Z</time>
      </trkpt>
      <trkpt lat="47.29062" lon="-2.26761">
        <ele>5.1999998092651</ele>
        <time>2021-03-21T10:46:50.000Z</time>
      </trkpt>
      <trkpt lat="47.29067" lon="-2.26797">
        <ele>5.1999998092651</ele>
        <time>2021-03-21T10:46:53.000Z</time>
      </trkpt>
      <trkpt lat="47.29067" lon="-2.2681">
        <ele>4.8000001907349</ele>
        <time>2021-03-21T10:46:54.000Z</time>
      </trkpt>
      <trkpt lat="47.29067" lon="-2.26823">
        <ele>4.1999998092651</ele>
        <time>2021-03-21T10:46:55.000Z</time>
      </trkpt>
      <trkpt lat="47.29067" lon="-2.26837">
        <ele>3.7999999523163</ele>
        <time>2021-03-21T10:46:56.000Z</time>
      </trkpt>
      <trkpt lat="47.29067" lon="-2.26851">
        <ele>3</ele>
        <time>2021-03-21T10:46:57.000Z</time>
      </trkpt>
      <trkpt lat="47.29066" lon="-2.26865">
        <ele>2.4000000953674</ele>
        <time>2021-03-21T10:46:58.000Z</time>
      </trkpt>
      <trkpt lat="47.29066" lon="-2.26878">
        <ele>1.6000000238419</ele>
        <time>2021-03-21T10:46:59.000Z</time>
      </trkpt>
      <trkpt lat="47.29065" lon="-2.26891">
        <ele>1</ele>
        <time>2021-03-21T10:47:00.000Z</time>
      </trkpt>
      <trkpt lat="47.29065" lon="-2.26903">
        <ele>0.20000000298023</ele>
        <time>2021-03-21T10:47:01.000Z</time>
      </trkpt>
      <trkpt lat="47.29063" lon="-2.26939">
        <ele>0.20000000298023</ele>
        <time>2021-03-21T10:47:04.000Z</time>
      </trkpt>
      <trkpt lat="47.29062" lon="-2.2699">
        <ele>0.20000000298023</ele>
        <time>2021-03-21T10:47:09.000Z</time>
      </trkpt>
      <trkpt lat="47.29061" lon="-2.27025">
        <ele>0.20000000298023</ele>
        <time>2021-03-21T10:47:13.000Z</time>
      </trkpt>
      <trkpt lat="47.29063" lon="-2.27031">
        <ele>0.20000000298023</ele>
        <time>2021-03-21T10:47:14.000Z</time>
      </trkpt>
      <trkpt lat="47.29066" lon="-2.27052">
        <ele>0.20000000298023</ele>
        <time>2021-03-21T10:47:18.000Z</time>
      </trkpt>
      <trkpt lat="47.29057" lon="-2.27079">
        <ele>0.20000000298023</ele>
        <time>2021-03-21T10:47:23.000Z</time>
      </trkpt>
      <trkpt lat="47.29047" lon="-2.27092">
        <ele>0.20000000298023</ele>
        <time>2021-03-21T10:47:26.000Z</time>
      </trkpt>
      <trkpt lat="47.29043" lon="-2.27093">
        <ele>0.20000000298023</ele>
        <time>2021-03-21T10:47:27.000Z</time>
      </trkpt>
      <trkpt lat="47.29028" lon="-2.27104">
        <ele>0.20000000298023</ele>
        <time>2021-03-21T10:47:31.000Z</time>
      </trkpt>
      <trkpt lat="47.2903" lon="-2.27123">
        <ele>0.20000000298023</ele>
        <time>2021-03-21T10:47:35.000Z</time>
      </trkpt>
      <trkpt lat="47.29042" lon="-2.27134">
        <ele>0.20000000298023</ele>
        <time>2021-03-21T10:47:38.000Z</time>
      </trkpt>
      <trkpt lat="47.29055" lon="-2.27149">
        <ele>0.20000000298023</ele>
        <time>2021-03-21T10:47:41.000Z</time>
      </trkpt>
      <trkpt lat="47.29062" lon="-2.27162">
        <ele>0.20000000298023</ele>
        <time>2021-03-21T10:47:43.000Z</time>
      </trkpt>
      <trkpt lat="47.2907" lon="-2.27182">
        <ele>0.20000000298023</ele>
        <time>2021-03-21T10:47:46.000Z</time>
      </trkpt>
      <trkpt lat="47.29076" lon="-2.27187">
        <ele>0.20000000298023</ele>
        <time>2021-03-21T10:47:47.000Z</time>
      </trkpt>
      <trkpt lat="47.29092" lon="-2.27196">
        <ele>0.20000000298023</ele>
        <time>2021-03-21T10:47:50.000Z</time>
      </trkpt>
      <trkpt lat="47.29094" lon="-2.27195">
        <ele>0.20000000298023</ele>
        <time>2021-03-21T10:47:51.000Z</time>
      </trkpt>
      <trkpt lat="47.29101" lon="-2.27196">
        <ele>0.20000000298023</ele>
        <time>2021-03-21T10:47:55.000Z</time>
      </trkpt>
      <trkpt lat="47.29108" lon="-2.27197">
        <ele>0.20000000298023</ele>
        <time>2021-03-21T10:47:59.000Z</time>
      </trkpt>
      <trkpt lat="47.29109" lon="-2.27197">
        <ele>0.20000000298023</ele>
        <time>2021-03-21T10:48:00.000Z</time>
      </trkpt>
      <trkpt lat="47.29109" lon="-2.27197">
        <ele>0.20000000298023</ele>
        <time>2021-03-21T10:48:01.000Z</time>
      </trkpt>
      <trkpt lat="47.2911" lon="-2.27205">
        <ele>0.20000000298023</ele>
        <time>2021-03-21T10:48:09.000Z</time>
      </trkpt>
      <trkpt lat="47.29111" lon="-2.2721">
        <ele>0.20000000298023</ele>
        <time>2021-03-21T10:48:11.000Z</time>
      </trkpt>
      <trkpt lat="47.29109" lon="-2.27215">
        <ele>0.20000000298023</ele>
        <time>2021-03-21T10:48:14.000Z</time>
      </trkpt>
      <trkpt lat="47.29107" lon="-2.27237">
        <ele>0.20000000298023</ele>
        <time>2021-03-21T10:48:18.000Z</time>
      </trkpt>
      <trkpt lat="47.29106" lon="-2.27242">
        <ele>0.20000000298023</ele>
        <time>2021-03-21T10:48:19.000Z</time>
      </trkpt>
      <trkpt lat="47.29104" lon="-2.27258">
        <ele>0.20000000298023</ele>
        <time>2021-03-21T10:48:22.000Z</time>
      </trkpt>
      <trkpt lat="47.291" lon="-2.2729">
        <ele>0.20000000298023</ele>
        <time>2021-03-21T10:48:27.000Z</time>
      </trkpt>
      <trkpt lat="47.29098" lon="-2.27298">
        <ele>0.20000000298023</ele>
        <time>2021-03-21T10:48:28.000Z</time>
      </trkpt>
      <trkpt lat="47.29094" lon="-2.27315">
        <ele>0.20000000298023</ele>
        <time>2021-03-21T10:48:31.000Z</time>
      </trkpt>
      <trkpt lat="47.29091" lon="-2.27339">
        <ele>0.20000000298023</ele>
        <time>2021-03-21T10:48:36.000Z</time>
      </trkpt>
      <trkpt lat="47.29094" lon="-2.27353">
        <ele>0.20000000298023</ele>
        <time>2021-03-21T10:48:40.000Z</time>
      </trkpt>
      <trkpt lat="47.29096" lon="-2.2736">
        <ele>0.20000000298023</ele>
        <time>2021-03-21T10:48:41.000Z</time>
      </trkpt>
      <trkpt lat="47.29097" lon="-2.27368">
        <ele>0.20000000298023</ele>
        <time>2021-03-21T10:48:42.000Z</time>
      </trkpt>
      <trkpt lat="47.29102" lon="-2.27385">
        <ele>0.20000000298023</ele>
        <time>2021-03-21T10:48:44.000Z</time>
      </trkpt>
      <trkpt lat="47.29106" lon="-2.27409">
        <ele>0.20000000298023</ele>
        <time>2021-03-21T10:48:47.000Z</time>
      </trkpt>
      <trkpt lat="47.29106" lon="-2.27432">
        <ele>0.20000000298023</ele>
        <time>2021-03-21T10:48:50.000Z</time>
      </trkpt>
      <trkpt lat="47.29106" lon="-2.2744">
        <ele>0.20000000298023</ele>
        <time>2021-03-21T10:48:51.000Z</time>
      </trkpt>
      <trkpt lat="47.29104" lon="-2.27479">
        <ele>0.20000000298023</ele>
        <time>2021-03-21T10:48:57.000Z</time>
      </trkpt>
      <trkpt lat="47.29105" lon="-2.27507">
        <ele>0.20000000298023</ele>
        <time>2021-03-21T10:49:03.000Z</time>
      </trkpt>
      <trkpt lat="47.29106" lon="-2.27516">
        <ele>0.20000000298023</ele>
        <time>2021-03-21T10:49:07.000Z</time>
      </trkpt>
      <trkpt lat="47.29105" lon="-2.2752">
        <ele>0.20000000298023</ele>
        <time>2021-03-21T10:49:18.000Z</time>
      </trkpt>
      <trkpt lat="47.29096" lon="-2.27525">
        <ele>0.20000000298023</ele>
        <time>2021-03-21T10:49:22.000Z</time>
      </trkpt>
      <trkpt lat="47.29092" lon="-2.27525">
        <ele>0.20000000298023</ele>
        <time>2021-03-21T10:49:23.000Z</time>
      </trkpt>
      <trkpt lat="47.29077" lon="-2.27524">
        <ele>0.20000000298023</ele>
        <time>2021-03-21T10:49:27.000Z</time>
      </trkpt>
      <trkpt lat="47.29052" lon="-2.27522">
        <ele>0.20000000298023</ele>
        <time>2021-03-21T10:49:33.000Z</time>
      </trkpt>
      <trkpt lat="47.29027" lon="-2.27521">
        <ele>0.20000000298023</ele>
        <time>2021-03-21T10:49:38.000Z</time>
      </trkpt>
      <trkpt lat="47.28987" lon="-2.2752">
        <ele>0.20000000298023</ele>
        <time>2021-03-21T10:49:45.000Z</time>
      </trkpt>
      <trkpt lat="47.2894" lon="-2.2752">
        <ele>0.20000000298023</ele>
        <time>2021-03-21T10:49:53.000Z</time>
      </trkpt>
      <trkpt lat="47.28901" lon="-2.27523">
        <ele>0.20000000298023</ele>
        <time>2021-03-21T10:49:59.000Z</time>
      </trkpt>
      <trkpt lat="47.28866" lon="-2.27529">
        <ele>0.20000000298023</ele>
        <time>2021-03-21T10:50:05.000Z</time>
      </trkpt>
      <trkpt lat="47.2883" lon="-2.27535">
        <ele>0.20000000298023</ele>
        <time>2021-03-21T10:50:11.000Z</time>
      </trkpt>
      <trkpt lat="47.28818" lon="-2.27537">
        <ele>0.20000000298023</ele>
        <time>2021-03-21T10:50:13.000Z</time>
      </trkpt>
      <trkpt lat="47.28806" lon="-2.27545">
        <ele>0.20000000298023</ele>
        <time>2021-03-21T10:50:15.000Z</time>
      </trkpt>
      <trkpt lat="47.28795" lon="-2.27556">
        <ele>0.20000000298023</ele>
        <time>2021-03-21T10:50:17.000Z</time>
      </trkpt>
      <trkpt lat="47.28781" lon="-2.27574">
        <ele>0.20000000298023</ele>
        <time>2021-03-21T10:50:20.000Z</time>
      </trkpt>
      <trkpt lat="47.28772" lon="-2.27583">
        <ele>0.20000000298023</ele>
        <time>2021-03-21T10:50:22.000Z</time>
      </trkpt>
      <trkpt lat="47.28759" lon="-2.27598">
        <ele>0.20000000298023</ele>
        <time>2021-03-21T10:50:25.000Z</time>
      </trkpt>
      <trkpt lat="47.28733" lon="-2.27637">
        <ele>0.20000000298023</ele>
        <time>2021-03-21T10:50:31.000Z</time>
      </trkpt>
      <trkpt lat="47.2871" lon="-2.27673">
        <ele>0.60000002384186</ele>
        <time>2021-03-21T10:50:36.000Z</time>
      </trkpt>
      <trkpt lat="47.28706" lon="-2.2768">
        <ele>1</ele>
        <time>2021-03-21T10:50:37.000Z</time>
      </trkpt>
      <trkpt lat="47.28702" lon="-2.27687">
        <ele>1.6000000238419</ele>
        <time>2021-03-21T10:50:38.000Z</time>
      </trkpt>
      <trkpt lat="47.28698" lon="-2.27694">
        <ele>2</ele>
        <time>2021-03-21T10:50:39.000Z</time>
      </trkpt>
      <trkpt lat="47.28694" lon="-2.27701">
        <ele>2.4000000953674</ele>
        <time>2021-03-21T10:50:40.000Z</time>
      </trkpt>
      <trkpt lat="47.28671" lon="-2.27744">
        <ele>2.4000000953674</ele>
        <time>2021-03-21T10:50:46.000Z</time>
      </trkpt>
      <trkpt lat="47.28664" lon="-2.27758">
        <ele>2.4000000953674</ele>
        <time>2021-03-21T10:50:48.000Z</time>
      </trkpt>
      <trkpt lat="47.28655" lon="-2.27792">
        <ele>2.4000000953674</ele>
        <time>2021-03-21T10:50:52.000Z</time>
      </trkpt>
      <trkpt lat="47.28653" lon="-2.278">
        <ele>2.4000000953674</ele>
        <time>2021-03-21T10:50:53.000Z</time>
      </trkpt>
      <trkpt lat="47.28646" lon="-2.27838">
        <ele>2.4000000953674</ele>
        <time>2021-03-21T10:50:57.000Z</time>
      </trkpt>
      <trkpt lat="47.28641" lon="-2.2787">
        <ele>2.4000000953674</ele>
        <time>2021-03-21T10:51:02.000Z</time>
      </trkpt>
      <trkpt lat="47.28641" lon="-2.27873">
        <ele>2.4000000953674</ele>
        <time>2021-03-21T10:51:05.000Z</time>
      </trkpt>
      <trkpt lat="47.28637" lon="-2.2788">
        <ele>2.4000000953674</ele>
        <time>2021-03-21T11:03:27.000Z</time>
      </trkpt>
      <trkpt lat="47.28636" lon="-2.27888">
        <ele>2.4000000953674</ele>
        <time>2021-03-21T11:03:30.000Z</time>
      </trkpt>
      <trkpt lat="47.28635" lon="-2.27907">
        <ele>2.4000000953674</ele>
        <time>2021-03-21T11:03:35.000Z</time>
      </trkpt>
      <trkpt lat="47.28631" lon="-2.2793">
        <ele>2.4000000953674</ele>
        <time>2021-03-21T11:03:40.000Z</time>
      </trkpt>
      <trkpt lat="47.28619" lon="-2.27953">
        <ele>2.4000000953674</ele>
        <time>2021-03-21T11:03:45.000Z</time>
      </trkpt>
      <trkpt lat="47.28618" lon="-2.27959">
        <ele>2.4000000953674</ele>
        <time>2021-03-21T11:03:46.000Z</time>
      </trkpt>
      <trkpt lat="47.28615" lon="-2.27977">
        <ele>2.4000000953674</ele>
        <time>2021-03-21T11:03:49.000Z</time>
      </trkpt>
      <trkpt lat="47.28609" lon="-2.28">
        <ele>2.4000000953674</ele>
        <time>2021-03-21T11:03:53.000Z</time>
      </trkpt>
      <trkpt lat="47.28605" lon="-2.2801">
        <ele>2.4000000953674</ele>
        <time>2021-03-21T11:03:55.000Z</time>
      </trkpt>
      <trkpt lat="47.28598" lon="-2.28021">
        <ele>2.4000000953674</ele>
        <time>2021-03-21T11:03:58.000Z</time>
      </trkpt>
      <trkpt lat="47.28593" lon="-2.28026">
        <ele>2.4000000953674</ele>
        <time>2021-03-21T11:04:00.000Z</time>
      </trkpt>
      <trkpt lat="47.28577" lon="-2.28041">
        <ele>2.4000000953674</ele>
        <time>2021-03-21T11:04:06.000Z</time>
      </trkpt>
      <trkpt lat="47.28566" lon="-2.28047">
        <ele>2.4000000953674</ele>
        <time>2021-03-21T11:04:09.000Z</time>
      </trkpt>
      <trkpt lat="47.28563" lon="-2.28047">
        <ele>2.4000000953674</ele>
        <time>2021-03-21T11:04:10.000Z</time>
      </trkpt>
      <trkpt lat="47.2856" lon="-2.28048">
        <ele>2.7999999523163</ele>
        <time>2021-03-21T11:04:11.000Z</time>
      </trkpt>
      <trkpt lat="47.28556" lon="-2.28046">
        <ele>3.2000000476837</ele>
        <time>2021-03-21T11:04:12.000Z</time>
      </trkpt>
      <trkpt lat="47.28553" lon="-2.28044">
        <ele>3.5999999046326</ele>
        <time>2021-03-21T11:04:13.000Z</time>
      </trkpt>
      <trkpt lat="47.2855" lon="-2.28043">
        <ele>4</ele>
        <time>2021-03-21T11:04:14.000Z</time>
      </trkpt>
      <trkpt lat="47.28547" lon="-2.28043">
        <ele>4.4000000953674</ele>
        <time>2021-03-21T11:04:15.000Z</time>
      </trkpt>
      <trkpt lat="47.28539" lon="-2.28045">
        <ele>4.8000001907349</ele>
        <time>2021-03-21T11:04:19.000Z</time>
      </trkpt>
      <trkpt lat="47.28538" lon="-2.28045">
        <ele>5.1999998092651</ele>
        <time>2021-03-21T11:04:20.000Z</time>
      </trkpt>
      <trkpt lat="47.28535" lon="-2.28044">
        <ele>5.5999999046326</ele>
        <time>2021-03-21T11:04:21.000Z</time>
      </trkpt>
      <trkpt lat="47.28532" lon="-2.28044">
        <ele>6</ele>
        <time>2021-03-21T11:04:22.000Z</time>
      </trkpt>
      <trkpt lat="47.28529" lon="-2.28045">
        <ele>6.4000000953674</ele>
        <time>2021-03-21T11:04:23.000Z</time>
      </trkpt>
      <trkpt lat="47.28524" lon="-2.28045">
        <ele>6.4000000953674</ele>
        <time>2021-03-21T11:04:25.000Z</time>
      </trkpt>
      <trkpt lat="47.28519" lon="-2.28045">
        <ele>6.8000001907349</ele>
        <time>2021-03-21T11:04:28.000Z</time>
      </trkpt>
      <trkpt lat="47.28517" lon="-2.28045">
        <ele>7.1999998092651</ele>
        <time>2021-03-21T11:04:29.000Z</time>
      </trkpt>
      <trkpt lat="47.28516" lon="-2.28045">
        <ele>7.5999999046326</ele>
        <time>2021-03-21T11:04:30.000Z</time>
      </trkpt>
      <trkpt lat="47.28514" lon="-2.28044">
        <ele>8</ele>
        <time>2021-03-21T11:04:31.000Z</time>
      </trkpt>
      <trkpt lat="47.28513" lon="-2.28043">
        <ele>8.3999996185303</ele>
        <time>2021-03-21T11:04:32.000Z</time>
      </trkpt>
      <trkpt lat="47.28511" lon="-2.28043">
        <ele>8.3999996185303</ele>
        <time>2021-03-21T11:04:33.000Z</time>
      </trkpt>
      <trkpt lat="47.28504" lon="-2.28036">
        <ele>8.8000001907349</ele>
        <time>2021-03-21T11:04:38.000Z</time>
      </trkpt>
      <trkpt lat="47.28502" lon="-2.28035">
        <ele>9.1999998092651</ele>
        <time>2021-03-21T11:04:39.000Z</time>
      </trkpt>
      <trkpt lat="47.28499" lon="-2.28033">
        <ele>9.6000003814697</ele>
        <time>2021-03-21T11:04:40.000Z</time>
      </trkpt>
      <trkpt lat="47.28497" lon="-2.28034">
        <ele>10</ele>
        <time>2021-03-21T11:04:41.000Z</time>
      </trkpt>
      <trkpt lat="47.28495" lon="-2.28035">
        <ele>10.39999961853</ele>
        <time>2021-03-21T11:04:42.000Z</time>
      </trkpt>
      <trkpt lat="47.28493" lon="-2.28036">
        <ele>10.39999961853</ele>
        <time>2021-03-21T11:04:43.000Z</time>
      </trkpt>
      <trkpt lat="47.28484" lon="-2.28041">
        <ele>10.39999961853</ele>
        <time>2021-03-21T11:04:47.000Z</time>
      </trkpt>
      <trkpt lat="47.28482" lon="-2.28044">
        <ele>10.39999961853</ele>
        <time>2021-03-21T11:04:49.000Z</time>
      </trkpt>
      <trkpt lat="47.28481" lon="-2.28047">
        <ele>10.39999961853</ele>
        <time>2021-03-21T11:04:50.000Z</time>
      </trkpt>
      <trkpt lat="47.28482" lon="-2.2806">
        <ele>10.39999961853</ele>
        <time>2021-03-21T11:04:53.000Z</time>
      </trkpt>
      <trkpt lat="47.28488" lon="-2.28076">
        <ele>10.39999961853</ele>
        <time>2021-03-21T11:04:57.000Z</time>
      </trkpt>
      <trkpt lat="47.28488" lon="-2.28085">
        <ele>10.39999961853</ele>
        <time>2021-03-21T11:04:59.000Z</time>
      </trkpt>
      <trkpt lat="47.28484" lon="-2.28091">
        <ele>10.39999961853</ele>
        <time>2021-03-21T11:05:01.000Z</time>
      </trkpt>
      <trkpt lat="47.28478" lon="-2.28097">
        <ele>10.39999961853</ele>
        <time>2021-03-21T11:05:03.000Z</time>
      </trkpt>
      <trkpt lat="47.28473" lon="-2.28097">
        <ele>10.39999961853</ele>
        <time>2021-03-21T11:05:04.000Z</time>
      </trkpt>
      <trkpt lat="47.2847" lon="-2.28096">
        <ele>10.39999961853</ele>
        <time>2021-03-21T11:05:05.000Z</time>
      </trkpt>
      <trkpt lat="47.28466" lon="-2.28093">
        <ele>10</ele>
        <time>2021-03-21T11:05:06.000Z</time>
      </trkpt>
      <trkpt lat="47.28465" lon="-2.28092">
        <ele>9.1999998092651</ele>
        <time>2021-03-21T11:05:07.000Z</time>
      </trkpt>
      <trkpt lat="47.28462" lon="-2.28091">
        <ele>8.6000003814697</ele>
        <time>2021-03-21T11:05:08.000Z</time>
      </trkpt>
      <trkpt lat="47.28459" lon="-2.28091">
        <ele>8.1999998092651</ele>
        <time>2021-03-21T11:05:09.000Z</time>
      </trkpt>
      <trkpt lat="47.28457" lon="-2.2809">
        <ele>8.1999998092651</ele>
        <time>2021-03-21T11:05:10.000Z</time>
      </trkpt>
      <trkpt lat="47.28448" lon="-2.28086">
        <ele>8.1999998092651</ele>
        <time>2021-03-21T11:05:14.000Z</time>
      </trkpt>
      <trkpt lat="47.28443" lon="-2.28087">
        <ele>8.1999998092651</ele>
        <time>2021-03-21T11:05:16.000Z</time>
      </trkpt>
      <trkpt lat="47.28438" lon="-2.2809">
        <ele>8.1999998092651</ele>
        <time>2021-03-21T11:05:18.000Z</time>
      </trkpt>
      <trkpt lat="47.28424" lon="-2.2809">
        <ele>8.1999998092651</ele>
        <time>2021-03-21T11:05:24.000Z</time>
      </trkpt>
      <trkpt lat="47.28405" lon="-2.2808">
        <ele>8.1999998092651</ele>
        <time>2021-03-21T11:05:31.000Z</time>
      </trkpt>
      <trkpt lat="47.28388" lon="-2.28076">
        <ele>8.1999998092651</ele>
        <time>2021-03-21T11:05:37.000Z</time>
      </trkpt>
      <trkpt lat="47.28384" lon="-2.28076">
        <ele>8.1999998092651</ele>
        <time>2021-03-21T11:05:39.000Z</time>
      </trkpt>
      <trkpt lat="47.28378" lon="-2.28074">
        <ele>8.1999998092651</ele>
        <time>2021-03-21T11:05:42.000Z</time>
      </trkpt>
      <trkpt lat="47.28375" lon="-2.28063">
        <ele>8.1999998092651</ele>
        <time>2021-03-21T11:05:48.000Z</time>
      </trkpt>
      <trkpt lat="47.28375" lon="-2.2806">
        <ele>8.1999998092651</ele>
        <time>2021-03-21T11:05:49.000Z</time>
      </trkpt>
      <trkpt lat="47.28373" lon="-2.28052">
        <ele>8.1999998092651</ele>
        <time>2021-03-21T11:05:54.000Z</time>
      </trkpt>
      <trkpt lat="47.28371" lon="-2.28067">
        <ele>8.1999998092651</ele>
        <time>2021-03-21T11:05:58.000Z</time>
      </trkpt>
      <trkpt lat="47.28369" lon="-2.28073">
        <ele>8.1999998092651</ele>
        <time>2021-03-21T11:05:59.000Z</time>
      </trkpt>
      <trkpt lat="47.28361" lon="-2.28086">
        <ele>8.1999998092651</ele>
        <time>2021-03-21T11:06:02.000Z</time>
      </trkpt>
      <trkpt lat="47.28339" lon="-2.28108">
        <ele>8.1999998092651</ele>
        <time>2021-03-21T11:06:10.000Z</time>
      </trkpt>
      <trkpt lat="47.28332" lon="-2.28118">
        <ele>8.1999998092651</ele>
        <time>2021-03-21T11:06:12.000Z</time>
      </trkpt>
      <trkpt lat="47.2833" lon="-2.28138">
        <ele>8.1999998092651</ele>
        <time>2021-03-21T11:06:15.000Z</time>
      </trkpt>
      <trkpt lat="47.2833" lon="-2.28145">
        <ele>8.1999998092651</ele>
        <time>2021-03-21T11:06:16.000Z</time>
      </trkpt>
      <trkpt lat="47.28328" lon="-2.28182">
        <ele>9.1999998092651</ele>
        <time>2021-03-21T11:06:21.000Z</time>
      </trkpt>
      <trkpt lat="47.28328" lon="-2.28189">
        <ele>9.6000003814697</ele>
        <time>2021-03-21T11:06:22.000Z</time>
      </trkpt>
      <trkpt lat="47.28327" lon="-2.28195">
        <ele>10</ele>
        <time>2021-03-21T11:06:23.000Z</time>
      </trkpt>
      <trkpt lat="47.28327" lon="-2.28202">
        <ele>10.39999961853</ele>
        <time>2021-03-21T11:06:24.000Z</time>
      </trkpt>
      <trkpt lat="47.28326" lon="-2.28224">
        <ele>10.800000190735</ele>
        <time>2021-03-21T11:06:27.000Z</time>
      </trkpt>
      <trkpt lat="47.28326" lon="-2.28231">
        <ele>11.39999961853</ele>
        <time>2021-03-21T11:06:28.000Z</time>
      </trkpt>
      <trkpt lat="47.28326" lon="-2.28238">
        <ele>11.800000190735</ele>
        <time>2021-03-21T11:06:29.000Z</time>
      </trkpt>
      <trkpt lat="47.28325" lon="-2.28246">
        <ele>12.199999809265</ele>
        <time>2021-03-21T11:06:30.000Z</time>
      </trkpt>
      <trkpt lat="47.28326" lon="-2.28253">
        <ele>12.60000038147</ele>
        <time>2021-03-21T11:06:31.000Z</time>
      </trkpt>
      <trkpt lat="47.28325" lon="-2.28267">
        <ele>12.60000038147</ele>
        <time>2021-03-21T11:06:33.000Z</time>
      </trkpt>
      <trkpt lat="47.28325" lon="-2.28294">
        <ele>13</ele>
        <time>2021-03-21T11:06:37.000Z</time>
      </trkpt>
      <trkpt lat="47.28325" lon="-2.28301">
        <ele>13.60000038147</ele>
        <time>2021-03-21T11:06:38.000Z</time>
      </trkpt>
      <trkpt lat="47.28325" lon="-2.28307">
        <ele>14</ele>
        <time>2021-03-21T11:06:39.000Z</time>
      </trkpt>
      <trkpt lat="47.28325" lon="-2.28314">
        <ele>14.39999961853</ele>
        <time>2021-03-21T11:06:40.000Z</time>
      </trkpt>
      <trkpt lat="47.28325" lon="-2.2832">
        <ele>14.800000190735</ele>
        <time>2021-03-21T11:06:41.000Z</time>
      </trkpt>
      <trkpt lat="47.28325" lon="-2.2836">
        <ele>15.199999809265</ele>
        <time>2021-03-21T11:06:47.000Z</time>
      </trkpt>
      <trkpt lat="47.28324" lon="-2.28367">
        <ele>15.800000190735</ele>
        <time>2021-03-21T11:06:48.000Z</time>
      </trkpt>
      <trkpt lat="47.28323" lon="-2.28374">
        <ele>16.200000762939</ele>
        <time>2021-03-21T11:06:49.000Z</time>
      </trkpt>
      <trkpt lat="47.28322" lon="-2.28381">
        <ele>16.60000038147</ele>
        <time>2021-03-21T11:06:50.000Z</time>
      </trkpt>
      <trkpt lat="47.2832" lon="-2.28389">
        <ele>17</ele>
        <time>2021-03-21T11:06:51.000Z</time>
      </trkpt>
      <trkpt lat="47.28317" lon="-2.28404">
        <ele>17</ele>
        <time>2021-03-21T11:06:53.000Z</time>
      </trkpt>
      <trkpt lat="47.28304" lon="-2.28459">
        <ele>17</ele>
        <time>2021-03-21T11:07:00.000Z</time>
      </trkpt>
      <trkpt lat="47.28294" lon="-2.28524">
        <ele>17</ele>
        <time>2021-03-21T11:07:07.000Z</time>
      </trkpt>
      <trkpt lat="47.28287" lon="-2.28561">
        <ele>16.60000038147</ele>
        <time>2021-03-21T11:07:11.000Z</time>
      </trkpt>
      <trkpt lat="47.28285" lon="-2.28571">
        <ele>16.200000762939</ele>
        <time>2021-03-21T11:07:12.000Z</time>
      </trkpt>
      <trkpt lat="47.28283" lon="-2.2858">
        <ele>15.800000190735</ele>
        <time>2021-03-21T11:07:13.000Z</time>
      </trkpt>
      <trkpt lat="47.28282" lon="-2.28589">
        <ele>15.39999961853</ele>
        <time>2021-03-21T11:07:14.000Z</time>
      </trkpt>
      <trkpt lat="47.2828" lon="-2.28598">
        <ele>15</ele>
        <time>2021-03-21T11:07:15.000Z</time>
      </trkpt>
      <trkpt lat="47.28268" lon="-2.28651">
        <ele>15</ele>
        <time>2021-03-21T11:07:21.000Z</time>
      </trkpt>
      <trkpt lat="47.28257" lon="-2.28706">
        <ele>15</ele>
        <time>2021-03-21T11:07:27.000Z</time>
      </trkpt>
      <trkpt lat="47.28243" lon="-2.28782">
        <ele>15</ele>
        <time>2021-03-21T11:07:35.000Z</time>
      </trkpt>
      <trkpt lat="47.28233" lon="-2.28847">
        <ele>15</ele>
        <time>2021-03-21T11:07:42.000Z</time>
      </trkpt>
      <trkpt lat="47.28231" lon="-2.28855">
        <ele>15</ele>
        <time>2021-03-21T11:07:43.000Z</time>
      </trkpt>
      <trkpt lat="47.28224" lon="-2.28868">
        <ele>15</ele>
        <time>2021-03-21T11:07:45.000Z</time>
      </trkpt>
      <trkpt lat="47.28205" lon="-2.28868">
        <ele>15</ele>
        <time>2021-03-21T11:07:48.000Z</time>
      </trkpt>
      <trkpt lat="47.28192" lon="-2.28858">
        <ele>15</ele>
        <time>2021-03-21T11:07:50.000Z</time>
      </trkpt>
      <trkpt lat="47.28173" lon="-2.28841">
        <ele>15</ele>
        <time>2021-03-21T11:07:53.000Z</time>
      </trkpt>
      <trkpt lat="47.28125" lon="-2.28802">
        <ele>15</ele>
        <time>2021-03-21T11:08:00.000Z</time>
      </trkpt>
      <trkpt lat="47.28118" lon="-2.28797">
        <ele>14.60000038147</ele>
        <time>2021-03-21T11:08:01.000Z</time>
      </trkpt>
      <trkpt lat="47.28111" lon="-2.28792">
        <ele>14.199999809265</ele>
        <time>2021-03-21T11:08:02.000Z</time>
      </trkpt>
      <trkpt lat="47.28104" lon="-2.28788">
        <ele>13.800000190735</ele>
        <time>2021-03-21T11:08:03.000Z</time>
      </trkpt>
      <trkpt lat="47.28096" lon="-2.28783">
        <ele>13.39999961853</ele>
        <time>2021-03-21T11:08:04.000Z</time>
      </trkpt>
      <trkpt lat="47.28089" lon="-2.28778">
        <ele>13</ele>
        <time>2021-03-21T11:08:05.000Z</time>
      </trkpt>
      <trkpt lat="47.28058" lon="-2.28764">
        <ele>13</ele>
        <time>2021-03-21T11:08:09.000Z</time>
      </trkpt>
      <trkpt lat="47.28034" lon="-2.28756">
        <ele>12.60000038147</ele>
        <time>2021-03-21T11:08:12.000Z</time>
      </trkpt>
      <trkpt lat="47.28025" lon="-2.28754">
        <ele>12.199999809265</ele>
        <time>2021-03-21T11:08:13.000Z</time>
      </trkpt>
      <trkpt lat="47.28017" lon="-2.28753">
        <ele>11.800000190735</ele>
        <time>2021-03-21T11:08:14.000Z</time>
      </trkpt>
      <trkpt lat="47.28009" lon="-2.28751">
        <ele>11.39999961853</ele>
        <time>2021-03-21T11:08:15.000Z</time>
      </trkpt>
      <trkpt lat="47.28001" lon="-2.2875">
        <ele>11</ele>
        <time>2021-03-21T11:08:16.000Z</time>
      </trkpt>
      <trkpt lat="47.27962" lon="-2.28746">
        <ele>11</ele>
        <time>2021-03-21T11:08:21.000Z</time>
      </trkpt>
      <trkpt lat="47.27955" lon="-2.28747">
        <ele>11</ele>
        <time>2021-03-21T11:08:22.000Z</time>
      </trkpt>
      <trkpt lat="47.27928" lon="-2.28754">
        <ele>11</ele>
        <time>2021-03-21T11:08:26.000Z</time>
      </trkpt>
      <trkpt lat="47.27916" lon="-2.2876">
        <ele>11</ele>
        <time>2021-03-21T11:08:28.000Z</time>
      </trkpt>
      <trkpt lat="47.27904" lon="-2.28764">
        <ele>11</ele>
        <time>2021-03-21T11:08:30.000Z</time>
      </trkpt>
      <trkpt lat="47.2788" lon="-2.28772">
        <ele>10.39999961853</ele>
        <time>2021-03-21T11:08:35.000Z</time>
      </trkpt>
      <trkpt lat="47.27876" lon="-2.28776">
        <ele>10</ele>
        <time>2021-03-21T11:08:36.000Z</time>
      </trkpt>
      <trkpt lat="47.27874" lon="-2.28781">
        <ele>9.6000003814697</ele>
        <time>2021-03-21T11:08:37.000Z</time>
      </trkpt>
      <trkpt lat="47.27872" lon="-2.28787">
        <ele>9.1999998092651</ele>
        <time>2021-03-21T11:08:38.000Z</time>
      </trkpt>
      <trkpt lat="47.2787" lon="-2.28792">
        <ele>8.8000001907349</ele>
        <time>2021-03-21T11:08:39.000Z</time>
      </trkpt>
      <trkpt lat="47.27868" lon="-2.28796">
        <ele>8.8000001907349</ele>
        <time>2021-03-21T11:08:40.000Z</time>
      </trkpt>
      <trkpt lat="47.27861" lon="-2.28812">
        <ele>8.8000001907349</ele>
        <time>2021-03-21T11:08:44.000Z</time>
      </trkpt>
      <trkpt lat="47.27851" lon="-2.28807">
        <ele>8.8000001907349</ele>
        <time>2021-03-21T11:08:47.000Z</time>
      </trkpt>
      <trkpt lat="47.27847" lon="-2.28805">
        <ele>8.8000001907349</ele>
        <time>2021-03-21T11:08:48.000Z</time>
      </trkpt>
      <trkpt lat="47.27833" lon="-2.28797">
        <ele>8.8000001907349</ele>
        <time>2021-03-21T11:08:51.000Z</time>
      </trkpt>
      <trkpt lat="47.27809" lon="-2.28792">
        <ele>8.8000001907349</ele>
        <time>2021-03-21T11:08:55.000Z</time>
      </trkpt>
      <trkpt lat="47.27803" lon="-2.28792">
        <ele>8.8000001907349</ele>
        <time>2021-03-21T11:08:56.000Z</time>
      </trkpt>
      <trkpt lat="47.27783" lon="-2.28797">
        <ele>8.8000001907349</ele>
        <time>2021-03-21T11:09:00.000Z</time>
      </trkpt>
      <trkpt lat="47.27778" lon="-2.28795">
        <ele>8.8000001907349</ele>
        <time>2021-03-21T11:09:01.000Z</time>
      </trkpt>
      <trkpt lat="47.2777" lon="-2.28795">
        <ele>8.8000001907349</ele>
        <time>2021-03-21T11:09:03.000Z</time>
      </trkpt>
      <trkpt lat="47.27765" lon="-2.28796">
        <ele>8.8000001907349</ele>
        <time>2021-03-21T11:09:04.000Z</time>
      </trkpt>
      <trkpt lat="47.27733" lon="-2.28808">
        <ele>8.8000001907349</ele>
        <time>2021-03-21T11:09:10.000Z</time>
      </trkpt>
      <trkpt lat="47.277" lon="-2.28822">
        <ele>8.8000001907349</ele>
        <time>2021-03-21T11:09:16.000Z</time>
      </trkpt>
      <trkpt lat="47.27672" lon="-2.28833">
        <ele>8.8000001907349</ele>
        <time>2021-03-21T11:09:21.000Z</time>
      </trkpt>
      <trkpt lat="47.27639" lon="-2.28847">
        <ele>8.8000001907349</ele>
        <time>2021-03-21T11:09:27.000Z</time>
      </trkpt>
      <trkpt lat="47.27598" lon="-2.28864">
        <ele>8.8000001907349</ele>
        <time>2021-03-21T11:09:34.000Z</time>
      </trkpt>
      <trkpt lat="47.2757" lon="-2.28881">
        <ele>9.6000003814697</ele>
        <time>2021-03-21T11:09:39.000Z</time>
      </trkpt>
      <trkpt lat="47.27564" lon="-2.28885">
        <ele>10</ele>
        <time>2021-03-21T11:09:40.000Z</time>
      </trkpt>
      <trkpt lat="47.27559" lon="-2.28888">
        <ele>10.39999961853</ele>
        <time>2021-03-21T11:09:41.000Z</time>
      </trkpt>
      <trkpt lat="47.27554" lon="-2.28891">
        <ele>10.800000190735</ele>
        <time>2021-03-21T11:09:42.000Z</time>
      </trkpt>
      <trkpt lat="47.27517" lon="-2.28911">
        <ele>10.800000190735</ele>
        <time>2021-03-21T11:09:48.000Z</time>
      </trkpt>
      <trkpt lat="47.27485" lon="-2.28935">
        <ele>10.800000190735</ele>
        <time>2021-03-21T11:09:53.000Z</time>
      </trkpt>
      <trkpt lat="47.27474" lon="-2.28948">
        <ele>10.800000190735</ele>
        <time>2021-03-21T11:09:55.000Z</time>
      </trkpt>
      <trkpt lat="47.27467" lon="-2.28966">
        <ele>10.800000190735</ele>
        <time>2021-03-21T11:09:57.000Z</time>
      </trkpt>
      <trkpt lat="47.27453" lon="-2.29007">
        <ele>10.800000190735</ele>
        <time>2021-03-21T11:10:01.000Z</time>
      </trkpt>
      <trkpt lat="47.27448" lon="-2.29015">
        <ele>10.800000190735</ele>
        <time>2021-03-21T11:10:02.000Z</time>
      </trkpt>
      <trkpt lat="47.27431" lon="-2.29032">
        <ele>10.800000190735</ele>
        <time>2021-03-21T11:10:05.000Z</time>
      </trkpt>
      <trkpt lat="47.27416" lon="-2.29036">
        <ele>10.800000190735</ele>
        <time>2021-03-21T11:10:07.000Z</time>
      </trkpt>
      <trkpt lat="47.27403" lon="-2.29039">
        <ele>10.800000190735</ele>
        <time>2021-03-21T11:10:09.000Z</time>
      </trkpt>
      <trkpt lat="47.27391" lon="-2.29041">
        <ele>10.800000190735</ele>
        <time>2021-03-21T11:10:11.000Z</time>
      </trkpt>
      <trkpt lat="47.27379" lon="-2.29039">
        <ele>10.800000190735</ele>
        <time>2021-03-21T11:10:13.000Z</time>
      </trkpt>
      <trkpt lat="47.27342" lon="-2.29034">
        <ele>10.800000190735</ele>
        <time>2021-03-21T11:10:20.000Z</time>
      </trkpt>
      <trkpt lat="47.27329" lon="-2.29015">
        <ele>10.800000190735</ele>
        <time>2021-03-21T11:10:24.000Z</time>
      </trkpt>
      <trkpt lat="47.27327" lon="-2.29009">
        <ele>10.800000190735</ele>
        <time>2021-03-21T11:10:25.000Z</time>
      </trkpt>
      <trkpt lat="47.27325" lon="-2.29001">
        <ele>10.800000190735</ele>
        <time>2021-03-21T11:10:26.000Z</time>
      </trkpt>
      <trkpt lat="47.27324" lon="-2.28978">
        <ele>10.800000190735</ele>
        <time>2021-03-21T11:10:29.000Z</time>
      </trkpt>
      <trkpt lat="47.27324" lon="-2.28968">
        <ele>10.800000190735</ele>
        <time>2021-03-21T11:10:30.000Z</time>
      </trkpt>
      <trkpt lat="47.2732" lon="-2.28954">
        <ele>10.800000190735</ele>
        <time>2021-03-21T11:10:32.000Z</time>
      </trkpt>
      <trkpt lat="47.27318" lon="-2.2895">
        <ele>10.800000190735</ele>
        <time>2021-03-21T11:10:33.000Z</time>
      </trkpt>
      <trkpt lat="47.27314" lon="-2.28947">
        <ele>10.800000190735</ele>
        <time>2021-03-21T11:10:35.000Z</time>
      </trkpt>
      <trkpt lat="47.27309" lon="-2.28954">
        <ele>10.800000190735</ele>
        <time>2021-03-21T11:10:38.000Z</time>
      </trkpt>
      <trkpt lat="47.27307" lon="-2.28968">
        <ele>10.800000190735</ele>
        <time>2021-03-21T11:10:42.000Z</time>
      </trkpt>
      <trkpt lat="47.27299" lon="-2.28981">
        <ele>10.800000190735</ele>
        <time>2021-03-21T11:10:46.000Z</time>
      </trkpt>
      <trkpt lat="47.27296" lon="-2.28986">
        <ele>10.800000190735</ele>
        <time>2021-03-21T11:10:47.000Z</time>
      </trkpt>
      <trkpt lat="47.27287" lon="-2.29">
        <ele>10.800000190735</ele>
        <time>2021-03-21T11:10:50.000Z</time>
      </trkpt>
      <trkpt lat="47.27284" lon="-2.29007">
        <ele>10.800000190735</ele>
        <time>2021-03-21T11:10:51.000Z</time>
      </trkpt>
      <trkpt lat="47.27278" lon="-2.29022">
        <ele>10.800000190735</ele>
        <time>2021-03-21T11:10:53.000Z</time>
      </trkpt>
      <trkpt lat="47.27271" lon="-2.29033">
        <ele>10.800000190735</ele>
        <time>2021-03-21T11:10:55.000Z</time>
      </trkpt>
      <trkpt lat="47.27268" lon="-2.29039">
        <ele>10.800000190735</ele>
        <time>2021-03-21T11:10:56.000Z</time>
      </trkpt>
      <trkpt lat="47.27264" lon="-2.29044">
        <ele>11.199999809265</ele>
        <time>2021-03-21T11:10:57.000Z</time>
      </trkpt>
      <trkpt lat="47.2726" lon="-2.2905">
        <ele>11.60000038147</ele>
        <time>2021-03-21T11:10:58.000Z</time>
      </trkpt>
      <trkpt lat="47.27256" lon="-2.29055">
        <ele>12</ele>
        <time>2021-03-21T11:10:59.000Z</time>
      </trkpt>
      <trkpt lat="47.27252" lon="-2.2906">
        <ele>12.39999961853</ele>
        <time>2021-03-21T11:11:00.000Z</time>
      </trkpt>
      <trkpt lat="47.27248" lon="-2.29064">
        <ele>12.800000190735</ele>
        <time>2021-03-21T11:11:01.000Z</time>
      </trkpt>
      <trkpt lat="47.27238" lon="-2.29074">
        <ele>12.800000190735</ele>
        <time>2021-03-21T11:11:03.000Z</time>
      </trkpt>
      <trkpt lat="47.27219" lon="-2.29095">
        <ele>12.800000190735</ele>
        <time>2021-03-21T11:11:07.000Z</time>
      </trkpt>
      <trkpt lat="47.27201" lon="-2.29115">
        <ele>12.800000190735</ele>
        <time>2021-03-21T11:11:11.000Z</time>
      </trkpt>
      <trkpt lat="47.27192" lon="-2.29126">
        <ele>12.800000190735</ele>
        <time>2021-03-21T11:11:13.000Z</time>
      </trkpt>
      <trkpt lat="47.27174" lon="-2.29144">
        <ele>12.800000190735</ele>
        <time>2021-03-21T11:11:18.000Z</time>
      </trkpt>
      <trkpt lat="47.27161" lon="-2.2916">
        <ele>12.800000190735</ele>
        <time>2021-03-21T11:11:24.000Z</time>
      </trkpt>
      <trkpt lat="47.27153" lon="-2.2918">
        <ele>12.800000190735</ele>
        <time>2021-03-21T11:11:30.000Z</time>
      </trkpt>
      <trkpt lat="47.27147" lon="-2.29195">
        <ele>12.800000190735</ele>
        <time>2021-03-21T11:11:36.000Z</time>
      </trkpt>
      <trkpt lat="47.27145" lon="-2.29196">
        <ele>12.800000190735</ele>
        <time>2021-03-21T11:11:40.000Z</time>
      </trkpt>
      <trkpt lat="47.27144" lon="-2.292">
        <ele>12.800000190735</ele>
        <time>2021-03-21T11:15:24.000Z</time>
      </trkpt>
      <trkpt lat="47.27148" lon="-2.29198">
        <ele>12.800000190735</ele>
        <time>2021-03-21T11:15:27.000Z</time>
      </trkpt>
      <trkpt lat="47.27158" lon="-2.29202">
        <ele>12.800000190735</ele>
        <time>2021-03-21T11:15:32.000Z</time>
      </trkpt>
      <trkpt lat="47.27166" lon="-2.29218">
        <ele>12.800000190735</ele>
        <time>2021-03-21T11:15:36.000Z</time>
      </trkpt>
      <trkpt lat="47.27168" lon="-2.29222">
        <ele>12.800000190735</ele>
        <time>2021-03-21T11:15:37.000Z</time>
      </trkpt>
      <trkpt lat="47.27172" lon="-2.29232">
        <ele>12.800000190735</ele>
        <time>2021-03-21T11:15:39.000Z</time>
      </trkpt>
      <trkpt lat="47.27173" lon="-2.29245">
        <ele>12.800000190735</ele>
        <time>2021-03-21T11:15:41.000Z</time>
      </trkpt>
      <trkpt lat="47.2717" lon="-2.29258">
        <ele>12.800000190735</ele>
        <time>2021-03-21T11:15:43.000Z</time>
      </trkpt>
      <trkpt lat="47.27168" lon="-2.29264">
        <ele>12.800000190735</ele>
        <time>2021-03-21T11:15:44.000Z</time>
      </trkpt>
      <trkpt lat="47.27166" lon="-2.2927">
        <ele>12.800000190735</ele>
        <time>2021-03-21T11:15:45.000Z</time>
      </trkpt>
      <trkpt lat="47.2716" lon="-2.29282">
        <ele>13.199999809265</ele>
        <time>2021-03-21T11:15:47.000Z</time>
      </trkpt>
      <trkpt lat="47.27157" lon="-2.29288">
        <ele>14</ele>
        <time>2021-03-21T11:15:48.000Z</time>
      </trkpt>
      <trkpt lat="47.27155" lon="-2.29295">
        <ele>14.39999961853</ele>
        <time>2021-03-21T11:15:49.000Z</time>
      </trkpt>
      <trkpt lat="47.27153" lon="-2.29301">
        <ele>14.800000190735</ele>
        <time>2021-03-21T11:15:50.000Z</time>
      </trkpt>
      <trkpt lat="47.27152" lon="-2.29308">
        <ele>14.800000190735</ele>
        <time>2021-03-21T11:15:51.000Z</time>
      </trkpt>
      <trkpt lat="47.27154" lon="-2.29323">
        <ele>14.800000190735</ele>
        <time>2021-03-21T11:15:54.000Z</time>
      </trkpt>
      <trkpt lat="47.27163" lon="-2.29338">
        <ele>14.800000190735</ele>
        <time>2021-03-21T11:15:58.000Z</time>
      </trkpt>
      <trkpt lat="47.27169" lon="-2.29348">
        <ele>14.800000190735</ele>
        <time>2021-03-21T11:16:00.000Z</time>
      </trkpt>
      <trkpt lat="47.2718" lon="-2.29365">
        <ele>14.800000190735</ele>
        <time>2021-03-21T11:16:02.000Z</time>
      </trkpt>
      <trkpt lat="47.27203" lon="-2.29418">
        <ele>14.800000190735</ele>
        <time>2021-03-21T11:16:08.000Z</time>
      </trkpt>
      <trkpt lat="47.27223" lon="-2.29476">
        <ele>14.800000190735</ele>
        <time>2021-03-21T11:16:15.000Z</time>
      </trkpt>
      <trkpt lat="47.27243" lon="-2.29528">
        <ele>14.800000190735</ele>
        <time>2021-03-21T11:16:22.000Z</time>
      </trkpt>
      <trkpt lat="47.27248" lon="-2.29562">
        <ele>14.800000190735</ele>
        <time>2021-03-21T11:16:26.000Z</time>
      </trkpt>
      <trkpt lat="47.27258" lon="-2.29618">
        <ele>14.800000190735</ele>
        <time>2021-03-21T11:16:33.000Z</time>
      </trkpt>
      <trkpt lat="47.27259" lon="-2.29624">
        <ele>14.800000190735</ele>
        <time>2021-03-21T11:16:34.000Z</time>
      </trkpt>
      <trkpt lat="47.27262" lon="-2.29631">
        <ele>14.800000190735</ele>
        <time>2021-03-21T11:16:36.000Z</time>
      </trkpt>
      <trkpt lat="47.27264" lon="-2.2964">
        <ele>14.800000190735</ele>
        <time>2021-03-21T11:16:38.000Z</time>
      </trkpt>
      <trkpt lat="47.27267" lon="-2.2966">
        <ele>14.800000190735</ele>
        <time>2021-03-21T11:16:41.000Z</time>
      </trkpt>
      <trkpt lat="47.2727" lon="-2.29691">
        <ele>14.800000190735</ele>
        <time>2021-03-21T11:16:45.000Z</time>
      </trkpt>
      <trkpt lat="47.27274" lon="-2.29708">
        <ele>14.800000190735</ele>
        <time>2021-03-21T11:16:47.000Z</time>
      </trkpt>
      <trkpt lat="47.27287" lon="-2.29757">
        <ele>14.800000190735</ele>
        <time>2021-03-21T11:16:53.000Z</time>
      </trkpt>
      <trkpt lat="47.27299" lon="-2.2979">
        <ele>14.800000190735</ele>
        <time>2021-03-21T11:16:57.000Z</time>
      </trkpt>
      <trkpt lat="47.27303" lon="-2.29798">
        <ele>14.800000190735</ele>
        <time>2021-03-21T11:16:58.000Z</time>
      </trkpt>
      <trkpt lat="47.27329" lon="-2.29841">
        <ele>14.800000190735</ele>
        <time>2021-03-21T11:17:04.000Z</time>
      </trkpt>
      <trkpt lat="47.27355" lon="-2.29889">
        <ele>14.800000190735</ele>
        <time>2021-03-21T11:17:10.000Z</time>
      </trkpt>
      <trkpt lat="47.27376" lon="-2.29936">
        <ele>14.800000190735</ele>
        <time>2021-03-21T11:17:16.000Z</time>
      </trkpt>
      <trkpt lat="47.27393" lon="-2.29974">
        <ele>14.800000190735</ele>
        <time>2021-03-21T11:17:21.000Z</time>
      </trkpt>
      <trkpt lat="47.27419" lon="-2.30036">
        <ele>14.800000190735</ele>
        <time>2021-03-21T11:17:28.000Z</time>
      </trkpt>
      <trkpt lat="47.27437" lon="-2.30093">
        <ele>14.800000190735</ele>
        <time>2021-03-21T11:17:34.000Z</time>
      </trkpt>
      <trkpt lat="47.2745" lon="-2.30152">
        <ele>14.800000190735</ele>
        <time>2021-03-21T11:17:40.000Z</time>
      </trkpt>
      <trkpt lat="47.27459" lon="-2.30193">
        <ele>14.39999961853</ele>
        <time>2021-03-21T11:17:44.000Z</time>
      </trkpt>
      <trkpt lat="47.27461" lon="-2.30204">
        <ele>14</ele>
        <time>2021-03-21T11:17:45.000Z</time>
      </trkpt>
      <trkpt lat="47.27463" lon="-2.30215">
        <ele>13.60000038147</ele>
        <time>2021-03-21T11:17:46.000Z</time>
      </trkpt>
      <trkpt lat="47.27465" lon="-2.30226">
        <ele>13.199999809265</ele>
        <time>2021-03-21T11:17:47.000Z</time>
      </trkpt>
      <trkpt lat="47.27467" lon="-2.30238">
        <ele>12.800000190735</ele>
        <time>2021-03-21T11:17:48.000Z</time>
      </trkpt>
      <trkpt lat="47.27477" lon="-2.30282">
        <ele>12.800000190735</ele>
        <time>2021-03-21T11:17:52.000Z</time>
      </trkpt>
      <trkpt lat="47.2748" lon="-2.30293">
        <ele>12.199999809265</ele>
        <time>2021-03-21T11:17:53.000Z</time>
      </trkpt>
      <trkpt lat="47.27483" lon="-2.30304">
        <ele>11.800000190735</ele>
        <time>2021-03-21T11:17:54.000Z</time>
      </trkpt>
      <trkpt lat="47.27485" lon="-2.30317">
        <ele>11.39999961853</ele>
        <time>2021-03-21T11:17:55.000Z</time>
      </trkpt>
      <trkpt lat="47.27487" lon="-2.30328">
        <ele>10.800000190735</ele>
        <time>2021-03-21T11:17:56.000Z</time>
      </trkpt>
      <trkpt lat="47.27488" lon="-2.3034">
        <ele>10.39999961853</ele>
        <time>2021-03-21T11:17:57.000Z</time>
      </trkpt>
      <trkpt lat="47.27493" lon="-2.30362">
        <ele>10</ele>
        <time>2021-03-21T11:17:59.000Z</time>
      </trkpt>
      <trkpt lat="47.27496" lon="-2.30373">
        <ele>9.3999996185303</ele>
        <time>2021-03-21T11:18:00.000Z</time>
      </trkpt>
      <trkpt lat="47.27499" lon="-2.30384">
        <ele>9</ele>
        <time>2021-03-21T11:18:01.000Z</time>
      </trkpt>
      <trkpt lat="47.27501" lon="-2.30396">
        <ele>8.3999996185303</ele>
        <time>2021-03-21T11:18:02.000Z</time>
      </trkpt>
      <trkpt lat="47.27503" lon="-2.30409">
        <ele>8</ele>
        <time>2021-03-21T11:18:03.000Z</time>
      </trkpt>
      <trkpt lat="47.27516" lon="-2.3047">
        <ele>8</ele>
        <time>2021-03-21T11:18:08.000Z</time>
      </trkpt>
      <trkpt lat="47.27532" lon="-2.30543">
        <ele>7.5999999046326</ele>
        <time>2021-03-21T11:18:14.000Z</time>
      </trkpt>
      <trkpt lat="47.27535" lon="-2.30554">
        <ele>7.1999998092651</ele>
        <time>2021-03-21T11:18:15.000Z</time>
      </trkpt>
      <trkpt lat="47.27539" lon="-2.30564">
        <ele>6.5999999046326</ele>
        <time>2021-03-21T11:18:16.000Z</time>
      </trkpt>
      <trkpt lat="47.27541" lon="-2.30572">
        <ele>5.8000001907349</ele>
        <time>2021-03-21T11:18:17.000Z</time>
      </trkpt>
      <trkpt lat="47.27543" lon="-2.30579">
        <ele>5.8000001907349</ele>
        <time>2021-03-21T11:18:18.000Z</time>
      </trkpt>
      <trkpt lat="47.27545" lon="-2.30584">
        <ele>5.4000000953674</ele>
        <time>2021-03-21T11:18:19.000Z</time>
      </trkpt>
      <trkpt lat="47.27547" lon="-2.30589">
        <ele>5</ele>
        <time>2021-03-21T11:18:20.000Z</time>
      </trkpt>
      <trkpt lat="47.27547" lon="-2.30593">
        <ele>4.5999999046326</ele>
        <time>2021-03-21T11:18:21.000Z</time>
      </trkpt>
      <trkpt lat="47.27546" lon="-2.30597">
        <ele>4</ele>
        <time>2021-03-21T11:18:22.000Z</time>
      </trkpt>
      <trkpt lat="47.27546" lon="-2.306">
        <ele>3.5999999046326</ele>
        <time>2021-03-21T11:18:23.000Z</time>
      </trkpt>
      <trkpt lat="47.27547" lon="-2.30608">
        <ele>3.5999999046326</ele>
        <time>2021-03-21T11:18:27.000Z</time>
      </trkpt>
      <trkpt lat="47.2755" lon="-2.30625">
        <ele>3.5999999046326</ele>
        <time>2021-03-21T11:18:32.000Z</time>
      </trkpt>
      <trkpt lat="47.27558" lon="-2.30659">
        <ele>3.5999999046326</ele>
        <time>2021-03-21T11:18:37.000Z</time>
      </trkpt>
      <trkpt lat="47.27568" lon="-2.30702">
        <ele>3.5999999046326</ele>
        <time>2021-03-21T11:18:43.000Z</time>
      </trkpt>
      <trkpt lat="47.27579" lon="-2.30752">
        <ele>3.5999999046326</ele>
        <time>2021-03-21T11:18:50.000Z</time>
      </trkpt>
      <trkpt lat="47.27588" lon="-2.30773">
        <ele>4</ele>
        <time>2021-03-21T11:18:53.000Z</time>
      </trkpt>
      <trkpt lat="47.2759" lon="-2.3078">
        <ele>4.4000000953674</ele>
        <time>2021-03-21T11:18:54.000Z</time>
      </trkpt>
      <trkpt lat="47.27593" lon="-2.30788">
        <ele>4.8000001907349</ele>
        <time>2021-03-21T11:18:55.000Z</time>
      </trkpt>
      <trkpt lat="47.27597" lon="-2.30794">
        <ele>5.1999998092651</ele>
        <time>2021-03-21T11:18:56.000Z</time>
      </trkpt>
      <trkpt lat="47.276" lon="-2.30801">
        <ele>5.5999999046326</ele>
        <time>2021-03-21T11:18:57.000Z</time>
      </trkpt>
      <trkpt lat="47.27603" lon="-2.30807">
        <ele>5.5999999046326</ele>
        <time>2021-03-21T11:18:58.000Z</time>
      </trkpt>
      <trkpt lat="47.27626" lon="-2.30858">
        <ele>5.5999999046326</ele>
        <time>2021-03-21T11:19:05.000Z</time>
      </trkpt>
      <trkpt lat="47.27643" lon="-2.30899">
        <ele>5.5999999046326</ele>
        <time>2021-03-21T11:19:11.000Z</time>
      </trkpt>
      <trkpt lat="47.27663" lon="-2.30941">
        <ele>5.5999999046326</ele>
        <time>2021-03-21T11:19:17.000Z</time>
      </trkpt>
      <trkpt lat="47.27678" lon="-2.30983">
        <ele>5.5999999046326</ele>
        <time>2021-03-21T11:19:23.000Z</time>
      </trkpt>
      <trkpt lat="47.27681" lon="-2.3099">
        <ele>5.5999999046326</ele>
        <time>2021-03-21T11:19:24.000Z</time>
      </trkpt>
      <trkpt lat="47.27696" lon="-2.31026">
        <ele>5.5999999046326</ele>
        <time>2021-03-21T11:19:29.000Z</time>
      </trkpt>
      <trkpt lat="47.27698" lon="-2.31032">
        <ele>5.5999999046326</ele>
        <time>2021-03-21T11:19:30.000Z</time>
      </trkpt>
      <trkpt lat="47.27704" lon="-2.31049">
        <ele>5.5999999046326</ele>
        <time>2021-03-21T11:19:33.000Z</time>
      </trkpt>
      <trkpt lat="47.27707" lon="-2.31061">
        <ele>5.5999999046326</ele>
        <time>2021-03-21T11:19:35.000Z</time>
      </trkpt>
      <trkpt lat="47.27713" lon="-2.31087">
        <ele>5.5999999046326</ele>
        <time>2021-03-21T11:19:39.000Z</time>
      </trkpt>
      <trkpt lat="47.27711" lon="-2.311">
        <ele>5.5999999046326</ele>
        <time>2021-03-21T11:19:41.000Z</time>
      </trkpt>
      <trkpt lat="47.27709" lon="-2.31106">
        <ele>5.5999999046326</ele>
        <time>2021-03-21T11:19:42.000Z</time>
      </trkpt>
      <trkpt lat="47.27706" lon="-2.31119">
        <ele>5.5999999046326</ele>
        <time>2021-03-21T11:19:44.000Z</time>
      </trkpt>
      <trkpt lat="47.277" lon="-2.31146">
        <ele>5.5999999046326</ele>
        <time>2021-03-21T11:19:48.000Z</time>
      </trkpt>
      <trkpt lat="47.27694" lon="-2.31172">
        <ele>5.5999999046326</ele>
        <time>2021-03-21T11:19:51.000Z</time>
      </trkpt>
      <trkpt lat="47.27692" lon="-2.3118">
        <ele>5.5999999046326</ele>
        <time>2021-03-21T11:19:52.000Z</time>
      </trkpt>
      <trkpt lat="47.27687" lon="-2.31197">
        <ele>5.1999998092651</ele>
        <time>2021-03-21T11:19:54.000Z</time>
      </trkpt>
      <trkpt lat="47.27685" lon="-2.31206">
        <ele>4.8000001907349</ele>
        <time>2021-03-21T11:19:55.000Z</time>
      </trkpt>
      <trkpt lat="47.27683" lon="-2.31215">
        <ele>4</ele>
        <time>2021-03-21T11:19:56.000Z</time>
      </trkpt>
      <trkpt lat="47.27682" lon="-2.31224">
        <ele>3.5999999046326</ele>
        <time>2021-03-21T11:19:57.000Z</time>
      </trkpt>
      <trkpt lat="47.2768" lon="-2.31233">
        <ele>3.5999999046326</ele>
        <time>2021-03-21T11:19:58.000Z</time>
      </trkpt>
      <trkpt lat="47.27662" lon="-2.31294">
        <ele>3.5999999046326</ele>
        <time>2021-03-21T11:20:05.000Z</time>
      </trkpt>
      <trkpt lat="47.27659" lon="-2.31303">
        <ele>3.2000000476837</ele>
        <time>2021-03-21T11:20:06.000Z</time>
      </trkpt>
      <trkpt lat="47.27657" lon="-2.31312">
        <ele>2.5999999046326</ele>
        <time>2021-03-21T11:20:07.000Z</time>
      </trkpt>
      <trkpt lat="47.27654" lon="-2.31322">
        <ele>2.2000000476837</ele>
        <time>2021-03-21T11:20:08.000Z</time>
      </trkpt>
      <trkpt lat="47.27651" lon="-2.31331">
        <ele>1.7999999523163</ele>
        <time>2021-03-21T11:20:09.000Z</time>
      </trkpt>
      <trkpt lat="47.27647" lon="-2.31341">
        <ele>1.3999999761581</ele>
        <time>2021-03-21T11:20:10.000Z</time>
      </trkpt>
      <trkpt lat="47.27631" lon="-2.31396">
        <ele>1.3999999761581</ele>
        <time>2021-03-21T11:20:15.000Z</time>
      </trkpt>
      <trkpt lat="47.27621" lon="-2.31432">
        <ele>1</ele>
        <time>2021-03-21T11:20:18.000Z</time>
      </trkpt>
      <trkpt lat="47.27617" lon="-2.31444">
        <ele>0.40000000596046</ele>
        <time>2021-03-21T11:20:19.000Z</time>
      </trkpt>
      <trkpt lat="47.27614" lon="-2.31457">
        <ele>-0.60000002384186</ele>
        <time>2021-03-21T11:20:20.000Z</time>
      </trkpt>
      <trkpt lat="47.2761" lon="-2.3147">
        <ele>-1</ele>
        <time>2021-03-21T11:20:21.000Z</time>
      </trkpt>
      <trkpt lat="47.27591" lon="-2.31545">
        <ele>-1</ele>
        <time>2021-03-21T11:20:27.000Z</time>
      </trkpt>
      <trkpt lat="47.27583" lon="-2.31568">
        <ele>-1</ele>
        <time>2021-03-21T11:20:29.000Z</time>
      </trkpt>
      <trkpt lat="47.2757" lon="-2.31602">
        <ele>-1</ele>
        <time>2021-03-21T11:20:32.000Z</time>
      </trkpt>
      <trkpt lat="47.27554" lon="-2.31661">
        <ele>-1</ele>
        <time>2021-03-21T11:20:37.000Z</time>
      </trkpt>
      <trkpt lat="47.2754" lon="-2.3171">
        <ele>-1</ele>
        <time>2021-03-21T11:20:41.000Z</time>
      </trkpt>
      <trkpt lat="47.27534" lon="-2.31737">
        <ele>-1.3999999761581</ele>
        <time>2021-03-21T11:20:43.000Z</time>
      </trkpt>
      <trkpt lat="47.27531" lon="-2.3175">
        <ele>-2</ele>
        <time>2021-03-21T11:20:44.000Z</time>
      </trkpt>
      <trkpt lat="47.27528" lon="-2.31764">
        <ele>-2.7999999523163</ele>
        <time>2021-03-21T11:20:45.000Z</time>
      </trkpt>
      <trkpt lat="47.27525" lon="-2.31777">
        <ele>-3.4000000953674</ele>
        <time>2021-03-21T11:20:46.000Z</time>
      </trkpt>
      <trkpt lat="47.27518" lon="-2.31804">
        <ele>-3.4000000953674</ele>
        <time>2021-03-21T11:20:48.000Z</time>
      </trkpt>
      <trkpt lat="47.27495" lon="-2.31876">
        <ele>-3.4000000953674</ele>
        <time>2021-03-21T11:20:54.000Z</time>
      </trkpt>
      <trkpt lat="47.27468" lon="-2.31945">
        <ele>-3.7999999523163</ele>
        <time>2021-03-21T11:21:00.000Z</time>
      </trkpt>
      <trkpt lat="47.27463" lon="-2.31956">
        <ele>-4.1999998092651</ele>
        <time>2021-03-21T11:21:01.000Z</time>
      </trkpt>
      <trkpt lat="47.27459" lon="-2.31966">
        <ele>-4.5999999046326</ele>
        <time>2021-03-21T11:21:02.000Z</time>
      </trkpt>
      <trkpt lat="47.27454" lon="-2.31977">
        <ele>-5</ele>
        <time>2021-03-21T11:21:03.000Z</time>
      </trkpt>
      <trkpt lat="47.27449" lon="-2.31987">
        <ele>-5.4000000953674</ele>
        <time>2021-03-21T11:21:04.000Z</time>
      </trkpt>
      <trkpt lat="47.2744" lon="-2.32008">
        <ele>-5.4000000953674</ele>
        <time>2021-03-21T11:21:06.000Z</time>
      </trkpt>
      <trkpt lat="47.27426" lon="-2.32036">
        <ele>-5.4000000953674</ele>
        <time>2021-03-21T11:21:09.000Z</time>
      </trkpt>
      <trkpt lat="47.27421" lon="-2.32042">
        <ele>-5.8000001907349</ele>
        <time>2021-03-21T11:21:10.000Z</time>
      </trkpt>
      <trkpt lat="47.27417" lon="-2.32045">
        <ele>-6.1999998092651</ele>
        <time>2021-03-21T11:21:11.000Z</time>
      </trkpt>
      <trkpt lat="47.27412" lon="-2.32046">
        <ele>-6.8000001907349</ele>
        <time>2021-03-21T11:21:12.000Z</time>
      </trkpt>
      <trkpt lat="47.27408" lon="-2.32043">
        <ele>-7.1999998092651</ele>
        <time>2021-03-21T11:21:13.000Z</time>
      </trkpt>
      <trkpt lat="47.27401" lon="-2.32037">
        <ele>-7.5999999046326</ele>
        <time>2021-03-21T11:21:14.000Z</time>
      </trkpt>
      <trkpt lat="47.27395" lon="-2.32031">
        <ele>-7.5999999046326</ele>
        <time>2021-03-21T11:21:15.000Z</time>
      </trkpt>
      <trkpt lat="47.27388" lon="-2.32026">
        <ele>-7.5999999046326</ele>
        <time>2021-03-21T11:21:16.000Z</time>
      </trkpt>
      <trkpt lat="47.27353" lon="-2.31995">
        <ele>-7.5999999046326</ele>
        <time>2021-03-21T11:21:22.000Z</time>
      </trkpt>
      <trkpt lat="47.27341" lon="-2.31988">
        <ele>-7.5999999046326</ele>
        <time>2021-03-21T11:21:25.000Z</time>
      </trkpt>
      <trkpt lat="47.27341" lon="-2.31988">
        <ele>-7.5999999046326</ele>
        <time>2021-03-21T11:21:27.000Z</time>
      </trkpt>
      <trkpt lat="47.27341" lon="-2.31993">
        <ele>-7.5999999046326</ele>
        <time>2021-03-21T11:21:32.000Z</time>
      </trkpt>
      <trkpt lat="47.27345" lon="-2.32006">
        <ele>-7.5999999046326</ele>
        <time>2021-03-21T11:21:35.000Z</time>
      </trkpt>
      <trkpt lat="47.27358" lon="-2.32022">
        <ele>-7.5999999046326</ele>
        <time>2021-03-21T11:21:39.000Z</time>
      </trkpt>
      <trkpt lat="47.27362" lon="-2.32027">
        <ele>-7.5999999046326</ele>
        <time>2021-03-21T11:21:40.000Z</time>
      </trkpt>
      <trkpt lat="47.27386" lon="-2.3206">
        <ele>-7.5999999046326</ele>
        <time>2021-03-21T11:21:46.000Z</time>
      </trkpt>
      <trkpt lat="47.27404" lon="-2.32085">
        <ele>-7.5999999046326</ele>
        <time>2021-03-21T11:21:50.000Z</time>
      </trkpt>
      <trkpt lat="47.27407" lon="-2.32092">
        <ele>-7.5999999046326</ele>
        <time>2021-03-21T11:21:51.000Z</time>
      </trkpt>
      <trkpt lat="47.27412" lon="-2.32117">
        <ele>-7.5999999046326</ele>
        <time>2021-03-21T11:21:54.000Z</time>
      </trkpt>
      <trkpt lat="47.27406" lon="-2.32152">
        <ele>-7.5999999046326</ele>
        <time>2021-03-21T11:21:58.000Z</time>
      </trkpt>
      <trkpt lat="47.27401" lon="-2.3218">
        <ele>-7.5999999046326</ele>
        <time>2021-03-21T11:22:01.000Z</time>
      </trkpt>
      <trkpt lat="47.27396" lon="-2.32207">
        <ele>-7.5999999046326</ele>
        <time>2021-03-21T11:22:04.000Z</time>
      </trkpt>
      <trkpt lat="47.27395" lon="-2.32216">
        <ele>-7.5999999046326</ele>
        <time>2021-03-21T11:22:05.000Z</time>
      </trkpt>
      <trkpt lat="47.27388" lon="-2.32251">
        <ele>-7.5999999046326</ele>
        <time>2021-03-21T11:22:09.000Z</time>
      </trkpt>
      <trkpt lat="47.27378" lon="-2.32289">
        <ele>-7.5999999046326</ele>
        <time>2021-03-21T11:22:14.000Z</time>
      </trkpt>
      <trkpt lat="47.27376" lon="-2.32296">
        <ele>-7.5999999046326</ele>
        <time>2021-03-21T11:22:15.000Z</time>
      </trkpt>
      <trkpt lat="47.27369" lon="-2.32326">
        <ele>-7.1999998092651</ele>
        <time>2021-03-21T11:22:19.000Z</time>
      </trkpt>
      <trkpt lat="47.27368" lon="-2.32335">
        <ele>-6.8000001907349</ele>
        <time>2021-03-21T11:22:20.000Z</time>
      </trkpt>
      <trkpt lat="47.27366" lon="-2.32343">
        <ele>-6.4000000953674</ele>
        <time>2021-03-21T11:22:21.000Z</time>
      </trkpt>
      <trkpt lat="47.27364" lon="-2.32351">
        <ele>-6</ele>
        <time>2021-03-21T11:22:22.000Z</time>
      </trkpt>
      <trkpt lat="47.27362" lon="-2.32359">
        <ele>-5.5999999046326</ele>
        <time>2021-03-21T11:22:23.000Z</time>
      </trkpt>
      <trkpt lat="47.27356" lon="-2.3239">
        <ele>-5.5999999046326</ele>
        <time>2021-03-21T11:22:26.000Z</time>
      </trkpt>
      <trkpt lat="47.27337" lon="-2.3245">
        <ele>-5.5999999046326</ele>
        <time>2021-03-21T11:22:32.000Z</time>
      </trkpt>
      <trkpt lat="47.27325" lon="-2.32474">
        <ele>-5.5999999046326</ele>
        <time>2021-03-21T11:22:35.000Z</time>
      </trkpt>
      <trkpt lat="47.27313" lon="-2.32494">
        <ele>-5.5999999046326</ele>
        <time>2021-03-21T11:22:38.000Z</time>
      </trkpt>
      <trkpt lat="47.27297" lon="-2.32519">
        <ele>-5.5999999046326</ele>
        <time>2021-03-21T11:22:42.000Z</time>
      </trkpt>
      <trkpt lat="47.27289" lon="-2.32531">
        <ele>-5.5999999046326</ele>
        <time>2021-03-21T11:22:44.000Z</time>
      </trkpt>
      <trkpt lat="47.27264" lon="-2.32567">
        <ele>-5.5999999046326</ele>
        <time>2021-03-21T11:22:50.000Z</time>
      </trkpt>
      <trkpt lat="47.27259" lon="-2.32572">
        <ele>-5.5999999046326</ele>
        <time>2021-03-21T11:22:51.000Z</time>
      </trkpt>
      <trkpt lat="47.27238" lon="-2.32594">
        <ele>-5.5999999046326</ele>
        <time>2021-03-21T11:22:55.000Z</time>
      </trkpt>
      <trkpt lat="47.27205" lon="-2.32626">
        <ele>-5.5999999046326</ele>
        <time>2021-03-21T11:23:01.000Z</time>
      </trkpt>
      <trkpt lat="47.27162" lon="-2.32667">
        <ele>-5.5999999046326</ele>
        <time>2021-03-21T11:23:09.000Z</time>
      </trkpt>
      <trkpt lat="47.27132" lon="-2.32698">
        <ele>-5.5999999046326</ele>
        <time>2021-03-21T11:23:15.000Z</time>
      </trkpt>
      <trkpt lat="47.2712" lon="-2.32713">
        <ele>-5.5999999046326</ele>
        <time>2021-03-21T11:23:18.000Z</time>
      </trkpt>
      <trkpt lat="47.27101" lon="-2.3273">
        <ele>-5.5999999046326</ele>
        <time>2021-03-21T11:23:22.000Z</time>
      </trkpt>
      <trkpt lat="47.27096" lon="-2.32735">
        <ele>-5.5999999046326</ele>
        <time>2021-03-21T11:23:23.000Z</time>
      </trkpt>
      <trkpt lat="47.27074" lon="-2.32756">
        <ele>-5.5999999046326</ele>
        <time>2021-03-21T11:23:27.000Z</time>
      </trkpt>
      <trkpt lat="47.27031" lon="-2.32796">
        <ele>-5.5999999046326</ele>
        <time>2021-03-21T11:23:34.000Z</time>
      </trkpt>
      <trkpt lat="47.26996" lon="-2.32829">
        <ele>-5.5999999046326</ele>
        <time>2021-03-21T11:23:40.000Z</time>
      </trkpt>
      <trkpt lat="47.26961" lon="-2.3286">
        <ele>-5.5999999046326</ele>
        <time>2021-03-21T11:23:46.000Z</time>
      </trkpt>
      <trkpt lat="47.26927" lon="-2.32893">
        <ele>-5.5999999046326</ele>
        <time>2021-03-21T11:23:52.000Z</time>
      </trkpt>
      <trkpt lat="47.26916" lon="-2.32902">
        <ele>-6</ele>
        <time>2021-03-21T11:23:54.000Z</time>
      </trkpt>
      <trkpt lat="47.2691" lon="-2.32907">
        <ele>-6.4000000953674</ele>
        <time>2021-03-21T11:23:55.000Z</time>
      </trkpt>
      <trkpt lat="47.26905" lon="-2.32913">
        <ele>-6.8000001907349</ele>
        <time>2021-03-21T11:23:56.000Z</time>
      </trkpt>
      <trkpt lat="47.26899" lon="-2.32918">
        <ele>-7.1999998092651</ele>
        <time>2021-03-21T11:23:57.000Z</time>
      </trkpt>
      <trkpt lat="47.26892" lon="-2.32922">
        <ele>-7.5999999046326</ele>
        <time>2021-03-21T11:23:58.000Z</time>
      </trkpt>
      <trkpt lat="47.2687" lon="-2.32944">
        <ele>-7.5999999046326</ele>
        <time>2021-03-21T11:24:02.000Z</time>
      </trkpt>
      <trkpt lat="47.26838" lon="-2.32976">
        <ele>-7.5999999046326</ele>
        <time>2021-03-21T11:24:08.000Z</time>
      </trkpt>
      <trkpt lat="47.26812" lon="-2.33002">
        <ele>-7.5999999046326</ele>
        <time>2021-03-21T11:24:13.000Z</time>
      </trkpt>
      <trkpt lat="47.26781" lon="-2.33033">
        <ele>-7.5999999046326</ele>
        <time>2021-03-21T11:24:20.000Z</time>
      </trkpt>
      <trkpt lat="47.26744" lon="-2.33067">
        <ele>-8.3999996185303</ele>
        <time>2021-03-21T11:24:28.000Z</time>
      </trkpt>
      <trkpt lat="47.2674" lon="-2.33066">
        <ele>-8.8000001907349</ele>
        <time>2021-03-21T11:24:29.000Z</time>
      </trkpt>
      <trkpt lat="47.26736" lon="-2.33064">
        <ele>-9.1999998092651</ele>
        <time>2021-03-21T11:24:30.000Z</time>
      </trkpt>
      <trkpt lat="47.26733" lon="-2.33064">
        <ele>-9.8000001907349</ele>
        <time>2021-03-21T11:24:31.000Z</time>
      </trkpt>
      <trkpt lat="47.26729" lon="-2.33065">
        <ele>-10.199999809265</ele>
        <time>2021-03-21T11:24:32.000Z</time>
      </trkpt>
      <trkpt lat="47.26726" lon="-2.33066">
        <ele>-10.800000190735</ele>
        <time>2021-03-21T11:24:33.000Z</time>
      </trkpt>
      <trkpt lat="47.26722" lon="-2.33068">
        <ele>-11.199999809265</ele>
        <time>2021-03-21T11:24:34.000Z</time>
      </trkpt>
      <trkpt lat="47.26719" lon="-2.33071">
        <ele>-11.800000190735</ele>
        <time>2021-03-21T11:24:35.000Z</time>
      </trkpt>
      <trkpt lat="47.26711" lon="-2.33079">
        <ele>-11.800000190735</ele>
        <time>2021-03-21T11:24:37.000Z</time>
      </trkpt>
      <trkpt lat="47.26699" lon="-2.33092">
        <ele>-11.800000190735</ele>
        <time>2021-03-21T11:24:40.000Z</time>
      </trkpt>
      <trkpt lat="47.26666" lon="-2.33127">
        <ele>-11.800000190735</ele>
        <time>2021-03-21T11:24:48.000Z</time>
      </trkpt>
      <trkpt lat="47.26661" lon="-2.33131">
        <ele>-11.800000190735</ele>
        <time>2021-03-21T11:24:49.000Z</time>
      </trkpt>
      <trkpt lat="47.26638" lon="-2.33149">
        <ele>-11.800000190735</ele>
        <time>2021-03-21T11:24:54.000Z</time>
      </trkpt>
      <trkpt lat="47.26634" lon="-2.33151">
        <ele>-11.800000190735</ele>
        <time>2021-03-21T11:24:55.000Z</time>
      </trkpt>
      <trkpt lat="47.2662" lon="-2.3315">
        <ele>-11.800000190735</ele>
        <time>2021-03-21T11:24:58.000Z</time>
      </trkpt>
      <trkpt lat="47.2661" lon="-2.33149">
        <ele>-11.800000190735</ele>
        <time>2021-03-21T11:25:00.000Z</time>
      </trkpt>
      <trkpt lat="47.26597" lon="-2.33154">
        <ele>-11.800000190735</ele>
        <time>2021-03-21T11:25:03.000Z</time>
      </trkpt>
      <trkpt lat="47.26589" lon="-2.33173">
        <ele>-11.800000190735</ele>
        <time>2021-03-21T11:25:06.000Z</time>
      </trkpt>
      <trkpt lat="47.26575" lon="-2.33196">
        <ele>-11.800000190735</ele>
        <time>2021-03-21T11:25:10.000Z</time>
      </trkpt>
      <trkpt lat="47.26561" lon="-2.33205">
        <ele>-11.800000190735</ele>
        <time>2021-03-21T11:25:13.000Z</time>
      </trkpt>
      <trkpt lat="47.26551" lon="-2.33211">
        <ele>-11.800000190735</ele>
        <time>2021-03-21T11:25:15.000Z</time>
      </trkpt>
      <trkpt lat="47.26515" lon="-2.33231">
        <ele>-11.800000190735</ele>
        <time>2021-03-21T11:25:23.000Z</time>
      </trkpt>
      <trkpt lat="47.26493" lon="-2.33252">
        <ele>-11.800000190735</ele>
        <time>2021-03-21T11:25:30.000Z</time>
      </trkpt>
      <trkpt lat="47.26481" lon="-2.33281">
        <ele>-11.800000190735</ele>
        <time>2021-03-21T11:25:37.000Z</time>
      </trkpt>
      <trkpt lat="47.26472" lon="-2.33306">
        <ele>-11.800000190735</ele>
        <time>2021-03-21T11:25:43.000Z</time>
      </trkpt>
      <trkpt lat="47.26451" lon="-2.33323">
        <ele>-11.800000190735</ele>
        <time>2021-03-21T11:25:49.000Z</time>
      </trkpt>
      <trkpt lat="47.26417" lon="-2.3335">
        <ele>-11.800000190735</ele>
        <time>2021-03-21T11:25:57.000Z</time>
      </trkpt>
      <trkpt lat="47.26383" lon="-2.33372">
        <ele>-11.800000190735</ele>
        <time>2021-03-21T11:26:05.000Z</time>
      </trkpt>
      <trkpt lat="47.26352" lon="-2.33387">
        <ele>-11.800000190735</ele>
        <time>2021-03-21T11:26:12.000Z</time>
      </trkpt>
      <trkpt lat="47.2632" lon="-2.33405">
        <ele>-11.800000190735</ele>
        <time>2021-03-21T11:26:19.000Z</time>
      </trkpt>
      <trkpt lat="47.26306" lon="-2.33417">
        <ele>-11.800000190735</ele>
        <time>2021-03-21T11:26:23.000Z</time>
      </trkpt>
      <trkpt lat="47.26302" lon="-2.3342">
        <ele>-11.800000190735</ele>
        <time>2021-03-21T11:26:24.000Z</time>
      </trkpt>
      <trkpt lat="47.26287" lon="-2.33424">
        <ele>-11.800000190735</ele>
        <time>2021-03-21T11:26:27.000Z</time>
      </trkpt>
      <trkpt lat="47.26251" lon="-2.33431">
        <ele>-11.800000190735</ele>
        <time>2021-03-21T11:26:34.000Z</time>
      </trkpt>
      <trkpt lat="47.26208" lon="-2.33438">
        <ele>-11.800000190735</ele>
        <time>2021-03-21T11:26:42.000Z</time>
      </trkpt>
      <trkpt lat="47.26192" lon="-2.3344">
        <ele>-11.800000190735</ele>
        <time>2021-03-21T11:26:45.000Z</time>
      </trkpt>
      <trkpt lat="47.26178" lon="-2.33439">
        <ele>-11.800000190735</ele>
        <time>2021-03-21T11:26:48.000Z</time>
      </trkpt>
      <trkpt lat="47.26151" lon="-2.33429">
        <ele>-11.800000190735</ele>
        <time>2021-03-21T11:26:54.000Z</time>
      </trkpt>
      <trkpt lat="47.26141" lon="-2.33431">
        <ele>-11.800000190735</ele>
        <time>2021-03-21T11:26:57.000Z</time>
      </trkpt>
      <trkpt lat="47.26139" lon="-2.33435">
        <ele>-11.800000190735</ele>
        <time>2021-03-21T11:26:58.000Z</time>
      </trkpt>
      <trkpt lat="47.26127" lon="-2.33464">
        <ele>-11.800000190735</ele>
        <time>2021-03-21T11:27:04.000Z</time>
      </trkpt>
      <trkpt lat="47.26123" lon="-2.33476">
        <ele>-11.800000190735</ele>
        <time>2021-03-21T11:27:06.000Z</time>
      </trkpt>
      <trkpt lat="47.26117" lon="-2.33489">
        <ele>-11.800000190735</ele>
        <time>2021-03-21T11:27:09.000Z</time>
      </trkpt>
      <trkpt lat="47.26109" lon="-2.33488">
        <ele>-11.800000190735</ele>
        <time>2021-03-21T11:27:12.000Z</time>
      </trkpt>
      <trkpt lat="47.26087" lon="-2.33485">
        <ele>-11.800000190735</ele>
        <time>2021-03-21T11:27:17.000Z</time>
      </trkpt>
      <trkpt lat="47.26076" lon="-2.33475">
        <ele>-11.800000190735</ele>
        <time>2021-03-21T11:27:20.000Z</time>
      </trkpt>
      <trkpt lat="47.26063" lon="-2.33482">
        <ele>-11.800000190735</ele>
        <time>2021-03-21T11:27:23.000Z</time>
      </trkpt>
      <trkpt lat="47.2606" lon="-2.33481">
        <ele>-11.800000190735</ele>
        <time>2021-03-21T11:27:24.000Z</time>
      </trkpt>
      <trkpt lat="47.26054" lon="-2.33472">
        <ele>-11.800000190735</ele>
        <time>2021-03-21T11:27:26.000Z</time>
      </trkpt>
      <trkpt lat="47.26042" lon="-2.33473">
        <ele>-11.800000190735</ele>
        <time>2021-03-21T11:27:29.000Z</time>
      </trkpt>
      <trkpt lat="47.26026" lon="-2.33484">
        <ele>-11.800000190735</ele>
        <time>2021-03-21T11:27:33.000Z</time>
      </trkpt>
      <trkpt lat="47.26016" lon="-2.33487">
        <ele>-11.800000190735</ele>
        <time>2021-03-21T11:27:35.000Z</time>
      </trkpt>
      <trkpt lat="47.25993" lon="-2.33493">
        <ele>-11.800000190735</ele>
        <time>2021-03-21T11:27:40.000Z</time>
      </trkpt>
      <trkpt lat="47.25979" lon="-2.33504">
        <ele>-11.800000190735</ele>
        <time>2021-03-21T11:27:44.000Z</time>
      </trkpt>
      <trkpt lat="47.25963" lon="-2.33506">
        <ele>-11.800000190735</ele>
        <time>2021-03-21T11:27:48.000Z</time>
      </trkpt>
      <trkpt lat="47.25952" lon="-2.33515">
        <ele>-11.800000190735</ele>
        <time>2021-03-21T11:27:51.000Z</time>
      </trkpt>
      <trkpt lat="47.25948" lon="-2.33519">
        <ele>-11.800000190735</ele>
        <time>2021-03-21T11:27:52.000Z</time>
      </trkpt>
      <trkpt lat="47.25934" lon="-2.33535">
        <ele>-11.800000190735</ele>
        <time>2021-03-21T11:27:56.000Z</time>
      </trkpt>
      <trkpt lat="47.25922" lon="-2.33544">
        <ele>-11.800000190735</ele>
        <time>2021-03-21T11:27:59.000Z</time>
      </trkpt>
      <trkpt lat="47.259" lon="-2.33562">
        <ele>-11.39999961853</ele>
        <time>2021-03-21T11:28:04.000Z</time>
      </trkpt>
      <trkpt lat="47.25896" lon="-2.33565">
        <ele>-11</ele>
        <time>2021-03-21T11:28:05.000Z</time>
      </trkpt>
      <trkpt lat="47.25891" lon="-2.33568">
        <ele>-10.60000038147</ele>
        <time>2021-03-21T11:28:06.000Z</time>
      </trkpt>
      <trkpt lat="47.25887" lon="-2.33571">
        <ele>-10.199999809265</ele>
        <time>2021-03-21T11:28:07.000Z</time>
      </trkpt>
      <trkpt lat="47.25882" lon="-2.33574">
        <ele>-9.6000003814697</ele>
        <time>2021-03-21T11:28:08.000Z</time>
      </trkpt>
      <trkpt lat="47.25877" lon="-2.33576">
        <ele>-9.6000003814697</ele>
        <time>2021-03-21T11:28:09.000Z</time>
      </trkpt>
      <trkpt lat="47.25866" lon="-2.33576">
        <ele>-9.6000003814697</ele>
        <time>2021-03-21T11:28:11.000Z</time>
      </trkpt>
      <trkpt lat="47.25825" lon="-2.33579">
        <ele>-9.6000003814697</ele>
        <time>2021-03-21T11:28:19.000Z</time>
      </trkpt>
      <trkpt lat="47.25796" lon="-2.33581">
        <ele>-9.6000003814697</ele>
        <time>2021-03-21T11:28:25.000Z</time>
      </trkpt>
      <trkpt lat="47.25763" lon="-2.33583">
        <ele>-9.6000003814697</ele>
        <time>2021-03-21T11:28:31.000Z</time>
      </trkpt>
      <trkpt lat="47.25748" lon="-2.33586">
        <ele>-9.6000003814697</ele>
        <time>2021-03-21T11:28:34.000Z</time>
      </trkpt>
      <trkpt lat="47.25744" lon="-2.33586">
        <ele>-9.1999998092651</ele>
        <time>2021-03-21T11:28:35.000Z</time>
      </trkpt>
      <trkpt lat="47.2574" lon="-2.33586">
        <ele>-8.8000001907349</ele>
        <time>2021-03-21T11:28:36.000Z</time>
      </trkpt>
      <trkpt lat="47.25735" lon="-2.33585">
        <ele>-8.3999996185303</ele>
        <time>2021-03-21T11:28:37.000Z</time>
      </trkpt>
      <trkpt lat="47.25729" lon="-2.33585">
        <ele>-8</ele>
        <time>2021-03-21T11:28:38.000Z</time>
      </trkpt>
      <trkpt lat="47.25724" lon="-2.33585">
        <ele>-7.5999999046326</ele>
        <time>2021-03-21T11:28:39.000Z</time>
      </trkpt>
      <trkpt lat="47.25718" lon="-2.33585">
        <ele>-7.5999999046326</ele>
        <time>2021-03-21T11:28:40.000Z</time>
      </trkpt>
      <trkpt lat="47.25679" lon="-2.33583">
        <ele>-7.5999999046326</ele>
        <time>2021-03-21T11:28:47.000Z</time>
      </trkpt>
      <trkpt lat="47.25638" lon="-2.33567">
        <ele>-7.5999999046326</ele>
        <time>2021-03-21T11:28:54.000Z</time>
      </trkpt>
      <trkpt lat="47.25604" lon="-2.33542">
        <ele>-7.5999999046326</ele>
        <time>2021-03-21T11:29:00.000Z</time>
      </trkpt>
      <trkpt lat="47.25571" lon="-2.33502">
        <ele>-7.5999999046326</ele>
        <time>2021-03-21T11:29:07.000Z</time>
      </trkpt>
      <trkpt lat="47.25555" lon="-2.33474">
        <ele>-7.5999999046326</ele>
        <time>2021-03-21T11:29:11.000Z</time>
      </trkpt>
      <trkpt lat="47.25545" lon="-2.33452">
        <ele>-7.5999999046326</ele>
        <time>2021-03-21T11:29:14.000Z</time>
      </trkpt>
      <trkpt lat="47.25529" lon="-2.33402">
        <ele>-7.5999999046326</ele>
        <time>2021-03-21T11:29:20.000Z</time>
      </trkpt>
      <trkpt lat="47.25521" lon="-2.33349">
        <ele>-7.5999999046326</ele>
        <time>2021-03-21T11:29:26.000Z</time>
      </trkpt>
      <trkpt lat="47.25513" lon="-2.33268">
        <ele>-7.5999999046326</ele>
        <time>2021-03-21T11:29:35.000Z</time>
      </trkpt>
      <trkpt lat="47.25503" lon="-2.33189">
        <ele>-7.5999999046326</ele>
        <time>2021-03-21T11:29:44.000Z</time>
      </trkpt>
      <trkpt lat="47.25493" lon="-2.33124">
        <ele>-7.5999999046326</ele>
        <time>2021-03-21T11:29:52.000Z</time>
      </trkpt>
      <trkpt lat="47.25486" lon="-2.33087">
        <ele>-7.5999999046326</ele>
        <time>2021-03-21T11:29:58.000Z</time>
      </trkpt>
      <trkpt lat="47.25471" lon="-2.33093">
        <ele>-7.5999999046326</ele>
        <time>2021-03-21T11:30:01.000Z</time>
      </trkpt>
      <trkpt lat="47.25467" lon="-2.33096">
        <ele>-7.5999999046326</ele>
        <time>2021-03-21T11:30:02.000Z</time>
      </trkpt>
      <trkpt lat="47.25431" lon="-2.33116">
        <ele>-7.5999999046326</ele>
        <time>2021-03-21T11:30:09.000Z</time>
      </trkpt>
      <trkpt lat="47.25404" lon="-2.33131">
        <ele>-7.5999999046326</ele>
        <time>2021-03-21T11:30:15.000Z</time>
      </trkpt>
      <trkpt lat="47.25383" lon="-2.33136">
        <ele>-7.5999999046326</ele>
        <time>2021-03-21T11:30:20.000Z</time>
      </trkpt>
      <trkpt lat="47.2538" lon="-2.33133">
        <ele>-7.5999999046326</ele>
        <time>2021-03-21T11:30:21.000Z</time>
      </trkpt>
      <trkpt lat="47.25369" lon="-2.33119">
        <ele>-7.5999999046326</ele>
        <time>2021-03-21T11:30:25.000Z</time>
      </trkpt>
      <trkpt lat="47.25367" lon="-2.33116">
        <ele>-7.5999999046326</ele>
        <time>2021-03-21T11:30:28.000Z</time>
      </trkpt>
      <trkpt lat="47.25367" lon="-2.33115">
        <ele>-7.5999999046326</ele>
        <time>2021-03-21T11:30:29.000Z</time>
      </trkpt>
      <trkpt lat="47.25365" lon="-2.33101">
        <ele>-7.5999999046326</ele>
        <time>2021-03-21T11:37:05.000Z</time>
      </trkpt>
      <trkpt lat="47.25363" lon="-2.33093">
        <ele>-7.5999999046326</ele>
        <time>2021-03-21T11:37:07.000Z</time>
      </trkpt>
      <trkpt lat="47.25354" lon="-2.33067">
        <ele>-7.5999999046326</ele>
        <time>2021-03-21T11:37:12.000Z</time>
      </trkpt>
      <trkpt lat="47.25339" lon="-2.33027">
        <ele>-7.5999999046326</ele>
        <time>2021-03-21T11:37:19.000Z</time>
      </trkpt>
      <trkpt lat="47.2532" lon="-2.32979">
        <ele>-7.1999998092651</ele>
        <time>2021-03-21T11:37:27.000Z</time>
      </trkpt>
      <trkpt lat="47.25318" lon="-2.32972">
        <ele>-6.8000001907349</ele>
        <time>2021-03-21T11:37:28.000Z</time>
      </trkpt>
      <trkpt lat="47.25316" lon="-2.32965">
        <ele>-6.4000000953674</ele>
        <time>2021-03-21T11:37:29.000Z</time>
      </trkpt>
      <trkpt lat="47.25313" lon="-2.32959">
        <ele>-6</ele>
        <time>2021-03-21T11:37:30.000Z</time>
      </trkpt>
      <trkpt lat="47.25311" lon="-2.32953">
        <ele>-5.5999999046326</ele>
        <time>2021-03-21T11:37:31.000Z</time>
      </trkpt>
      <trkpt lat="47.25304" lon="-2.32929">
        <ele>-5.5999999046326</ele>
        <time>2021-03-21T11:37:35.000Z</time>
      </trkpt>
      <trkpt lat="47.25312" lon="-2.32913">
        <ele>-5.5999999046326</ele>
        <time>2021-03-21T11:37:38.000Z</time>
      </trkpt>
      <trkpt lat="47.25328" lon="-2.329">
        <ele>-5.5999999046326</ele>
        <time>2021-03-21T11:37:41.000Z</time>
      </trkpt>
      <trkpt lat="47.25366" lon="-2.32863">
        <ele>-5.5999999046326</ele>
        <time>2021-03-21T11:37:49.000Z</time>
      </trkpt>
      <trkpt lat="47.25397" lon="-2.32826">
        <ele>-5.5999999046326</ele>
        <time>2021-03-21T11:37:56.000Z</time>
      </trkpt>
      <trkpt lat="47.25427" lon="-2.3278">
        <ele>-5.5999999046326</ele>
        <time>2021-03-21T11:38:04.000Z</time>
      </trkpt>
      <trkpt lat="47.25433" lon="-2.32765">
        <ele>-5.5999999046326</ele>
        <time>2021-03-21T11:38:07.000Z</time>
      </trkpt>
      <trkpt lat="47.25447" lon="-2.32746">
        <ele>-5.1999998092651</ele>
        <time>2021-03-21T11:38:11.000Z</time>
      </trkpt>
      <trkpt lat="47.2545" lon="-2.3274">
        <ele>-4.8000001907349</ele>
        <time>2021-03-21T11:38:12.000Z</time>
      </trkpt>
      <trkpt lat="47.25453" lon="-2.32735">
        <ele>-4.4000000953674</ele>
        <time>2021-03-21T11:38:13.000Z</time>
      </trkpt>
      <trkpt lat="47.25457" lon="-2.32731">
        <ele>-4</ele>
        <time>2021-03-21T11:38:14.000Z</time>
      </trkpt>
      <trkpt lat="47.25461" lon="-2.32726">
        <ele>-3.5999999046326</ele>
        <time>2021-03-21T11:38:15.000Z</time>
      </trkpt>
      <trkpt lat="47.25477" lon="-2.32706">
        <ele>-3.5999999046326</ele>
        <time>2021-03-21T11:38:19.000Z</time>
      </trkpt>
      <trkpt lat="47.25487" lon="-2.32689">
        <ele>-3.5999999046326</ele>
        <time>2021-03-21T11:38:22.000Z</time>
      </trkpt>
      <trkpt lat="47.25491" lon="-2.32673">
        <ele>-3.5999999046326</ele>
        <time>2021-03-21T11:38:24.000Z</time>
      </trkpt>
      <trkpt lat="47.25487" lon="-2.32643">
        <ele>-3.5999999046326</ele>
        <time>2021-03-21T11:38:28.000Z</time>
      </trkpt>
      <trkpt lat="47.25484" lon="-2.32621">
        <ele>-3.5999999046326</ele>
        <time>2021-03-21T11:38:31.000Z</time>
      </trkpt>
      <trkpt lat="47.25481" lon="-2.32599">
        <ele>-3.5999999046326</ele>
        <time>2021-03-21T11:38:34.000Z</time>
      </trkpt>
      <trkpt lat="47.2548" lon="-2.32592">
        <ele>-3.5999999046326</ele>
        <time>2021-03-21T11:38:35.000Z</time>
      </trkpt>
      <trkpt lat="47.25484" lon="-2.32563">
        <ele>-3.5999999046326</ele>
        <time>2021-03-21T11:38:39.000Z</time>
      </trkpt>
      <trkpt lat="47.25494" lon="-2.32548">
        <ele>-3.5999999046326</ele>
        <time>2021-03-21T11:38:42.000Z</time>
      </trkpt>
      <trkpt lat="47.25503" lon="-2.32539">
        <ele>-3.5999999046326</ele>
        <time>2021-03-21T11:38:44.000Z</time>
      </trkpt>
      <trkpt lat="47.25513" lon="-2.32527">
        <ele>-3.5999999046326</ele>
        <time>2021-03-21T11:38:46.000Z</time>
      </trkpt>
      <trkpt lat="47.25517" lon="-2.32523">
        <ele>-3.5999999046326</ele>
        <time>2021-03-21T11:38:47.000Z</time>
      </trkpt>
      <trkpt lat="47.25548" lon="-2.32493">
        <ele>-3.5999999046326</ele>
        <time>2021-03-21T11:38:53.000Z</time>
      </trkpt>
      <trkpt lat="47.25578" lon="-2.32464">
        <ele>-3.5999999046326</ele>
        <time>2021-03-21T11:38:58.000Z</time>
      </trkpt>
      <trkpt lat="47.25591" lon="-2.3245">
        <ele>-4</ele>
        <time>2021-03-21T11:39:00.000Z</time>
      </trkpt>
      <trkpt lat="47.25597" lon="-2.32443">
        <ele>-4.4000000953674</ele>
        <time>2021-03-21T11:39:01.000Z</time>
      </trkpt>
      <trkpt lat="47.25604" lon="-2.32435">
        <ele>-4.8000001907349</ele>
        <time>2021-03-21T11:39:02.000Z</time>
      </trkpt>
      <trkpt lat="47.2561" lon="-2.32429">
        <ele>-5.1999998092651</ele>
        <time>2021-03-21T11:39:03.000Z</time>
      </trkpt>
      <trkpt lat="47.25616" lon="-2.32422">
        <ele>-5.8000001907349</ele>
        <time>2021-03-21T11:39:04.000Z</time>
      </trkpt>
      <trkpt lat="47.2563" lon="-2.32409">
        <ele>-6.1999998092651</ele>
        <time>2021-03-21T11:39:06.000Z</time>
      </trkpt>
      <trkpt lat="47.25636" lon="-2.32404">
        <ele>-6.5999999046326</ele>
        <time>2021-03-21T11:39:07.000Z</time>
      </trkpt>
      <trkpt lat="47.25641" lon="-2.324">
        <ele>-7</ele>
        <time>2021-03-21T11:39:08.000Z</time>
      </trkpt>
      <trkpt lat="47.25647" lon="-2.32398">
        <ele>-7.4000000953674</ele>
        <time>2021-03-21T11:39:09.000Z</time>
      </trkpt>
      <trkpt lat="47.25653" lon="-2.32397">
        <ele>-7.8000001907349</ele>
        <time>2021-03-21T11:39:10.000Z</time>
      </trkpt>
      <trkpt lat="47.25663" lon="-2.32402">
        <ele>-7.8000001907349</ele>
        <time>2021-03-21T11:39:12.000Z</time>
      </trkpt>
      <trkpt lat="47.25678" lon="-2.32416">
        <ele>-7.8000001907349</ele>
        <time>2021-03-21T11:39:15.000Z</time>
      </trkpt>
      <trkpt lat="47.25696" lon="-2.32419">
        <ele>-7.8000001907349</ele>
        <time>2021-03-21T11:39:18.000Z</time>
      </trkpt>
      <trkpt lat="47.25703" lon="-2.32419">
        <ele>-7.8000001907349</ele>
        <time>2021-03-21T11:39:19.000Z</time>
      </trkpt>
      <trkpt lat="47.25722" lon="-2.3242">
        <ele>-8.1999998092651</ele>
        <time>2021-03-21T11:39:22.000Z</time>
      </trkpt>
      <trkpt lat="47.25728" lon="-2.3242">
        <ele>-8.8000001907349</ele>
        <time>2021-03-21T11:39:23.000Z</time>
      </trkpt>
      <trkpt lat="47.25735" lon="-2.32421">
        <ele>-9.1999998092651</ele>
        <time>2021-03-21T11:39:24.000Z</time>
      </trkpt>
      <trkpt lat="47.25741" lon="-2.32421">
        <ele>-9.6000003814697</ele>
        <time>2021-03-21T11:39:25.000Z</time>
      </trkpt>
      <trkpt lat="47.25747" lon="-2.3242">
        <ele>-10</ele>
        <time>2021-03-21T11:39:26.000Z</time>
      </trkpt>
      <trkpt lat="47.25753" lon="-2.32419">
        <ele>-10</ele>
        <time>2021-03-21T11:39:27.000Z</time>
      </trkpt>
      <trkpt lat="47.25769" lon="-2.32412">
        <ele>-10</ele>
        <time>2021-03-21T11:39:30.000Z</time>
      </trkpt>
      <trkpt lat="47.25781" lon="-2.32413">
        <ele>-10</ele>
        <time>2021-03-21T11:39:32.000Z</time>
      </trkpt>
      <trkpt lat="47.25785" lon="-2.32417">
        <ele>-10</ele>
        <time>2021-03-21T11:39:33.000Z</time>
      </trkpt>
      <trkpt lat="47.25797" lon="-2.32441">
        <ele>-10</ele>
        <time>2021-03-21T11:39:36.000Z</time>
      </trkpt>
      <trkpt lat="47.25803" lon="-2.32447">
        <ele>-10</ele>
        <time>2021-03-21T11:39:37.000Z</time>
      </trkpt>
      <trkpt lat="47.25816" lon="-2.32456">
        <ele>-10</ele>
        <time>2021-03-21T11:39:39.000Z</time>
      </trkpt>
      <trkpt lat="47.25829" lon="-2.32464">
        <ele>-10</ele>
        <time>2021-03-21T11:39:41.000Z</time>
      </trkpt>
      <trkpt lat="47.25849" lon="-2.32471">
        <ele>-10</ele>
        <time>2021-03-21T11:39:44.000Z</time>
      </trkpt>
      <trkpt lat="47.25855" lon="-2.32471">
        <ele>-10</ele>
        <time>2021-03-21T11:39:45.000Z</time>
      </trkpt>
      <trkpt lat="47.25869" lon="-2.3247">
        <ele>-10</ele>
        <time>2021-03-21T11:39:47.000Z</time>
      </trkpt>
      <trkpt lat="47.25875" lon="-2.32468">
        <ele>-10</ele>
        <time>2021-03-21T11:39:48.000Z</time>
      </trkpt>
      <trkpt lat="47.25899" lon="-2.32457">
        <ele>-10</ele>
        <time>2021-03-21T11:39:52.000Z</time>
      </trkpt>
      <trkpt lat="47.25905" lon="-2.32451">
        <ele>-10</ele>
        <time>2021-03-21T11:39:53.000Z</time>
      </trkpt>
      <trkpt lat="47.25934" lon="-2.32411">
        <ele>-10</ele>
        <time>2021-03-21T11:39:59.000Z</time>
      </trkpt>
      <trkpt lat="47.25979" lon="-2.32354">
        <ele>-10</ele>
        <time>2021-03-21T11:40:08.000Z</time>
      </trkpt>
      <trkpt lat="47.26013" lon="-2.32311">
        <ele>-10</ele>
        <time>2021-03-21T11:40:15.000Z</time>
      </trkpt>
      <trkpt lat="47.26046" lon="-2.3227">
        <ele>-10</ele>
        <time>2021-03-21T11:40:22.000Z</time>
      </trkpt>
      <trkpt lat="47.26083" lon="-2.32226">
        <ele>-10</ele>
        <time>2021-03-21T11:40:30.000Z</time>
      </trkpt>
      <trkpt lat="47.26106" lon="-2.32187">
        <ele>-10</ele>
        <time>2021-03-21T11:40:36.000Z</time>
      </trkpt>
      <trkpt lat="47.26111" lon="-2.32172">
        <ele>-10</ele>
        <time>2021-03-21T11:40:38.000Z</time>
      </trkpt>
      <trkpt lat="47.26119" lon="-2.32148">
        <ele>-10</ele>
        <time>2021-03-21T11:40:41.000Z</time>
      </trkpt>
      <trkpt lat="47.26127" lon="-2.32127">
        <ele>-10</ele>
        <time>2021-03-21T11:40:44.000Z</time>
      </trkpt>
      <trkpt lat="47.26131" lon="-2.3211">
        <ele>-10</ele>
        <time>2021-03-21T11:40:46.000Z</time>
      </trkpt>
      <trkpt lat="47.26151" lon="-2.3204">
        <ele>-10</ele>
        <time>2021-03-21T11:40:55.000Z</time>
      </trkpt>
      <trkpt lat="47.26154" lon="-2.32034">
        <ele>-10</ele>
        <time>2021-03-21T11:40:56.000Z</time>
      </trkpt>
      <trkpt lat="47.26164" lon="-2.32022">
        <ele>-10</ele>
        <time>2021-03-21T11:40:59.000Z</time>
      </trkpt>
      <trkpt lat="47.26181" lon="-2.32021">
        <ele>-10</ele>
        <time>2021-03-21T11:41:03.000Z</time>
      </trkpt>
      <trkpt lat="47.26184" lon="-2.32022">
        <ele>-10</ele>
        <time>2021-03-21T11:41:04.000Z</time>
      </trkpt>
      <trkpt lat="47.26196" lon="-2.3202">
        <ele>-10</ele>
        <time>2021-03-21T11:41:08.000Z</time>
      </trkpt>
      <trkpt lat="47.26198" lon="-2.32008">
        <ele>-10</ele>
        <time>2021-03-21T11:41:11.000Z</time>
      </trkpt>
      <trkpt lat="47.26198" lon="-2.32003">
        <ele>-10.39999961853</ele>
        <time>2021-03-21T11:41:12.000Z</time>
      </trkpt>
      <trkpt lat="47.26201" lon="-2.32002">
        <ele>-10.800000190735</ele>
        <time>2021-03-21T11:41:13.000Z</time>
      </trkpt>
      <trkpt lat="47.26204" lon="-2.32001">
        <ele>-11.199999809265</ele>
        <time>2021-03-21T11:41:14.000Z</time>
      </trkpt>
      <trkpt lat="47.26206" lon="-2.32">
        <ele>-11.60000038147</ele>
        <time>2021-03-21T11:41:15.000Z</time>
      </trkpt>
      <trkpt lat="47.26209" lon="-2.31996">
        <ele>-12</ele>
        <time>2021-03-21T11:41:16.000Z</time>
      </trkpt>
      <trkpt lat="47.26218" lon="-2.31987">
        <ele>-12</ele>
        <time>2021-03-21T11:41:19.000Z</time>
      </trkpt>
      <trkpt lat="47.26226" lon="-2.31978">
        <ele>-12</ele>
        <time>2021-03-21T11:41:22.000Z</time>
      </trkpt>
      <trkpt lat="47.26229" lon="-2.31979">
        <ele>-12</ele>
        <time>2021-03-21T11:41:23.000Z</time>
      </trkpt>
      <trkpt lat="47.26238" lon="-2.31966">
        <ele>-12</ele>
        <time>2021-03-21T11:41:26.000Z</time>
      </trkpt>
      <trkpt lat="47.26249" lon="-2.31944">
        <ele>-12</ele>
        <time>2021-03-21T11:41:31.000Z</time>
      </trkpt>
      <trkpt lat="47.26254" lon="-2.31928">
        <ele>-12</ele>
        <time>2021-03-21T11:41:35.000Z</time>
      </trkpt>
      <trkpt lat="47.26265" lon="-2.31909">
        <ele>-12</ele>
        <time>2021-03-21T11:41:40.000Z</time>
      </trkpt>
      <trkpt lat="47.26281" lon="-2.31894">
        <ele>-12</ele>
        <time>2021-03-21T11:41:44.000Z</time>
      </trkpt>
      <trkpt lat="47.26285" lon="-2.31893">
        <ele>-12</ele>
        <time>2021-03-21T11:41:45.000Z</time>
      </trkpt>
      <trkpt lat="47.26289" lon="-2.31899">
        <ele>-12</ele>
        <time>2021-03-21T11:41:47.000Z</time>
      </trkpt>
      <trkpt lat="47.26291" lon="-2.31912">
        <ele>-12</ele>
        <time>2021-03-21T11:41:50.000Z</time>
      </trkpt>
      <trkpt lat="47.26292" lon="-2.31917">
        <ele>-12</ele>
        <time>2021-03-21T11:41:51.000Z</time>
      </trkpt>
      <trkpt lat="47.263" lon="-2.31929">
        <ele>-12</ele>
        <time>2021-03-21T11:41:55.000Z</time>
      </trkpt>
      <trkpt lat="47.26301" lon="-2.31929">
        <ele>-12</ele>
        <time>2021-03-21T11:41:56.000Z</time>
      </trkpt>
      <trkpt lat="47.26318" lon="-2.31929">
        <ele>-12</ele>
        <time>2021-03-21T11:42:02.000Z</time>
      </trkpt>
      <trkpt lat="47.26335" lon="-2.3193">
        <ele>-12</ele>
        <time>2021-03-21T11:42:08.000Z</time>
      </trkpt>
      <trkpt lat="47.26344" lon="-2.3194">
        <ele>-11.60000038147</ele>
        <time>2021-03-21T11:42:12.000Z</time>
      </trkpt>
      <trkpt lat="47.26345" lon="-2.31942">
        <ele>-11.199999809265</ele>
        <time>2021-03-21T11:42:13.000Z</time>
      </trkpt>
      <trkpt lat="47.26346" lon="-2.31946">
        <ele>-10.800000190735</ele>
        <time>2021-03-21T11:42:14.000Z</time>
      </trkpt>
      <trkpt lat="47.26347" lon="-2.31949">
        <ele>-10.39999961853</ele>
        <time>2021-03-21T11:42:15.000Z</time>
      </trkpt>
      <trkpt lat="47.26348" lon="-2.31951">
        <ele>-10</ele>
        <time>2021-03-21T11:42:16.000Z</time>
      </trkpt>
      <trkpt lat="47.26349" lon="-2.31954">
        <ele>-10</ele>
        <time>2021-03-21T11:42:17.000Z</time>
      </trkpt>
      <trkpt lat="47.26356" lon="-2.31974">
        <ele>-10</ele>
        <time>2021-03-21T11:42:23.000Z</time>
      </trkpt>
      <trkpt lat="47.2636" lon="-2.31978">
        <ele>-10</ele>
        <time>2021-03-21T11:42:25.000Z</time>
      </trkpt>
      <trkpt lat="47.26366" lon="-2.31982">
        <ele>-10</ele>
        <time>2021-03-21T11:42:28.000Z</time>
      </trkpt>
      <trkpt lat="47.26378" lon="-2.31986">
        <ele>-9.3999996185303</ele>
        <time>2021-03-21T11:42:33.000Z</time>
      </trkpt>
      <trkpt lat="47.26381" lon="-2.31987">
        <ele>-8.6000003814697</ele>
        <time>2021-03-21T11:42:34.000Z</time>
      </trkpt>
      <trkpt lat="47.26384" lon="-2.31988">
        <ele>-8.1999998092651</ele>
        <time>2021-03-21T11:42:35.000Z</time>
      </trkpt>
      <trkpt lat="47.26387" lon="-2.31989">
        <ele>-7.8000001907349</ele>
        <time>2021-03-21T11:42:36.000Z</time>
      </trkpt>
      <trkpt lat="47.26397" lon="-2.3199">
        <ele>-7.8000001907349</ele>
        <time>2021-03-21T11:42:40.000Z</time>
      </trkpt>
      <trkpt lat="47.26405" lon="-2.31994">
        <ele>-7.4000000953674</ele>
        <time>2021-03-21T11:42:44.000Z</time>
      </trkpt>
      <trkpt lat="47.26407" lon="-2.31995">
        <ele>-7</ele>
        <time>2021-03-21T11:42:45.000Z</time>
      </trkpt>
      <trkpt lat="47.26409" lon="-2.31996">
        <ele>-6.5999999046326</ele>
        <time>2021-03-21T11:42:46.000Z</time>
      </trkpt>
      <trkpt lat="47.26412" lon="-2.31996">
        <ele>-6.1999998092651</ele>
        <time>2021-03-21T11:42:47.000Z</time>
      </trkpt>
      <trkpt lat="47.26416" lon="-2.31995">
        <ele>-5.8000001907349</ele>
        <time>2021-03-21T11:42:48.000Z</time>
      </trkpt>
      <trkpt lat="47.26425" lon="-2.31995">
        <ele>-5.8000001907349</ele>
        <time>2021-03-21T11:42:51.000Z</time>
      </trkpt>
      <trkpt lat="47.26439" lon="-2.31996">
        <ele>-5.4000000953674</ele>
        <time>2021-03-21T11:42:56.000Z</time>
      </trkpt>
      <trkpt lat="47.2644" lon="-2.31997">
        <ele>-5</ele>
        <time>2021-03-21T11:42:57.000Z</time>
      </trkpt>
      <trkpt lat="47.26442" lon="-2.31996">
        <ele>-4.5999999046326</ele>
        <time>2021-03-21T11:42:58.000Z</time>
      </trkpt>
      <trkpt lat="47.26444" lon="-2.31996">
        <ele>-3.7999999523163</ele>
        <time>2021-03-21T11:42:59.000Z</time>
      </trkpt>
      <trkpt lat="47.2645" lon="-2.31996">
        <ele>-3.7999999523163</ele>
        <time>2021-03-21T11:43:02.000Z</time>
      </trkpt>
      <trkpt lat="47.26461" lon="-2.31994">
        <ele>-3.7999999523163</ele>
        <time>2021-03-21T11:43:07.000Z</time>
      </trkpt>
      <trkpt lat="47.26465" lon="-2.31997">
        <ele>-3.7999999523163</ele>
        <time>2021-03-21T11:43:09.000Z</time>
      </trkpt>
      <trkpt lat="47.26467" lon="-2.31996">
        <ele>-3.4000000953674</ele>
        <time>2021-03-21T11:43:10.000Z</time>
      </trkpt>
      <trkpt lat="47.26469" lon="-2.31995">
        <ele>-3</ele>
        <time>2021-03-21T11:43:11.000Z</time>
      </trkpt>
      <trkpt lat="47.26471" lon="-2.31995">
        <ele>-2.5999999046326</ele>
        <time>2021-03-21T11:43:12.000Z</time>
      </trkpt>
      <trkpt lat="47.26474" lon="-2.31996">
        <ele>-2.2000000476837</ele>
        <time>2021-03-21T11:43:13.000Z</time>
      </trkpt>
      <trkpt lat="47.26476" lon="-2.31997">
        <ele>-1.7999999523163</ele>
        <time>2021-03-21T11:43:14.000Z</time>
      </trkpt>
      <trkpt lat="47.26479" lon="-2.31997">
        <ele>-1.7999999523163</ele>
        <time>2021-03-21T11:43:15.000Z</time>
      </trkpt>
      <trkpt lat="47.26484" lon="-2.31997">
        <ele>-1.7999999523163</ele>
        <time>2021-03-21T11:43:17.000Z</time>
      </trkpt>
      <trkpt lat="47.26502" lon="-2.31993">
        <ele>-1.7999999523163</ele>
        <time>2021-03-21T11:43:24.000Z</time>
      </trkpt>
      <trkpt lat="47.26505" lon="-2.31993">
        <ele>-1.2000000476837</ele>
        <time>2021-03-21T11:43:25.000Z</time>
      </trkpt>
      <trkpt lat="47.26507" lon="-2.31994">
        <ele>-0.80000001192093</ele>
        <time>2021-03-21T11:43:26.000Z</time>
      </trkpt>
      <trkpt lat="47.26509" lon="-2.31994">
        <ele>-0.40000000596046</ele>
        <time>2021-03-21T11:43:27.000Z</time>
      </trkpt>
      <trkpt lat="47.26511" lon="-2.31994">
        <ele>16</ele>
        <time>2021-03-21T11:43:28.000Z</time>
      </trkpt>
      <trkpt lat="47.26513" lon="-2.31995">
        <ele>0.60000002384186</ele>
        <time>2021-03-21T11:43:29.000Z</time>
      </trkpt>
      <trkpt lat="47.26524" lon="-2.32">
        <ele>1</ele>
        <time>2021-03-21T11:43:35.000Z</time>
      </trkpt>
      <trkpt lat="47.26526" lon="-2.32003">
        <ele>1.3999999761581</ele>
        <time>2021-03-21T11:43:36.000Z</time>
      </trkpt>
      <trkpt lat="47.26527" lon="-2.32004">
        <ele>1.7999999523163</ele>
        <time>2021-03-21T11:43:37.000Z</time>
      </trkpt>
      <trkpt lat="47.26529" lon="-2.32007">
        <ele>2.2000000476837</ele>
        <time>2021-03-21T11:43:38.000Z</time>
      </trkpt>
      <trkpt lat="47.26531" lon="-2.32009">
        <ele>2.5999999046326</ele>
        <time>2021-03-21T11:43:39.000Z</time>
      </trkpt>
      <trkpt lat="47.26539" lon="-2.32017">
        <ele>2.5999999046326</ele>
        <time>2021-03-21T11:43:43.000Z</time>
      </trkpt>
      <trkpt lat="47.26543" lon="-2.32028">
        <ele>2.5999999046326</ele>
        <time>2021-03-21T11:43:48.000Z</time>
      </trkpt>
      <trkpt lat="47.26546" lon="-2.32032">
        <ele>2.5999999046326</ele>
        <time>2021-03-21T11:43:50.000Z</time>
      </trkpt>
      <trkpt lat="47.26546" lon="-2.32036">
        <ele>2.5999999046326</ele>
        <time>2021-03-21T11:43:53.000Z</time>
      </trkpt>
      <trkpt lat="47.26543" lon="-2.32033">
        <ele>2.5999999046326</ele>
        <time>2021-03-21T11:43:57.000Z</time>
      </trkpt>
      <trkpt lat="47.26543" lon="-2.32031">
        <ele>2.5999999046326</ele>
        <time>2021-03-21T11:43:58.000Z</time>
      </trkpt>
      <trkpt lat="47.26541" lon="-2.32023">
        <ele>2.5999999046326</ele>
        <time>2021-03-21T11:44:02.000Z</time>
      </trkpt>
      <trkpt lat="47.26539" lon="-2.32017">
        <ele>2.5999999046326</ele>
        <time>2021-03-21T11:44:05.000Z</time>
      </trkpt>
      <trkpt lat="47.26536" lon="-2.32013">
        <ele>2.5999999046326</ele>
        <time>2021-03-21T11:44:09.000Z</time>
      </trkpt>
      <trkpt lat="47.26527" lon="-2.32003">
        <ele>2.5999999046326</ele>
        <time>2021-03-21T11:44:14.000Z</time>
      </trkpt>
      <trkpt lat="47.26516" lon="-2.31998">
        <ele>2.5999999046326</ele>
        <time>2021-03-21T11:44:20.000Z</time>
      </trkpt>
      <trkpt lat="47.26509" lon="-2.31997">
        <ele>2.2000000476837</ele>
        <time>2021-03-21T11:44:24.000Z</time>
      </trkpt>
      <trkpt lat="47.26507" lon="-2.31997">
        <ele>1.7999999523163</ele>
        <time>2021-03-21T11:44:25.000Z</time>
      </trkpt>
      <trkpt lat="47.26505" lon="-2.31997">
        <ele>1.2000000476837</ele>
        <time>2021-03-21T11:44:26.000Z</time>
      </trkpt>
      <trkpt lat="47.26503" lon="-2.31997">
        <ele>0.80000001192093</ele>
        <time>2021-03-21T11:44:27.000Z</time>
      </trkpt>
      <trkpt lat="47.265" lon="-2.31997">
        <ele>0.40000000596046</ele>
        <time>2021-03-21T11:44:28.000Z</time>
      </trkpt>
      <trkpt lat="47.26492" lon="-2.31997">
        <ele>0.40000000596046</ele>
        <time>2021-03-21T11:44:31.000Z</time>
      </trkpt>
      <trkpt lat="47.26482" lon="-2.31996">
        <ele>13.8</ele>
        <time>2021-03-21T11:44:35.000Z</time>
      </trkpt>
      <trkpt lat="47.26479" lon="-2.31995">
        <ele>-0.40000000596046</ele>
        <time>2021-03-21T11:44:36.000Z</time>
      </trkpt>
      <trkpt lat="47.26476" lon="-2.31997">
        <ele>-0.80000001192093</ele>
        <time>2021-03-21T11:44:37.000Z</time>
      </trkpt>
      <trkpt lat="47.26472" lon="-2.31998">
        <ele>-1.7999999523163</ele>
        <time>2021-03-21T11:44:38.000Z</time>
      </trkpt>
      <trkpt lat="47.26452" lon="-2.31997">
        <ele>-1.7999999523163</ele>
        <time>2021-03-21T11:44:44.000Z</time>
      </trkpt>
      <trkpt lat="47.26435" lon="-2.31995">
        <ele>-2.2000000476837</ele>
        <time>2021-03-21T11:44:48.000Z</time>
      </trkpt>
      <trkpt lat="47.26429" lon="-2.31995">
        <ele>-2.5999999046326</ele>
        <time>2021-03-21T11:44:49.000Z</time>
      </trkpt>
      <trkpt lat="47.26425" lon="-2.31995">
        <ele>-3</ele>
        <time>2021-03-21T11:44:50.000Z</time>
      </trkpt>
      <trkpt lat="47.26419" lon="-2.31994">
        <ele>-3.4000000953674</ele>
        <time>2021-03-21T11:44:51.000Z</time>
      </trkpt>
      <trkpt lat="47.26413" lon="-2.31992">
        <ele>-3.7999999523163</ele>
        <time>2021-03-21T11:44:52.000Z</time>
      </trkpt>
      <trkpt lat="47.26399" lon="-2.3199">
        <ele>-4.1999998092651</ele>
        <time>2021-03-21T11:44:55.000Z</time>
      </trkpt>
      <trkpt lat="47.26393" lon="-2.31989">
        <ele>-4.5999999046326</ele>
        <time>2021-03-21T11:44:56.000Z</time>
      </trkpt>
      <trkpt lat="47.26387" lon="-2.31988">
        <ele>-5</ele>
        <time>2021-03-21T11:44:57.000Z</time>
      </trkpt>
      <trkpt lat="47.26382" lon="-2.31989">
        <ele>-5.4000000953674</ele>
        <time>2021-03-21T11:44:58.000Z</time>
      </trkpt>
      <trkpt lat="47.26376" lon="-2.31988">
        <ele>-5.8000001907349</ele>
        <time>2021-03-21T11:44:59.000Z</time>
      </trkpt>
      <trkpt lat="47.26371" lon="-2.31988">
        <ele>-5.8000001907349</ele>
        <time>2021-03-21T11:45:00.000Z</time>
      </trkpt>
      <trkpt lat="47.26367" lon="-2.31986">
        <ele>-5.8000001907349</ele>
        <time>2021-03-21T11:45:01.000Z</time>
      </trkpt>
      <trkpt lat="47.26363" lon="-2.31981">
        <ele>-6.4000000953674</ele>
        <time>2021-03-21T11:45:02.000Z</time>
      </trkpt>
      <trkpt lat="47.26361" lon="-2.31976">
        <ele>-7.1999998092651</ele>
        <time>2021-03-21T11:45:03.000Z</time>
      </trkpt>
      <trkpt lat="47.26358" lon="-2.3197">
        <ele>-7.5999999046326</ele>
        <time>2021-03-21T11:45:04.000Z</time>
      </trkpt>
      <trkpt lat="47.26355" lon="-2.31964">
        <ele>-8</ele>
        <time>2021-03-21T11:45:05.000Z</time>
      </trkpt>
      <trkpt lat="47.26353" lon="-2.3196">
        <ele>-8</ele>
        <time>2021-03-21T11:45:06.000Z</time>
      </trkpt>
      <trkpt lat="47.26348" lon="-2.31948">
        <ele>-8</ele>
        <time>2021-03-21T11:45:08.000Z</time>
      </trkpt>
      <trkpt lat="47.26347" lon="-2.31945">
        <ele>-8.3999996185303</ele>
        <time>2021-03-21T11:45:09.000Z</time>
      </trkpt>
      <trkpt lat="47.26344" lon="-2.31942">
        <ele>-8.8000001907349</ele>
        <time>2021-03-21T11:45:10.000Z</time>
      </trkpt>
      <trkpt lat="47.2634" lon="-2.31939">
        <ele>-9.1999998092651</ele>
        <time>2021-03-21T11:45:11.000Z</time>
      </trkpt>
      <trkpt lat="47.26337" lon="-2.31938">
        <ele>-9.6000003814697</ele>
        <time>2021-03-21T11:45:12.000Z</time>
      </trkpt>
      <trkpt lat="47.26334" lon="-2.31936">
        <ele>-10</ele>
        <time>2021-03-21T11:45:13.000Z</time>
      </trkpt>
      <trkpt lat="47.26312" lon="-2.31935">
        <ele>-10</ele>
        <time>2021-03-21T11:45:19.000Z</time>
      </trkpt>
      <trkpt lat="47.2631" lon="-2.31933">
        <ele>-10</ele>
        <time>2021-03-21T11:45:20.000Z</time>
      </trkpt>
      <trkpt lat="47.26306" lon="-2.31926">
        <ele>-10</ele>
        <time>2021-03-21T11:45:22.000Z</time>
      </trkpt>
      <trkpt lat="47.26303" lon="-2.31896">
        <ele>-10</ele>
        <time>2021-03-21T11:45:27.000Z</time>
      </trkpt>
      <trkpt lat="47.26301" lon="-2.31842">
        <ele>-10</ele>
        <time>2021-03-21T11:45:35.000Z</time>
      </trkpt>
      <trkpt lat="47.263" lon="-2.31816">
        <ele>-10</ele>
        <time>2021-03-21T11:45:39.000Z</time>
      </trkpt>
      <trkpt lat="47.263" lon="-2.31812">
        <ele>-10</ele>
        <time>2021-03-21T11:45:40.000Z</time>
      </trkpt>
      <trkpt lat="47.26301" lon="-2.31777">
        <ele>-10</ele>
        <time>2021-03-21T11:45:45.000Z</time>
      </trkpt>
      <trkpt lat="47.26295" lon="-2.31735">
        <ele>-10</ele>
        <time>2021-03-21T11:45:51.000Z</time>
      </trkpt>
      <trkpt lat="47.26295" lon="-2.31728">
        <ele>-10</ele>
        <time>2021-03-21T11:45:52.000Z</time>
      </trkpt>
      <trkpt lat="47.263" lon="-2.31718">
        <ele>-10</ele>
        <time>2021-03-21T11:45:55.000Z</time>
      </trkpt>
      <trkpt lat="47.26302" lon="-2.31722">
        <ele>-10</ele>
        <time>2021-03-21T11:45:59.000Z</time>
      </trkpt>
      <trkpt lat="47.26299" lon="-2.31727">
        <ele>-10</ele>
        <time>2021-03-21T11:46:01.000Z</time>
      </trkpt>
      <trkpt lat="47.26299" lon="-2.31733">
        <ele>-10</ele>
        <time>2021-03-21T11:46:04.000Z</time>
      </trkpt>
      <trkpt lat="47.26299" lon="-2.31731">
        <ele>-10</ele>
        <time>2021-03-21T11:46:07.000Z</time>
      </trkpt>
      <trkpt lat="47.26304" lon="-2.31716">
        <ele>-10</ele>
        <time>2021-03-21T11:46:11.000Z</time>
      </trkpt>
      <trkpt lat="47.26318" lon="-2.3171">
        <ele>-10</ele>
        <time>2021-03-21T11:46:15.000Z</time>
      </trkpt>
      <trkpt lat="47.26321" lon="-2.31708">
        <ele>-10</ele>
        <time>2021-03-21T11:46:16.000Z</time>
      </trkpt>
      <trkpt lat="47.26333" lon="-2.31694">
        <ele>-10</ele>
        <time>2021-03-21T11:46:20.000Z</time>
      </trkpt>
      <trkpt lat="47.26335" lon="-2.31689">
        <ele>-10</ele>
        <time>2021-03-21T11:46:21.000Z</time>
      </trkpt>
      <trkpt lat="47.26345" lon="-2.31682">
        <ele>-10</ele>
        <time>2021-03-21T11:46:24.000Z</time>
      </trkpt>
      <trkpt lat="47.26348" lon="-2.31681">
        <ele>-9.6000003814697</ele>
        <time>2021-03-21T11:46:25.000Z</time>
      </trkpt>
      <trkpt lat="47.26351" lon="-2.3168">
        <ele>-9.1999998092651</ele>
        <time>2021-03-21T11:46:26.000Z</time>
      </trkpt>
      <trkpt lat="47.26354" lon="-2.31678">
        <ele>-8.8000001907349</ele>
        <time>2021-03-21T11:46:27.000Z</time>
      </trkpt>
      <trkpt lat="47.26357" lon="-2.31676">
        <ele>-8.1999998092651</ele>
        <time>2021-03-21T11:46:28.000Z</time>
      </trkpt>
      <trkpt lat="47.2636" lon="-2.31675">
        <ele>-7.8000001907349</ele>
        <time>2021-03-21T11:46:29.000Z</time>
      </trkpt>
      <trkpt lat="47.26363" lon="-2.31673">
        <ele>-7.8000001907349</ele>
        <time>2021-03-21T11:46:30.000Z</time>
      </trkpt>
      <trkpt lat="47.26382" lon="-2.31665">
        <ele>-7.8000001907349</ele>
        <time>2021-03-21T11:46:36.000Z</time>
      </trkpt>
      <trkpt lat="47.264" lon="-2.31657">
        <ele>-7.8000001907349</ele>
        <time>2021-03-21T11:46:42.000Z</time>
      </trkpt>
      <trkpt lat="47.26407" lon="-2.31649">
        <ele>-7.8000001907349</ele>
        <time>2021-03-21T11:46:45.000Z</time>
      </trkpt>
      <trkpt lat="47.26408" lon="-2.31646">
        <ele>-7.8000001907349</ele>
        <time>2021-03-21T11:46:46.000Z</time>
      </trkpt>
      <trkpt lat="47.26408" lon="-2.31632">
        <ele>-7.8000001907349</ele>
        <time>2021-03-21T11:46:49.000Z</time>
      </trkpt>
      <trkpt lat="47.26408" lon="-2.31627">
        <ele>-7.8000001907349</ele>
        <time>2021-03-21T11:46:50.000Z</time>
      </trkpt>
      <trkpt lat="47.26408" lon="-2.31622">
        <ele>-7.4000000953674</ele>
        <time>2021-03-21T11:46:51.000Z</time>
      </trkpt>
      <trkpt lat="47.26408" lon="-2.31617">
        <ele>-7</ele>
        <time>2021-03-21T11:46:52.000Z</time>
      </trkpt>
      <trkpt lat="47.26408" lon="-2.31612">
        <ele>-6.5999999046326</ele>
        <time>2021-03-21T11:46:53.000Z</time>
      </trkpt>
      <trkpt lat="47.26409" lon="-2.31607">
        <ele>-6.1999998092651</ele>
        <time>2021-03-21T11:46:54.000Z</time>
      </trkpt>
      <trkpt lat="47.26409" lon="-2.31602">
        <ele>-5.8000001907349</ele>
        <time>2021-03-21T11:46:55.000Z</time>
      </trkpt>
      <trkpt lat="47.26409" lon="-2.31597">
        <ele>-5.8000001907349</ele>
        <time>2021-03-21T11:46:56.000Z</time>
      </trkpt>
      <trkpt lat="47.26409" lon="-2.31569">
        <ele>-5.8000001907349</ele>
        <time>2021-03-21T11:47:02.000Z</time>
      </trkpt>
      <trkpt lat="47.26409" lon="-2.31553">
        <ele>-5.8000001907349</ele>
        <time>2021-03-21T11:47:06.000Z</time>
      </trkpt>
      <trkpt lat="47.26412" lon="-2.31551">
        <ele>-5.8000001907349</ele>
        <time>2021-03-21T11:47:07.000Z</time>
      </trkpt>
      <trkpt lat="47.26416" lon="-2.31552">
        <ele>-5.8000001907349</ele>
        <time>2021-03-21T11:47:10.000Z</time>
      </trkpt>
    </trkseg>
  </trk>
</gpx>